<?xml version="1.0" encoding="UTF-8" standalone="no" ?><gpx xmlns="http://www.topografix.com/GPX/1/1" xmlns:gpxx="http://www.garmin.com/xmlschemas/GpxExtensions/v3" xmlns:wptx1="http://www.garmin.com/xmlschemas/WaypointExtension/v1" xmlns:gpxtpx="http://www.garmin.com/xmlschemas/TrackPointExtension/v1" creator="Alpha 100 EMEA/APAC" version="1.1" xmlns:xsi="http://www.w3.org/2001/XMLSchema-instance" xsi:schemaLocation="http://www.topografix.com/GPX/1/1 http://www.topografix.com/GPX/1/1/gpx.xsd http://www.garmin.com/xmlschemas/GpxExtensions/v3 http://www8.garmin.com/xmlschemas/GpxExtensionsv3.xsd http://www.garmin.com/xmlschemas/WaypointExtension/v1 http://www8.garmin.com/xmlschemas/WaypointExtensionv1.xsd http://www.garmin.com/xmlschemas/TrackPointExtension/v1 http://www.garmin.com/xmlschemas/TrackPointExtensionv1.xsd"><metadata><link href="http://www.garmin.com"><text>Garmin International</text></link><time>2026-04-22T15:34:26Z</time></metadata><trk><name>Белл-04-22 09:34:15</name><extensions><gpxx:TrackExtension><gpxx:DisplayColor>DarkGreen</gpxx:DisplayColor></gpxx:TrackExtension></extensions><trkseg><trkpt lat="59.0921330452" lon="29.9865174294"><time>2026-04-22T12:21:47Z</time></trkpt><trkpt lat="59.0921330452" lon="29.9865174294"><time>2026-04-22T12:21:45Z</time></trkpt><trkpt lat="59.0921330452" lon="29.9864959717"><time>2026-04-22T12:21:50Z</time></trkpt><trkpt lat="59.0921330452" lon="29.9864959717"><time>2026-04-22T12:21:52Z</time></trkpt><trkpt lat="59.0921330452" lon="29.9864745140"><time>2026-04-22T12:21:55Z</time></trkpt><trkpt lat="59.0921330452" lon="29.9864745140"><time>2026-04-22T12:21:57Z</time></trkpt><trkpt lat="59.0921330452" lon="29.9864959717"><time>2026-04-22T12:22:00Z</time></trkpt><trkpt lat="59.0921330452" lon="29.9864959717"><time>2026-04-22T12:22:02Z</time></trkpt><trkpt lat="59.0921330452" lon="29.9864959717"><time>2026-04-22T12:22:05Z</time></trkpt><trkpt lat="59.0921330452" lon="29.9864959717"><time>2026-04-22T12:22:07Z</time></trkpt><trkpt lat="59.0921330452" lon="29.9864959717"><time>2026-04-22T12:22:10Z</time></trkpt><trkpt lat="59.0921330452" lon="29.9864959717"><time>2026-04-22T12:22:12Z</time></trkpt><trkpt lat="59.0921330452" lon="29.9865174294"><time>2026-04-22T12:22:15Z</time></trkpt><trkpt lat="59.0921330452" lon="29.9865174294"><time>2026-04-22T12:22:17Z</time></trkpt><trkpt lat="59.0921330452" lon="29.9865174294"><time>2026-04-22T12:22:20Z</time></trkpt><trkpt lat="59.0921330452" lon="29.9865174294"><time>2026-04-22T12:22:22Z</time></trkpt><trkpt lat="59.0921330452" lon="29.9865174294"><time>2026-04-22T12:22:25Z</time></trkpt><trkpt lat="59.0921330452" lon="29.9865174294"><time>2026-04-22T12:22:27Z</time></trkpt><trkpt lat="59.0921330452" lon="29.9864959717"><time>2026-04-22T12:22:30Z</time></trkpt><trkpt lat="59.0921330452" lon="29.9864959717"><time>2026-04-22T12:22:32Z</time></trkpt><trkpt lat="59.0921330452" lon="29.9864959717"><time>2026-04-22T12:22:35Z</time></trkpt><trkpt lat="59.0921330452" lon="29.9865174294"><time>2026-04-22T12:22:37Z</time></trkpt><trkpt lat="59.0921330452" lon="29.9865174294"><time>2026-04-22T12:22:40Z</time></trkpt><trkpt lat="59.0921330452" lon="29.9864959717"><time>2026-04-22T12:22:42Z</time></trkpt><trkpt lat="59.0921545029" lon="29.9864959717"><time>2026-04-22T12:22:45Z</time></trkpt><trkpt lat="59.0921545029" lon="29.9864959717"><time>2026-04-22T12:22:47Z</time></trkpt><trkpt lat="59.0921545029" lon="29.9864959717"><time>2026-04-22T12:22:50Z</time></trkpt><trkpt lat="59.0921545029" lon="29.9864959717"><time>2026-04-22T12:22:52Z</time></trkpt><trkpt lat="59.0921545029" lon="29.9864959717"><time>2026-04-22T12:22:55Z</time></trkpt><trkpt lat="59.0921545029" lon="29.9864959717"><time>2026-04-22T12:22:57Z</time></trkpt><trkpt lat="59.0921545029" lon="29.9864959717"><time>2026-04-22T12:23:00Z</time></trkpt><trkpt lat="59.0921545029" lon="29.9864959717"><time>2026-04-22T12:23:02Z</time></trkpt><trkpt lat="59.0921545029" lon="29.9864959717"><time>2026-04-22T12:23:05Z</time></trkpt><trkpt lat="59.0921545029" lon="29.9864959717"><time>2026-04-22T12:23:07Z</time></trkpt><trkpt lat="59.0921545029" lon="29.9864959717"><time>2026-04-22T12:23:10Z</time></trkpt><trkpt lat="59.0921545029" lon="29.9864959717"><time>2026-04-22T12:23:12Z</time></trkpt><trkpt lat="59.0921545029" lon="29.9864959717"><time>2026-04-22T12:23:15Z</time></trkpt><trkpt lat="59.0921545029" lon="29.9864959717"><time>2026-04-22T12:23:17Z</time></trkpt><trkpt lat="59.0921545029" lon="29.9864959717"><time>2026-04-22T12:23:20Z</time></trkpt><trkpt lat="59.0921545029" lon="29.9864959717"><time>2026-04-22T12:23:22Z</time></trkpt><trkpt lat="59.0921545029" lon="29.9864959717"><time>2026-04-22T12:23:25Z</time></trkpt><trkpt lat="59.0921545029" lon="29.9865174294"><time>2026-04-22T12:23:27Z</time></trkpt><trkpt lat="59.0921545029" lon="29.9865174294"><time>2026-04-22T12:23:30Z</time></trkpt><trkpt lat="59.0921545029" lon="29.9865174294"><time>2026-04-22T12:23:32Z</time></trkpt><trkpt lat="59.0921545029" lon="29.9865174294"><time>2026-04-22T12:23:35Z</time></trkpt><trkpt lat="59.0921545029" lon="29.9865174294"><time>2026-04-22T12:23:37Z</time></trkpt><trkpt lat="59.0921545029" lon="29.9865174294"><time>2026-04-22T12:23:40Z</time></trkpt><trkpt lat="59.0921545029" lon="29.9865174294"><time>2026-04-22T12:23:42Z</time></trkpt><trkpt lat="59.0921545029" lon="29.9865174294"><time>2026-04-22T12:23:45Z</time></trkpt><trkpt lat="59.0921545029" lon="29.9865174294"><time>2026-04-22T12:23:47Z</time></trkpt><trkpt lat="59.0921545029" lon="29.9865174294"><time>2026-04-22T12:23:50Z</time></trkpt><trkpt lat="59.0921545029" lon="29.9865174294"><time>2026-04-22T12:23:52Z</time></trkpt><trkpt lat="59.0921545029" lon="29.9865174294"><time>2026-04-22T12:23:55Z</time></trkpt><trkpt lat="59.0921545029" lon="29.9865174294"><time>2026-04-22T12:23:57Z</time></trkpt><trkpt lat="59.0921545029" lon="29.9865174294"><time>2026-04-22T12:24:00Z</time></trkpt><trkpt lat="59.0921545029" lon="29.9865174294"><time>2026-04-22T12:24:02Z</time></trkpt><trkpt lat="59.0921545029" lon="29.9865174294"><time>2026-04-22T12:24:05Z</time></trkpt><trkpt lat="59.0921545029" lon="29.9865174294"><time>2026-04-22T12:24:07Z</time></trkpt><trkpt lat="59.0921545029" lon="29.9865174294"><time>2026-04-22T12:24:10Z</time></trkpt><trkpt lat="59.0921545029" lon="29.9865174294"><time>2026-04-22T12:24:12Z</time></trkpt><trkpt lat="59.0921545029" lon="29.9865174294"><time>2026-04-22T12:24:15Z</time></trkpt><trkpt lat="59.0921545029" lon="29.9865174294"><time>2026-04-22T12:24:17Z</time></trkpt><trkpt lat="59.0921545029" lon="29.9865174294"><time>2026-04-22T12:24:20Z</time></trkpt><trkpt lat="59.0921545029" lon="29.9865174294"><time>2026-04-22T12:24:22Z</time></trkpt><trkpt lat="59.0921545029" lon="29.9865174294"><time>2026-04-22T12:24:25Z</time></trkpt><trkpt lat="59.0921545029" lon="29.9865174294"><time>2026-04-22T12:24:27Z</time></trkpt><trkpt lat="59.0921545029" lon="29.9865174294"><time>2026-04-22T12:24:30Z</time></trkpt><trkpt lat="59.0921545029" lon="29.9865174294"><time>2026-04-22T12:24:32Z</time></trkpt><trkpt lat="59.0921545029" lon="29.9865174294"><time>2026-04-22T12:24:35Z</time></trkpt><trkpt lat="59.0921545029" lon="29.9865174294"><time>2026-04-22T12:24:37Z</time></trkpt><trkpt lat="59.0921545029" lon="29.9865174294"><time>2026-04-22T12:24:40Z</time></trkpt><trkpt lat="59.0921545029" lon="29.9865174294"><time>2026-04-22T12:24:42Z</time></trkpt><trkpt lat="59.0921545029" lon="29.9865174294"><time>2026-04-22T12:24:45Z</time></trkpt><trkpt lat="59.0921545029" lon="29.9865174294"><time>2026-04-22T12:24:47Z</time></trkpt><trkpt lat="59.0921545029" lon="29.9865174294"><time>2026-04-22T12:24:50Z</time></trkpt><trkpt lat="59.0921545029" lon="29.9865174294"><time>2026-04-22T12:24:52Z</time></trkpt><trkpt lat="59.0921545029" lon="29.9865174294"><time>2026-04-22T12:24:55Z</time></trkpt><trkpt lat="59.0921545029" lon="29.9865174294"><time>2026-04-22T12:24:57Z</time></trkpt><trkpt lat="59.0921545029" lon="29.9865174294"><time>2026-04-22T12:25:00Z</time></trkpt><trkpt lat="59.0921545029" lon="29.9865174294"><time>2026-04-22T12:25:02Z</time></trkpt><trkpt lat="59.0921545029" lon="29.9865174294"><time>2026-04-22T12:25:05Z</time></trkpt><trkpt lat="59.0921545029" lon="29.9865174294"><time>2026-04-22T12:25:07Z</time></trkpt><trkpt lat="59.0921545029" lon="29.9865174294"><time>2026-04-22T12:25:10Z</time></trkpt><trkpt lat="59.0921545029" lon="29.9865174294"><time>2026-04-22T12:25:12Z</time></trkpt><trkpt lat="59.0921545029" lon="29.9865174294"><time>2026-04-22T12:25:15Z</time></trkpt><trkpt lat="59.0921545029" lon="29.9865174294"><time>2026-04-22T12:25:17Z</time></trkpt><trkpt lat="59.0921545029" lon="29.9865174294"><time>2026-04-22T12:25:20Z</time></trkpt><trkpt lat="59.0921545029" lon="29.9865174294"><time>2026-04-22T12:25:22Z</time></trkpt><trkpt lat="59.0921545029" lon="29.9865174294"><time>2026-04-22T12:25:25Z</time></trkpt><trkpt lat="59.0921545029" lon="29.9865388870"><time>2026-04-22T12:25:27Z</time></trkpt><trkpt lat="59.0921545029" lon="29.9865388870"><time>2026-04-22T12:25:30Z</time></trkpt><trkpt lat="59.0921545029" lon="29.9865388870"><time>2026-04-22T12:25:32Z</time></trkpt><trkpt lat="59.0921545029" lon="29.9865388870"><time>2026-04-22T12:25:35Z</time></trkpt><trkpt lat="59.0921545029" lon="29.9865388870"><time>2026-04-22T12:25:37Z</time></trkpt><trkpt lat="59.0921545029" lon="29.9865388870"><time>2026-04-22T12:25:40Z</time></trkpt><trkpt lat="59.0921545029" lon="29.9865388870"><time>2026-04-22T12:25:42Z</time></trkpt><trkpt lat="59.0921545029" lon="29.9865388870"><time>2026-04-22T12:25:45Z</time></trkpt><trkpt lat="59.0921545029" lon="29.9865388870"><time>2026-04-22T12:25:47Z</time></trkpt><trkpt lat="59.0921545029" lon="29.9865388870"><time>2026-04-22T12:25:50Z</time></trkpt><trkpt lat="59.0921545029" lon="29.9865388870"><time>2026-04-22T12:25:52Z</time></trkpt><trkpt lat="59.0921545029" lon="29.9865388870"><time>2026-04-22T12:25:55Z</time></trkpt><trkpt lat="59.0921545029" lon="29.9865388870"><time>2026-04-22T12:25:57Z</time></trkpt><trkpt lat="59.0921545029" lon="29.9865388870"><time>2026-04-22T12:26:00Z</time></trkpt><trkpt lat="59.0921545029" lon="29.9865388870"><time>2026-04-22T12:26:02Z</time></trkpt><trkpt lat="59.0921545029" lon="29.9865388870"><time>2026-04-22T12:26:05Z</time></trkpt><trkpt lat="59.0921545029" lon="29.9865388870"><time>2026-04-22T12:26:07Z</time></trkpt><trkpt lat="59.0921545029" lon="29.9865388870"><time>2026-04-22T12:26:10Z</time></trkpt><trkpt lat="59.0921545029" lon="29.9865388870"><time>2026-04-22T12:26:12Z</time></trkpt><trkpt lat="59.0921545029" lon="29.9865388870"><time>2026-04-22T12:26:15Z</time></trkpt><trkpt lat="59.0921545029" lon="29.9865388870"><time>2026-04-22T12:26:17Z</time></trkpt><trkpt lat="59.0921545029" lon="29.9865388870"><time>2026-04-22T12:26:20Z</time></trkpt><trkpt lat="59.0921545029" lon="29.9865388870"><time>2026-04-22T12:26:22Z</time></trkpt><trkpt lat="59.0921545029" lon="29.9865388870"><time>2026-04-22T12:26:25Z</time></trkpt><trkpt lat="59.0921545029" lon="29.9865388870"><time>2026-04-22T12:26:27Z</time></trkpt><trkpt lat="59.0921545029" lon="29.9865388870"><time>2026-04-22T12:26:30Z</time></trkpt><trkpt lat="59.0921545029" lon="29.9865388870"><time>2026-04-22T12:26:32Z</time></trkpt><trkpt lat="59.0921545029" lon="29.9865388870"><time>2026-04-22T12:26:35Z</time></trkpt><trkpt lat="59.0921545029" lon="29.9865388870"><time>2026-04-22T12:26:37Z</time></trkpt><trkpt lat="59.0921545029" lon="29.9865388870"><time>2026-04-22T12:26:40Z</time></trkpt><trkpt lat="59.0921545029" lon="29.9865388870"><time>2026-04-22T12:26:42Z</time></trkpt><trkpt lat="59.0921545029" lon="29.9865388870"><time>2026-04-22T12:26:45Z</time></trkpt><trkpt lat="59.0921545029" lon="29.9865388870"><time>2026-04-22T12:26:47Z</time></trkpt><trkpt lat="59.0921545029" lon="29.9865388870"><time>2026-04-22T12:26:50Z</time></trkpt><trkpt lat="59.0921545029" lon="29.9865388870"><time>2026-04-22T12:26:52Z</time></trkpt><trkpt lat="59.0921545029" lon="29.9865388870"><time>2026-04-22T12:26:55Z</time></trkpt><trkpt lat="59.0921545029" lon="29.9865388870"><time>2026-04-22T12:26:57Z</time></trkpt><trkpt lat="59.0921545029" lon="29.9865388870"><time>2026-04-22T12:27:00Z</time></trkpt><trkpt lat="59.0921545029" lon="29.9865388870"><time>2026-04-22T12:27:02Z</time></trkpt><trkpt lat="59.0921545029" lon="29.9865388870"><time>2026-04-22T12:27:05Z</time></trkpt><trkpt lat="59.0921545029" lon="29.9865388870"><time>2026-04-22T12:27:07Z</time></trkpt><trkpt lat="59.0921545029" lon="29.9865388870"><time>2026-04-22T12:27:10Z</time></trkpt><trkpt lat="59.0921545029" lon="29.9865388870"><time>2026-04-22T12:27:12Z</time></trkpt><trkpt lat="59.0921545029" lon="29.9865388870"><time>2026-04-22T12:27:15Z</time></trkpt><trkpt lat="59.0921545029" lon="29.9865388870"><time>2026-04-22T12:27:17Z</time></trkpt><trkpt lat="59.0921545029" lon="29.9865388870"><time>2026-04-22T12:27:20Z</time></trkpt><trkpt lat="59.0921545029" lon="29.9865388870"><time>2026-04-22T12:27:22Z</time></trkpt><trkpt lat="59.0921545029" lon="29.9865388870"><time>2026-04-22T12:27:25Z</time></trkpt><trkpt lat="59.0921545029" lon="29.9865388870"><time>2026-04-22T12:27:27Z</time></trkpt><trkpt lat="59.0921545029" lon="29.9865388870"><time>2026-04-22T12:27:30Z</time></trkpt><trkpt lat="59.0921545029" lon="29.9865388870"><time>2026-04-22T12:27:32Z</time></trkpt><trkpt lat="59.0921545029" lon="29.9865388870"><time>2026-04-22T12:27:35Z</time></trkpt><trkpt lat="59.0921545029" lon="29.9865388870"><time>2026-04-22T12:27:37Z</time></trkpt><trkpt lat="59.0921545029" lon="29.9865388870"><time>2026-04-22T12:27:40Z</time></trkpt><trkpt lat="59.0921545029" lon="29.9865388870"><time>2026-04-22T12:27:42Z</time></trkpt><trkpt lat="59.0921545029" lon="29.9865388870"><time>2026-04-22T12:27:45Z</time></trkpt><trkpt lat="59.0921545029" lon="29.9865388870"><time>2026-04-22T12:27:47Z</time></trkpt><trkpt lat="59.0921545029" lon="29.9865388870"><time>2026-04-22T12:27:50Z</time></trkpt><trkpt lat="59.0921545029" lon="29.9865388870"><time>2026-04-22T12:27:52Z</time></trkpt><trkpt lat="59.0921545029" lon="29.9865388870"><time>2026-04-22T12:27:55Z</time></trkpt><trkpt lat="59.0921545029" lon="29.9865388870"><time>2026-04-22T12:27:57Z</time></trkpt><trkpt lat="59.0921545029" lon="29.9865388870"><time>2026-04-22T12:28:00Z</time></trkpt><trkpt lat="59.0921545029" lon="29.9865388870"><time>2026-04-22T12:28:02Z</time></trkpt><trkpt lat="59.0921545029" lon="29.9865388870"><time>2026-04-22T12:28:05Z</time></trkpt><trkpt lat="59.0921545029" lon="29.9865388870"><time>2026-04-22T12:28:07Z</time></trkpt><trkpt lat="59.0921545029" lon="29.9865388870"><time>2026-04-22T12:28:10Z</time></trkpt><trkpt lat="59.0921545029" lon="29.9865388870"><time>2026-04-22T12:28:12Z</time></trkpt><trkpt lat="59.0921545029" lon="29.9865388870"><time>2026-04-22T12:28:15Z</time></trkpt><trkpt lat="59.0921545029" lon="29.9865388870"><time>2026-04-22T12:28:17Z</time></trkpt><trkpt lat="59.0921545029" lon="29.9865388870"><time>2026-04-22T12:28:20Z</time></trkpt><trkpt lat="59.0921545029" lon="29.9865388870"><time>2026-04-22T12:28:22Z</time></trkpt><trkpt lat="59.0921545029" lon="29.9865388870"><time>2026-04-22T12:28:25Z</time></trkpt><trkpt lat="59.0921545029" lon="29.9865388870"><time>2026-04-22T12:28:27Z</time></trkpt><trkpt lat="59.0921545029" lon="29.9865388870"><time>2026-04-22T12:28:30Z</time></trkpt><trkpt lat="59.0921545029" lon="29.9865388870"><time>2026-04-22T12:28:32Z</time></trkpt><trkpt lat="59.0921545029" lon="29.9865388870"><time>2026-04-22T12:28:35Z</time></trkpt><trkpt lat="59.0921545029" lon="29.9865388870"><time>2026-04-22T12:28:37Z</time></trkpt><trkpt lat="59.0921545029" lon="29.9865388870"><time>2026-04-22T12:28:40Z</time></trkpt><trkpt lat="59.0921545029" lon="29.9865388870"><time>2026-04-22T12:28:42Z</time></trkpt><trkpt lat="59.0921545029" lon="29.9865388870"><time>2026-04-22T12:28:45Z</time></trkpt><trkpt lat="59.0921545029" lon="29.9865388870"><time>2026-04-22T12:28:47Z</time></trkpt><trkpt lat="59.0921545029" lon="29.9865388870"><time>2026-04-22T12:28:50Z</time></trkpt><trkpt lat="59.0921545029" lon="29.9865388870"><time>2026-04-22T12:28:52Z</time></trkpt><trkpt lat="59.0921545029" lon="29.9865388870"><time>2026-04-22T12:28:55Z</time></trkpt><trkpt lat="59.0921545029" lon="29.9865388870"><time>2026-04-22T12:28:57Z</time></trkpt><trkpt lat="59.0921545029" lon="29.9865388870"><time>2026-04-22T12:29:00Z</time></trkpt><trkpt lat="59.0921545029" lon="29.9865388870"><time>2026-04-22T12:29:02Z</time></trkpt><trkpt lat="59.0921545029" lon="29.9865388870"><time>2026-04-22T12:29:05Z</time></trkpt><trkpt lat="59.0921545029" lon="29.9865388870"><time>2026-04-22T12:29:07Z</time></trkpt><trkpt lat="59.0921545029" lon="29.9865388870"><time>2026-04-22T12:29:10Z</time></trkpt><trkpt lat="59.0921545029" lon="29.9865388870"><time>2026-04-22T12:29:12Z</time></trkpt><trkpt lat="59.0921545029" lon="29.9865388870"><time>2026-04-22T12:29:15Z</time></trkpt><trkpt lat="59.0921545029" lon="29.9865388870"><time>2026-04-22T12:29:17Z</time></trkpt><trkpt lat="59.0921545029" lon="29.9865388870"><time>2026-04-22T12:29:20Z</time></trkpt><trkpt lat="59.0921545029" lon="29.9865388870"><time>2026-04-22T12:29:22Z</time></trkpt><trkpt lat="59.0921545029" lon="29.9865388870"><time>2026-04-22T12:29:25Z</time></trkpt><trkpt lat="59.0921545029" lon="29.9865388870"><time>2026-04-22T12:29:27Z</time></trkpt><trkpt lat="59.0921545029" lon="29.9865388870"><time>2026-04-22T12:29:30Z</time></trkpt><trkpt lat="59.0921545029" lon="29.9865388870"><time>2026-04-22T12:29:32Z</time></trkpt><trkpt lat="59.0921545029" lon="29.9865388870"><time>2026-04-22T12:29:35Z</time></trkpt><trkpt lat="59.0921545029" lon="29.9865388870"><time>2026-04-22T12:29:37Z</time></trkpt><trkpt lat="59.0921545029" lon="29.9865388870"><time>2026-04-22T12:29:40Z</time></trkpt><trkpt lat="59.0921545029" lon="29.9865388870"><time>2026-04-22T12:29:42Z</time></trkpt><trkpt lat="59.0921545029" lon="29.9865388870"><time>2026-04-22T12:29:45Z</time></trkpt><trkpt lat="59.0921545029" lon="29.9865388870"><time>2026-04-22T12:29:47Z</time></trkpt><trkpt lat="59.0921545029" lon="29.9865388870"><time>2026-04-22T12:29:50Z</time></trkpt><trkpt lat="59.0921545029" lon="29.9865388870"><time>2026-04-22T12:29:52Z</time></trkpt><trkpt lat="59.0921545029" lon="29.9865388870"><time>2026-04-22T12:29:55Z</time></trkpt><trkpt lat="59.0921545029" lon="29.9865388870"><time>2026-04-22T12:29:57Z</time></trkpt><trkpt lat="59.0921545029" lon="29.9865388870"><time>2026-04-22T12:30:00Z</time></trkpt><trkpt lat="59.0921545029" lon="29.9865388870"><time>2026-04-22T12:30:02Z</time></trkpt><trkpt lat="59.0921545029" lon="29.9865388870"><time>2026-04-22T12:30:05Z</time></trkpt><trkpt lat="59.0921545029" lon="29.9865603447"><time>2026-04-22T12:30:07Z</time></trkpt><trkpt lat="59.0921545029" lon="29.9865603447"><time>2026-04-22T12:30:10Z</time></trkpt><trkpt lat="59.0921545029" lon="29.9865603447"><time>2026-04-22T12:30:12Z</time></trkpt><trkpt lat="59.0921545029" lon="29.9865603447"><time>2026-04-22T12:30:15Z</time></trkpt><trkpt lat="59.0921545029" lon="29.9865603447"><time>2026-04-22T12:30:17Z</time></trkpt><trkpt lat="59.0921545029" lon="29.9865603447"><time>2026-04-22T12:30:20Z</time></trkpt><trkpt lat="59.0921545029" lon="29.9865603447"><time>2026-04-22T12:30:22Z</time></trkpt><trkpt lat="59.0921545029" lon="29.9865603447"><time>2026-04-22T12:30:25Z</time></trkpt><trkpt lat="59.0921545029" lon="29.9865603447"><time>2026-04-22T12:30:27Z</time></trkpt><trkpt lat="59.0921545029" lon="29.9865603447"><time>2026-04-22T12:30:30Z</time></trkpt><trkpt lat="59.0921545029" lon="29.9865603447"><time>2026-04-22T12:30:32Z</time></trkpt><trkpt lat="59.0921545029" lon="29.9865603447"><time>2026-04-22T12:30:35Z</time></trkpt><trkpt lat="59.0921545029" lon="29.9865603447"><time>2026-04-22T12:30:37Z</time></trkpt><trkpt lat="59.0921545029" lon="29.9865603447"><time>2026-04-22T12:30:40Z</time></trkpt><trkpt lat="59.0921545029" lon="29.9865603447"><time>2026-04-22T12:30:42Z</time></trkpt><trkpt lat="59.0921545029" lon="29.9865603447"><time>2026-04-22T12:30:45Z</time></trkpt><trkpt lat="59.0921545029" lon="29.9865603447"><time>2026-04-22T12:30:47Z</time></trkpt><trkpt lat="59.0921545029" lon="29.9865603447"><time>2026-04-22T12:30:50Z</time></trkpt><trkpt lat="59.0921545029" lon="29.9865603447"><time>2026-04-22T12:30:52Z</time></trkpt><trkpt lat="59.0921545029" lon="29.9865603447"><time>2026-04-22T12:30:55Z</time></trkpt><trkpt lat="59.0921545029" lon="29.9865603447"><time>2026-04-22T12:30:57Z</time></trkpt><trkpt lat="59.0921545029" lon="29.9865603447"><time>2026-04-22T12:31:00Z</time></trkpt><trkpt lat="59.0921545029" lon="29.9865603447"><time>2026-04-22T12:31:02Z</time></trkpt><trkpt lat="59.0921545029" lon="29.9865603447"><time>2026-04-22T12:31:05Z</time></trkpt><trkpt lat="59.0921545029" lon="29.9865603447"><time>2026-04-22T12:31:07Z</time></trkpt><trkpt lat="59.0921545029" lon="29.9865603447"><time>2026-04-22T12:31:10Z</time></trkpt><trkpt lat="59.0921545029" lon="29.9865603447"><time>2026-04-22T12:31:12Z</time></trkpt><trkpt lat="59.0921545029" lon="29.9865603447"><time>2026-04-22T12:31:15Z</time></trkpt><trkpt lat="59.0921545029" lon="29.9865603447"><time>2026-04-22T12:31:17Z</time></trkpt><trkpt lat="59.0921545029" lon="29.9865603447"><time>2026-04-22T12:31:20Z</time></trkpt><trkpt lat="59.0921545029" lon="29.9865603447"><time>2026-04-22T12:31:22Z</time></trkpt><trkpt lat="59.0921545029" lon="29.9865603447"><time>2026-04-22T12:31:25Z</time></trkpt><trkpt lat="59.0921545029" lon="29.9865603447"><time>2026-04-22T12:31:27Z</time></trkpt><trkpt lat="59.0921545029" lon="29.9865603447"><time>2026-04-22T12:31:30Z</time></trkpt><trkpt lat="59.0921545029" lon="29.9865603447"><time>2026-04-22T12:31:32Z</time></trkpt><trkpt lat="59.0921545029" lon="29.9865603447"><time>2026-04-22T12:31:35Z</time></trkpt><trkpt lat="59.0921545029" lon="29.9865603447"><time>2026-04-22T12:31:37Z</time></trkpt><trkpt lat="59.0921545029" lon="29.9865603447"><time>2026-04-22T12:31:40Z</time></trkpt><trkpt lat="59.0921545029" lon="29.9865603447"><time>2026-04-22T12:31:42Z</time></trkpt><trkpt lat="59.0921545029" lon="29.9865603447"><time>2026-04-22T12:31:45Z</time></trkpt><trkpt lat="59.0921545029" lon="29.9865603447"><time>2026-04-22T12:31:47Z</time></trkpt><trkpt lat="59.0921545029" lon="29.9865603447"><time>2026-04-22T12:31:50Z</time></trkpt><trkpt lat="59.0921545029" lon="29.9865603447"><time>2026-04-22T12:31:52Z</time></trkpt><trkpt lat="59.0921545029" lon="29.9865603447"><time>2026-04-22T12:31:55Z</time></trkpt><trkpt lat="59.0921545029" lon="29.9865603447"><time>2026-04-22T12:31:57Z</time></trkpt><trkpt lat="59.0921545029" lon="29.9865603447"><time>2026-04-22T12:32:00Z</time></trkpt><trkpt lat="59.0921545029" lon="29.9865603447"><time>2026-04-22T12:32:02Z</time></trkpt><trkpt lat="59.0921545029" lon="29.9865603447"><time>2026-04-22T12:32:05Z</time></trkpt><trkpt lat="59.0921545029" lon="29.9865603447"><time>2026-04-22T12:32:07Z</time></trkpt><trkpt lat="59.0921545029" lon="29.9865603447"><time>2026-04-22T12:32:10Z</time></trkpt><trkpt lat="59.0921545029" lon="29.9865603447"><time>2026-04-22T12:32:12Z</time></trkpt><trkpt lat="59.0921545029" lon="29.9865603447"><time>2026-04-22T12:32:15Z</time></trkpt><trkpt lat="59.0921545029" lon="29.9865388870"><time>2026-04-22T12:32:17Z</time></trkpt><trkpt lat="59.0921545029" lon="29.9865388870"><time>2026-04-22T12:32:20Z</time></trkpt><trkpt lat="59.0921545029" lon="29.9865388870"><time>2026-04-22T12:32:22Z</time></trkpt><trkpt lat="59.0921545029" lon="29.9865388870"><time>2026-04-22T12:32:25Z</time></trkpt><trkpt lat="59.0921545029" lon="29.9865388870"><time>2026-04-22T12:32:27Z</time></trkpt><trkpt lat="59.0921545029" lon="29.9865388870"><time>2026-04-22T12:32:30Z</time></trkpt><trkpt lat="59.0921545029" lon="29.9865388870"><time>2026-04-22T12:32:32Z</time></trkpt><trkpt lat="59.0921545029" lon="29.9865388870"><time>2026-04-22T12:32:35Z</time></trkpt><trkpt lat="59.0921545029" lon="29.9865388870"><time>2026-04-22T12:32:37Z</time></trkpt><trkpt lat="59.0921545029" lon="29.9865388870"><time>2026-04-22T12:32:40Z</time></trkpt><trkpt lat="59.0921545029" lon="29.9865388870"><time>2026-04-22T12:32:42Z</time></trkpt><trkpt lat="59.0921545029" lon="29.9865388870"><time>2026-04-22T12:32:45Z</time></trkpt><trkpt lat="59.0921545029" lon="29.9865388870"><time>2026-04-22T12:32:47Z</time></trkpt><trkpt lat="59.0921545029" lon="29.9865388870"><time>2026-04-22T12:32:50Z</time></trkpt><trkpt lat="59.0921545029" lon="29.9865603447"><time>2026-04-22T12:32:52Z</time></trkpt><trkpt lat="59.0921545029" lon="29.9865603447"><time>2026-04-22T12:32:55Z</time></trkpt><trkpt lat="59.0921545029" lon="29.9865603447"><time>2026-04-22T12:32:57Z</time></trkpt><trkpt lat="59.0921545029" lon="29.9865603447"><time>2026-04-22T12:33:00Z</time></trkpt><trkpt lat="59.0921545029" lon="29.9865603447"><time>2026-04-22T12:33:02Z</time></trkpt><trkpt lat="59.0921545029" lon="29.9865603447"><time>2026-04-22T12:33:05Z</time></trkpt><trkpt lat="59.0921545029" lon="29.9865603447"><time>2026-04-22T12:33:07Z</time></trkpt><trkpt lat="59.0921545029" lon="29.9865603447"><time>2026-04-22T12:33:10Z</time></trkpt><trkpt lat="59.0921545029" lon="29.9865388870"><time>2026-04-22T12:33:12Z</time></trkpt><trkpt lat="59.0921545029" lon="29.9865388870"><time>2026-04-22T12:33:15Z</time></trkpt><trkpt lat="59.0921545029" lon="29.9865388870"><time>2026-04-22T12:33:17Z</time></trkpt><trkpt lat="59.0921545029" lon="29.9865388870"><time>2026-04-22T12:33:20Z</time></trkpt><trkpt lat="59.0921545029" lon="29.9865388870"><time>2026-04-22T12:33:22Z</time></trkpt><trkpt lat="59.0921545029" lon="29.9865388870"><time>2026-04-22T12:33:25Z</time></trkpt><trkpt lat="59.0921759605" lon="29.9865603447"><time>2026-04-22T12:33:27Z</time></trkpt><trkpt lat="59.0921974182" lon="29.9865603447"><time>2026-04-22T12:33:30Z</time></trkpt><trkpt lat="59.0921974182" lon="29.9865603447"><time>2026-04-22T12:33:32Z</time></trkpt><trkpt lat="59.0922188759" lon="29.9866032600"><time>2026-04-22T12:33:35Z</time></trkpt><trkpt lat="59.0922403336" lon="29.9866247177"><time>2026-04-22T12:33:37Z</time></trkpt><trkpt lat="59.0922403336" lon="29.9865818024"><time>2026-04-22T12:33:40Z</time></trkpt><trkpt lat="59.0922403336" lon="29.9865603447"><time>2026-04-22T12:33:42Z</time></trkpt><trkpt lat="59.0922617912" lon="29.9865388870"><time>2026-04-22T12:33:45Z</time></trkpt><trkpt lat="59.0922403336" lon="29.9865388870"><time>2026-04-22T12:33:47Z</time></trkpt><trkpt lat="59.0922403336" lon="29.9865388870"><time>2026-04-22T12:33:50Z</time></trkpt><trkpt lat="59.0922403336" lon="29.9865174294"><time>2026-04-22T12:33:52Z</time></trkpt><trkpt lat="59.0922617912" lon="29.9865388870"><time>2026-04-22T12:33:55Z</time></trkpt><trkpt lat="59.0922617912" lon="29.9865603447"><time>2026-04-22T12:33:57Z</time></trkpt><trkpt lat="59.0922403336" lon="29.9865603447"><time>2026-04-22T12:34:00Z</time></trkpt><trkpt lat="59.0922403336" lon="29.9865603447"><time>2026-04-22T12:34:02Z</time></trkpt><trkpt lat="59.0922403336" lon="29.9865603447"><time>2026-04-22T12:34:05Z</time></trkpt><trkpt lat="59.0922403336" lon="29.9865603447"><time>2026-04-22T12:34:07Z</time></trkpt><trkpt lat="59.0922617912" lon="29.9866461754"><time>2026-04-22T12:34:10Z</time></trkpt><trkpt lat="59.0922617912" lon="29.9866676331"><time>2026-04-22T12:34:12Z</time></trkpt><trkpt lat="59.0922617912" lon="29.9866247177"><time>2026-04-22T12:34:15Z</time></trkpt><trkpt lat="59.0922617912" lon="29.9866032600"><time>2026-04-22T12:34:17Z</time></trkpt><trkpt lat="59.0922617912" lon="29.9866247177"><time>2026-04-22T12:34:20Z</time></trkpt><trkpt lat="59.0922617912" lon="29.9866461754"><time>2026-04-22T12:34:22Z</time></trkpt><trkpt lat="59.0922617912" lon="29.9866676331"><time>2026-04-22T12:34:25Z</time></trkpt><trkpt lat="59.0922617912" lon="29.9866676331"><time>2026-04-22T12:34:27Z</time></trkpt><trkpt lat="59.0922617912" lon="29.9866676331"><time>2026-04-22T12:34:30Z</time></trkpt><trkpt lat="59.0922617912" lon="29.9866676331"><time>2026-04-22T12:34:32Z</time></trkpt><trkpt lat="59.0922617912" lon="29.9866890907"><time>2026-04-22T12:34:35Z</time></trkpt><trkpt lat="59.0922617912" lon="29.9867534637"><time>2026-04-22T12:34:37Z</time></trkpt><trkpt lat="59.0922617912" lon="29.9868392944"><time>2026-04-22T12:34:40Z</time></trkpt><trkpt lat="59.0922832489" lon="29.9869251251"><time>2026-04-22T12:34:42Z</time></trkpt><trkpt lat="59.0922832489" lon="29.9870324135"><time>2026-04-22T12:34:45Z</time></trkpt><trkpt lat="59.0922832489" lon="29.9871182442"><time>2026-04-22T12:34:47Z</time></trkpt><trkpt lat="59.0922832489" lon="29.9872040749"><time>2026-04-22T12:34:50Z</time></trkpt><trkpt lat="59.0922832489" lon="29.9872469902"><time>2026-04-22T12:34:52Z</time></trkpt><trkpt lat="59.0923047066" lon="29.9873328209"><time>2026-04-22T12:34:55Z</time></trkpt><trkpt lat="59.0923047066" lon="29.9873757362"><time>2026-04-22T12:34:57Z</time></trkpt><trkpt lat="59.0923261642" lon="29.9874830246"><time>2026-04-22T12:35:00Z</time></trkpt><trkpt lat="59.0923476219" lon="29.9875903130"><time>2026-04-22T12:35:02Z</time></trkpt><trkpt lat="59.0923690796" lon="29.9876117706"><time>2026-04-22T12:35:05Z</time></trkpt><trkpt lat="59.0923905373" lon="29.9875903130"><time>2026-04-22T12:35:07Z</time></trkpt><trkpt lat="59.0924334526" lon="29.9876976013"><time>2026-04-22T12:35:10Z</time></trkpt><trkpt lat="59.0924334526" lon="29.9877619743"><time>2026-04-22T12:35:12Z</time></trkpt><trkpt lat="59.0924119949" lon="29.9878263474"><time>2026-04-22T12:35:15Z</time></trkpt><trkpt lat="59.0924334526" lon="29.9878692627"><time>2026-04-22T12:35:17Z</time></trkpt><trkpt lat="59.0924334526" lon="29.9879336357"><time>2026-04-22T12:35:20Z</time></trkpt><trkpt lat="59.0924334526" lon="29.9879980087"><time>2026-04-22T12:35:22Z</time></trkpt><trkpt lat="59.0924334526" lon="29.9880838394"><time>2026-04-22T12:35:25Z</time></trkpt><trkpt lat="59.0924334526" lon="29.9881267548"><time>2026-04-22T12:35:27Z</time></trkpt><trkpt lat="59.0924763680" lon="29.9881482124"><time>2026-04-22T12:35:30Z</time></trkpt><trkpt lat="59.0924763680" lon="29.9882125854"><time>2026-04-22T12:35:32Z</time></trkpt><trkpt lat="59.0924763680" lon="29.9882984161"><time>2026-04-22T12:35:35Z</time></trkpt><trkpt lat="59.0924978256" lon="29.9883413315"><time>2026-04-22T12:35:37Z</time></trkpt><trkpt lat="59.0925192833" lon="29.9883842468"><time>2026-04-22T12:35:40Z</time></trkpt><trkpt lat="59.0925192833" lon="29.9884486198"><time>2026-04-22T12:35:42Z</time></trkpt><trkpt lat="59.0925621986" lon="29.9885559082"><time>2026-04-22T12:35:45Z</time></trkpt><trkpt lat="59.0925836563" lon="29.9886846542"><time>2026-04-22T12:35:47Z</time></trkpt><trkpt lat="59.0925836563" lon="29.9886846542"><time>2026-04-22T12:35:50Z</time></trkpt><trkpt lat="59.0926265717" lon="29.9886846542"><time>2026-04-22T12:35:52Z</time></trkpt><trkpt lat="59.0926480293" lon="29.9887919426"><time>2026-04-22T12:35:55Z</time></trkpt><trkpt lat="59.0926480293" lon="29.9887919426"><time>2026-04-22T12:35:57Z</time></trkpt><trkpt lat="59.0926480293" lon="29.9888134003"><time>2026-04-22T12:36:00Z</time></trkpt><trkpt lat="59.0926694870" lon="29.9888992310"><time>2026-04-22T12:36:02Z</time></trkpt><trkpt lat="59.0926909447" lon="29.9889850616"><time>2026-04-22T12:36:05Z</time></trkpt><trkpt lat="59.0926909447" lon="29.9889850616"><time>2026-04-22T12:36:07Z</time></trkpt><trkpt lat="59.0927124023" lon="29.9890923500"><time>2026-04-22T12:36:10Z</time></trkpt><trkpt lat="59.0927124023" lon="29.9891567230"><time>2026-04-22T12:36:12Z</time></trkpt><trkpt lat="59.0927124023" lon="29.9892425537"><time>2026-04-22T12:36:15Z</time></trkpt><trkpt lat="59.0927124023" lon="29.9892640114"><time>2026-04-22T12:36:17Z</time></trkpt><trkpt lat="59.0927338600" lon="29.9893283844"><time>2026-04-22T12:36:20Z</time></trkpt><trkpt lat="59.0927553177" lon="29.9893283844"><time>2026-04-22T12:36:22Z</time></trkpt><trkpt lat="59.0927553177" lon="29.9893498421"><time>2026-04-22T12:36:25Z</time></trkpt><trkpt lat="59.0927767754" lon="29.9894356728"><time>2026-04-22T12:36:27Z</time></trkpt><trkpt lat="59.0927982330" lon="29.9895215034"><time>2026-04-22T12:36:30Z</time></trkpt><trkpt lat="59.0927982330" lon="29.9895644188"><time>2026-04-22T12:36:32Z</time></trkpt><trkpt lat="59.0927982330" lon="29.9896502495"><time>2026-04-22T12:36:35Z</time></trkpt><trkpt lat="59.0927982330" lon="29.9896931648"><time>2026-04-22T12:36:37Z</time></trkpt><trkpt lat="59.0927982330" lon="29.9898219109"><time>2026-04-22T12:36:40Z</time></trkpt><trkpt lat="59.0928411484" lon="29.9899077415"><time>2026-04-22T12:36:42Z</time></trkpt><trkpt lat="59.0928411484" lon="29.9899935722"><time>2026-04-22T12:36:45Z</time></trkpt><trkpt lat="59.0928411484" lon="29.9900150299"><time>2026-04-22T12:36:47Z</time></trkpt><trkpt lat="59.0928411484" lon="29.9901223183"><time>2026-04-22T12:36:50Z</time></trkpt><trkpt lat="59.0928411484" lon="29.9901866913"><time>2026-04-22T12:36:52Z</time></trkpt><trkpt lat="59.0928626060" lon="29.9902725220"><time>2026-04-22T12:36:55Z</time></trkpt><trkpt lat="59.0928840637" lon="29.9903154373"><time>2026-04-22T12:36:57Z</time></trkpt><trkpt lat="59.0929055214" lon="29.9904012680"><time>2026-04-22T12:37:00Z</time></trkpt><trkpt lat="59.0929269791" lon="29.9904656410"><time>2026-04-22T12:37:02Z</time></trkpt><trkpt lat="59.0929269791" lon="29.9905300140"><time>2026-04-22T12:37:05Z</time></trkpt><trkpt lat="59.0929269791" lon="29.9905729294"><time>2026-04-22T12:37:07Z</time></trkpt><trkpt lat="59.0929484367" lon="29.9907016754"><time>2026-04-22T12:37:10Z</time></trkpt><trkpt lat="59.0929269791" lon="29.9907231331"><time>2026-04-22T12:37:12Z</time></trkpt><trkpt lat="59.0929269791" lon="29.9907231331"><time>2026-04-22T12:37:15Z</time></trkpt><trkpt lat="59.0929698944" lon="29.9907875061"><time>2026-04-22T12:37:17Z</time></trkpt><trkpt lat="59.0930128098" lon="29.9908947945"><time>2026-04-22T12:37:20Z</time></trkpt><trkpt lat="59.0930342674" lon="29.9909591675"><time>2026-04-22T12:37:22Z</time></trkpt><trkpt lat="59.0930342674" lon="29.9910235405"><time>2026-04-22T12:37:25Z</time></trkpt><trkpt lat="59.0930342674" lon="29.9910664558"><time>2026-04-22T12:37:27Z</time></trkpt><trkpt lat="59.0930557251" lon="29.9911308289"><time>2026-04-22T12:37:30Z</time></trkpt><trkpt lat="59.0930557251" lon="29.9911522865"><time>2026-04-22T12:37:32Z</time></trkpt><trkpt lat="59.0930557251" lon="29.9912595749"><time>2026-04-22T12:37:35Z</time></trkpt><trkpt lat="59.0930771828" lon="29.9913239479"><time>2026-04-22T12:37:37Z</time></trkpt><trkpt lat="59.0930771828" lon="29.9914097786"><time>2026-04-22T12:37:40Z</time></trkpt><trkpt lat="59.0930771828" lon="29.9914312363"><time>2026-04-22T12:37:42Z</time></trkpt><trkpt lat="59.0931200981" lon="29.9914741516"><time>2026-04-22T12:37:45Z</time></trkpt><trkpt lat="59.0931200981" lon="29.9915170670"><time>2026-04-22T12:37:47Z</time></trkpt><trkpt lat="59.0931415558" lon="29.9915814400"><time>2026-04-22T12:37:50Z</time></trkpt><trkpt lat="59.0931415558" lon="29.9915599823"><time>2026-04-22T12:37:52Z</time></trkpt><trkpt lat="59.0931200981" lon="29.9915814400"><time>2026-04-22T12:37:55Z</time></trkpt><trkpt lat="59.0931200981" lon="29.9915814400"><time>2026-04-22T12:37:57Z</time></trkpt><trkpt lat="59.0931630135" lon="29.9916243553"><time>2026-04-22T12:38:00Z</time></trkpt><trkpt lat="59.0932273865" lon="29.9917101860"><time>2026-04-22T12:38:02Z</time></trkpt><trkpt lat="59.0932917595" lon="29.9918603897"><time>2026-04-22T12:38:05Z</time></trkpt><trkpt lat="59.0932917595" lon="29.9920105934"><time>2026-04-22T12:38:07Z</time></trkpt><trkpt lat="59.0932917595" lon="29.9921607971"><time>2026-04-22T12:38:10Z</time></trkpt><trkpt lat="59.0932917595" lon="29.9922466278"><time>2026-04-22T12:38:12Z</time></trkpt><trkpt lat="59.0933132172" lon="29.9923539162"><time>2026-04-22T12:38:15Z</time></trkpt><trkpt lat="59.0932917595" lon="29.9924182892"><time>2026-04-22T12:38:17Z</time></trkpt><trkpt lat="59.0932703018" lon="29.9924826622"><time>2026-04-22T12:38:20Z</time></trkpt><trkpt lat="59.0932917595" lon="29.9925255775"><time>2026-04-22T12:38:22Z</time></trkpt><trkpt lat="59.0932917595" lon="29.9925899506"><time>2026-04-22T12:38:25Z</time></trkpt><trkpt lat="59.0933132172" lon="29.9926328659"><time>2026-04-22T12:38:27Z</time></trkpt><trkpt lat="59.0933132172" lon="29.9927401543"><time>2026-04-22T12:38:30Z</time></trkpt><trkpt lat="59.0933346748" lon="29.9928045273"><time>2026-04-22T12:38:32Z</time></trkpt><trkpt lat="59.0933561325" lon="29.9928689003"><time>2026-04-22T12:38:35Z</time></trkpt><trkpt lat="59.0933561325" lon="29.9928903580"><time>2026-04-22T12:38:37Z</time></trkpt><trkpt lat="59.0933561325" lon="29.9928689003"><time>2026-04-22T12:38:40Z</time></trkpt><trkpt lat="59.0933561325" lon="29.9928689003"><time>2026-04-22T12:38:42Z</time></trkpt><trkpt lat="59.0933561325" lon="29.9928689003"><time>2026-04-22T12:38:45Z</time></trkpt><trkpt lat="59.0933561325" lon="29.9928689003"><time>2026-04-22T12:38:47Z</time></trkpt><trkpt lat="59.0933775902" lon="29.9929332733"><time>2026-04-22T12:38:50Z</time></trkpt><trkpt lat="59.0933775902" lon="29.9930834770"><time>2026-04-22T12:38:52Z</time></trkpt><trkpt lat="59.0934205055" lon="29.9932980537"><time>2026-04-22T12:38:55Z</time></trkpt><trkpt lat="59.0934634209" lon="29.9933624268"><time>2026-04-22T12:38:57Z</time></trkpt><trkpt lat="59.0934634209" lon="29.9933409691"><time>2026-04-22T12:39:00Z</time></trkpt><trkpt lat="59.0934848785" lon="29.9933838844"><time>2026-04-22T12:39:02Z</time></trkpt><trkpt lat="59.0934848785" lon="29.9934697151"><time>2026-04-22T12:39:05Z</time></trkpt><trkpt lat="59.0935063362" lon="29.9935126305"><time>2026-04-22T12:39:07Z</time></trkpt><trkpt lat="59.0935277939" lon="29.9935555458"><time>2026-04-22T12:39:10Z</time></trkpt><trkpt lat="59.0935492516" lon="29.9935984612"><time>2026-04-22T12:39:12Z</time></trkpt><trkpt lat="59.0935707092" lon="29.9936413765"><time>2026-04-22T12:39:15Z</time></trkpt><trkpt lat="59.0935921669" lon="29.9936842918"><time>2026-04-22T12:39:17Z</time></trkpt><trkpt lat="59.0936136246" lon="29.9937915802"><time>2026-04-22T12:39:20Z</time></trkpt><trkpt lat="59.0936350822" lon="29.9938130379"><time>2026-04-22T12:39:22Z</time></trkpt><trkpt lat="59.0936779976" lon="29.9938988686"><time>2026-04-22T12:39:25Z</time></trkpt><trkpt lat="59.0936779976" lon="29.9939417839"><time>2026-04-22T12:39:27Z</time></trkpt><trkpt lat="59.0936994553" lon="29.9940061569"><time>2026-04-22T12:39:30Z</time></trkpt><trkpt lat="59.0936994553" lon="29.9940490723"><time>2026-04-22T12:39:32Z</time></trkpt><trkpt lat="59.0936994553" lon="29.9940490723"><time>2026-04-22T12:39:35Z</time></trkpt><trkpt lat="59.0936994553" lon="29.9940490723"><time>2026-04-22T12:39:37Z</time></trkpt><trkpt lat="59.0936994553" lon="29.9941563606"><time>2026-04-22T12:39:40Z</time></trkpt><trkpt lat="59.0936779976" lon="29.9942207336"><time>2026-04-22T12:39:42Z</time></trkpt><trkpt lat="59.0936994553" lon="29.9943065643"><time>2026-04-22T12:39:45Z</time></trkpt><trkpt lat="59.0936994553" lon="29.9943709373"><time>2026-04-22T12:39:47Z</time></trkpt><trkpt lat="59.0936994553" lon="29.9943280220"><time>2026-04-22T12:39:50Z</time></trkpt><trkpt lat="59.0936994553" lon="29.9943280220"><time>2026-04-22T12:39:52Z</time></trkpt><trkpt lat="59.0936994553" lon="29.9943280220"><time>2026-04-22T12:39:55Z</time></trkpt><trkpt lat="59.0936994553" lon="29.9943280220"><time>2026-04-22T12:39:57Z</time></trkpt><trkpt lat="59.0936994553" lon="29.9944996834"><time>2026-04-22T12:40:00Z</time></trkpt><trkpt lat="59.0937423706" lon="29.9946069717"><time>2026-04-22T12:40:02Z</time></trkpt><trkpt lat="59.0937638283" lon="29.9947571754"><time>2026-04-22T12:40:05Z</time></trkpt><trkpt lat="59.0937638283" lon="29.9948430061"><time>2026-04-22T12:40:07Z</time></trkpt><trkpt lat="59.0937852859" lon="29.9949717522"><time>2026-04-22T12:40:10Z</time></trkpt><trkpt lat="59.0937852859" lon="29.9950146675"><time>2026-04-22T12:40:12Z</time></trkpt><trkpt lat="59.0937638283" lon="29.9949717522"><time>2026-04-22T12:40:15Z</time></trkpt><trkpt lat="59.0937423706" lon="29.9949717522"><time>2026-04-22T12:40:17Z</time></trkpt><trkpt lat="59.0937638283" lon="29.9950146675"><time>2026-04-22T12:40:20Z</time></trkpt><trkpt lat="59.0937638283" lon="29.9950361252"><time>2026-04-22T12:40:22Z</time></trkpt><trkpt lat="59.0937638283" lon="29.9950361252"><time>2026-04-22T12:40:25Z</time></trkpt><trkpt lat="59.0937638283" lon="29.9950361252"><time>2026-04-22T12:40:27Z</time></trkpt><trkpt lat="59.0937638283" lon="29.9950575829"><time>2026-04-22T12:40:30Z</time></trkpt><trkpt lat="59.0937852859" lon="29.9951219559"><time>2026-04-22T12:40:32Z</time></trkpt><trkpt lat="59.0937852859" lon="29.9951648712"><time>2026-04-22T12:40:35Z</time></trkpt><trkpt lat="59.0937852859" lon="29.9951648712"><time>2026-04-22T12:40:37Z</time></trkpt><trkpt lat="59.0937852859" lon="29.9951648712"><time>2026-04-22T12:40:40Z</time></trkpt><trkpt lat="59.0937638283" lon="29.9951434135"><time>2026-04-22T12:40:42Z</time></trkpt><trkpt lat="59.0937852859" lon="29.9951219559"><time>2026-04-22T12:40:45Z</time></trkpt><trkpt lat="59.0937852859" lon="29.9951434135"><time>2026-04-22T12:40:47Z</time></trkpt><trkpt lat="59.0937852859" lon="29.9952507019"><time>2026-04-22T12:40:50Z</time></trkpt><trkpt lat="59.0938067436" lon="29.9952721596"><time>2026-04-22T12:40:52Z</time></trkpt><trkpt lat="59.0938282013" lon="29.9953365326"><time>2026-04-22T12:40:55Z</time></trkpt><trkpt lat="59.0938282013" lon="29.9953365326"><time>2026-04-22T12:40:57Z</time></trkpt><trkpt lat="59.0938067436" lon="29.9953150749"><time>2026-04-22T12:41:00Z</time></trkpt><trkpt lat="59.0938282013" lon="29.9953365326"><time>2026-04-22T12:41:02Z</time></trkpt><trkpt lat="59.0938282013" lon="29.9953150749"><time>2026-04-22T12:41:05Z</time></trkpt><trkpt lat="59.0938282013" lon="29.9953150749"><time>2026-04-22T12:41:07Z</time></trkpt><trkpt lat="59.0938282013" lon="29.9953579903"><time>2026-04-22T12:41:10Z</time></trkpt><trkpt lat="59.0938282013" lon="29.9954867363"><time>2026-04-22T12:41:12Z</time></trkpt><trkpt lat="59.0938496590" lon="29.9957227707"><time>2026-04-22T12:41:15Z</time></trkpt><trkpt lat="59.0938925743" lon="29.9958515167"><time>2026-04-22T12:41:17Z</time></trkpt><trkpt lat="59.0938925743" lon="29.9960017204"><time>2026-04-22T12:41:20Z</time></trkpt><trkpt lat="59.0938925743" lon="29.9960660934"><time>2026-04-22T12:41:22Z</time></trkpt><trkpt lat="59.0939140320" lon="29.9961304665"><time>2026-04-22T12:41:25Z</time></trkpt><trkpt lat="59.0939354897" lon="29.9961519241"><time>2026-04-22T12:41:27Z</time></trkpt><trkpt lat="59.0939569473" lon="29.9962592125"><time>2026-04-22T12:41:30Z</time></trkpt><trkpt lat="59.0939784050" lon="29.9963235855"><time>2026-04-22T12:41:32Z</time></trkpt><trkpt lat="59.0939784050" lon="29.9963665009"><time>2026-04-22T12:41:35Z</time></trkpt><trkpt lat="59.0939784050" lon="29.9964094162"><time>2026-04-22T12:41:37Z</time></trkpt><trkpt lat="59.0939998627" lon="29.9964737892"><time>2026-04-22T12:41:40Z</time></trkpt><trkpt lat="59.0939998627" lon="29.9965167046"><time>2026-04-22T12:41:42Z</time></trkpt><trkpt lat="59.0940213203" lon="29.9966025352"><time>2026-04-22T12:41:45Z</time></trkpt><trkpt lat="59.0940213203" lon="29.9966454506"><time>2026-04-22T12:41:47Z</time></trkpt><trkpt lat="59.0940427780" lon="29.9967098236"><time>2026-04-22T12:41:50Z</time></trkpt><trkpt lat="59.0940427780" lon="29.9967527390"><time>2026-04-22T12:41:52Z</time></trkpt><trkpt lat="59.0940642357" lon="29.9968385696"><time>2026-04-22T12:41:55Z</time></trkpt><trkpt lat="59.0940856934" lon="29.9968814850"><time>2026-04-22T12:41:57Z</time></trkpt><trkpt lat="59.0940856934" lon="29.9969458580"><time>2026-04-22T12:42:00Z</time></trkpt><trkpt lat="59.0941071510" lon="29.9970102310"><time>2026-04-22T12:42:02Z</time></trkpt><trkpt lat="59.0941500664" lon="29.9971389771"><time>2026-04-22T12:42:05Z</time></trkpt><trkpt lat="59.0941500664" lon="29.9971818924"><time>2026-04-22T12:42:07Z</time></trkpt><trkpt lat="59.0941715240" lon="29.9972677231"><time>2026-04-22T12:42:10Z</time></trkpt><trkpt lat="59.0941715240" lon="29.9973106384"><time>2026-04-22T12:42:12Z</time></trkpt><trkpt lat="59.0941715240" lon="29.9973750114"><time>2026-04-22T12:42:15Z</time></trkpt><trkpt lat="59.0941929817" lon="29.9974179268"><time>2026-04-22T12:42:17Z</time></trkpt><trkpt lat="59.0942144394" lon="29.9975252151"><time>2026-04-22T12:42:20Z</time></trkpt><trkpt lat="59.0942358971" lon="29.9976110458"><time>2026-04-22T12:42:22Z</time></trkpt><trkpt lat="59.0942788124" lon="29.9977397919"><time>2026-04-22T12:42:25Z</time></trkpt><trkpt lat="59.0942788124" lon="29.9978041649"><time>2026-04-22T12:42:27Z</time></trkpt><trkpt lat="59.0942788124" lon="29.9978685379"><time>2026-04-22T12:42:30Z</time></trkpt><trkpt lat="59.0943002701" lon="29.9979329109"><time>2026-04-22T12:42:32Z</time></trkpt><trkpt lat="59.0943217278" lon="29.9980401993"><time>2026-04-22T12:42:35Z</time></trkpt><trkpt lat="59.0943431854" lon="29.9980831146"><time>2026-04-22T12:42:37Z</time></trkpt><trkpt lat="59.0943217278" lon="29.9980831146"><time>2026-04-22T12:42:40Z</time></trkpt><trkpt lat="59.0943217278" lon="29.9980831146"><time>2026-04-22T12:42:42Z</time></trkpt><trkpt lat="59.0943217278" lon="29.9981904030"><time>2026-04-22T12:42:45Z</time></trkpt><trkpt lat="59.0943431854" lon="29.9982976913"><time>2026-04-22T12:42:47Z</time></trkpt><trkpt lat="59.0943431854" lon="29.9984264374"><time>2026-04-22T12:42:50Z</time></trkpt><trkpt lat="59.0943646431" lon="29.9984693527"><time>2026-04-22T12:42:52Z</time></trkpt><trkpt lat="59.0943861008" lon="29.9985337257"><time>2026-04-22T12:42:55Z</time></trkpt><trkpt lat="59.0943861008" lon="29.9985766411"><time>2026-04-22T12:42:57Z</time></trkpt><trkpt lat="59.0943861008" lon="29.9986410141"><time>2026-04-22T12:43:00Z</time></trkpt><trkpt lat="59.0944075584" lon="29.9987053871"><time>2026-04-22T12:43:02Z</time></trkpt><trkpt lat="59.0944075584" lon="29.9987483025"><time>2026-04-22T12:43:05Z</time></trkpt><trkpt lat="59.0944290161" lon="29.9988126755"><time>2026-04-22T12:43:07Z</time></trkpt><trkpt lat="59.0944290161" lon="29.9988770485"><time>2026-04-22T12:43:10Z</time></trkpt><trkpt lat="59.0944504738" lon="29.9989199638"><time>2026-04-22T12:43:12Z</time></trkpt><trkpt lat="59.0944719315" lon="29.9990057945"><time>2026-04-22T12:43:15Z</time></trkpt><trkpt lat="59.0944719315" lon="29.9990701675"><time>2026-04-22T12:43:17Z</time></trkpt><trkpt lat="59.0944933891" lon="29.9991345406"><time>2026-04-22T12:43:20Z</time></trkpt><trkpt lat="59.0945148468" lon="29.9991774559"><time>2026-04-22T12:43:22Z</time></trkpt><trkpt lat="59.0945148468" lon="29.9992418289"><time>2026-04-22T12:43:25Z</time></trkpt><trkpt lat="59.0945148468" lon="29.9993062019"><time>2026-04-22T12:43:27Z</time></trkpt><trkpt lat="59.0945363045" lon="29.9993705750"><time>2026-04-22T12:43:30Z</time></trkpt><trkpt lat="59.0945363045" lon="29.9994349480"><time>2026-04-22T12:43:32Z</time></trkpt><trkpt lat="59.0945577621" lon="29.9995207787"><time>2026-04-22T12:43:35Z</time></trkpt><trkpt lat="59.0945792198" lon="29.9995636940"><time>2026-04-22T12:43:37Z</time></trkpt><trkpt lat="59.0945792198" lon="29.9996495247"><time>2026-04-22T12:43:40Z</time></trkpt><trkpt lat="59.0945792198" lon="29.9996709824"><time>2026-04-22T12:43:42Z</time></trkpt><trkpt lat="59.0945792198" lon="29.9997138977"><time>2026-04-22T12:43:45Z</time></trkpt><trkpt lat="59.0946006775" lon="29.9997997284"><time>2026-04-22T12:43:47Z</time></trkpt><trkpt lat="59.0946006775" lon="29.9998855591"><time>2026-04-22T12:43:50Z</time></trkpt><trkpt lat="59.0946221352" lon="29.9999070168"><time>2026-04-22T12:43:52Z</time></trkpt><trkpt lat="59.0946221352" lon="29.9999499321"><time>2026-04-22T12:43:55Z</time></trkpt><trkpt lat="59.0946221352" lon="29.9999713898"><time>2026-04-22T12:43:57Z</time></trkpt><trkpt lat="59.0946221352" lon="30.0001001358"><time>2026-04-22T12:44:00Z</time></trkpt><trkpt lat="59.0946221352" lon="30.0002074242"><time>2026-04-22T12:44:02Z</time></trkpt><trkpt lat="59.0946435928" lon="30.0002717972"><time>2026-04-22T12:44:05Z</time></trkpt><trkpt lat="59.0946650505" lon="30.0003361702"><time>2026-04-22T12:44:07Z</time></trkpt><trkpt lat="59.0946865082" lon="30.0004220009"><time>2026-04-22T12:44:10Z</time></trkpt><trkpt lat="59.0946865082" lon="30.0004649162"><time>2026-04-22T12:44:12Z</time></trkpt><trkpt lat="59.0947079659" lon="30.0005722046"><time>2026-04-22T12:44:15Z</time></trkpt><trkpt lat="59.0947079659" lon="30.0006365776"><time>2026-04-22T12:44:17Z</time></trkpt><trkpt lat="59.0947294235" lon="30.0007224083"><time>2026-04-22T12:44:20Z</time></trkpt><trkpt lat="59.0947294235" lon="30.0007867813"><time>2026-04-22T12:44:22Z</time></trkpt><trkpt lat="59.0947508812" lon="30.0008511543"><time>2026-04-22T12:44:25Z</time></trkpt><trkpt lat="59.0947723389" lon="30.0009155273"><time>2026-04-22T12:44:27Z</time></trkpt><trkpt lat="59.0947937965" lon="30.0009584427"><time>2026-04-22T12:44:30Z</time></trkpt><trkpt lat="59.0947937965" lon="30.0010013580"><time>2026-04-22T12:44:32Z</time></trkpt><trkpt lat="59.0947937965" lon="30.0010657310"><time>2026-04-22T12:44:35Z</time></trkpt><trkpt lat="59.0948152542" lon="30.0011086464"><time>2026-04-22T12:44:37Z</time></trkpt><trkpt lat="59.0948152542" lon="30.0011944771"><time>2026-04-22T12:44:40Z</time></trkpt><trkpt lat="59.0948152542" lon="30.0012373924"><time>2026-04-22T12:44:42Z</time></trkpt><trkpt lat="59.0948367119" lon="30.0013232231"><time>2026-04-22T12:44:45Z</time></trkpt><trkpt lat="59.0948367119" lon="30.0013661385"><time>2026-04-22T12:44:47Z</time></trkpt><trkpt lat="59.0948581696" lon="30.0014305115"><time>2026-04-22T12:44:50Z</time></trkpt><trkpt lat="59.0948581696" lon="30.0014734268"><time>2026-04-22T12:44:52Z</time></trkpt><trkpt lat="59.0948796272" lon="30.0015807152"><time>2026-04-22T12:44:55Z</time></trkpt><trkpt lat="59.0949010849" lon="30.0016236305"><time>2026-04-22T12:44:57Z</time></trkpt><trkpt lat="59.0949225426" lon="30.0016880035"><time>2026-04-22T12:45:00Z</time></trkpt><trkpt lat="59.0949225426" lon="30.0017523766"><time>2026-04-22T12:45:02Z</time></trkpt><trkpt lat="59.0949440002" lon="30.0018167496"><time>2026-04-22T12:45:05Z</time></trkpt><trkpt lat="59.0949654579" lon="30.0018811226"><time>2026-04-22T12:45:07Z</time></trkpt><trkpt lat="59.0949869156" lon="30.0019669533"><time>2026-04-22T12:45:10Z</time></trkpt><trkpt lat="59.0949869156" lon="30.0020098686"><time>2026-04-22T12:45:12Z</time></trkpt><trkpt lat="59.0949869156" lon="30.0020956993"><time>2026-04-22T12:45:15Z</time></trkpt><trkpt lat="59.0950083733" lon="30.0021386147"><time>2026-04-22T12:45:17Z</time></trkpt><trkpt lat="59.0950083733" lon="30.0022029877"><time>2026-04-22T12:45:20Z</time></trkpt><trkpt lat="59.0950083733" lon="30.0022459030"><time>2026-04-22T12:45:22Z</time></trkpt><trkpt lat="59.0950083733" lon="30.0023317337"><time>2026-04-22T12:45:25Z</time></trkpt><trkpt lat="59.0950298309" lon="30.0024175644"><time>2026-04-22T12:45:27Z</time></trkpt><trkpt lat="59.0950512886" lon="30.0025033951"><time>2026-04-22T12:45:30Z</time></trkpt><trkpt lat="59.0950727463" lon="30.0025677681"><time>2026-04-22T12:45:32Z</time></trkpt><trkpt lat="59.0950512886" lon="30.0026106834"><time>2026-04-22T12:45:35Z</time></trkpt><trkpt lat="59.0950512886" lon="30.0026535988"><time>2026-04-22T12:45:37Z</time></trkpt><trkpt lat="59.0950727463" lon="30.0027394295"><time>2026-04-22T12:45:40Z</time></trkpt><trkpt lat="59.0950942039" lon="30.0027823448"><time>2026-04-22T12:45:42Z</time></trkpt><trkpt lat="59.0950942039" lon="30.0028896332"><time>2026-04-22T12:45:45Z</time></trkpt><trkpt lat="59.0951156616" lon="30.0029325485"><time>2026-04-22T12:45:47Z</time></trkpt><trkpt lat="59.0951156616" lon="30.0029754639"><time>2026-04-22T12:45:50Z</time></trkpt><trkpt lat="59.0951371193" lon="30.0030183792"><time>2026-04-22T12:45:52Z</time></trkpt><trkpt lat="59.0951371193" lon="30.0031042099"><time>2026-04-22T12:45:55Z</time></trkpt><trkpt lat="59.0951585770" lon="30.0031471252"><time>2026-04-22T12:45:57Z</time></trkpt><trkpt lat="59.0951800346" lon="30.0032114983"><time>2026-04-22T12:46:00Z</time></trkpt><trkpt lat="59.0951800346" lon="30.0032758713"><time>2026-04-22T12:46:02Z</time></trkpt><trkpt lat="59.0952014923" lon="30.0033402443"><time>2026-04-22T12:46:05Z</time></trkpt><trkpt lat="59.0952014923" lon="30.0033617020"><time>2026-04-22T12:46:07Z</time></trkpt><trkpt lat="59.0952014923" lon="30.0033831596"><time>2026-04-22T12:46:10Z</time></trkpt><trkpt lat="59.0952229500" lon="30.0034260750"><time>2026-04-22T12:46:12Z</time></trkpt><trkpt lat="59.0952229500" lon="30.0034904480"><time>2026-04-22T12:46:15Z</time></trkpt><trkpt lat="59.0952444077" lon="30.0035333633"><time>2026-04-22T12:46:17Z</time></trkpt><trkpt lat="59.0952658653" lon="30.0035762787"><time>2026-04-22T12:46:20Z</time></trkpt><trkpt lat="59.0952444077" lon="30.0036191940"><time>2026-04-22T12:46:22Z</time></trkpt><trkpt lat="59.0952658653" lon="30.0037050247"><time>2026-04-22T12:46:25Z</time></trkpt><trkpt lat="59.0952658653" lon="30.0037264824"><time>2026-04-22T12:46:27Z</time></trkpt><trkpt lat="59.0952873230" lon="30.0037264824"><time>2026-04-22T12:46:30Z</time></trkpt><trkpt lat="59.0952873230" lon="30.0037264824"><time>2026-04-22T12:46:32Z</time></trkpt><trkpt lat="59.0952873230" lon="30.0037264824"><time>2026-04-22T12:46:35Z</time></trkpt><trkpt lat="59.0952873230" lon="30.0037264824"><time>2026-04-22T12:46:37Z</time></trkpt><trkpt lat="59.0952873230" lon="30.0037693977"><time>2026-04-22T12:46:40Z</time></trkpt><trkpt lat="59.0952873230" lon="30.0038337708"><time>2026-04-22T12:46:42Z</time></trkpt><trkpt lat="59.0953087807" lon="30.0039196014"><time>2026-04-22T12:46:45Z</time></trkpt><trkpt lat="59.0953087807" lon="30.0039839745"><time>2026-04-22T12:46:47Z</time></trkpt><trkpt lat="59.0953302383" lon="30.0040698051"><time>2026-04-22T12:46:50Z</time></trkpt><trkpt lat="59.0953302383" lon="30.0041341782"><time>2026-04-22T12:46:52Z</time></trkpt><trkpt lat="59.0953302383" lon="30.0041985512"><time>2026-04-22T12:46:55Z</time></trkpt><trkpt lat="59.0953516960" lon="30.0042200089"><time>2026-04-22T12:46:57Z</time></trkpt><trkpt lat="59.0953516960" lon="30.0042843819"><time>2026-04-22T12:47:00Z</time></trkpt><trkpt lat="59.0953516960" lon="30.0043272972"><time>2026-04-22T12:47:02Z</time></trkpt><trkpt lat="59.0953516960" lon="30.0043487549"><time>2026-04-22T12:47:05Z</time></trkpt><trkpt lat="59.0953946114" lon="30.0044345856"><time>2026-04-22T12:47:07Z</time></trkpt><trkpt lat="59.0953946114" lon="30.0045847893"><time>2026-04-22T12:47:10Z</time></trkpt><trkpt lat="59.0954160690" lon="30.0046706200"><time>2026-04-22T12:47:12Z</time></trkpt><trkpt lat="59.0954375267" lon="30.0046920776"><time>2026-04-22T12:47:15Z</time></trkpt><trkpt lat="59.0954589844" lon="30.0047349930"><time>2026-04-22T12:47:17Z</time></trkpt><trkpt lat="59.0954589844" lon="30.0048422813"><time>2026-04-22T12:47:20Z</time></trkpt><trkpt lat="59.0954804420" lon="30.0048851967"><time>2026-04-22T12:47:22Z</time></trkpt><trkpt lat="59.0955018997" lon="30.0049710274"><time>2026-04-22T12:47:25Z</time></trkpt><trkpt lat="59.0955018997" lon="30.0050139427"><time>2026-04-22T12:47:27Z</time></trkpt><trkpt lat="59.0955233574" lon="30.0050783157"><time>2026-04-22T12:47:30Z</time></trkpt><trkpt lat="59.0955233574" lon="30.0051426888"><time>2026-04-22T12:47:32Z</time></trkpt><trkpt lat="59.0955662727" lon="30.0052285194"><time>2026-04-22T12:47:35Z</time></trkpt><trkpt lat="59.0955662727" lon="30.0052928925"><time>2026-04-22T12:47:37Z</time></trkpt><trkpt lat="59.0955877304" lon="30.0053572655"><time>2026-04-22T12:47:40Z</time></trkpt><trkpt lat="59.0956091881" lon="30.0054001808"><time>2026-04-22T12:47:42Z</time></trkpt><trkpt lat="59.0956306458" lon="30.0054860115"><time>2026-04-22T12:47:45Z</time></trkpt><trkpt lat="59.0956306458" lon="30.0055503845"><time>2026-04-22T12:47:47Z</time></trkpt><trkpt lat="59.0956306458" lon="30.0056147575"><time>2026-04-22T12:47:50Z</time></trkpt><trkpt lat="59.0956306458" lon="30.0056576729"><time>2026-04-22T12:47:52Z</time></trkpt><trkpt lat="59.0956091881" lon="30.0057005882"><time>2026-04-22T12:47:55Z</time></trkpt><trkpt lat="59.0956306458" lon="30.0057435036"><time>2026-04-22T12:47:57Z</time></trkpt><trkpt lat="59.0956306458" lon="30.0058293343"><time>2026-04-22T12:48:00Z</time></trkpt><trkpt lat="59.0956521034" lon="30.0058722496"><time>2026-04-22T12:48:02Z</time></trkpt><trkpt lat="59.0956521034" lon="30.0059366226"><time>2026-04-22T12:48:05Z</time></trkpt><trkpt lat="59.0956521034" lon="30.0059795380"><time>2026-04-22T12:48:07Z</time></trkpt><trkpt lat="59.0956521034" lon="30.0060439110"><time>2026-04-22T12:48:10Z</time></trkpt><trkpt lat="59.0956735611" lon="30.0060868263"><time>2026-04-22T12:48:12Z</time></trkpt><trkpt lat="59.0956950188" lon="30.0061511993"><time>2026-04-22T12:48:15Z</time></trkpt><trkpt lat="59.0957164764" lon="30.0062155724"><time>2026-04-22T12:48:17Z</time></trkpt><trkpt lat="59.0957379341" lon="30.0063014030"><time>2026-04-22T12:48:20Z</time></trkpt><trkpt lat="59.0957593918" lon="30.0063443184"><time>2026-04-22T12:48:22Z</time></trkpt><trkpt lat="59.0957593918" lon="30.0063872337"><time>2026-04-22T12:48:25Z</time></trkpt><trkpt lat="59.0957593918" lon="30.0064516068"><time>2026-04-22T12:48:27Z</time></trkpt><trkpt lat="59.0957808495" lon="30.0065159798"><time>2026-04-22T12:48:30Z</time></trkpt><trkpt lat="59.0957808495" lon="30.0065803528"><time>2026-04-22T12:48:32Z</time></trkpt><trkpt lat="59.0957808495" lon="30.0066661835"><time>2026-04-22T12:48:35Z</time></trkpt><trkpt lat="59.0958023071" lon="30.0067305565"><time>2026-04-22T12:48:37Z</time></trkpt><trkpt lat="59.0958023071" lon="30.0068378448"><time>2026-04-22T12:48:40Z</time></trkpt><trkpt lat="59.0958452225" lon="30.0069022179"><time>2026-04-22T12:48:42Z</time></trkpt><trkpt lat="59.0958666801" lon="30.0069880486"><time>2026-04-22T12:48:45Z</time></trkpt><trkpt lat="59.0958881378" lon="30.0070524216"><time>2026-04-22T12:48:47Z</time></trkpt><trkpt lat="59.0958881378" lon="30.0071167946"><time>2026-04-22T12:48:50Z</time></trkpt><trkpt lat="59.0958881378" lon="30.0071597099"><time>2026-04-22T12:48:52Z</time></trkpt><trkpt lat="59.0959095955" lon="30.0072669983"><time>2026-04-22T12:48:55Z</time></trkpt><trkpt lat="59.0959310532" lon="30.0073099136"><time>2026-04-22T12:48:57Z</time></trkpt><trkpt lat="59.0959525108" lon="30.0073742867"><time>2026-04-22T12:49:00Z</time></trkpt><trkpt lat="59.0959525108" lon="30.0074172020"><time>2026-04-22T12:49:02Z</time></trkpt><trkpt lat="59.0959525108" lon="30.0074815750"><time>2026-04-22T12:49:05Z</time></trkpt><trkpt lat="59.0959739685" lon="30.0075459480"><time>2026-04-22T12:49:07Z</time></trkpt><trkpt lat="59.0959739685" lon="30.0076103210"><time>2026-04-22T12:49:10Z</time></trkpt><trkpt lat="59.0959954262" lon="30.0076746941"><time>2026-04-22T12:49:12Z</time></trkpt><trkpt lat="59.0960168839" lon="30.0077605247"><time>2026-04-22T12:49:15Z</time></trkpt><trkpt lat="59.0960168839" lon="30.0078034401"><time>2026-04-22T12:49:17Z</time></trkpt><trkpt lat="59.0960383415" lon="30.0078678131"><time>2026-04-22T12:49:20Z</time></trkpt><trkpt lat="59.0960597992" lon="30.0079321861"><time>2026-04-22T12:49:22Z</time></trkpt><trkpt lat="59.0960812569" lon="30.0079965591"><time>2026-04-22T12:49:25Z</time></trkpt><trkpt lat="59.0960597992" lon="30.0080609322"><time>2026-04-22T12:49:27Z</time></trkpt><trkpt lat="59.0960812569" lon="30.0081467628"><time>2026-04-22T12:49:30Z</time></trkpt><trkpt lat="59.0960812569" lon="30.0082111359"><time>2026-04-22T12:49:32Z</time></trkpt><trkpt lat="59.0960812569" lon="30.0082969666"><time>2026-04-22T12:49:35Z</time></trkpt><trkpt lat="59.0960812569" lon="30.0083398819"><time>2026-04-22T12:49:37Z</time></trkpt><trkpt lat="59.0961027145" lon="30.0084257126"><time>2026-04-22T12:49:40Z</time></trkpt><trkpt lat="59.0961027145" lon="30.0084900856"><time>2026-04-22T12:49:42Z</time></trkpt><trkpt lat="59.0961241722" lon="30.0085330009"><time>2026-04-22T12:49:45Z</time></trkpt><trkpt lat="59.0961456299" lon="30.0085759163"><time>2026-04-22T12:49:47Z</time></trkpt><trkpt lat="59.0961241722" lon="30.0086617470"><time>2026-04-22T12:49:50Z</time></trkpt><trkpt lat="59.0961456299" lon="30.0087261200"><time>2026-04-22T12:49:52Z</time></trkpt><trkpt lat="59.0961456299" lon="30.0088119507"><time>2026-04-22T12:49:55Z</time></trkpt><trkpt lat="59.0961670876" lon="30.0088763237"><time>2026-04-22T12:49:57Z</time></trkpt><trkpt lat="59.0961885452" lon="30.0089836121"><time>2026-04-22T12:50:00Z</time></trkpt><trkpt lat="59.0961670876" lon="30.0090479851"><time>2026-04-22T12:50:02Z</time></trkpt><trkpt lat="59.0961670876" lon="30.0091123581"><time>2026-04-22T12:50:05Z</time></trkpt><trkpt lat="59.0961885452" lon="30.0091767311"><time>2026-04-22T12:50:07Z</time></trkpt><trkpt lat="59.0961885452" lon="30.0092411041"><time>2026-04-22T12:50:10Z</time></trkpt><trkpt lat="59.0962100029" lon="30.0092840195"><time>2026-04-22T12:50:12Z</time></trkpt><trkpt lat="59.0962314606" lon="30.0093269348"><time>2026-04-22T12:50:15Z</time></trkpt><trkpt lat="59.0962314606" lon="30.0093913078"><time>2026-04-22T12:50:17Z</time></trkpt><trkpt lat="59.0962529182" lon="30.0094556808"><time>2026-04-22T12:50:20Z</time></trkpt><trkpt lat="59.0962529182" lon="30.0095200539"><time>2026-04-22T12:50:22Z</time></trkpt><trkpt lat="59.0962529182" lon="30.0096273422"><time>2026-04-22T12:50:25Z</time></trkpt><trkpt lat="59.0962529182" lon="30.0096702576"><time>2026-04-22T12:50:27Z</time></trkpt><trkpt lat="59.0962958336" lon="30.0097560883"><time>2026-04-22T12:50:30Z</time></trkpt><trkpt lat="59.0963172913" lon="30.0098204613"><time>2026-04-22T12:50:32Z</time></trkpt><trkpt lat="59.0963387489" lon="30.0099277496"><time>2026-04-22T12:50:35Z</time></trkpt><trkpt lat="59.0963602066" lon="30.0099706650"><time>2026-04-22T12:50:37Z</time></trkpt><trkpt lat="59.0963602066" lon="30.0099921227"><time>2026-04-22T12:50:40Z</time></trkpt><trkpt lat="59.0963602066" lon="30.0100350380"><time>2026-04-22T12:50:42Z</time></trkpt><trkpt lat="59.0963816643" lon="30.0101423264"><time>2026-04-22T12:50:45Z</time></trkpt><trkpt lat="59.0964031219" lon="30.0101852417"><time>2026-04-22T12:50:47Z</time></trkpt><trkpt lat="59.0964245796" lon="30.0102496147"><time>2026-04-22T12:50:50Z</time></trkpt><trkpt lat="59.0964245796" lon="30.0103139877"><time>2026-04-22T12:50:52Z</time></trkpt><trkpt lat="59.0964245796" lon="30.0103998184"><time>2026-04-22T12:50:55Z</time></trkpt><trkpt lat="59.0964460373" lon="30.0104641914"><time>2026-04-22T12:50:57Z</time></trkpt><trkpt lat="59.0964674950" lon="30.0105285645"><time>2026-04-22T12:51:00Z</time></trkpt><trkpt lat="59.0964674950" lon="30.0105929375"><time>2026-04-22T12:51:02Z</time></trkpt><trkpt lat="59.0965104103" lon="30.0106573105"><time>2026-04-22T12:51:05Z</time></trkpt><trkpt lat="59.0965318680" lon="30.0107002258"><time>2026-04-22T12:51:07Z</time></trkpt><trkpt lat="59.0965104103" lon="30.0108075142"><time>2026-04-22T12:51:10Z</time></trkpt><trkpt lat="59.0965104103" lon="30.0108718872"><time>2026-04-22T12:51:12Z</time></trkpt><trkpt lat="59.0965318680" lon="30.0109791756"><time>2026-04-22T12:51:15Z</time></trkpt><trkpt lat="59.0965533257" lon="30.0110220909"><time>2026-04-22T12:51:17Z</time></trkpt><trkpt lat="59.0965747833" lon="30.0110435486"><time>2026-04-22T12:51:20Z</time></trkpt><trkpt lat="59.0965747833" lon="30.0110864639"><time>2026-04-22T12:51:22Z</time></trkpt><trkpt lat="59.0965747833" lon="30.0111722946"><time>2026-04-22T12:51:25Z</time></trkpt><trkpt lat="59.0965747833" lon="30.0112366676"><time>2026-04-22T12:51:27Z</time></trkpt><trkpt lat="59.0965962410" lon="30.0112795830"><time>2026-04-22T12:51:30Z</time></trkpt><trkpt lat="59.0965962410" lon="30.0113439560"><time>2026-04-22T12:51:32Z</time></trkpt><trkpt lat="59.0966176987" lon="30.0114083290"><time>2026-04-22T12:51:35Z</time></trkpt><trkpt lat="59.0966176987" lon="30.0114512444"><time>2026-04-22T12:51:37Z</time></trkpt><trkpt lat="59.0966176987" lon="30.0115370750"><time>2026-04-22T12:51:40Z</time></trkpt><trkpt lat="59.0966391563" lon="30.0116014481"><time>2026-04-22T12:51:42Z</time></trkpt><trkpt lat="59.0966606140" lon="30.0116443634"><time>2026-04-22T12:51:45Z</time></trkpt><trkpt lat="59.0966606140" lon="30.0116872787"><time>2026-04-22T12:51:47Z</time></trkpt><trkpt lat="59.0966606140" lon="30.0117731094"><time>2026-04-22T12:51:50Z</time></trkpt><trkpt lat="59.0966820717" lon="30.0118160248"><time>2026-04-22T12:51:52Z</time></trkpt><trkpt lat="59.0966820717" lon="30.0119233131"><time>2026-04-22T12:51:55Z</time></trkpt><trkpt lat="59.0967035294" lon="30.0119662285"><time>2026-04-22T12:51:57Z</time></trkpt><trkpt lat="59.0967249870" lon="30.0120306015"><time>2026-04-22T12:52:00Z</time></trkpt><trkpt lat="59.0967249870" lon="30.0120520592"><time>2026-04-22T12:52:02Z</time></trkpt><trkpt lat="59.0967464447" lon="30.0121378899"><time>2026-04-22T12:52:05Z</time></trkpt><trkpt lat="59.0967679024" lon="30.0121808052"><time>2026-04-22T12:52:07Z</time></trkpt><trkpt lat="59.0967679024" lon="30.0122451782"><time>2026-04-22T12:52:10Z</time></trkpt><trkpt lat="59.0967893600" lon="30.0122880936"><time>2026-04-22T12:52:12Z</time></trkpt><trkpt lat="59.0967893600" lon="30.0123739243"><time>2026-04-22T12:52:15Z</time></trkpt><trkpt lat="59.0968108177" lon="30.0124168396"><time>2026-04-22T12:52:17Z</time></trkpt><trkpt lat="59.0968322754" lon="30.0125026703"><time>2026-04-22T12:52:20Z</time></trkpt><trkpt lat="59.0968537331" lon="30.0125455856"><time>2026-04-22T12:52:22Z</time></trkpt><trkpt lat="59.0968751907" lon="30.0126314163"><time>2026-04-22T12:52:25Z</time></trkpt><trkpt lat="59.0968751907" lon="30.0126743317"><time>2026-04-22T12:52:27Z</time></trkpt><trkpt lat="59.0968751907" lon="30.0127601624"><time>2026-04-22T12:52:30Z</time></trkpt><trkpt lat="59.0968751907" lon="30.0128030777"><time>2026-04-22T12:52:32Z</time></trkpt><trkpt lat="59.0968751907" lon="30.0128889084"><time>2026-04-22T12:52:35Z</time></trkpt><trkpt lat="59.0968751907" lon="30.0129532814"><time>2026-04-22T12:52:37Z</time></trkpt><trkpt lat="59.0969181061" lon="30.0130391121"><time>2026-04-22T12:52:40Z</time></trkpt><trkpt lat="59.0969181061" lon="30.0131034851"><time>2026-04-22T12:52:42Z</time></trkpt><trkpt lat="59.0969395638" lon="30.0131678581"><time>2026-04-22T12:52:45Z</time></trkpt><trkpt lat="59.0969395638" lon="30.0132107735"><time>2026-04-22T12:52:47Z</time></trkpt><trkpt lat="59.0969395638" lon="30.0132536888"><time>2026-04-22T12:52:50Z</time></trkpt><trkpt lat="59.0969610214" lon="30.0133180618"><time>2026-04-22T12:52:52Z</time></trkpt><trkpt lat="59.0969610214" lon="30.0134038925"><time>2026-04-22T12:52:55Z</time></trkpt><trkpt lat="59.0969610214" lon="30.0134897232"><time>2026-04-22T12:52:57Z</time></trkpt><trkpt lat="59.0969824791" lon="30.0135326385"><time>2026-04-22T12:53:00Z</time></trkpt><trkpt lat="59.0969824791" lon="30.0135326385"><time>2026-04-22T12:53:02Z</time></trkpt><trkpt lat="59.0970039368" lon="30.0135755539"><time>2026-04-22T12:53:05Z</time></trkpt><trkpt lat="59.0970039368" lon="30.0136399269"><time>2026-04-22T12:53:07Z</time></trkpt><trkpt lat="59.0970253944" lon="30.0137472153"><time>2026-04-22T12:53:10Z</time></trkpt><trkpt lat="59.0970468521" lon="30.0137901306"><time>2026-04-22T12:53:12Z</time></trkpt><trkpt lat="59.0970468521" lon="30.0138545036"><time>2026-04-22T12:53:15Z</time></trkpt><trkpt lat="59.0970683098" lon="30.0138974190"><time>2026-04-22T12:53:17Z</time></trkpt><trkpt lat="59.0970683098" lon="30.0139617920"><time>2026-04-22T12:53:20Z</time></trkpt><trkpt lat="59.0970683098" lon="30.0139832497"><time>2026-04-22T12:53:22Z</time></trkpt><trkpt lat="59.0970683098" lon="30.0140690804"><time>2026-04-22T12:53:25Z</time></trkpt><trkpt lat="59.0970897675" lon="30.0141119957"><time>2026-04-22T12:53:27Z</time></trkpt><trkpt lat="59.0970897675" lon="30.0141763687"><time>2026-04-22T12:53:30Z</time></trkpt><trkpt lat="59.0971112251" lon="30.0141978264"><time>2026-04-22T12:53:32Z</time></trkpt><trkpt lat="59.0971112251" lon="30.0142621994"><time>2026-04-22T12:53:35Z</time></trkpt><trkpt lat="59.0971112251" lon="30.0143051147"><time>2026-04-22T12:53:37Z</time></trkpt><trkpt lat="59.0971326828" lon="30.0143694878"><time>2026-04-22T12:53:40Z</time></trkpt><trkpt lat="59.0971326828" lon="30.0144338608"><time>2026-04-22T12:53:42Z</time></trkpt><trkpt lat="59.0971541405" lon="30.0144767761"><time>2026-04-22T12:53:45Z</time></trkpt><trkpt lat="59.0971541405" lon="30.0145411491"><time>2026-04-22T12:53:47Z</time></trkpt><trkpt lat="59.0971970558" lon="30.0146269798"><time>2026-04-22T12:53:50Z</time></trkpt><trkpt lat="59.0971970558" lon="30.0146484375"><time>2026-04-22T12:53:52Z</time></trkpt><trkpt lat="59.0972185135" lon="30.0147128105"><time>2026-04-22T12:53:55Z</time></trkpt><trkpt lat="59.0972185135" lon="30.0147771835"><time>2026-04-22T12:53:57Z</time></trkpt><trkpt lat="59.0972399712" lon="30.0148630142"><time>2026-04-22T12:54:00Z</time></trkpt><trkpt lat="59.0972399712" lon="30.0149273872"><time>2026-04-22T12:54:02Z</time></trkpt><trkpt lat="59.0972399712" lon="30.0149917603"><time>2026-04-22T12:54:05Z</time></trkpt><trkpt lat="59.0972399712" lon="30.0150346756"><time>2026-04-22T12:54:07Z</time></trkpt><trkpt lat="59.0972399712" lon="30.0150990486"><time>2026-04-22T12:54:10Z</time></trkpt><trkpt lat="59.0972399712" lon="30.0151205063"><time>2026-04-22T12:54:12Z</time></trkpt><trkpt lat="59.0972614288" lon="30.0151634216"><time>2026-04-22T12:54:15Z</time></trkpt><trkpt lat="59.0972614288" lon="30.0152063370"><time>2026-04-22T12:54:17Z</time></trkpt><trkpt lat="59.0972828865" lon="30.0152707100"><time>2026-04-22T12:54:20Z</time></trkpt><trkpt lat="59.0973043442" lon="30.0152921677"><time>2026-04-22T12:54:22Z</time></trkpt><trkpt lat="59.0973258018" lon="30.0153565407"><time>2026-04-22T12:54:25Z</time></trkpt><trkpt lat="59.0973258018" lon="30.0154209137"><time>2026-04-22T12:54:27Z</time></trkpt><trkpt lat="59.0973258018" lon="30.0154852867"><time>2026-04-22T12:54:30Z</time></trkpt><trkpt lat="59.0973472595" lon="30.0155496597"><time>2026-04-22T12:54:32Z</time></trkpt><trkpt lat="59.0973472595" lon="30.0156354904"><time>2026-04-22T12:54:35Z</time></trkpt><trkpt lat="59.0973687172" lon="30.0156569481"><time>2026-04-22T12:54:37Z</time></trkpt><trkpt lat="59.0973901749" lon="30.0157213211"><time>2026-04-22T12:54:40Z</time></trkpt><trkpt lat="59.0973901749" lon="30.0157642365"><time>2026-04-22T12:54:42Z</time></trkpt><trkpt lat="59.0973901749" lon="30.0158286095"><time>2026-04-22T12:54:45Z</time></trkpt><trkpt lat="59.0973901749" lon="30.0158715248"><time>2026-04-22T12:54:47Z</time></trkpt><trkpt lat="59.0974116325" lon="30.0159358978"><time>2026-04-22T12:54:50Z</time></trkpt><trkpt lat="59.0974116325" lon="30.0159788132"><time>2026-04-22T12:54:52Z</time></trkpt><trkpt lat="59.0974330902" lon="30.0160431862"><time>2026-04-22T12:54:55Z</time></trkpt><trkpt lat="59.0974330902" lon="30.0161075592"><time>2026-04-22T12:54:57Z</time></trkpt><trkpt lat="59.0974545479" lon="30.0161719322"><time>2026-04-22T12:55:00Z</time></trkpt><trkpt lat="59.0974760056" lon="30.0162148476"><time>2026-04-22T12:55:02Z</time></trkpt><trkpt lat="59.0974760056" lon="30.0162792206"><time>2026-04-22T12:55:05Z</time></trkpt><trkpt lat="59.0974760056" lon="30.0163221359"><time>2026-04-22T12:55:07Z</time></trkpt><trkpt lat="59.0974974632" lon="30.0163865089"><time>2026-04-22T12:55:10Z</time></trkpt><trkpt lat="59.0974974632" lon="30.0164508820"><time>2026-04-22T12:55:12Z</time></trkpt><trkpt lat="59.0975189209" lon="30.0165152550"><time>2026-04-22T12:55:15Z</time></trkpt><trkpt lat="59.0975189209" lon="30.0165581703"><time>2026-04-22T12:55:17Z</time></trkpt><trkpt lat="59.0975403786" lon="30.0166440010"><time>2026-04-22T12:55:20Z</time></trkpt><trkpt lat="59.0975618362" lon="30.0166654587"><time>2026-04-22T12:55:22Z</time></trkpt><trkpt lat="59.0975618362" lon="30.0167512894"><time>2026-04-22T12:55:25Z</time></trkpt><trkpt lat="59.0975832939" lon="30.0168156624"><time>2026-04-22T12:55:27Z</time></trkpt><trkpt lat="59.0975832939" lon="30.0169014931"><time>2026-04-22T12:55:30Z</time></trkpt><trkpt lat="59.0976047516" lon="30.0169873238"><time>2026-04-22T12:55:32Z</time></trkpt><trkpt lat="59.0976047516" lon="30.0170516968"><time>2026-04-22T12:55:35Z</time></trkpt><trkpt lat="59.0976262093" lon="30.0170946121"><time>2026-04-22T12:55:37Z</time></trkpt><trkpt lat="59.0976476669" lon="30.0171804428"><time>2026-04-22T12:55:40Z</time></trkpt><trkpt lat="59.0976476669" lon="30.0172448158"><time>2026-04-22T12:55:42Z</time></trkpt><trkpt lat="59.0976476669" lon="30.0173091888"><time>2026-04-22T12:55:45Z</time></trkpt><trkpt lat="59.0976691246" lon="30.0173735619"><time>2026-04-22T12:55:47Z</time></trkpt><trkpt lat="59.0976905823" lon="30.0174164772"><time>2026-04-22T12:55:50Z</time></trkpt><trkpt lat="59.0976905823" lon="30.0174593925"><time>2026-04-22T12:55:52Z</time></trkpt><trkpt lat="59.0977120399" lon="30.0175023079"><time>2026-04-22T12:55:55Z</time></trkpt><trkpt lat="59.0977120399" lon="30.0175881386"><time>2026-04-22T12:55:57Z</time></trkpt><trkpt lat="59.0977334976" lon="30.0176954269"><time>2026-04-22T12:56:00Z</time></trkpt><trkpt lat="59.0977549553" lon="30.0177383423"><time>2026-04-22T12:56:02Z</time></trkpt><trkpt lat="59.0977549553" lon="30.0177812576"><time>2026-04-22T12:56:05Z</time></trkpt><trkpt lat="59.0977764130" lon="30.0178456306"><time>2026-04-22T12:56:07Z</time></trkpt><trkpt lat="59.0977764130" lon="30.0179314613"><time>2026-04-22T12:56:10Z</time></trkpt><trkpt lat="59.0977978706" lon="30.0179958344"><time>2026-04-22T12:56:12Z</time></trkpt><trkpt lat="59.0977978706" lon="30.0180602074"><time>2026-04-22T12:56:15Z</time></trkpt><trkpt lat="59.0978193283" lon="30.0181031227"><time>2026-04-22T12:56:17Z</time></trkpt><trkpt lat="59.0978193283" lon="30.0181460381"><time>2026-04-22T12:56:20Z</time></trkpt><trkpt lat="59.0978193283" lon="30.0181889534"><time>2026-04-22T12:56:22Z</time></trkpt><trkpt lat="59.0978193283" lon="30.0182747841"><time>2026-04-22T12:56:25Z</time></trkpt><trkpt lat="59.0978193283" lon="30.0183176994"><time>2026-04-22T12:56:27Z</time></trkpt><trkpt lat="59.0978407860" lon="30.0183820724"><time>2026-04-22T12:56:30Z</time></trkpt><trkpt lat="59.0978407860" lon="30.0184035301"><time>2026-04-22T12:56:32Z</time></trkpt><trkpt lat="59.0978622437" lon="30.0184893608"><time>2026-04-22T12:56:35Z</time></trkpt><trkpt lat="59.0978622437" lon="30.0185322762"><time>2026-04-22T12:56:37Z</time></trkpt><trkpt lat="59.0978837013" lon="30.0186181068"><time>2026-04-22T12:56:40Z</time></trkpt><trkpt lat="59.0978622437" lon="30.0186395645"><time>2026-04-22T12:56:42Z</time></trkpt><trkpt lat="59.0978622437" lon="30.0186824799"><time>2026-04-22T12:56:45Z</time></trkpt><trkpt lat="59.0978837013" lon="30.0186824799"><time>2026-04-22T12:56:47Z</time></trkpt><trkpt lat="59.0978837013" lon="30.0187039375"><time>2026-04-22T12:56:50Z</time></trkpt><trkpt lat="59.0978837013" lon="30.0187468529"><time>2026-04-22T12:56:52Z</time></trkpt><trkpt lat="59.0979051590" lon="30.0188326836"><time>2026-04-22T12:56:55Z</time></trkpt><trkpt lat="59.0979051590" lon="30.0188755989"><time>2026-04-22T12:56:57Z</time></trkpt><trkpt lat="59.0979051590" lon="30.0189185143"><time>2026-04-22T12:57:00Z</time></trkpt><trkpt lat="59.0979266167" lon="30.0189614296"><time>2026-04-22T12:57:02Z</time></trkpt><trkpt lat="59.0979480743" lon="30.0190043449"><time>2026-04-22T12:57:05Z</time></trkpt><trkpt lat="59.0979480743" lon="30.0190472603"><time>2026-04-22T12:57:07Z</time></trkpt><trkpt lat="59.0979909897" lon="30.0191545486"><time>2026-04-22T12:57:10Z</time></trkpt><trkpt lat="59.0979909897" lon="30.0191760063"><time>2026-04-22T12:57:12Z</time></trkpt><trkpt lat="59.0979909897" lon="30.0191760063"><time>2026-04-22T12:57:15Z</time></trkpt><trkpt lat="59.0979909897" lon="30.0191760063"><time>2026-04-22T12:57:17Z</time></trkpt><trkpt lat="59.0979909897" lon="30.0191760063"><time>2026-04-22T12:57:20Z</time></trkpt><trkpt lat="59.0979909897" lon="30.0191760063"><time>2026-04-22T12:57:22Z</time></trkpt><trkpt lat="59.0980124474" lon="30.0191974640"><time>2026-04-22T12:57:25Z</time></trkpt><trkpt lat="59.0979909897" lon="30.0191974640"><time>2026-04-22T12:57:27Z</time></trkpt><trkpt lat="59.0979480743" lon="30.0191330910"><time>2026-04-22T12:57:30Z</time></trkpt><trkpt lat="59.0979480743" lon="30.0190901756"><time>2026-04-22T12:57:32Z</time></trkpt><trkpt lat="59.0979480743" lon="30.0191116333"><time>2026-04-22T12:57:35Z</time></trkpt><trkpt lat="59.0979480743" lon="30.0191330910"><time>2026-04-22T12:57:37Z</time></trkpt><trkpt lat="59.0979695320" lon="30.0191760063"><time>2026-04-22T12:57:40Z</time></trkpt><trkpt lat="59.0979695320" lon="30.0192189217"><time>2026-04-22T12:57:42Z</time></trkpt><trkpt lat="59.0979695320" lon="30.0193047523"><time>2026-04-22T12:57:45Z</time></trkpt><trkpt lat="59.0979695320" lon="30.0193476677"><time>2026-04-22T12:57:47Z</time></trkpt><trkpt lat="59.0979695320" lon="30.0193691254"><time>2026-04-22T12:57:50Z</time></trkpt><trkpt lat="59.0979695320" lon="30.0193691254"><time>2026-04-22T12:57:52Z</time></trkpt><trkpt lat="59.0979695320" lon="30.0193691254"><time>2026-04-22T12:57:55Z</time></trkpt><trkpt lat="59.0979695320" lon="30.0193691254"><time>2026-04-22T12:57:57Z</time></trkpt><trkpt lat="59.0979695320" lon="30.0193691254"><time>2026-04-22T12:58:00Z</time></trkpt><trkpt lat="59.0979695320" lon="30.0193691254"><time>2026-04-22T12:58:02Z</time></trkpt><trkpt lat="59.0979695320" lon="30.0193691254"><time>2026-04-22T12:58:05Z</time></trkpt><trkpt lat="59.0979695320" lon="30.0193691254"><time>2026-04-22T12:58:07Z</time></trkpt><trkpt lat="59.0979695320" lon="30.0193691254"><time>2026-04-22T12:58:10Z</time></trkpt><trkpt lat="59.0979695320" lon="30.0193691254"><time>2026-04-22T12:58:12Z</time></trkpt><trkpt lat="59.0979695320" lon="30.0194120407"><time>2026-04-22T12:58:15Z</time></trkpt><trkpt lat="59.0979695320" lon="30.0193905830"><time>2026-04-22T12:58:17Z</time></trkpt><trkpt lat="59.0979695320" lon="30.0194120407"><time>2026-04-22T12:58:20Z</time></trkpt><trkpt lat="59.0979909897" lon="30.0194549561"><time>2026-04-22T12:58:22Z</time></trkpt><trkpt lat="59.0980124474" lon="30.0195622444"><time>2026-04-22T12:58:25Z</time></trkpt><trkpt lat="59.0980339050" lon="30.0196695328"><time>2026-04-22T12:58:27Z</time></trkpt><trkpt lat="59.0980553627" lon="30.0197339058"><time>2026-04-22T12:58:30Z</time></trkpt><trkpt lat="59.0980553627" lon="30.0197553635"><time>2026-04-22T12:58:32Z</time></trkpt><trkpt lat="59.0980553627" lon="30.0198197365"><time>2026-04-22T12:58:35Z</time></trkpt><trkpt lat="59.0980768204" lon="30.0198411942"><time>2026-04-22T12:58:37Z</time></trkpt><trkpt lat="59.0980982780" lon="30.0199055672"><time>2026-04-22T12:58:40Z</time></trkpt><trkpt lat="59.0980982780" lon="30.0199484825"><time>2026-04-22T12:58:42Z</time></trkpt><trkpt lat="59.0980982780" lon="30.0200128555"><time>2026-04-22T12:58:45Z</time></trkpt><trkpt lat="59.0981197357" lon="30.0200557709"><time>2026-04-22T12:58:47Z</time></trkpt><trkpt lat="59.0981197357" lon="30.0201201439"><time>2026-04-22T12:58:50Z</time></trkpt><trkpt lat="59.0981411934" lon="30.0202059746"><time>2026-04-22T12:58:52Z</time></trkpt><trkpt lat="59.0981626511" lon="30.0202703476"><time>2026-04-22T12:58:55Z</time></trkpt><trkpt lat="59.0981841087" lon="30.0203132629"><time>2026-04-22T12:58:57Z</time></trkpt><trkpt lat="59.0981841087" lon="30.0203776360"><time>2026-04-22T12:59:00Z</time></trkpt><trkpt lat="59.0981841087" lon="30.0204205513"><time>2026-04-22T12:59:02Z</time></trkpt><trkpt lat="59.0982055664" lon="30.0204849243"><time>2026-04-22T12:59:05Z</time></trkpt><trkpt lat="59.0982055664" lon="30.0205278397"><time>2026-04-22T12:59:07Z</time></trkpt><trkpt lat="59.0982055664" lon="30.0205492973"><time>2026-04-22T12:59:10Z</time></trkpt><trkpt lat="59.0982270241" lon="30.0205707550"><time>2026-04-22T12:59:12Z</time></trkpt><trkpt lat="59.0982270241" lon="30.0206351280"><time>2026-04-22T12:59:15Z</time></trkpt><trkpt lat="59.0982270241" lon="30.0206995010"><time>2026-04-22T12:59:17Z</time></trkpt><trkpt lat="59.0982270241" lon="30.0207853317"><time>2026-04-22T12:59:20Z</time></trkpt><trkpt lat="59.0982484818" lon="30.0208282471"><time>2026-04-22T12:59:22Z</time></trkpt><trkpt lat="59.0982484818" lon="30.0209140778"><time>2026-04-22T12:59:25Z</time></trkpt><trkpt lat="59.0982699394" lon="30.0209569931"><time>2026-04-22T12:59:27Z</time></trkpt><trkpt lat="59.0982699394" lon="30.0210428238"><time>2026-04-22T12:59:30Z</time></trkpt><trkpt lat="59.0982913971" lon="30.0210857391"><time>2026-04-22T12:59:32Z</time></trkpt><trkpt lat="59.0982913971" lon="30.0211501122"><time>2026-04-22T12:59:35Z</time></trkpt><trkpt lat="59.0983128548" lon="30.0212144852"><time>2026-04-22T12:59:37Z</time></trkpt><trkpt lat="59.0983128548" lon="30.0212788582"><time>2026-04-22T12:59:40Z</time></trkpt><trkpt lat="59.0983343124" lon="30.0213432312"><time>2026-04-22T12:59:42Z</time></trkpt><trkpt lat="59.0983557701" lon="30.0214076042"><time>2026-04-22T12:59:45Z</time></trkpt><trkpt lat="59.0983772278" lon="30.0214505196"><time>2026-04-22T12:59:47Z</time></trkpt><trkpt lat="59.0983986855" lon="30.0215363503"><time>2026-04-22T12:59:50Z</time></trkpt><trkpt lat="59.0983986855" lon="30.0216007233"><time>2026-04-22T12:59:52Z</time></trkpt><trkpt lat="59.0984201431" lon="30.0216650963"><time>2026-04-22T12:59:55Z</time></trkpt><trkpt lat="59.0984416008" lon="30.0217080116"><time>2026-04-22T12:59:57Z</time></trkpt><trkpt lat="59.0984416008" lon="30.0217509270"><time>2026-04-22T13:00:00Z</time></trkpt><trkpt lat="59.0984416008" lon="30.0217938423"><time>2026-04-22T13:00:02Z</time></trkpt><trkpt lat="59.0984416008" lon="30.0218796730"><time>2026-04-22T13:00:05Z</time></trkpt><trkpt lat="59.0984630585" lon="30.0219225883"><time>2026-04-22T13:00:07Z</time></trkpt><trkpt lat="59.0984845161" lon="30.0220084190"><time>2026-04-22T13:00:10Z</time></trkpt><trkpt lat="59.0984845161" lon="30.0220513344"><time>2026-04-22T13:00:12Z</time></trkpt><trkpt lat="59.0985059738" lon="30.0221157074"><time>2026-04-22T13:00:15Z</time></trkpt><trkpt lat="59.0985274315" lon="30.0221800804"><time>2026-04-22T13:00:17Z</time></trkpt><trkpt lat="59.0985274315" lon="30.0222444534"><time>2026-04-22T13:00:20Z</time></trkpt><trkpt lat="59.0985274315" lon="30.0222659111"><time>2026-04-22T13:00:22Z</time></trkpt><trkpt lat="59.0985488892" lon="30.0223302841"><time>2026-04-22T13:00:25Z</time></trkpt><trkpt lat="59.0985488892" lon="30.0223731995"><time>2026-04-22T13:00:27Z</time></trkpt><trkpt lat="59.0985703468" lon="30.0224161148"><time>2026-04-22T13:00:30Z</time></trkpt><trkpt lat="59.0985703468" lon="30.0224590302"><time>2026-04-22T13:00:32Z</time></trkpt><trkpt lat="59.0985703468" lon="30.0225448608"><time>2026-04-22T13:00:35Z</time></trkpt><trkpt lat="59.0985703468" lon="30.0225663185"><time>2026-04-22T13:00:37Z</time></trkpt><trkpt lat="59.0985918045" lon="30.0226306915"><time>2026-04-22T13:00:40Z</time></trkpt><trkpt lat="59.0985918045" lon="30.0226736069"><time>2026-04-22T13:00:42Z</time></trkpt><trkpt lat="59.0986132622" lon="30.0227379799"><time>2026-04-22T13:00:45Z</time></trkpt><trkpt lat="59.0986347198" lon="30.0228023529"><time>2026-04-22T13:00:47Z</time></trkpt><trkpt lat="59.0986347198" lon="30.0228452682"><time>2026-04-22T13:00:50Z</time></trkpt><trkpt lat="59.0986561775" lon="30.0228667259"><time>2026-04-22T13:00:52Z</time></trkpt><trkpt lat="59.0986561775" lon="30.0229310989"><time>2026-04-22T13:00:55Z</time></trkpt><trkpt lat="59.0986561775" lon="30.0229954720"><time>2026-04-22T13:00:57Z</time></trkpt><trkpt lat="59.0986776352" lon="30.0230813026"><time>2026-04-22T13:01:00Z</time></trkpt><trkpt lat="59.0986990929" lon="30.0231242180"><time>2026-04-22T13:01:02Z</time></trkpt><trkpt lat="59.0986990929" lon="30.0232100487"><time>2026-04-22T13:01:05Z</time></trkpt><trkpt lat="59.0986990929" lon="30.0232744217"><time>2026-04-22T13:01:07Z</time></trkpt><trkpt lat="59.0987205505" lon="30.0233387947"><time>2026-04-22T13:01:10Z</time></trkpt><trkpt lat="59.0987205505" lon="30.0233817101"><time>2026-04-22T13:01:12Z</time></trkpt><trkpt lat="59.0987205505" lon="30.0234246254"><time>2026-04-22T13:01:15Z</time></trkpt><trkpt lat="59.0987420082" lon="30.0234460831"><time>2026-04-22T13:01:17Z</time></trkpt><trkpt lat="59.0987420082" lon="30.0235104561"><time>2026-04-22T13:01:20Z</time></trkpt><trkpt lat="59.0987420082" lon="30.0235533714"><time>2026-04-22T13:01:22Z</time></trkpt><trkpt lat="59.0987420082" lon="30.0236177444"><time>2026-04-22T13:01:25Z</time></trkpt><trkpt lat="59.0987634659" lon="30.0236392021"><time>2026-04-22T13:01:27Z</time></trkpt><trkpt lat="59.0987849236" lon="30.0237250328"><time>2026-04-22T13:01:30Z</time></trkpt><trkpt lat="59.0987849236" lon="30.0237464905"><time>2026-04-22T13:01:32Z</time></trkpt><trkpt lat="59.0988063812" lon="30.0238108635"><time>2026-04-22T13:01:35Z</time></trkpt><trkpt lat="59.0988063812" lon="30.0238537788"><time>2026-04-22T13:01:37Z</time></trkpt><trkpt lat="59.0988278389" lon="30.0239181519"><time>2026-04-22T13:01:40Z</time></trkpt><trkpt lat="59.0988278389" lon="30.0239610672"><time>2026-04-22T13:01:42Z</time></trkpt><trkpt lat="59.0988278389" lon="30.0240254402"><time>2026-04-22T13:01:45Z</time></trkpt><trkpt lat="59.0988278389" lon="30.0240898132"><time>2026-04-22T13:01:47Z</time></trkpt><trkpt lat="59.0988492966" lon="30.0241541862"><time>2026-04-22T13:01:50Z</time></trkpt><trkpt lat="59.0988707542" lon="30.0242185593"><time>2026-04-22T13:01:52Z</time></trkpt><trkpt lat="59.0988707542" lon="30.0243043900"><time>2026-04-22T13:01:55Z</time></trkpt><trkpt lat="59.0988922119" lon="30.0243687630"><time>2026-04-22T13:01:57Z</time></trkpt><trkpt lat="59.0989136696" lon="30.0244331360"><time>2026-04-22T13:02:00Z</time></trkpt><trkpt lat="59.0989351273" lon="30.0244760513"><time>2026-04-22T13:02:02Z</time></trkpt><trkpt lat="59.0989565849" lon="30.0244975090"><time>2026-04-22T13:02:05Z</time></trkpt><trkpt lat="59.0989565849" lon="30.0244975090"><time>2026-04-22T13:02:07Z</time></trkpt><trkpt lat="59.0989565849" lon="30.0245189667"><time>2026-04-22T13:02:10Z</time></trkpt><trkpt lat="59.0989565849" lon="30.0245189667"><time>2026-04-22T13:02:12Z</time></trkpt><trkpt lat="59.0989565849" lon="30.0245618820"><time>2026-04-22T13:02:15Z</time></trkpt><trkpt lat="59.0989565849" lon="30.0246691704"><time>2026-04-22T13:02:17Z</time></trkpt><trkpt lat="59.0989780426" lon="30.0247979164"><time>2026-04-22T13:02:20Z</time></trkpt><trkpt lat="59.0989995003" lon="30.0248622894"><time>2026-04-22T13:02:22Z</time></trkpt><trkpt lat="59.0990209579" lon="30.0249910355"><time>2026-04-22T13:02:25Z</time></trkpt><trkpt lat="59.0990209579" lon="30.0250124931"><time>2026-04-22T13:02:27Z</time></trkpt><trkpt lat="59.0990209579" lon="30.0250554085"><time>2026-04-22T13:02:30Z</time></trkpt><trkpt lat="59.0990209579" lon="30.0250554085"><time>2026-04-22T13:02:32Z</time></trkpt><trkpt lat="59.0990209579" lon="30.0250339508"><time>2026-04-22T13:02:35Z</time></trkpt><trkpt lat="59.0990209579" lon="30.0250339508"><time>2026-04-22T13:02:37Z</time></trkpt><trkpt lat="59.0990209579" lon="30.0250339508"><time>2026-04-22T13:02:40Z</time></trkpt><trkpt lat="59.0990209579" lon="30.0250339508"><time>2026-04-22T13:02:42Z</time></trkpt><trkpt lat="59.0990209579" lon="30.0250339508"><time>2026-04-22T13:02:45Z</time></trkpt><trkpt lat="59.0990209579" lon="30.0250768661"><time>2026-04-22T13:02:47Z</time></trkpt><trkpt lat="59.0990424156" lon="30.0251626968"><time>2026-04-22T13:02:50Z</time></trkpt><trkpt lat="59.0990638733" lon="30.0252270699"><time>2026-04-22T13:02:52Z</time></trkpt><trkpt lat="59.0990638733" lon="30.0252914429"><time>2026-04-22T13:02:55Z</time></trkpt><trkpt lat="59.0990638733" lon="30.0253129005"><time>2026-04-22T13:02:57Z</time></trkpt><trkpt lat="59.0990853310" lon="30.0253987312"><time>2026-04-22T13:03:00Z</time></trkpt><trkpt lat="59.0990853310" lon="30.0254416466"><time>2026-04-22T13:03:02Z</time></trkpt><trkpt lat="59.0990853310" lon="30.0255274773"><time>2026-04-22T13:03:05Z</time></trkpt><trkpt lat="59.0991067886" lon="30.0255703926"><time>2026-04-22T13:03:07Z</time></trkpt><trkpt lat="59.0991282463" lon="30.0256347656"><time>2026-04-22T13:03:10Z</time></trkpt><trkpt lat="59.0991497040" lon="30.0256991386"><time>2026-04-22T13:03:12Z</time></trkpt><trkpt lat="59.0991497040" lon="30.0257420540"><time>2026-04-22T13:03:15Z</time></trkpt><trkpt lat="59.0991497040" lon="30.0257635117"><time>2026-04-22T13:03:17Z</time></trkpt><trkpt lat="59.0991711617" lon="30.0258278847"><time>2026-04-22T13:03:20Z</time></trkpt><trkpt lat="59.0991926193" lon="30.0258708000"><time>2026-04-22T13:03:22Z</time></trkpt><trkpt lat="59.0992140770" lon="30.0259566307"><time>2026-04-22T13:03:25Z</time></trkpt><trkpt lat="59.0992140770" lon="30.0260210037"><time>2026-04-22T13:03:27Z</time></trkpt><trkpt lat="59.0992140770" lon="30.0260853767"><time>2026-04-22T13:03:30Z</time></trkpt><trkpt lat="59.0992140770" lon="30.0261282921"><time>2026-04-22T13:03:32Z</time></trkpt><trkpt lat="59.0992355347" lon="30.0261712074"><time>2026-04-22T13:03:35Z</time></trkpt><trkpt lat="59.0992355347" lon="30.0262141228"><time>2026-04-22T13:03:37Z</time></trkpt><trkpt lat="59.0992355347" lon="30.0262784958"><time>2026-04-22T13:03:40Z</time></trkpt><trkpt lat="59.0992569923" lon="30.0263214111"><time>2026-04-22T13:03:42Z</time></trkpt><trkpt lat="59.0992569923" lon="30.0263857841"><time>2026-04-22T13:03:45Z</time></trkpt><trkpt lat="59.0992569923" lon="30.0264286995"><time>2026-04-22T13:03:47Z</time></trkpt><trkpt lat="59.0992784500" lon="30.0264930725"><time>2026-04-22T13:03:50Z</time></trkpt><trkpt lat="59.0992784500" lon="30.0265145302"><time>2026-04-22T13:03:52Z</time></trkpt><trkpt lat="59.0992784500" lon="30.0266003609"><time>2026-04-22T13:03:55Z</time></trkpt><trkpt lat="59.0992999077" lon="30.0266647339"><time>2026-04-22T13:03:57Z</time></trkpt><trkpt lat="59.0992999077" lon="30.0267505646"><time>2026-04-22T13:04:00Z</time></trkpt><trkpt lat="59.0992999077" lon="30.0267934799"><time>2026-04-22T13:04:02Z</time></trkpt><trkpt lat="59.0993213654" lon="30.0268363953"><time>2026-04-22T13:04:05Z</time></trkpt><trkpt lat="59.0993213654" lon="30.0269007683"><time>2026-04-22T13:04:07Z</time></trkpt><trkpt lat="59.0993428230" lon="30.0269865990"><time>2026-04-22T13:04:10Z</time></trkpt><trkpt lat="59.0993428230" lon="30.0270295143"><time>2026-04-22T13:04:12Z</time></trkpt><trkpt lat="59.0993642807" lon="30.0270724297"><time>2026-04-22T13:04:15Z</time></trkpt><trkpt lat="59.0993642807" lon="30.0271153450"><time>2026-04-22T13:04:17Z</time></trkpt><trkpt lat="59.0993642807" lon="30.0271797180"><time>2026-04-22T13:04:20Z</time></trkpt><trkpt lat="59.0993642807" lon="30.0272226334"><time>2026-04-22T13:04:22Z</time></trkpt><trkpt lat="59.0993642807" lon="30.0272870064"><time>2026-04-22T13:04:25Z</time></trkpt><trkpt lat="59.0993642807" lon="30.0273299217"><time>2026-04-22T13:04:27Z</time></trkpt><trkpt lat="59.0993642807" lon="30.0274157524"><time>2026-04-22T13:04:30Z</time></trkpt><trkpt lat="59.0993857384" lon="30.0274586678"><time>2026-04-22T13:04:32Z</time></trkpt><trkpt lat="59.0994071960" lon="30.0275230408"><time>2026-04-22T13:04:35Z</time></trkpt><trkpt lat="59.0994071960" lon="30.0275659561"><time>2026-04-22T13:04:37Z</time></trkpt><trkpt lat="59.0994286537" lon="30.0276303291"><time>2026-04-22T13:04:40Z</time></trkpt><trkpt lat="59.0994501114" lon="30.0276732445"><time>2026-04-22T13:04:42Z</time></trkpt><trkpt lat="59.0994501114" lon="30.0277161598"><time>2026-04-22T13:04:45Z</time></trkpt><trkpt lat="59.0994715691" lon="30.0277590752"><time>2026-04-22T13:04:47Z</time></trkpt><trkpt lat="59.0994715691" lon="30.0278449059"><time>2026-04-22T13:04:50Z</time></trkpt><trkpt lat="59.0994930267" lon="30.0278878212"><time>2026-04-22T13:04:52Z</time></trkpt><trkpt lat="59.0994930267" lon="30.0279521942"><time>2026-04-22T13:04:55Z</time></trkpt><trkpt lat="59.0995144844" lon="30.0279951096"><time>2026-04-22T13:04:57Z</time></trkpt><trkpt lat="59.0995144844" lon="30.0280594826"><time>2026-04-22T13:05:00Z</time></trkpt><trkpt lat="59.0995144844" lon="30.0280809402"><time>2026-04-22T13:05:02Z</time></trkpt><trkpt lat="59.0995359421" lon="30.0281453133"><time>2026-04-22T13:05:05Z</time></trkpt><trkpt lat="59.0995359421" lon="30.0281882286"><time>2026-04-22T13:05:07Z</time></trkpt><trkpt lat="59.0995573997" lon="30.0282526016"><time>2026-04-22T13:05:10Z</time></trkpt><trkpt lat="59.0995788574" lon="30.0282955170"><time>2026-04-22T13:05:12Z</time></trkpt><trkpt lat="59.0995788574" lon="30.0283813477"><time>2026-04-22T13:05:15Z</time></trkpt><trkpt lat="59.0995788574" lon="30.0284242630"><time>2026-04-22T13:05:17Z</time></trkpt><trkpt lat="59.0995788574" lon="30.0285100937"><time>2026-04-22T13:05:20Z</time></trkpt><trkpt lat="59.0995788574" lon="30.0285530090"><time>2026-04-22T13:05:22Z</time></trkpt><trkpt lat="59.0995788574" lon="30.0285530090"><time>2026-04-22T13:05:25Z</time></trkpt><trkpt lat="59.0995788574" lon="30.0285530090"><time>2026-04-22T13:05:27Z</time></trkpt><trkpt lat="59.0995788574" lon="30.0285530090"><time>2026-04-22T13:05:30Z</time></trkpt><trkpt lat="59.0995788574" lon="30.0286602974"><time>2026-04-22T13:05:32Z</time></trkpt><trkpt lat="59.0996217728" lon="30.0288105011"><time>2026-04-22T13:05:35Z</time></trkpt><trkpt lat="59.0996432304" lon="30.0288963318"><time>2026-04-22T13:05:37Z</time></trkpt><trkpt lat="59.0996646881" lon="30.0289607048"><time>2026-04-22T13:05:40Z</time></trkpt><trkpt lat="59.0996646881" lon="30.0290036201"><time>2026-04-22T13:05:42Z</time></trkpt><trkpt lat="59.0996861458" lon="30.0290465355"><time>2026-04-22T13:05:45Z</time></trkpt><trkpt lat="59.0996861458" lon="30.0290894508"><time>2026-04-22T13:05:47Z</time></trkpt><trkpt lat="59.0996861458" lon="30.0291538239"><time>2026-04-22T13:05:50Z</time></trkpt><trkpt lat="59.0997076035" lon="30.0291967392"><time>2026-04-22T13:05:52Z</time></trkpt><trkpt lat="59.0997076035" lon="30.0292611122"><time>2026-04-22T13:05:55Z</time></trkpt><trkpt lat="59.0997076035" lon="30.0293040276"><time>2026-04-22T13:05:57Z</time></trkpt><trkpt lat="59.0997290611" lon="30.0293898582"><time>2026-04-22T13:06:00Z</time></trkpt><trkpt lat="59.0997290611" lon="30.0294327736"><time>2026-04-22T13:06:02Z</time></trkpt><trkpt lat="59.0997505188" lon="30.0294971466"><time>2026-04-22T13:06:05Z</time></trkpt><trkpt lat="59.0997505188" lon="30.0295400620"><time>2026-04-22T13:06:07Z</time></trkpt><trkpt lat="59.0997719765" lon="30.0296044350"><time>2026-04-22T13:06:10Z</time></trkpt><trkpt lat="59.0997934341" lon="30.0296473503"><time>2026-04-22T13:06:12Z</time></trkpt><trkpt lat="59.0998148918" lon="30.0297117233"><time>2026-04-22T13:06:15Z</time></trkpt><trkpt lat="59.0998148918" lon="30.0297760963"><time>2026-04-22T13:06:17Z</time></trkpt><trkpt lat="59.0998363495" lon="30.0298404694"><time>2026-04-22T13:06:20Z</time></trkpt><trkpt lat="59.0998363495" lon="30.0298833847"><time>2026-04-22T13:06:22Z</time></trkpt><trkpt lat="59.0998363495" lon="30.0299477577"><time>2026-04-22T13:06:25Z</time></trkpt><trkpt lat="59.0998578072" lon="30.0299692154"><time>2026-04-22T13:06:27Z</time></trkpt><trkpt lat="59.0998578072" lon="30.0299477577"><time>2026-04-22T13:06:30Z</time></trkpt><trkpt lat="59.0998578072" lon="30.0299477577"><time>2026-04-22T13:06:32Z</time></trkpt><trkpt lat="59.0998578072" lon="30.0300335884"><time>2026-04-22T13:06:35Z</time></trkpt><trkpt lat="59.0998578072" lon="30.0300979614"><time>2026-04-22T13:06:37Z</time></trkpt><trkpt lat="59.0998792648" lon="30.0301623344"><time>2026-04-22T13:06:40Z</time></trkpt><trkpt lat="59.0998792648" lon="30.0302267075"><time>2026-04-22T13:06:42Z</time></trkpt><trkpt lat="59.0999007225" lon="30.0303125381"><time>2026-04-22T13:06:47Z</time></trkpt><trkpt lat="59.0999007225" lon="30.0303769112"><time>2026-04-22T13:06:50Z</time></trkpt><trkpt lat="59.0999007225" lon="30.0304198265"><time>2026-04-22T13:06:52Z</time></trkpt><trkpt lat="59.0999007225" lon="30.0304627419"><time>2026-04-22T13:06:55Z</time></trkpt><trkpt lat="59.0999007225" lon="30.0305056572"><time>2026-04-22T13:06:57Z</time></trkpt><trkpt lat="59.0999221802" lon="30.0305700302"><time>2026-04-22T13:07:00Z</time></trkpt><trkpt lat="59.0999221802" lon="30.0305700302"><time>2026-04-22T13:07:02Z</time></trkpt><trkpt lat="59.0999436378" lon="30.0306129456"><time>2026-04-22T13:07:05Z</time></trkpt><trkpt lat="59.0999650955" lon="30.0306773186"><time>2026-04-22T13:07:07Z</time></trkpt><trkpt lat="59.0999865532" lon="30.0307631493"><time>2026-04-22T13:07:10Z</time></trkpt><trkpt lat="59.1000080109" lon="30.0308060646"><time>2026-04-22T13:07:12Z</time></trkpt><trkpt lat="59.1000294685" lon="30.0309348106"><time>2026-04-22T13:07:15Z</time></trkpt><trkpt lat="59.1000294685" lon="30.0309991837"><time>2026-04-22T13:07:17Z</time></trkpt><trkpt lat="59.1000294685" lon="30.0310635567"><time>2026-04-22T13:07:20Z</time></trkpt><trkpt lat="59.1000294685" lon="30.0311064720"><time>2026-04-22T13:07:22Z</time></trkpt><trkpt lat="59.1000509262" lon="30.0311708450"><time>2026-04-22T13:07:25Z</time></trkpt><trkpt lat="59.1000723839" lon="30.0312137604"><time>2026-04-22T13:07:27Z</time></trkpt><trkpt lat="59.1000723839" lon="30.0312566757"><time>2026-04-22T13:07:30Z</time></trkpt><trkpt lat="59.1000723839" lon="30.0312995911"><time>2026-04-22T13:07:32Z</time></trkpt><trkpt lat="59.1000938416" lon="30.0313639641"><time>2026-04-22T13:07:35Z</time></trkpt><trkpt lat="59.1000938416" lon="30.0314283371"><time>2026-04-22T13:07:37Z</time></trkpt><trkpt lat="59.1001152992" lon="30.0314927101"><time>2026-04-22T13:07:40Z</time></trkpt><trkpt lat="59.1001152992" lon="30.0315141678"><time>2026-04-22T13:07:42Z</time></trkpt><trkpt lat="59.1001367569" lon="30.0315785408"><time>2026-04-22T13:07:45Z</time></trkpt><trkpt lat="59.1001367569" lon="30.0316214561"><time>2026-04-22T13:07:47Z</time></trkpt><trkpt lat="59.1001367569" lon="30.0316858292"><time>2026-04-22T13:07:50Z</time></trkpt><trkpt lat="59.1001582146" lon="30.0317287445"><time>2026-04-22T13:07:52Z</time></trkpt><trkpt lat="59.1001582146" lon="30.0317931175"><time>2026-04-22T13:07:55Z</time></trkpt><trkpt lat="59.1001582146" lon="30.0318145752"><time>2026-04-22T13:07:57Z</time></trkpt><trkpt lat="59.1001796722" lon="30.0319004059"><time>2026-04-22T13:08:00Z</time></trkpt><trkpt lat="59.1001796722" lon="30.0319433212"><time>2026-04-22T13:08:02Z</time></trkpt><trkpt lat="59.1001796722" lon="30.0319862366"><time>2026-04-22T13:08:05Z</time></trkpt><trkpt lat="59.1001796722" lon="30.0320291519"><time>2026-04-22T13:08:07Z</time></trkpt><trkpt lat="59.1001796722" lon="30.0320935249"><time>2026-04-22T13:08:10Z</time></trkpt><trkpt lat="59.1002011299" lon="30.0321149826"><time>2026-04-22T13:08:12Z</time></trkpt><trkpt lat="59.1002225876" lon="30.0321578979"><time>2026-04-22T13:08:15Z</time></trkpt><trkpt lat="59.1002225876" lon="30.0322008133"><time>2026-04-22T13:08:17Z</time></trkpt><trkpt lat="59.1002440453" lon="30.0322437286"><time>2026-04-22T13:08:20Z</time></trkpt><trkpt lat="59.1002440453" lon="30.0322866440"><time>2026-04-22T13:08:22Z</time></trkpt><trkpt lat="59.1002655029" lon="30.0323510170"><time>2026-04-22T13:08:25Z</time></trkpt><trkpt lat="59.1002655029" lon="30.0323939323"><time>2026-04-22T13:08:27Z</time></trkpt><trkpt lat="59.1002869606" lon="30.0324797630"><time>2026-04-22T13:08:30Z</time></trkpt><trkpt lat="59.1003084183" lon="30.0325226784"><time>2026-04-22T13:08:32Z</time></trkpt><trkpt lat="59.1003084183" lon="30.0326085091"><time>2026-04-22T13:08:35Z</time></trkpt><trkpt lat="59.1003084183" lon="30.0326728821"><time>2026-04-22T13:08:37Z</time></trkpt><trkpt lat="59.1003298759" lon="30.0327157974"><time>2026-04-22T13:08:40Z</time></trkpt><trkpt lat="59.1003298759" lon="30.0327587128"><time>2026-04-22T13:08:42Z</time></trkpt><trkpt lat="59.1003298759" lon="30.0328016281"><time>2026-04-22T13:08:45Z</time></trkpt><trkpt lat="59.1003298759" lon="30.0328230858"><time>2026-04-22T13:08:47Z</time></trkpt><trkpt lat="59.1003513336" lon="30.0328874588"><time>2026-04-22T13:08:50Z</time></trkpt><trkpt lat="59.1003727913" lon="30.0329303741"><time>2026-04-22T13:08:52Z</time></trkpt><trkpt lat="59.1003727913" lon="30.0329732895"><time>2026-04-22T13:08:55Z</time></trkpt><trkpt lat="59.1003942490" lon="30.0330162048"><time>2026-04-22T13:08:57Z</time></trkpt><trkpt lat="59.1003942490" lon="30.0330805779"><time>2026-04-22T13:09:00Z</time></trkpt><trkpt lat="59.1004157066" lon="30.0331234932"><time>2026-04-22T13:09:02Z</time></trkpt><trkpt lat="59.1004157066" lon="30.0331878662"><time>2026-04-22T13:09:05Z</time></trkpt><trkpt lat="59.1004371643" lon="30.0332093239"><time>2026-04-22T13:09:07Z</time></trkpt><trkpt lat="59.1004586220" lon="30.0332951546"><time>2026-04-22T13:09:10Z</time></trkpt><trkpt lat="59.1004800797" lon="30.0333380699"><time>2026-04-22T13:09:12Z</time></trkpt><trkpt lat="59.1005015373" lon="30.0334024429"><time>2026-04-22T13:09:15Z</time></trkpt><trkpt lat="59.1005015373" lon="30.0334453583"><time>2026-04-22T13:09:17Z</time></trkpt><trkpt lat="59.1005015373" lon="30.0335097313"><time>2026-04-22T13:09:20Z</time></trkpt><trkpt lat="59.1005015373" lon="30.0335741043"><time>2026-04-22T13:09:22Z</time></trkpt><trkpt lat="59.1005229950" lon="30.0336384773"><time>2026-04-22T13:09:25Z</time></trkpt><trkpt lat="59.1005229950" lon="30.0336599350"><time>2026-04-22T13:09:27Z</time></trkpt><trkpt lat="59.1005444527" lon="30.0337243080"><time>2026-04-22T13:09:30Z</time></trkpt><trkpt lat="59.1005444527" lon="30.0337672234"><time>2026-04-22T13:09:32Z</time></trkpt><trkpt lat="59.1005444527" lon="30.0337886810"><time>2026-04-22T13:09:35Z</time></trkpt><trkpt lat="59.1005444527" lon="30.0338315964"><time>2026-04-22T13:09:37Z</time></trkpt><trkpt lat="59.1005444527" lon="30.0338959694"><time>2026-04-22T13:09:40Z</time></trkpt><trkpt lat="59.1005444527" lon="30.0339388847"><time>2026-04-22T13:09:42Z</time></trkpt><trkpt lat="59.1005659103" lon="30.0340032578"><time>2026-04-22T13:09:45Z</time></trkpt><trkpt lat="59.1005873680" lon="30.0340247154"><time>2026-04-22T13:09:47Z</time></trkpt><trkpt lat="59.1005873680" lon="30.0340890884"><time>2026-04-22T13:09:50Z</time></trkpt><trkpt lat="59.1006088257" lon="30.0341320038"><time>2026-04-22T13:09:52Z</time></trkpt><trkpt lat="59.1006302834" lon="30.0341749191"><time>2026-04-22T13:09:55Z</time></trkpt><trkpt lat="59.1006302834" lon="30.0342392921"><time>2026-04-22T13:09:57Z</time></trkpt><trkpt lat="59.1006517410" lon="30.0343251228"><time>2026-04-22T13:10:00Z</time></trkpt><trkpt lat="59.1006517410" lon="30.0343680382"><time>2026-04-22T13:10:02Z</time></trkpt><trkpt lat="59.1006517410" lon="30.0344109535"><time>2026-04-22T13:10:05Z</time></trkpt><trkpt lat="59.1006517410" lon="30.0344538689"><time>2026-04-22T13:10:07Z</time></trkpt><trkpt lat="59.1006302834" lon="30.0345182419"><time>2026-04-22T13:10:10Z</time></trkpt><trkpt lat="59.1006517410" lon="30.0345611572"><time>2026-04-22T13:10:12Z</time></trkpt><trkpt lat="59.1006517410" lon="30.0346255302"><time>2026-04-22T13:10:15Z</time></trkpt><trkpt lat="59.1006517410" lon="30.0346684456"><time>2026-04-22T13:10:17Z</time></trkpt><trkpt lat="59.1006731987" lon="30.0347328186"><time>2026-04-22T13:10:20Z</time></trkpt><trkpt lat="59.1006731987" lon="30.0347757339"><time>2026-04-22T13:10:22Z</time></trkpt><trkpt lat="59.1006946564" lon="30.0348615646"><time>2026-04-22T13:10:25Z</time></trkpt><trkpt lat="59.1006946564" lon="30.0348830223"><time>2026-04-22T13:10:27Z</time></trkpt><trkpt lat="59.1007161140" lon="30.0349473953"><time>2026-04-22T13:10:30Z</time></trkpt><trkpt lat="59.1007161140" lon="30.0349688530"><time>2026-04-22T13:10:32Z</time></trkpt><trkpt lat="59.1007375717" lon="30.0350332260"><time>2026-04-22T13:10:35Z</time></trkpt><trkpt lat="59.1007375717" lon="30.0350975990"><time>2026-04-22T13:10:37Z</time></trkpt><trkpt lat="59.1007590294" lon="30.0351619720"><time>2026-04-22T13:10:40Z</time></trkpt><trkpt lat="59.1007590294" lon="30.0352048874"><time>2026-04-22T13:10:42Z</time></trkpt><trkpt lat="59.1007804871" lon="30.0352692604"><time>2026-04-22T13:10:45Z</time></trkpt><trkpt lat="59.1008019447" lon="30.0353121758"><time>2026-04-22T13:10:47Z</time></trkpt><trkpt lat="59.1008019447" lon="30.0353765488"><time>2026-04-22T13:10:50Z</time></trkpt><trkpt lat="59.1008019447" lon="30.0354194641"><time>2026-04-22T13:10:52Z</time></trkpt><trkpt lat="59.1008019447" lon="30.0354838371"><time>2026-04-22T13:10:55Z</time></trkpt><trkpt lat="59.1008234024" lon="30.0355482101"><time>2026-04-22T13:10:57Z</time></trkpt><trkpt lat="59.1008448601" lon="30.0356125832"><time>2026-04-22T13:11:00Z</time></trkpt><trkpt lat="59.1008448601" lon="30.0356554985"><time>2026-04-22T13:11:02Z</time></trkpt><trkpt lat="59.1008448601" lon="30.0356984138"><time>2026-04-22T13:11:05Z</time></trkpt><trkpt lat="59.1008663177" lon="30.0357413292"><time>2026-04-22T13:11:07Z</time></trkpt><trkpt lat="59.1008663177" lon="30.0358057022"><time>2026-04-22T13:11:10Z</time></trkpt><trkpt lat="59.1008877754" lon="30.0358486176"><time>2026-04-22T13:11:12Z</time></trkpt><trkpt lat="59.1008877754" lon="30.0359344482"><time>2026-04-22T13:11:15Z</time></trkpt><trkpt lat="59.1008877754" lon="30.0359773636"><time>2026-04-22T13:11:17Z</time></trkpt><trkpt lat="59.1009092331" lon="30.0360417366"><time>2026-04-22T13:11:20Z</time></trkpt><trkpt lat="59.1009306908" lon="30.0361061096"><time>2026-04-22T13:11:22Z</time></trkpt><trkpt lat="59.1009521484" lon="30.0361704826"><time>2026-04-22T13:11:25Z</time></trkpt><trkpt lat="59.1009736061" lon="30.0362133980"><time>2026-04-22T13:11:27Z</time></trkpt><trkpt lat="59.1009736061" lon="30.0362777710"><time>2026-04-22T13:11:30Z</time></trkpt><trkpt lat="59.1009736061" lon="30.0363206863"><time>2026-04-22T13:11:32Z</time></trkpt><trkpt lat="59.1009950638" lon="30.0364065170"><time>2026-04-22T13:11:35Z</time></trkpt><trkpt lat="59.1010165215" lon="30.0364708900"><time>2026-04-22T13:11:37Z</time></trkpt><trkpt lat="59.1010379791" lon="30.0365567207"><time>2026-04-22T13:11:40Z</time></trkpt><trkpt lat="59.1010379791" lon="30.0365996361"><time>2026-04-22T13:11:42Z</time></trkpt><trkpt lat="59.1010594368" lon="30.0367069244"><time>2026-04-22T13:11:45Z</time></trkpt><trkpt lat="59.1010808945" lon="30.0367712975"><time>2026-04-22T13:11:47Z</time></trkpt><trkpt lat="59.1010808945" lon="30.0368571281"><time>2026-04-22T13:11:50Z</time></trkpt><trkpt lat="59.1010808945" lon="30.0369000435"><time>2026-04-22T13:11:52Z</time></trkpt><trkpt lat="59.1011023521" lon="30.0369858742"><time>2026-04-22T13:11:55Z</time></trkpt><trkpt lat="59.1011023521" lon="30.0370502472"><time>2026-04-22T13:11:57Z</time></trkpt><trkpt lat="59.1011023521" lon="30.0371146202"><time>2026-04-22T13:12:00Z</time></trkpt><trkpt lat="59.1011023521" lon="30.0371575356"><time>2026-04-22T13:12:02Z</time></trkpt><trkpt lat="59.1011023521" lon="30.0372219086"><time>2026-04-22T13:12:05Z</time></trkpt><trkpt lat="59.1011023521" lon="30.0372648239"><time>2026-04-22T13:12:07Z</time></trkpt><trkpt lat="59.1011238098" lon="30.0373077393"><time>2026-04-22T13:12:10Z</time></trkpt><trkpt lat="59.1011238098" lon="30.0373506546"><time>2026-04-22T13:12:12Z</time></trkpt><trkpt lat="59.1011452675" lon="30.0374150276"><time>2026-04-22T13:12:15Z</time></trkpt><trkpt lat="59.1011452675" lon="30.0374579430"><time>2026-04-22T13:12:17Z</time></trkpt><trkpt lat="59.1011667252" lon="30.0375437737"><time>2026-04-22T13:12:20Z</time></trkpt><trkpt lat="59.1011667252" lon="30.0375866890"><time>2026-04-22T13:12:22Z</time></trkpt><trkpt lat="59.1011881828" lon="30.0376725197"><time>2026-04-22T13:12:25Z</time></trkpt><trkpt lat="59.1012096405" lon="30.0377154350"><time>2026-04-22T13:12:27Z</time></trkpt><trkpt lat="59.1012096405" lon="30.0378012657"><time>2026-04-22T13:12:30Z</time></trkpt><trkpt lat="59.1012096405" lon="30.0378656387"><time>2026-04-22T13:12:32Z</time></trkpt><trkpt lat="59.1012310982" lon="30.0379085541"><time>2026-04-22T13:12:35Z</time></trkpt><trkpt lat="59.1012310982" lon="30.0379300117"><time>2026-04-22T13:12:37Z</time></trkpt><trkpt lat="59.1012525558" lon="30.0379729271"><time>2026-04-22T13:12:40Z</time></trkpt><trkpt lat="59.1012525558" lon="30.0379943848"><time>2026-04-22T13:12:42Z</time></trkpt><trkpt lat="59.1012525558" lon="30.0380587578"><time>2026-04-22T13:12:45Z</time></trkpt><trkpt lat="59.1012740135" lon="30.0381016731"><time>2026-04-22T13:12:47Z</time></trkpt><trkpt lat="59.1012740135" lon="30.0381660461"><time>2026-04-22T13:12:50Z</time></trkpt><trkpt lat="59.1012740135" lon="30.0381660461"><time>2026-04-22T13:12:52Z</time></trkpt><trkpt lat="59.1012740135" lon="30.0382304192"><time>2026-04-22T13:12:55Z</time></trkpt><trkpt lat="59.1012954712" lon="30.0382733345"><time>2026-04-22T13:12:57Z</time></trkpt><trkpt lat="59.1012954712" lon="30.0383162498"><time>2026-04-22T13:13:00Z</time></trkpt><trkpt lat="59.1013169289" lon="30.0383591652"><time>2026-04-22T13:13:02Z</time></trkpt><trkpt lat="59.1013169289" lon="30.0384235382"><time>2026-04-22T13:13:05Z</time></trkpt><trkpt lat="59.1013383865" lon="30.0384664536"><time>2026-04-22T13:13:07Z</time></trkpt><trkpt lat="59.1013383865" lon="30.0385308266"><time>2026-04-22T13:13:10Z</time></trkpt><trkpt lat="59.1013598442" lon="30.0385522842"><time>2026-04-22T13:13:12Z</time></trkpt><trkpt lat="59.1013598442" lon="30.0386381149"><time>2026-04-22T13:13:15Z</time></trkpt><trkpt lat="59.1013813019" lon="30.0386810303"><time>2026-04-22T13:13:17Z</time></trkpt><trkpt lat="59.1013813019" lon="30.0387668610"><time>2026-04-22T13:13:20Z</time></trkpt><trkpt lat="59.1013813019" lon="30.0388097763"><time>2026-04-22T13:13:22Z</time></trkpt><trkpt lat="59.1013813019" lon="30.0388741493"><time>2026-04-22T13:13:25Z</time></trkpt><trkpt lat="59.1013813019" lon="30.0388956070"><time>2026-04-22T13:13:27Z</time></trkpt><trkpt lat="59.1013813019" lon="30.0389814377"><time>2026-04-22T13:13:30Z</time></trkpt><trkpt lat="59.1014027596" lon="30.0390243530"><time>2026-04-22T13:13:32Z</time></trkpt><trkpt lat="59.1014027596" lon="30.0390887260"><time>2026-04-22T13:13:35Z</time></trkpt><trkpt lat="59.1014027596" lon="30.0391101837"><time>2026-04-22T13:13:37Z</time></trkpt><trkpt lat="59.1014027596" lon="30.0391745567"><time>2026-04-22T13:13:40Z</time></trkpt><trkpt lat="59.1014242172" lon="30.0392389297"><time>2026-04-22T13:13:42Z</time></trkpt><trkpt lat="59.1014242172" lon="30.0392818451"><time>2026-04-22T13:13:45Z</time></trkpt><trkpt lat="59.1014456749" lon="30.0393247604"><time>2026-04-22T13:13:47Z</time></trkpt><trkpt lat="59.1014671326" lon="30.0394105911"><time>2026-04-22T13:13:50Z</time></trkpt><trkpt lat="59.1014671326" lon="30.0394749641"><time>2026-04-22T13:13:52Z</time></trkpt><trkpt lat="59.1014671326" lon="30.0395822525"><time>2026-04-22T13:13:55Z</time></trkpt><trkpt lat="59.1014671326" lon="30.0396251678"><time>2026-04-22T13:13:57Z</time></trkpt><trkpt lat="59.1014671326" lon="30.0396895409"><time>2026-04-22T13:14:00Z</time></trkpt><trkpt lat="59.1014885902" lon="30.0397539139"><time>2026-04-22T13:14:02Z</time></trkpt><trkpt lat="59.1015100479" lon="30.0398397446"><time>2026-04-22T13:14:05Z</time></trkpt><trkpt lat="59.1015100479" lon="30.0398826599"><time>2026-04-22T13:14:07Z</time></trkpt><trkpt lat="59.1015100479" lon="30.0399684906"><time>2026-04-22T13:14:10Z</time></trkpt><trkpt lat="59.1015315056" lon="30.0399899483"><time>2026-04-22T13:14:12Z</time></trkpt><trkpt lat="59.1015315056" lon="30.0399899483"><time>2026-04-22T13:14:15Z</time></trkpt><trkpt lat="59.1015315056" lon="30.0399684906"><time>2026-04-22T13:14:17Z</time></trkpt><trkpt lat="59.1015315056" lon="30.0400114059"><time>2026-04-22T13:14:20Z</time></trkpt><trkpt lat="59.1015315056" lon="30.0400114059"><time>2026-04-22T13:14:22Z</time></trkpt><trkpt lat="59.1015315056" lon="30.0400114059"><time>2026-04-22T13:14:25Z</time></trkpt><trkpt lat="59.1015315056" lon="30.0400114059"><time>2026-04-22T13:14:27Z</time></trkpt><trkpt lat="59.1015315056" lon="30.0400114059"><time>2026-04-22T13:14:30Z</time></trkpt><trkpt lat="59.1015315056" lon="30.0400114059"><time>2026-04-22T13:14:32Z</time></trkpt><trkpt lat="59.1015315056" lon="30.0400114059"><time>2026-04-22T13:14:35Z</time></trkpt><trkpt lat="59.1015315056" lon="30.0400114059"><time>2026-04-22T13:14:37Z</time></trkpt><trkpt lat="59.1015315056" lon="30.0400114059"><time>2026-04-22T13:14:40Z</time></trkpt><trkpt lat="59.1015315056" lon="30.0400114059"><time>2026-04-22T13:14:42Z</time></trkpt><trkpt lat="59.1015315056" lon="30.0400114059"><time>2026-04-22T13:14:45Z</time></trkpt><trkpt lat="59.1015315056" lon="30.0400114059"><time>2026-04-22T13:14:47Z</time></trkpt><trkpt lat="59.1015315056" lon="30.0399899483"><time>2026-04-22T13:14:50Z</time></trkpt><trkpt lat="59.1015100479" lon="30.0399899483"><time>2026-04-22T13:14:52Z</time></trkpt><trkpt lat="59.1015315056" lon="30.0399899483"><time>2026-04-22T13:14:55Z</time></trkpt><trkpt lat="59.1015315056" lon="30.0400114059"><time>2026-04-22T13:14:57Z</time></trkpt><trkpt lat="59.1015315056" lon="30.0400114059"><time>2026-04-22T13:15:00Z</time></trkpt><trkpt lat="59.1015315056" lon="30.0400114059"><time>2026-04-22T13:15:02Z</time></trkpt><trkpt lat="59.1015315056" lon="30.0400114059"><time>2026-04-22T13:15:05Z</time></trkpt><trkpt lat="59.1015315056" lon="30.0400328636"><time>2026-04-22T13:15:07Z</time></trkpt><trkpt lat="59.1015315056" lon="30.0400543213"><time>2026-04-22T13:15:10Z</time></trkpt><trkpt lat="59.1015315056" lon="30.0400543213"><time>2026-04-22T13:15:12Z</time></trkpt><trkpt lat="59.1015315056" lon="30.0400543213"><time>2026-04-22T13:15:15Z</time></trkpt><trkpt lat="59.1015315056" lon="30.0400543213"><time>2026-04-22T13:15:17Z</time></trkpt><trkpt lat="59.1015315056" lon="30.0400543213"><time>2026-04-22T13:15:20Z</time></trkpt><trkpt lat="59.1015315056" lon="30.0400328636"><time>2026-04-22T13:15:22Z</time></trkpt><trkpt lat="59.1015315056" lon="30.0400328636"><time>2026-04-22T13:15:25Z</time></trkpt><trkpt lat="59.1015315056" lon="30.0400328636"><time>2026-04-22T13:15:27Z</time></trkpt><trkpt lat="59.1015315056" lon="30.0400543213"><time>2026-04-22T13:15:30Z</time></trkpt><trkpt lat="59.1015315056" lon="30.0400543213"><time>2026-04-22T13:15:32Z</time></trkpt><trkpt lat="59.1015315056" lon="30.0400543213"><time>2026-04-22T13:15:35Z</time></trkpt><trkpt lat="59.1015315056" lon="30.0400543213"><time>2026-04-22T13:15:37Z</time></trkpt><trkpt lat="59.1015315056" lon="30.0400543213"><time>2026-04-22T13:15:40Z</time></trkpt><trkpt lat="59.1015315056" lon="30.0400543213"><time>2026-04-22T13:15:42Z</time></trkpt><trkpt lat="59.1015315056" lon="30.0400543213"><time>2026-04-22T13:15:45Z</time></trkpt><trkpt lat="59.1015315056" lon="30.0400543213"><time>2026-04-22T13:15:47Z</time></trkpt><trkpt lat="59.1015315056" lon="30.0400543213"><time>2026-04-22T13:15:50Z</time></trkpt><trkpt lat="59.1015315056" lon="30.0400543213"><time>2026-04-22T13:15:52Z</time></trkpt><trkpt lat="59.1015315056" lon="30.0400543213"><time>2026-04-22T13:15:55Z</time></trkpt><trkpt lat="59.1015315056" lon="30.0400543213"><time>2026-04-22T13:15:57Z</time></trkpt><trkpt lat="59.1015315056" lon="30.0400543213"><time>2026-04-22T13:16:00Z</time></trkpt><trkpt lat="59.1015315056" lon="30.0400543213"><time>2026-04-22T13:16:02Z</time></trkpt><trkpt lat="59.1015315056" lon="30.0400543213"><time>2026-04-22T13:16:05Z</time></trkpt><trkpt lat="59.1015315056" lon="30.0400757790"><time>2026-04-22T13:16:07Z</time></trkpt><trkpt lat="59.1015315056" lon="30.0401186943"><time>2026-04-22T13:16:10Z</time></trkpt><trkpt lat="59.1015315056" lon="30.0401186943"><time>2026-04-22T13:16:12Z</time></trkpt><trkpt lat="59.1015315056" lon="30.0401186943"><time>2026-04-22T13:16:15Z</time></trkpt><trkpt lat="59.1015315056" lon="30.0401186943"><time>2026-04-22T13:16:17Z</time></trkpt><trkpt lat="59.1015315056" lon="30.0401186943"><time>2026-04-22T13:16:20Z</time></trkpt><trkpt lat="59.1015315056" lon="30.0401186943"><time>2026-04-22T13:16:22Z</time></trkpt><trkpt lat="59.1015315056" lon="30.0401616096"><time>2026-04-22T13:16:25Z</time></trkpt><trkpt lat="59.1015315056" lon="30.0401830673"><time>2026-04-22T13:16:27Z</time></trkpt><trkpt lat="59.1015529633" lon="30.0402259827"><time>2026-04-22T13:16:30Z</time></trkpt><trkpt lat="59.1015744209" lon="30.0402903557"><time>2026-04-22T13:16:32Z</time></trkpt><trkpt lat="59.1015744209" lon="30.0403118134"><time>2026-04-22T13:16:35Z</time></trkpt><trkpt lat="59.1015744209" lon="30.0403332710"><time>2026-04-22T13:16:37Z</time></trkpt><trkpt lat="59.1015744209" lon="30.0403332710"><time>2026-04-22T13:16:40Z</time></trkpt><trkpt lat="59.1015744209" lon="30.0403976440"><time>2026-04-22T13:16:42Z</time></trkpt><trkpt lat="59.1015744209" lon="30.0404405594"><time>2026-04-22T13:16:45Z</time></trkpt><trkpt lat="59.1015744209" lon="30.0404405594"><time>2026-04-22T13:16:47Z</time></trkpt><trkpt lat="59.1015744209" lon="30.0404405594"><time>2026-04-22T13:16:50Z</time></trkpt><trkpt lat="59.1015744209" lon="30.0404405594"><time>2026-04-22T13:16:52Z</time></trkpt><trkpt lat="59.1015744209" lon="30.0404405594"><time>2026-04-22T13:16:55Z</time></trkpt><trkpt lat="59.1015744209" lon="30.0404620171"><time>2026-04-22T13:16:57Z</time></trkpt><trkpt lat="59.1015958786" lon="30.0405478477"><time>2026-04-22T13:17:00Z</time></trkpt><trkpt lat="59.1015958786" lon="30.0405907631"><time>2026-04-22T13:17:02Z</time></trkpt><trkpt lat="59.1016173363" lon="30.0406765938"><time>2026-04-22T13:17:05Z</time></trkpt><trkpt lat="59.1016173363" lon="30.0407195091"><time>2026-04-22T13:17:07Z</time></trkpt><trkpt lat="59.1016173363" lon="30.0407838821"><time>2026-04-22T13:17:10Z</time></trkpt><trkpt lat="59.1016173363" lon="30.0408482552"><time>2026-04-22T13:17:12Z</time></trkpt><trkpt lat="59.1016387939" lon="30.0409126282"><time>2026-04-22T13:17:15Z</time></trkpt><trkpt lat="59.1016387939" lon="30.0409555435"><time>2026-04-22T13:17:17Z</time></trkpt><trkpt lat="59.1016602516" lon="30.0410413742"><time>2026-04-22T13:17:20Z</time></trkpt><trkpt lat="59.1016817093" lon="30.0410842896"><time>2026-04-22T13:17:22Z</time></trkpt><trkpt lat="59.1016817093" lon="30.0411486626"><time>2026-04-22T13:17:25Z</time></trkpt><trkpt lat="59.1017031670" lon="30.0412130356"><time>2026-04-22T13:17:27Z</time></trkpt><trkpt lat="59.1017031670" lon="30.0412774086"><time>2026-04-22T13:17:30Z</time></trkpt><trkpt lat="59.1017246246" lon="30.0413203239"><time>2026-04-22T13:17:32Z</time></trkpt><trkpt lat="59.1017460823" lon="30.0414061546"><time>2026-04-22T13:17:35Z</time></trkpt><trkpt lat="59.1017889977" lon="30.0414705276"><time>2026-04-22T13:17:37Z</time></trkpt><trkpt lat="59.1017889977" lon="30.0415349007"><time>2026-04-22T13:17:40Z</time></trkpt><trkpt lat="59.1017889977" lon="30.0415563583"><time>2026-04-22T13:17:42Z</time></trkpt><trkpt lat="59.1017889977" lon="30.0415992737"><time>2026-04-22T13:17:45Z</time></trkpt><trkpt lat="59.1017889977" lon="30.0416421890"><time>2026-04-22T13:17:47Z</time></trkpt><trkpt lat="59.1017889977" lon="30.0417065620"><time>2026-04-22T13:17:50Z</time></trkpt><trkpt lat="59.1017889977" lon="30.0417494774"><time>2026-04-22T13:17:52Z</time></trkpt><trkpt lat="59.1018104553" lon="30.0418353081"><time>2026-04-22T13:17:55Z</time></trkpt><trkpt lat="59.1018104553" lon="30.0418996811"><time>2026-04-22T13:17:57Z</time></trkpt><trkpt lat="59.1018104553" lon="30.0419855118"><time>2026-04-22T13:18:00Z</time></trkpt><trkpt lat="59.1018319130" lon="30.0420284271"><time>2026-04-22T13:18:02Z</time></trkpt><trkpt lat="59.1018319130" lon="30.0421142578"><time>2026-04-22T13:18:05Z</time></trkpt><trkpt lat="59.1018533707" lon="30.0421571732"><time>2026-04-22T13:18:07Z</time></trkpt><trkpt lat="59.1018533707" lon="30.0422215462"><time>2026-04-22T13:18:10Z</time></trkpt><trkpt lat="59.1018533707" lon="30.0422644615"><time>2026-04-22T13:18:12Z</time></trkpt><trkpt lat="59.1018533707" lon="30.0423288345"><time>2026-04-22T13:18:15Z</time></trkpt><trkpt lat="59.1018533707" lon="30.0423717499"><time>2026-04-22T13:18:17Z</time></trkpt><trkpt lat="59.1018533707" lon="30.0423932076"><time>2026-04-22T13:18:20Z</time></trkpt><trkpt lat="59.1018748283" lon="30.0424361229"><time>2026-04-22T13:18:22Z</time></trkpt><trkpt lat="59.1018748283" lon="30.0425219536"><time>2026-04-22T13:18:25Z</time></trkpt><trkpt lat="59.1018748283" lon="30.0425648689"><time>2026-04-22T13:18:27Z</time></trkpt><trkpt lat="59.1018748283" lon="30.0426077843"><time>2026-04-22T13:18:30Z</time></trkpt><trkpt lat="59.1018748283" lon="30.0426506996"><time>2026-04-22T13:18:32Z</time></trkpt><trkpt lat="59.1018748283" lon="30.0427365303"><time>2026-04-22T13:18:35Z</time></trkpt><trkpt lat="59.1018748283" lon="30.0427794456"><time>2026-04-22T13:18:37Z</time></trkpt><trkpt lat="59.1018748283" lon="30.0428652763"><time>2026-04-22T13:18:40Z</time></trkpt><trkpt lat="59.1018748283" lon="30.0428867340"><time>2026-04-22T13:18:42Z</time></trkpt><trkpt lat="59.1018962860" lon="30.0429725647"><time>2026-04-22T13:18:45Z</time></trkpt><trkpt lat="59.1018962860" lon="30.0430154800"><time>2026-04-22T13:18:47Z</time></trkpt><trkpt lat="59.1019392014" lon="30.0430798531"><time>2026-04-22T13:18:50Z</time></trkpt><trkpt lat="59.1019606590" lon="30.0431227684"><time>2026-04-22T13:18:52Z</time></trkpt><trkpt lat="59.1019821167" lon="30.0431871414"><time>2026-04-22T13:18:55Z</time></trkpt><trkpt lat="59.1019821167" lon="30.0432300568"><time>2026-04-22T13:18:57Z</time></trkpt><trkpt lat="59.1019821167" lon="30.0432944298"><time>2026-04-22T13:19:00Z</time></trkpt><trkpt lat="59.1020035744" lon="30.0433373451"><time>2026-04-22T13:19:02Z</time></trkpt><trkpt lat="59.1020035744" lon="30.0434231758"><time>2026-04-22T13:19:05Z</time></trkpt><trkpt lat="59.1020250320" lon="30.0434446335"><time>2026-04-22T13:19:07Z</time></trkpt><trkpt lat="59.1020464897" lon="30.0435090065"><time>2026-04-22T13:19:10Z</time></trkpt><trkpt lat="59.1020464897" lon="30.0435519218"><time>2026-04-22T13:19:12Z</time></trkpt><trkpt lat="59.1020464897" lon="30.0435948372"><time>2026-04-22T13:19:15Z</time></trkpt><trkpt lat="59.1020679474" lon="30.0436377525"><time>2026-04-22T13:19:17Z</time></trkpt><trkpt lat="59.1020679474" lon="30.0437021255"><time>2026-04-22T13:19:20Z</time></trkpt><trkpt lat="59.1020679474" lon="30.0437450409"><time>2026-04-22T13:19:22Z</time></trkpt><trkpt lat="59.1020894051" lon="30.0438094139"><time>2026-04-22T13:19:25Z</time></trkpt><trkpt lat="59.1021108627" lon="30.0438523293"><time>2026-04-22T13:19:27Z</time></trkpt><trkpt lat="59.1021323204" lon="30.0439167023"><time>2026-04-22T13:19:30Z</time></trkpt><trkpt lat="59.1021323204" lon="30.0439596176"><time>2026-04-22T13:19:32Z</time></trkpt><trkpt lat="59.1021537781" lon="30.0440239906"><time>2026-04-22T13:19:35Z</time></trkpt><trkpt lat="59.1021537781" lon="30.0440669060"><time>2026-04-22T13:19:37Z</time></trkpt><trkpt lat="59.1021537781" lon="30.0441741943"><time>2026-04-22T13:19:40Z</time></trkpt><trkpt lat="59.1021752357" lon="30.0442171097"><time>2026-04-22T13:19:42Z</time></trkpt><trkpt lat="59.1021966934" lon="30.0442814827"><time>2026-04-22T13:19:45Z</time></trkpt><trkpt lat="59.1021966934" lon="30.0443243980"><time>2026-04-22T13:19:47Z</time></trkpt><trkpt lat="59.1021966934" lon="30.0443673134"><time>2026-04-22T13:19:50Z</time></trkpt><trkpt lat="59.1021966934" lon="30.0443673134"><time>2026-04-22T13:19:52Z</time></trkpt><trkpt lat="59.1021966934" lon="30.0444531441"><time>2026-04-22T13:19:55Z</time></trkpt><trkpt lat="59.1022181511" lon="30.0444746017"><time>2026-04-22T13:19:57Z</time></trkpt><trkpt lat="59.1022181511" lon="30.0445389748"><time>2026-04-22T13:20:00Z</time></trkpt><trkpt lat="59.1022181511" lon="30.0445818901"><time>2026-04-22T13:20:02Z</time></trkpt><trkpt lat="59.1022396088" lon="30.0446462631"><time>2026-04-22T13:20:05Z</time></trkpt><trkpt lat="59.1022396088" lon="30.0446891785"><time>2026-04-22T13:20:07Z</time></trkpt><trkpt lat="59.1022396088" lon="30.0447106361"><time>2026-04-22T13:20:10Z</time></trkpt><trkpt lat="59.1022396088" lon="30.0447106361"><time>2026-04-22T13:20:12Z</time></trkpt><trkpt lat="59.1022610664" lon="30.0447320938"><time>2026-04-22T13:20:15Z</time></trkpt><trkpt lat="59.1022610664" lon="30.0447320938"><time>2026-04-22T13:20:17Z</time></trkpt><trkpt lat="59.1022610664" lon="30.0447750092"><time>2026-04-22T13:20:20Z</time></trkpt><trkpt lat="59.1022610664" lon="30.0448393822"><time>2026-04-22T13:20:22Z</time></trkpt><trkpt lat="59.1022825241" lon="30.0449037552"><time>2026-04-22T13:20:25Z</time></trkpt><trkpt lat="59.1022825241" lon="30.0449466705"><time>2026-04-22T13:20:27Z</time></trkpt><trkpt lat="59.1022825241" lon="30.0449681282"><time>2026-04-22T13:20:30Z</time></trkpt><trkpt lat="59.1022825241" lon="30.0449681282"><time>2026-04-22T13:20:32Z</time></trkpt><trkpt lat="59.1022825241" lon="30.0449681282"><time>2026-04-22T13:20:35Z</time></trkpt><trkpt lat="59.1022825241" lon="30.0449895859"><time>2026-04-22T13:20:37Z</time></trkpt><trkpt lat="59.1023039818" lon="30.0450539589"><time>2026-04-22T13:20:40Z</time></trkpt><trkpt lat="59.1023039818" lon="30.0451183319"><time>2026-04-22T13:20:42Z</time></trkpt><trkpt lat="59.1023254395" lon="30.0452041626"><time>2026-04-22T13:20:45Z</time></trkpt><trkpt lat="59.1023254395" lon="30.0452685356"><time>2026-04-22T13:20:47Z</time></trkpt><trkpt lat="59.1023468971" lon="30.0453543663"><time>2026-04-22T13:20:50Z</time></trkpt><trkpt lat="59.1023468971" lon="30.0453972816"><time>2026-04-22T13:20:52Z</time></trkpt><trkpt lat="59.1023683548" lon="30.0454616547"><time>2026-04-22T13:20:55Z</time></trkpt><trkpt lat="59.1023683548" lon="30.0455474854"><time>2026-04-22T13:20:57Z</time></trkpt><trkpt lat="59.1023898125" lon="30.0456118584"><time>2026-04-22T13:21:00Z</time></trkpt><trkpt lat="59.1023898125" lon="30.0456547737"><time>2026-04-22T13:21:02Z</time></trkpt><trkpt lat="59.1024112701" lon="30.0457191467"><time>2026-04-22T13:21:05Z</time></trkpt><trkpt lat="59.1024112701" lon="30.0457406044"><time>2026-04-22T13:21:07Z</time></trkpt><trkpt lat="59.1024541855" lon="30.0458264351"><time>2026-04-22T13:21:10Z</time></trkpt><trkpt lat="59.1025185585" lon="30.0459122658"><time>2026-04-22T13:21:12Z</time></trkpt><trkpt lat="59.1025614738" lon="30.0459122658"><time>2026-04-22T13:21:15Z</time></trkpt><trkpt lat="59.1025829315" lon="30.0459551811"><time>2026-04-22T13:21:17Z</time></trkpt><trkpt lat="59.1026043892" lon="30.0459980965"><time>2026-04-22T13:21:20Z</time></trkpt><trkpt lat="59.1026043892" lon="30.0460410118"><time>2026-04-22T13:21:22Z</time></trkpt><trkpt lat="59.1026473045" lon="30.0461053848"><time>2026-04-22T13:21:25Z</time></trkpt><trkpt lat="59.1026687622" lon="30.0461697578"><time>2026-04-22T13:21:27Z</time></trkpt><trkpt lat="59.1026687622" lon="30.0462555885"><time>2026-04-22T13:21:30Z</time></trkpt><trkpt lat="59.1026473045" lon="30.0463199615"><time>2026-04-22T13:21:32Z</time></trkpt><trkpt lat="59.1026473045" lon="30.0463628769"><time>2026-04-22T13:21:35Z</time></trkpt><trkpt lat="59.1026687622" lon="30.0464057922"><time>2026-04-22T13:21:37Z</time></trkpt><trkpt lat="59.1026902199" lon="30.0464916229"><time>2026-04-22T13:21:40Z</time></trkpt><trkpt lat="59.1026902199" lon="30.0465130806"><time>2026-04-22T13:21:42Z</time></trkpt><trkpt lat="59.1027116776" lon="30.0465774536"><time>2026-04-22T13:21:45Z</time></trkpt><trkpt lat="59.1027116776" lon="30.0465989113"><time>2026-04-22T13:21:47Z</time></trkpt><trkpt lat="59.1027331352" lon="30.0466418266"><time>2026-04-22T13:21:50Z</time></trkpt><trkpt lat="59.1027331352" lon="30.0466632843"><time>2026-04-22T13:21:52Z</time></trkpt><trkpt lat="59.1027331352" lon="30.0467061996"><time>2026-04-22T13:21:55Z</time></trkpt><trkpt lat="59.1027331352" lon="30.0467491150"><time>2026-04-22T13:21:57Z</time></trkpt><trkpt lat="59.1027545929" lon="30.0468349457"><time>2026-04-22T13:22:00Z</time></trkpt><trkpt lat="59.1027545929" lon="30.0468778610"><time>2026-04-22T13:22:02Z</time></trkpt><trkpt lat="59.1027545929" lon="30.0468993187"><time>2026-04-22T13:22:05Z</time></trkpt><trkpt lat="59.1027545929" lon="30.0468993187"><time>2026-04-22T13:22:07Z</time></trkpt><trkpt lat="59.1027545929" lon="30.0468993187"><time>2026-04-22T13:22:10Z</time></trkpt><trkpt lat="59.1027545929" lon="30.0468993187"><time>2026-04-22T13:22:12Z</time></trkpt><trkpt lat="59.1027545929" lon="30.0468993187"><time>2026-04-22T13:22:15Z</time></trkpt><trkpt lat="59.1027545929" lon="30.0469422340"><time>2026-04-22T13:22:17Z</time></trkpt><trkpt lat="59.1027545929" lon="30.0469851494"><time>2026-04-22T13:22:20Z</time></trkpt><trkpt lat="59.1027545929" lon="30.0470495224"><time>2026-04-22T13:22:22Z</time></trkpt><trkpt lat="59.1027760506" lon="30.0471138954"><time>2026-04-22T13:22:25Z</time></trkpt><trkpt lat="59.1027975082" lon="30.0471353531"><time>2026-04-22T13:22:27Z</time></trkpt><trkpt lat="59.1028404236" lon="30.0471782684"><time>2026-04-22T13:22:30Z</time></trkpt><trkpt lat="59.1028618813" lon="30.0471997261"><time>2026-04-22T13:22:32Z</time></trkpt><trkpt lat="59.1028833389" lon="30.0472426414"><time>2026-04-22T13:22:35Z</time></trkpt><trkpt lat="59.1029047966" lon="30.0472426414"><time>2026-04-22T13:22:37Z</time></trkpt><trkpt lat="59.1029047966" lon="30.0472426414"><time>2026-04-22T13:22:40Z</time></trkpt><trkpt lat="59.1029047966" lon="30.0472426414"><time>2026-04-22T13:22:42Z</time></trkpt><trkpt lat="59.1029262543" lon="30.0472426414"><time>2026-04-22T13:22:45Z</time></trkpt><trkpt lat="59.1029262543" lon="30.0472426414"><time>2026-04-22T13:22:47Z</time></trkpt><trkpt lat="59.1029262543" lon="30.0472426414"><time>2026-04-22T13:22:50Z</time></trkpt><trkpt lat="59.1029262543" lon="30.0472426414"><time>2026-04-22T13:22:52Z</time></trkpt><trkpt lat="59.1029262543" lon="30.0472426414"><time>2026-04-22T13:22:55Z</time></trkpt><trkpt lat="59.1029262543" lon="30.0472426414"><time>2026-04-22T13:22:57Z</time></trkpt><trkpt lat="59.1029262543" lon="30.0472426414"><time>2026-04-22T13:23:00Z</time></trkpt><trkpt lat="59.1029262543" lon="30.0472426414"><time>2026-04-22T13:23:02Z</time></trkpt><trkpt lat="59.1029262543" lon="30.0472426414"><time>2026-04-22T13:23:05Z</time></trkpt><trkpt lat="59.1029262543" lon="30.0472426414"><time>2026-04-22T13:23:07Z</time></trkpt><trkpt lat="59.1029262543" lon="30.0472426414"><time>2026-04-22T13:23:10Z</time></trkpt><trkpt lat="59.1029262543" lon="30.0472426414"><time>2026-04-22T13:23:12Z</time></trkpt><trkpt lat="59.1029262543" lon="30.0472426414"><time>2026-04-22T13:23:15Z</time></trkpt><trkpt lat="59.1029262543" lon="30.0472426414"><time>2026-04-22T13:23:17Z</time></trkpt><trkpt lat="59.1029262543" lon="30.0472426414"><time>2026-04-22T13:23:20Z</time></trkpt><trkpt lat="59.1029262543" lon="30.0472426414"><time>2026-04-22T13:23:22Z</time></trkpt><trkpt lat="59.1029262543" lon="30.0472640991"><time>2026-04-22T13:23:25Z</time></trkpt><trkpt lat="59.1029262543" lon="30.0472640991"><time>2026-04-22T13:23:27Z</time></trkpt><trkpt lat="59.1029262543" lon="30.0472640991"><time>2026-04-22T13:23:30Z</time></trkpt><trkpt lat="59.1029262543" lon="30.0472640991"><time>2026-04-22T13:23:32Z</time></trkpt><trkpt lat="59.1029262543" lon="30.0472640991"><time>2026-04-22T13:23:35Z</time></trkpt><trkpt lat="59.1029262543" lon="30.0472640991"><time>2026-04-22T13:23:37Z</time></trkpt><trkpt lat="59.1029262543" lon="30.0472640991"><time>2026-04-22T13:23:40Z</time></trkpt><trkpt lat="59.1029477119" lon="30.0472640991"><time>2026-04-22T13:23:42Z</time></trkpt><trkpt lat="59.1029477119" lon="30.0472640991"><time>2026-04-22T13:23:45Z</time></trkpt><trkpt lat="59.1029691696" lon="30.0473070145"><time>2026-04-22T13:23:47Z</time></trkpt><trkpt lat="59.1029691696" lon="30.0473284721"><time>2026-04-22T13:23:50Z</time></trkpt><trkpt lat="59.1029691696" lon="30.0473284721"><time>2026-04-22T13:23:52Z</time></trkpt><trkpt lat="59.1029691696" lon="30.0473284721"><time>2026-04-22T13:23:55Z</time></trkpt><trkpt lat="59.1029691696" lon="30.0473284721"><time>2026-04-22T13:23:57Z</time></trkpt><trkpt lat="59.1029691696" lon="30.0473284721"><time>2026-04-22T13:24:00Z</time></trkpt><trkpt lat="59.1029906273" lon="30.0473284721"><time>2026-04-22T13:24:02Z</time></trkpt><trkpt lat="59.1029906273" lon="30.0473284721"><time>2026-04-22T13:24:05Z</time></trkpt><trkpt lat="59.1029906273" lon="30.0473284721"><time>2026-04-22T13:24:07Z</time></trkpt><trkpt lat="59.1029906273" lon="30.0473284721"><time>2026-04-22T13:24:10Z</time></trkpt><trkpt lat="59.1029906273" lon="30.0473284721"><time>2026-04-22T13:24:12Z</time></trkpt><trkpt lat="59.1029906273" lon="30.0473284721"><time>2026-04-22T13:24:15Z</time></trkpt><trkpt lat="59.1029906273" lon="30.0473284721"><time>2026-04-22T13:24:17Z</time></trkpt><trkpt lat="59.1029906273" lon="30.0473284721"><time>2026-04-22T13:24:20Z</time></trkpt><trkpt lat="59.1029906273" lon="30.0473284721"><time>2026-04-22T13:24:22Z</time></trkpt><trkpt lat="59.1029906273" lon="30.0473284721"><time>2026-04-22T13:24:25Z</time></trkpt><trkpt lat="59.1029906273" lon="30.0473284721"><time>2026-04-22T13:24:27Z</time></trkpt><trkpt lat="59.1029906273" lon="30.0473284721"><time>2026-04-22T13:24:30Z</time></trkpt><trkpt lat="59.1029906273" lon="30.0473284721"><time>2026-04-22T13:24:32Z</time></trkpt><trkpt lat="59.1029906273" lon="30.0473284721"><time>2026-04-22T13:24:35Z</time></trkpt><trkpt lat="59.1029906273" lon="30.0473284721"><time>2026-04-22T13:24:37Z</time></trkpt><trkpt lat="59.1029906273" lon="30.0473284721"><time>2026-04-22T13:24:40Z</time></trkpt><trkpt lat="59.1029906273" lon="30.0473284721"><time>2026-04-22T13:24:42Z</time></trkpt><trkpt lat="59.1029906273" lon="30.0473284721"><time>2026-04-22T13:24:45Z</time></trkpt><trkpt lat="59.1029906273" lon="30.0473284721"><time>2026-04-22T13:24:47Z</time></trkpt><trkpt lat="59.1029906273" lon="30.0473284721"><time>2026-04-22T13:24:50Z</time></trkpt><trkpt lat="59.1030120850" lon="30.0473070145"><time>2026-04-22T13:24:52Z</time></trkpt><trkpt lat="59.1030120850" lon="30.0472640991"><time>2026-04-22T13:24:55Z</time></trkpt><trkpt lat="59.1030120850" lon="30.0472426414"><time>2026-04-22T13:24:57Z</time></trkpt><trkpt lat="59.1030335426" lon="30.0472211838"><time>2026-04-22T13:25:00Z</time></trkpt><trkpt lat="59.1030335426" lon="30.0472211838"><time>2026-04-22T13:25:02Z</time></trkpt><trkpt lat="59.1030979156" lon="30.0471782684"><time>2026-04-22T13:25:05Z</time></trkpt><trkpt lat="59.1031193733" lon="30.0471782684"><time>2026-04-22T13:25:07Z</time></trkpt><trkpt lat="59.1031193733" lon="30.0471782684"><time>2026-04-22T13:25:10Z</time></trkpt><trkpt lat="59.1031193733" lon="30.0471782684"><time>2026-04-22T13:25:12Z</time></trkpt><trkpt lat="59.1031193733" lon="30.0471782684"><time>2026-04-22T13:25:15Z</time></trkpt><trkpt lat="59.1031193733" lon="30.0471568108"><time>2026-04-22T13:25:17Z</time></trkpt><trkpt lat="59.1031193733" lon="30.0471568108"><time>2026-04-22T13:25:20Z</time></trkpt><trkpt lat="59.1031193733" lon="30.0471568108"><time>2026-04-22T13:25:22Z</time></trkpt><trkpt lat="59.1031408310" lon="30.0471138954"><time>2026-04-22T13:25:25Z</time></trkpt><trkpt lat="59.1031408310" lon="30.0471138954"><time>2026-04-22T13:25:27Z</time></trkpt><trkpt lat="59.1031408310" lon="30.0470924377"><time>2026-04-22T13:25:30Z</time></trkpt><trkpt lat="59.1031408310" lon="30.0470924377"><time>2026-04-22T13:25:32Z</time></trkpt><trkpt lat="59.1031408310" lon="30.0470924377"><time>2026-04-22T13:25:35Z</time></trkpt><trkpt lat="59.1031408310" lon="30.0470924377"><time>2026-04-22T13:25:37Z</time></trkpt><trkpt lat="59.1031408310" lon="30.0470924377"><time>2026-04-22T13:25:40Z</time></trkpt><trkpt lat="59.1031408310" lon="30.0470924377"><time>2026-04-22T13:25:42Z</time></trkpt><trkpt lat="59.1031408310" lon="30.0470924377"><time>2026-04-22T13:25:45Z</time></trkpt><trkpt lat="59.1031408310" lon="30.0470924377"><time>2026-04-22T13:25:47Z</time></trkpt><trkpt lat="59.1031408310" lon="30.0470924377"><time>2026-04-22T13:25:50Z</time></trkpt><trkpt lat="59.1031408310" lon="30.0470924377"><time>2026-04-22T13:25:52Z</time></trkpt><trkpt lat="59.1031408310" lon="30.0470924377"><time>2026-04-22T13:25:55Z</time></trkpt><trkpt lat="59.1031408310" lon="30.0470924377"><time>2026-04-22T13:25:57Z</time></trkpt><trkpt lat="59.1031622887" lon="30.0470495224"><time>2026-04-22T13:26:00Z</time></trkpt><trkpt lat="59.1031622887" lon="30.0470495224"><time>2026-04-22T13:26:02Z</time></trkpt><trkpt lat="59.1031622887" lon="30.0470495224"><time>2026-04-22T13:26:05Z</time></trkpt><trkpt lat="59.1031622887" lon="30.0470495224"><time>2026-04-22T13:26:07Z</time></trkpt><trkpt lat="59.1031622887" lon="30.0470495224"><time>2026-04-22T13:26:10Z</time></trkpt><trkpt lat="59.1031622887" lon="30.0470495224"><time>2026-04-22T13:26:12Z</time></trkpt><trkpt lat="59.1031622887" lon="30.0470495224"><time>2026-04-22T13:26:15Z</time></trkpt><trkpt lat="59.1031622887" lon="30.0470495224"><time>2026-04-22T13:26:17Z</time></trkpt><trkpt lat="59.1031622887" lon="30.0470495224"><time>2026-04-22T13:26:20Z</time></trkpt><trkpt lat="59.1031622887" lon="30.0470495224"><time>2026-04-22T13:26:22Z</time></trkpt><trkpt lat="59.1031622887" lon="30.0470495224"><time>2026-04-22T13:26:25Z</time></trkpt><trkpt lat="59.1031622887" lon="30.0470495224"><time>2026-04-22T13:26:27Z</time></trkpt><trkpt lat="59.1031622887" lon="30.0470495224"><time>2026-04-22T13:26:30Z</time></trkpt><trkpt lat="59.1031622887" lon="30.0470495224"><time>2026-04-22T13:26:32Z</time></trkpt><trkpt lat="59.1031622887" lon="30.0470495224"><time>2026-04-22T13:26:35Z</time></trkpt><trkpt lat="59.1031622887" lon="30.0470495224"><time>2026-04-22T13:26:37Z</time></trkpt><trkpt lat="59.1031622887" lon="30.0470495224"><time>2026-04-22T13:26:40Z</time></trkpt><trkpt lat="59.1031622887" lon="30.0470495224"><time>2026-04-22T13:26:42Z</time></trkpt><trkpt lat="59.1031622887" lon="30.0470495224"><time>2026-04-22T13:26:45Z</time></trkpt><trkpt lat="59.1031622887" lon="30.0470495224"><time>2026-04-22T13:26:47Z</time></trkpt><trkpt lat="59.1031622887" lon="30.0470495224"><time>2026-04-22T13:26:50Z</time></trkpt><trkpt lat="59.1031622887" lon="30.0470495224"><time>2026-04-22T13:26:52Z</time></trkpt><trkpt lat="59.1031622887" lon="30.0470495224"><time>2026-04-22T13:26:55Z</time></trkpt><trkpt lat="59.1031622887" lon="30.0470495224"><time>2026-04-22T13:26:57Z</time></trkpt><trkpt lat="59.1031622887" lon="30.0470495224"><time>2026-04-22T13:27:00Z</time></trkpt><trkpt lat="59.1031622887" lon="30.0470495224"><time>2026-04-22T13:27:02Z</time></trkpt><trkpt lat="59.1031622887" lon="30.0470495224"><time>2026-04-22T13:27:05Z</time></trkpt><trkpt lat="59.1031622887" lon="30.0470495224"><time>2026-04-22T13:27:07Z</time></trkpt><trkpt lat="59.1031622887" lon="30.0470495224"><time>2026-04-22T13:27:10Z</time></trkpt><trkpt lat="59.1031622887" lon="30.0470495224"><time>2026-04-22T13:27:12Z</time></trkpt><trkpt lat="59.1031622887" lon="30.0470495224"><time>2026-04-22T13:27:15Z</time></trkpt><trkpt lat="59.1031622887" lon="30.0470495224"><time>2026-04-22T13:27:17Z</time></trkpt><trkpt lat="59.1031622887" lon="30.0470495224"><time>2026-04-22T13:27:20Z</time></trkpt><trkpt lat="59.1031622887" lon="30.0470280647"><time>2026-04-22T13:27:22Z</time></trkpt><trkpt lat="59.1031622887" lon="30.0470280647"><time>2026-04-22T13:27:25Z</time></trkpt><trkpt lat="59.1031622887" lon="30.0470280647"><time>2026-04-22T13:27:27Z</time></trkpt><trkpt lat="59.1031622887" lon="30.0470280647"><time>2026-04-22T13:27:30Z</time></trkpt><trkpt lat="59.1031622887" lon="30.0470280647"><time>2026-04-22T13:27:32Z</time></trkpt><trkpt lat="59.1031622887" lon="30.0470280647"><time>2026-04-22T13:27:35Z</time></trkpt><trkpt lat="59.1031622887" lon="30.0470280647"><time>2026-04-22T13:27:37Z</time></trkpt><trkpt lat="59.1031622887" lon="30.0470280647"><time>2026-04-22T13:27:40Z</time></trkpt><trkpt lat="59.1031622887" lon="30.0470280647"><time>2026-04-22T13:27:42Z</time></trkpt><trkpt lat="59.1031622887" lon="30.0470280647"><time>2026-04-22T13:27:45Z</time></trkpt><trkpt lat="59.1031622887" lon="30.0470280647"><time>2026-04-22T13:27:47Z</time></trkpt><trkpt lat="59.1031622887" lon="30.0470280647"><time>2026-04-22T13:27:50Z</time></trkpt><trkpt lat="59.1031622887" lon="30.0470280647"><time>2026-04-22T13:27:52Z</time></trkpt><trkpt lat="59.1031622887" lon="30.0470280647"><time>2026-04-22T13:27:55Z</time></trkpt><trkpt lat="59.1031622887" lon="30.0470280647"><time>2026-04-22T13:27:57Z</time></trkpt><trkpt lat="59.1031622887" lon="30.0470280647"><time>2026-04-22T13:28:00Z</time></trkpt><trkpt lat="59.1031622887" lon="30.0470280647"><time>2026-04-22T13:28:02Z</time></trkpt><trkpt lat="59.1031622887" lon="30.0470280647"><time>2026-04-22T13:28:05Z</time></trkpt><trkpt lat="59.1031622887" lon="30.0470280647"><time>2026-04-22T13:28:07Z</time></trkpt><trkpt lat="59.1031622887" lon="30.0470280647"><time>2026-04-22T13:28:10Z</time></trkpt><trkpt lat="59.1031622887" lon="30.0470280647"><time>2026-04-22T13:28:12Z</time></trkpt><trkpt lat="59.1031622887" lon="30.0470280647"><time>2026-04-22T13:28:15Z</time></trkpt><trkpt lat="59.1031622887" lon="30.0470280647"><time>2026-04-22T13:28:17Z</time></trkpt><trkpt lat="59.1031622887" lon="30.0470280647"><time>2026-04-22T13:28:20Z</time></trkpt><trkpt lat="59.1031622887" lon="30.0470280647"><time>2026-04-22T13:28:22Z</time></trkpt><trkpt lat="59.1031622887" lon="30.0470280647"><time>2026-04-22T13:28:25Z</time></trkpt><trkpt lat="59.1031622887" lon="30.0470280647"><time>2026-04-22T13:28:27Z</time></trkpt><trkpt lat="59.1031622887" lon="30.0469207764"><time>2026-04-22T13:28:30Z</time></trkpt><trkpt lat="59.1031837463" lon="30.0468778610"><time>2026-04-22T13:28:32Z</time></trkpt><trkpt lat="59.1031837463" lon="30.0468349457"><time>2026-04-22T13:28:35Z</time></trkpt><trkpt lat="59.1031837463" lon="30.0468134880"><time>2026-04-22T13:28:37Z</time></trkpt><trkpt lat="59.1031837463" lon="30.0467920303"><time>2026-04-22T13:28:40Z</time></trkpt><trkpt lat="59.1031837463" lon="30.0467491150"><time>2026-04-22T13:28:42Z</time></trkpt><trkpt lat="59.1031837463" lon="30.0466847420"><time>2026-04-22T13:28:45Z</time></trkpt><trkpt lat="59.1031837463" lon="30.0466418266"><time>2026-04-22T13:28:47Z</time></trkpt><trkpt lat="59.1031837463" lon="30.0465989113"><time>2026-04-22T13:28:50Z</time></trkpt><trkpt lat="59.1031622887" lon="30.0466203690"><time>2026-04-22T13:28:52Z</time></trkpt><trkpt lat="59.1031408310" lon="30.0465774536"><time>2026-04-22T13:28:55Z</time></trkpt><trkpt lat="59.1031193733" lon="30.0465559959"><time>2026-04-22T13:28:57Z</time></trkpt><trkpt lat="59.1031193733" lon="30.0464916229"><time>2026-04-22T13:29:00Z</time></trkpt><trkpt lat="59.1031193733" lon="30.0464701653"><time>2026-04-22T13:29:02Z</time></trkpt><trkpt lat="59.1030979156" lon="30.0464057922"><time>2026-04-22T13:29:05Z</time></trkpt><trkpt lat="59.1030979156" lon="30.0463414192"><time>2026-04-22T13:29:07Z</time></trkpt><trkpt lat="59.1030764580" lon="30.0462770462"><time>2026-04-22T13:29:10Z</time></trkpt><trkpt lat="59.1030764580" lon="30.0462555885"><time>2026-04-22T13:29:12Z</time></trkpt><trkpt lat="59.1030764580" lon="30.0462555885"><time>2026-04-22T13:29:15Z</time></trkpt><trkpt lat="59.1030764580" lon="30.0462126732"><time>2026-04-22T13:29:17Z</time></trkpt><trkpt lat="59.1030550003" lon="30.0461697578"><time>2026-04-22T13:29:20Z</time></trkpt><trkpt lat="59.1030550003" lon="30.0461483002"><time>2026-04-22T13:29:22Z</time></trkpt><trkpt lat="59.1030335426" lon="30.0461053848"><time>2026-04-22T13:29:25Z</time></trkpt><trkpt lat="59.1030120850" lon="30.0460839272"><time>2026-04-22T13:29:27Z</time></trkpt><trkpt lat="59.1030120850" lon="30.0460410118"><time>2026-04-22T13:29:30Z</time></trkpt><trkpt lat="59.1029906273" lon="30.0460195541"><time>2026-04-22T13:29:32Z</time></trkpt><trkpt lat="59.1029691696" lon="30.0459551811"><time>2026-04-22T13:29:35Z</time></trkpt><trkpt lat="59.1029691696" lon="30.0459337234"><time>2026-04-22T13:29:37Z</time></trkpt><trkpt lat="59.1029691696" lon="30.0459122658"><time>2026-04-22T13:29:40Z</time></trkpt><trkpt lat="59.1029691696" lon="30.0458908081"><time>2026-04-22T13:29:42Z</time></trkpt><trkpt lat="59.1029477119" lon="30.0458264351"><time>2026-04-22T13:29:45Z</time></trkpt><trkpt lat="59.1029477119" lon="30.0457835197"><time>2026-04-22T13:29:47Z</time></trkpt><trkpt lat="59.1029262543" lon="30.0457620621"><time>2026-04-22T13:29:50Z</time></trkpt><trkpt lat="59.1029477119" lon="30.0457191467"><time>2026-04-22T13:29:52Z</time></trkpt><trkpt lat="59.1029477119" lon="30.0456762314"><time>2026-04-22T13:29:55Z</time></trkpt><trkpt lat="59.1029477119" lon="30.0456547737"><time>2026-04-22T13:29:57Z</time></trkpt><trkpt lat="59.1029477119" lon="30.0456547737"><time>2026-04-22T13:30:00Z</time></trkpt><trkpt lat="59.1029477119" lon="30.0456333160"><time>2026-04-22T13:30:02Z</time></trkpt><trkpt lat="59.1029477119" lon="30.0456333160"><time>2026-04-22T13:30:05Z</time></trkpt><trkpt lat="59.1029477119" lon="30.0456333160"><time>2026-04-22T13:30:07Z</time></trkpt><trkpt lat="59.1029477119" lon="30.0456333160"><time>2026-04-22T13:30:10Z</time></trkpt><trkpt lat="59.1029477119" lon="30.0456333160"><time>2026-04-22T13:30:12Z</time></trkpt><trkpt lat="59.1029477119" lon="30.0456333160"><time>2026-04-22T13:30:15Z</time></trkpt><trkpt lat="59.1029477119" lon="30.0456333160"><time>2026-04-22T13:30:17Z</time></trkpt><trkpt lat="59.1029477119" lon="30.0456333160"><time>2026-04-22T13:30:20Z</time></trkpt><trkpt lat="59.1029477119" lon="30.0456333160"><time>2026-04-22T13:30:22Z</time></trkpt><trkpt lat="59.1029477119" lon="30.0456333160"><time>2026-04-22T13:30:25Z</time></trkpt><trkpt lat="59.1029477119" lon="30.0456333160"><time>2026-04-22T13:30:27Z</time></trkpt><trkpt lat="59.1029477119" lon="30.0456333160"><time>2026-04-22T13:30:30Z</time></trkpt><trkpt lat="59.1029477119" lon="30.0456333160"><time>2026-04-22T13:30:32Z</time></trkpt><trkpt lat="59.1029477119" lon="30.0456333160"><time>2026-04-22T13:30:35Z</time></trkpt><trkpt lat="59.1029477119" lon="30.0456333160"><time>2026-04-22T13:30:37Z</time></trkpt><trkpt lat="59.1029477119" lon="30.0456333160"><time>2026-04-22T13:30:40Z</time></trkpt><trkpt lat="59.1029477119" lon="30.0456333160"><time>2026-04-22T13:30:42Z</time></trkpt><trkpt lat="59.1029477119" lon="30.0456333160"><time>2026-04-22T13:30:45Z</time></trkpt><trkpt lat="59.1029477119" lon="30.0456333160"><time>2026-04-22T13:30:47Z</time></trkpt><trkpt lat="59.1029477119" lon="30.0456333160"><time>2026-04-22T13:30:50Z</time></trkpt><trkpt lat="59.1029477119" lon="30.0456333160"><time>2026-04-22T13:30:52Z</time></trkpt><trkpt lat="59.1029477119" lon="30.0456333160"><time>2026-04-22T13:30:55Z</time></trkpt><trkpt lat="59.1029477119" lon="30.0456333160"><time>2026-04-22T13:30:57Z</time></trkpt><trkpt lat="59.1029477119" lon="30.0456333160"><time>2026-04-22T13:31:00Z</time></trkpt><trkpt lat="59.1029477119" lon="30.0456333160"><time>2026-04-22T13:31:02Z</time></trkpt><trkpt lat="59.1029477119" lon="30.0456333160"><time>2026-04-22T13:31:05Z</time></trkpt><trkpt lat="59.1029477119" lon="30.0456333160"><time>2026-04-22T13:31:07Z</time></trkpt><trkpt lat="59.1029477119" lon="30.0456333160"><time>2026-04-22T13:31:10Z</time></trkpt><trkpt lat="59.1029477119" lon="30.0456333160"><time>2026-04-22T13:31:12Z</time></trkpt><trkpt lat="59.1029477119" lon="30.0456333160"><time>2026-04-22T13:31:15Z</time></trkpt><trkpt lat="59.1029477119" lon="30.0456333160"><time>2026-04-22T13:31:17Z</time></trkpt><trkpt lat="59.1029477119" lon="30.0456333160"><time>2026-04-22T13:31:20Z</time></trkpt><trkpt lat="59.1029477119" lon="30.0456333160"><time>2026-04-22T13:31:22Z</time></trkpt><trkpt lat="59.1029477119" lon="30.0456333160"><time>2026-04-22T13:31:25Z</time></trkpt><trkpt lat="59.1029477119" lon="30.0456333160"><time>2026-04-22T13:31:27Z</time></trkpt><trkpt lat="59.1029477119" lon="30.0456333160"><time>2026-04-22T13:31:30Z</time></trkpt><trkpt lat="59.1029477119" lon="30.0456118584"><time>2026-04-22T13:31:32Z</time></trkpt><trkpt lat="59.1029262543" lon="30.0455689430"><time>2026-04-22T13:31:35Z</time></trkpt><trkpt lat="59.1029047966" lon="30.0455260277"><time>2026-04-22T13:31:37Z</time></trkpt><trkpt lat="59.1029047966" lon="30.0455045700"><time>2026-04-22T13:31:40Z</time></trkpt><trkpt lat="59.1029047966" lon="30.0455045700"><time>2026-04-22T13:31:42Z</time></trkpt><trkpt lat="59.1029047966" lon="30.0455045700"><time>2026-04-22T13:31:45Z</time></trkpt><trkpt lat="59.1029047966" lon="30.0455045700"><time>2026-04-22T13:31:47Z</time></trkpt><trkpt lat="59.1029047966" lon="30.0455045700"><time>2026-04-22T13:31:50Z</time></trkpt><trkpt lat="59.1029047966" lon="30.0455045700"><time>2026-04-22T13:31:52Z</time></trkpt><trkpt lat="59.1029047966" lon="30.0455045700"><time>2026-04-22T13:31:55Z</time></trkpt><trkpt lat="59.1029047966" lon="30.0455045700"><time>2026-04-22T13:31:57Z</time></trkpt><trkpt lat="59.1029047966" lon="30.0455045700"><time>2026-04-22T13:32:00Z</time></trkpt><trkpt lat="59.1029047966" lon="30.0455045700"><time>2026-04-22T13:32:02Z</time></trkpt><trkpt lat="59.1029047966" lon="30.0455045700"><time>2026-04-22T13:32:05Z</time></trkpt><trkpt lat="59.1029047966" lon="30.0455045700"><time>2026-04-22T13:32:07Z</time></trkpt><trkpt lat="59.1029047966" lon="30.0455045700"><time>2026-04-22T13:32:10Z</time></trkpt><trkpt lat="59.1029047966" lon="30.0454831123"><time>2026-04-22T13:32:12Z</time></trkpt><trkpt lat="59.1028618813" lon="30.0454401970"><time>2026-04-22T13:32:15Z</time></trkpt><trkpt lat="59.1028618813" lon="30.0454401970"><time>2026-04-22T13:32:17Z</time></trkpt><trkpt lat="59.1028618813" lon="30.0453972816"><time>2026-04-22T13:32:20Z</time></trkpt><trkpt lat="59.1028618813" lon="30.0453543663"><time>2026-04-22T13:32:22Z</time></trkpt><trkpt lat="59.1028618813" lon="30.0453543663"><time>2026-04-22T13:32:25Z</time></trkpt><trkpt lat="59.1028833389" lon="30.0453114510"><time>2026-04-22T13:32:27Z</time></trkpt><trkpt lat="59.1028833389" lon="30.0452899933"><time>2026-04-22T13:32:30Z</time></trkpt><trkpt lat="59.1028833389" lon="30.0452685356"><time>2026-04-22T13:32:32Z</time></trkpt><trkpt lat="59.1028618813" lon="30.0452685356"><time>2026-04-22T13:32:35Z</time></trkpt><trkpt lat="59.1028618813" lon="30.0452470779"><time>2026-04-22T13:32:37Z</time></trkpt><trkpt lat="59.1028404236" lon="30.0452256203"><time>2026-04-22T13:32:40Z</time></trkpt><trkpt lat="59.1028404236" lon="30.0452256203"><time>2026-04-22T13:32:42Z</time></trkpt><trkpt lat="59.1028404236" lon="30.0452256203"><time>2026-04-22T13:32:45Z</time></trkpt><trkpt lat="59.1028404236" lon="30.0452256203"><time>2026-04-22T13:32:47Z</time></trkpt><trkpt lat="59.1028618813" lon="30.0451827049"><time>2026-04-22T13:32:50Z</time></trkpt><trkpt lat="59.1028618813" lon="30.0451827049"><time>2026-04-22T13:32:52Z</time></trkpt><trkpt lat="59.1028618813" lon="30.0450968742"><time>2026-04-22T13:32:55Z</time></trkpt><trkpt lat="59.1028618813" lon="30.0450539589"><time>2026-04-22T13:32:57Z</time></trkpt><trkpt lat="59.1028618813" lon="30.0450325012"><time>2026-04-22T13:33:00Z</time></trkpt><trkpt lat="59.1028833389" lon="30.0449895859"><time>2026-04-22T13:33:02Z</time></trkpt><trkpt lat="59.1028618813" lon="30.0449681282"><time>2026-04-22T13:33:05Z</time></trkpt><trkpt lat="59.1028404236" lon="30.0449466705"><time>2026-04-22T13:33:07Z</time></trkpt><trkpt lat="59.1028404236" lon="30.0449466705"><time>2026-04-22T13:33:10Z</time></trkpt><trkpt lat="59.1028189659" lon="30.0449466705"><time>2026-04-22T13:33:12Z</time></trkpt><trkpt lat="59.1028189659" lon="30.0449252129"><time>2026-04-22T13:33:15Z</time></trkpt><trkpt lat="59.1028189659" lon="30.0449252129"><time>2026-04-22T13:33:17Z</time></trkpt><trkpt lat="59.1028189659" lon="30.0448822975"><time>2026-04-22T13:33:20Z</time></trkpt><trkpt lat="59.1028189659" lon="30.0448822975"><time>2026-04-22T13:33:22Z</time></trkpt><trkpt lat="59.1027975082" lon="30.0448393822"><time>2026-04-22T13:33:25Z</time></trkpt><trkpt lat="59.1027975082" lon="30.0448179245"><time>2026-04-22T13:33:27Z</time></trkpt><trkpt lat="59.1027760506" lon="30.0447964668"><time>2026-04-22T13:33:30Z</time></trkpt><trkpt lat="59.1027545929" lon="30.0447750092"><time>2026-04-22T13:33:32Z</time></trkpt><trkpt lat="59.1027331352" lon="30.0447106361"><time>2026-04-22T13:33:35Z</time></trkpt><trkpt lat="59.1027331352" lon="30.0446891785"><time>2026-04-22T13:33:37Z</time></trkpt><trkpt lat="59.1027116776" lon="30.0446248055"><time>2026-04-22T13:33:40Z</time></trkpt><trkpt lat="59.1026902199" lon="30.0446033478"><time>2026-04-22T13:33:42Z</time></trkpt><trkpt lat="59.1026902199" lon="30.0445818901"><time>2026-04-22T13:33:45Z</time></trkpt><trkpt lat="59.1026902199" lon="30.0445389748"><time>2026-04-22T13:33:47Z</time></trkpt><trkpt lat="59.1026473045" lon="30.0445175171"><time>2026-04-22T13:33:50Z</time></trkpt><trkpt lat="59.1026258469" lon="30.0444746017"><time>2026-04-22T13:33:52Z</time></trkpt><trkpt lat="59.1026258469" lon="30.0444316864"><time>2026-04-22T13:33:55Z</time></trkpt><trkpt lat="59.1026258469" lon="30.0444316864"><time>2026-04-22T13:33:57Z</time></trkpt><trkpt lat="59.1026258469" lon="30.0444102287"><time>2026-04-22T13:34:00Z</time></trkpt><trkpt lat="59.1026043892" lon="30.0443458557"><time>2026-04-22T13:34:02Z</time></trkpt><trkpt lat="59.1026043892" lon="30.0442600250"><time>2026-04-22T13:34:05Z</time></trkpt><trkpt lat="59.1025829315" lon="30.0442171097"><time>2026-04-22T13:34:07Z</time></trkpt><trkpt lat="59.1025829315" lon="30.0441956520"><time>2026-04-22T13:34:10Z</time></trkpt><trkpt lat="59.1025829315" lon="30.0441741943"><time>2026-04-22T13:34:12Z</time></trkpt><trkpt lat="59.1025614738" lon="30.0441312790"><time>2026-04-22T13:34:15Z</time></trkpt><trkpt lat="59.1025614738" lon="30.0441098213"><time>2026-04-22T13:34:17Z</time></trkpt><trkpt lat="59.1025614738" lon="30.0440669060"><time>2026-04-22T13:34:20Z</time></trkpt><trkpt lat="59.1025614738" lon="30.0440239906"><time>2026-04-22T13:34:22Z</time></trkpt><trkpt lat="59.1025614738" lon="30.0439596176"><time>2026-04-22T13:34:25Z</time></trkpt><trkpt lat="59.1025614738" lon="30.0439167023"><time>2026-04-22T13:34:27Z</time></trkpt><trkpt lat="59.1025614738" lon="30.0438523293"><time>2026-04-22T13:34:30Z</time></trkpt><trkpt lat="59.1025400162" lon="30.0438094139"><time>2026-04-22T13:34:32Z</time></trkpt><trkpt lat="59.1025400162" lon="30.0437235832"><time>2026-04-22T13:34:35Z</time></trkpt><trkpt lat="59.1025400162" lon="30.0436806679"><time>2026-04-22T13:34:37Z</time></trkpt><trkpt lat="59.1025400162" lon="30.0436377525"><time>2026-04-22T13:34:40Z</time></trkpt><trkpt lat="59.1025400162" lon="30.0435948372"><time>2026-04-22T13:34:42Z</time></trkpt><trkpt lat="59.1025400162" lon="30.0435304642"><time>2026-04-22T13:34:45Z</time></trkpt><trkpt lat="59.1025400162" lon="30.0435304642"><time>2026-04-22T13:34:47Z</time></trkpt><trkpt lat="59.1025185585" lon="30.0435090065"><time>2026-04-22T13:34:50Z</time></trkpt><trkpt lat="59.1025185585" lon="30.0435090065"><time>2026-04-22T13:34:52Z</time></trkpt><trkpt lat="59.1024971008" lon="30.0434446335"><time>2026-04-22T13:34:55Z</time></trkpt><trkpt lat="59.1024971008" lon="30.0434017181"><time>2026-04-22T13:34:57Z</time></trkpt><trkpt lat="59.1025185585" lon="30.0433373451"><time>2026-04-22T13:35:00Z</time></trkpt><trkpt lat="59.1024971008" lon="30.0432944298"><time>2026-04-22T13:35:02Z</time></trkpt><trkpt lat="59.1024971008" lon="30.0432729721"><time>2026-04-22T13:35:05Z</time></trkpt><trkpt lat="59.1024971008" lon="30.0432729721"><time>2026-04-22T13:35:07Z</time></trkpt><trkpt lat="59.1024971008" lon="30.0432729721"><time>2026-04-22T13:35:10Z</time></trkpt><trkpt lat="59.1024971008" lon="30.0432729721"><time>2026-04-22T13:35:12Z</time></trkpt><trkpt lat="59.1024971008" lon="30.0432729721"><time>2026-04-22T13:35:15Z</time></trkpt><trkpt lat="59.1024971008" lon="30.0432515144"><time>2026-04-22T13:35:17Z</time></trkpt><trkpt lat="59.1024971008" lon="30.0432085991"><time>2026-04-22T13:35:20Z</time></trkpt><trkpt lat="59.1024971008" lon="30.0431871414"><time>2026-04-22T13:35:22Z</time></trkpt><trkpt lat="59.1024756432" lon="30.0431227684"><time>2026-04-22T13:35:25Z</time></trkpt><trkpt lat="59.1024756432" lon="30.0431013107"><time>2026-04-22T13:35:27Z</time></trkpt><trkpt lat="59.1024541855" lon="30.0430798531"><time>2026-04-22T13:35:30Z</time></trkpt><trkpt lat="59.1024541855" lon="30.0430583954"><time>2026-04-22T13:35:32Z</time></trkpt><trkpt lat="59.1024327278" lon="30.0430369377"><time>2026-04-22T13:35:35Z</time></trkpt><trkpt lat="59.1024112701" lon="30.0430154800"><time>2026-04-22T13:35:37Z</time></trkpt><trkpt lat="59.1024112701" lon="30.0430154800"><time>2026-04-22T13:35:40Z</time></trkpt><trkpt lat="59.1023898125" lon="30.0429725647"><time>2026-04-22T13:35:42Z</time></trkpt><trkpt lat="59.1023683548" lon="30.0429081917"><time>2026-04-22T13:35:45Z</time></trkpt><trkpt lat="59.1023683548" lon="30.0428652763"><time>2026-04-22T13:35:47Z</time></trkpt><trkpt lat="59.1023254395" lon="30.0428652763"><time>2026-04-22T13:35:50Z</time></trkpt><trkpt lat="59.1023254395" lon="30.0428652763"><time>2026-04-22T13:35:52Z</time></trkpt><trkpt lat="59.1023039818" lon="30.0428438187"><time>2026-04-22T13:35:55Z</time></trkpt><trkpt lat="59.1023039818" lon="30.0428438187"><time>2026-04-22T13:35:57Z</time></trkpt><trkpt lat="59.1023039818" lon="30.0428438187"><time>2026-04-22T13:36:00Z</time></trkpt><trkpt lat="59.1023039818" lon="30.0428009033"><time>2026-04-22T13:36:02Z</time></trkpt><trkpt lat="59.1023039818" lon="30.0427794456"><time>2026-04-22T13:36:05Z</time></trkpt><trkpt lat="59.1023039818" lon="30.0427365303"><time>2026-04-22T13:36:07Z</time></trkpt><trkpt lat="59.1023039818" lon="30.0426721573"><time>2026-04-22T13:36:10Z</time></trkpt><trkpt lat="59.1022825241" lon="30.0426721573"><time>2026-04-22T13:36:12Z</time></trkpt><trkpt lat="59.1022825241" lon="30.0426077843"><time>2026-04-22T13:36:15Z</time></trkpt><trkpt lat="59.1022825241" lon="30.0425863266"><time>2026-04-22T13:36:17Z</time></trkpt><trkpt lat="59.1022825241" lon="30.0425434113"><time>2026-04-22T13:36:20Z</time></trkpt><trkpt lat="59.1022825241" lon="30.0425219536"><time>2026-04-22T13:36:22Z</time></trkpt><trkpt lat="59.1022610664" lon="30.0425004959"><time>2026-04-22T13:36:25Z</time></trkpt><trkpt lat="59.1022610664" lon="30.0425004959"><time>2026-04-22T13:36:27Z</time></trkpt><trkpt lat="59.1022825241" lon="30.0425004959"><time>2026-04-22T13:36:30Z</time></trkpt><trkpt lat="59.1022825241" lon="30.0425004959"><time>2026-04-22T13:36:32Z</time></trkpt><trkpt lat="59.1023254395" lon="30.0425004959"><time>2026-04-22T13:36:35Z</time></trkpt><trkpt lat="59.1023254395" lon="30.0425004959"><time>2026-04-22T13:36:37Z</time></trkpt><trkpt lat="59.1023468971" lon="30.0424790382"><time>2026-04-22T13:36:40Z</time></trkpt><trkpt lat="59.1023468971" lon="30.0424575806"><time>2026-04-22T13:36:42Z</time></trkpt><trkpt lat="59.1023468971" lon="30.0424146652"><time>2026-04-22T13:36:45Z</time></trkpt><trkpt lat="59.1023468971" lon="30.0423932076"><time>2026-04-22T13:36:47Z</time></trkpt><trkpt lat="59.1023468971" lon="30.0423932076"><time>2026-04-22T13:36:50Z</time></trkpt><trkpt lat="59.1023683548" lon="30.0423932076"><time>2026-04-22T13:36:52Z</time></trkpt><trkpt lat="59.1023468971" lon="30.0423932076"><time>2026-04-22T13:36:55Z</time></trkpt><trkpt lat="59.1023468971" lon="30.0423932076"><time>2026-04-22T13:36:57Z</time></trkpt><trkpt lat="59.1023254395" lon="30.0423288345"><time>2026-04-22T13:37:00Z</time></trkpt><trkpt lat="59.1023039818" lon="30.0423073769"><time>2026-04-22T13:37:02Z</time></trkpt><trkpt lat="59.1023039818" lon="30.0422644615"><time>2026-04-22T13:37:05Z</time></trkpt><trkpt lat="59.1023039818" lon="30.0422644615"><time>2026-04-22T13:37:07Z</time></trkpt><trkpt lat="59.1023039818" lon="30.0422430038"><time>2026-04-22T13:37:10Z</time></trkpt><trkpt lat="59.1022825241" lon="30.0422215462"><time>2026-04-22T13:37:12Z</time></trkpt><trkpt lat="59.1022396088" lon="30.0421357155"><time>2026-04-22T13:37:15Z</time></trkpt><trkpt lat="59.1022396088" lon="30.0421142578"><time>2026-04-22T13:37:17Z</time></trkpt><trkpt lat="59.1022396088" lon="30.0421142578"><time>2026-04-22T13:37:20Z</time></trkpt><trkpt lat="59.1022396088" lon="30.0421142578"><time>2026-04-22T13:37:22Z</time></trkpt><trkpt lat="59.1022396088" lon="30.0420713425"><time>2026-04-22T13:37:25Z</time></trkpt><trkpt lat="59.1022396088" lon="30.0420498848"><time>2026-04-22T13:37:27Z</time></trkpt><trkpt lat="59.1022396088" lon="30.0420498848"><time>2026-04-22T13:37:30Z</time></trkpt><trkpt lat="59.1022610664" lon="30.0420498848"><time>2026-04-22T13:37:32Z</time></trkpt><trkpt lat="59.1022610664" lon="30.0420284271"><time>2026-04-22T13:37:35Z</time></trkpt><trkpt lat="59.1022610664" lon="30.0420284271"><time>2026-04-22T13:37:37Z</time></trkpt><trkpt lat="59.1022610664" lon="30.0420284271"><time>2026-04-22T13:37:40Z</time></trkpt><trkpt lat="59.1022396088" lon="30.0420284271"><time>2026-04-22T13:37:42Z</time></trkpt><trkpt lat="59.1022396088" lon="30.0420069695"><time>2026-04-22T13:37:45Z</time></trkpt><trkpt lat="59.1022610664" lon="30.0420498848"><time>2026-04-22T13:37:47Z</time></trkpt><trkpt lat="59.1022610664" lon="30.0420284271"><time>2026-04-22T13:37:50Z</time></trkpt><trkpt lat="59.1022825241" lon="30.0420284271"><time>2026-04-22T13:37:52Z</time></trkpt><trkpt lat="59.1022825241" lon="30.0420284271"><time>2026-04-22T13:37:55Z</time></trkpt><trkpt lat="59.1022825241" lon="30.0420069695"><time>2026-04-22T13:37:57Z</time></trkpt><trkpt lat="59.1022825241" lon="30.0420069695"><time>2026-04-22T13:38:00Z</time></trkpt><trkpt lat="59.1022825241" lon="30.0420069695"><time>2026-04-22T13:38:02Z</time></trkpt><trkpt lat="59.1022825241" lon="30.0420069695"><time>2026-04-22T13:38:05Z</time></trkpt><trkpt lat="59.1022825241" lon="30.0420069695"><time>2026-04-22T13:38:07Z</time></trkpt><trkpt lat="59.1022825241" lon="30.0420069695"><time>2026-04-22T13:38:10Z</time></trkpt><trkpt lat="59.1022825241" lon="30.0420069695"><time>2026-04-22T13:38:12Z</time></trkpt><trkpt lat="59.1022825241" lon="30.0420069695"><time>2026-04-22T13:38:15Z</time></trkpt><trkpt lat="59.1022825241" lon="30.0420069695"><time>2026-04-22T13:38:17Z</time></trkpt><trkpt lat="59.1022825241" lon="30.0420069695"><time>2026-04-22T13:38:20Z</time></trkpt><trkpt lat="59.1022825241" lon="30.0420069695"><time>2026-04-22T13:38:22Z</time></trkpt><trkpt lat="59.1022825241" lon="30.0420069695"><time>2026-04-22T13:38:25Z</time></trkpt><trkpt lat="59.1022825241" lon="30.0420069695"><time>2026-04-22T13:38:27Z</time></trkpt><trkpt lat="59.1022825241" lon="30.0420069695"><time>2026-04-22T13:38:30Z</time></trkpt><trkpt lat="59.1022825241" lon="30.0420069695"><time>2026-04-22T13:38:32Z</time></trkpt><trkpt lat="59.1022825241" lon="30.0420069695"><time>2026-04-22T13:38:35Z</time></trkpt><trkpt lat="59.1022825241" lon="30.0420069695"><time>2026-04-22T13:38:37Z</time></trkpt><trkpt lat="59.1023039818" lon="30.0419855118"><time>2026-04-22T13:38:40Z</time></trkpt><trkpt lat="59.1023039818" lon="30.0419855118"><time>2026-04-22T13:38:42Z</time></trkpt><trkpt lat="59.1023254395" lon="30.0419425964"><time>2026-04-22T13:38:45Z</time></trkpt><trkpt lat="59.1023254395" lon="30.0418996811"><time>2026-04-22T13:38:47Z</time></trkpt><trkpt lat="59.1023254395" lon="30.0418782234"><time>2026-04-22T13:38:50Z</time></trkpt><trkpt lat="59.1023254395" lon="30.0418782234"><time>2026-04-22T13:38:52Z</time></trkpt><trkpt lat="59.1023039818" lon="30.0418782234"><time>2026-04-22T13:38:55Z</time></trkpt><trkpt lat="59.1023039818" lon="30.0418567657"><time>2026-04-22T13:38:57Z</time></trkpt><trkpt lat="59.1023039818" lon="30.0418138504"><time>2026-04-22T13:39:00Z</time></trkpt><trkpt lat="59.1022825241" lon="30.0418138504"><time>2026-04-22T13:39:02Z</time></trkpt><trkpt lat="59.1022610664" lon="30.0417709351"><time>2026-04-22T13:39:05Z</time></trkpt><trkpt lat="59.1022610664" lon="30.0417494774"><time>2026-04-22T13:39:07Z</time></trkpt><trkpt lat="59.1022396088" lon="30.0417065620"><time>2026-04-22T13:39:10Z</time></trkpt><trkpt lat="59.1022181511" lon="30.0416207314"><time>2026-04-22T13:39:12Z</time></trkpt><trkpt lat="59.1021966934" lon="30.0415563583"><time>2026-04-22T13:39:15Z</time></trkpt><trkpt lat="59.1021966934" lon="30.0415134430"><time>2026-04-22T13:39:17Z</time></trkpt><trkpt lat="59.1021966934" lon="30.0414919853"><time>2026-04-22T13:39:20Z</time></trkpt><trkpt lat="59.1021966934" lon="30.0414490700"><time>2026-04-22T13:39:22Z</time></trkpt><trkpt lat="59.1021752357" lon="30.0414061546"><time>2026-04-22T13:39:25Z</time></trkpt><trkpt lat="59.1021752357" lon="30.0414061546"><time>2026-04-22T13:39:27Z</time></trkpt><trkpt lat="59.1021537781" lon="30.0413846970"><time>2026-04-22T13:39:30Z</time></trkpt><trkpt lat="59.1021537781" lon="30.0413417816"><time>2026-04-22T13:39:32Z</time></trkpt><trkpt lat="59.1021537781" lon="30.0413417816"><time>2026-04-22T13:39:35Z</time></trkpt><trkpt lat="59.1021323204" lon="30.0413203239"><time>2026-04-22T13:39:37Z</time></trkpt><trkpt lat="59.1021323204" lon="30.0412988663"><time>2026-04-22T13:39:40Z</time></trkpt><trkpt lat="59.1021323204" lon="30.0412988663"><time>2026-04-22T13:39:42Z</time></trkpt><trkpt lat="59.1021323204" lon="30.0412774086"><time>2026-04-22T13:39:45Z</time></trkpt><trkpt lat="59.1021323204" lon="30.0412774086"><time>2026-04-22T13:39:47Z</time></trkpt><trkpt lat="59.1021323204" lon="30.0412774086"><time>2026-04-22T13:39:50Z</time></trkpt><trkpt lat="59.1021108627" lon="30.0412559509"><time>2026-04-22T13:39:52Z</time></trkpt><trkpt lat="59.1020894051" lon="30.0411915779"><time>2026-04-22T13:39:55Z</time></trkpt><trkpt lat="59.1020894051" lon="30.0411915779"><time>2026-04-22T13:39:57Z</time></trkpt><trkpt lat="59.1020679474" lon="30.0411272049"><time>2026-04-22T13:40:00Z</time></trkpt><trkpt lat="59.1020250320" lon="30.0410842896"><time>2026-04-22T13:40:02Z</time></trkpt><trkpt lat="59.1020250320" lon="30.0409984589"><time>2026-04-22T13:40:05Z</time></trkpt><trkpt lat="59.1020464897" lon="30.0409340858"><time>2026-04-22T13:40:07Z</time></trkpt><trkpt lat="59.1020464897" lon="30.0408697128"><time>2026-04-22T13:40:10Z</time></trkpt><trkpt lat="59.1020464897" lon="30.0408482552"><time>2026-04-22T13:40:12Z</time></trkpt><trkpt lat="59.1020464897" lon="30.0408482552"><time>2026-04-22T13:40:15Z</time></trkpt><trkpt lat="59.1020464897" lon="30.0408482552"><time>2026-04-22T13:40:17Z</time></trkpt><trkpt lat="59.1020464897" lon="30.0408482552"><time>2026-04-22T13:40:20Z</time></trkpt><trkpt lat="59.1020464897" lon="30.0408482552"><time>2026-04-22T13:40:22Z</time></trkpt><trkpt lat="59.1020464897" lon="30.0408482552"><time>2026-04-22T13:40:25Z</time></trkpt><trkpt lat="59.1020250320" lon="30.0408267975"><time>2026-04-22T13:40:27Z</time></trkpt><trkpt lat="59.1020250320" lon="30.0407838821"><time>2026-04-22T13:40:30Z</time></trkpt><trkpt lat="59.1020250320" lon="30.0407409668"><time>2026-04-22T13:40:32Z</time></trkpt><trkpt lat="59.1020250320" lon="30.0406551361"><time>2026-04-22T13:40:35Z</time></trkpt><trkpt lat="59.1020250320" lon="30.0406336784"><time>2026-04-22T13:40:37Z</time></trkpt><trkpt lat="59.1020250320" lon="30.0406336784"><time>2026-04-22T13:40:40Z</time></trkpt><trkpt lat="59.1020250320" lon="30.0405907631"><time>2026-04-22T13:40:42Z</time></trkpt><trkpt lat="59.1020679474" lon="30.0405263901"><time>2026-04-22T13:40:45Z</time></trkpt><trkpt lat="59.1020679474" lon="30.0405263901"><time>2026-04-22T13:40:47Z</time></trkpt><trkpt lat="59.1020679474" lon="30.0405263901"><time>2026-04-22T13:40:50Z</time></trkpt><trkpt lat="59.1020679474" lon="30.0405263901"><time>2026-04-22T13:40:52Z</time></trkpt><trkpt lat="59.1020679474" lon="30.0405263901"><time>2026-04-22T13:40:55Z</time></trkpt><trkpt lat="59.1020679474" lon="30.0405263901"><time>2026-04-22T13:40:57Z</time></trkpt><trkpt lat="59.1020679474" lon="30.0405263901"><time>2026-04-22T13:41:00Z</time></trkpt><trkpt lat="59.1020679474" lon="30.0405263901"><time>2026-04-22T13:41:02Z</time></trkpt><trkpt lat="59.1020679474" lon="30.0405263901"><time>2026-04-22T13:41:05Z</time></trkpt><trkpt lat="59.1020464897" lon="30.0404834747"><time>2026-04-22T13:41:07Z</time></trkpt><trkpt lat="59.1020679474" lon="30.0404620171"><time>2026-04-22T13:41:10Z</time></trkpt><trkpt lat="59.1020679474" lon="30.0404620171"><time>2026-04-22T13:41:12Z</time></trkpt><trkpt lat="59.1020679474" lon="30.0404620171"><time>2026-04-22T13:41:15Z</time></trkpt><trkpt lat="59.1020679474" lon="30.0404620171"><time>2026-04-22T13:41:17Z</time></trkpt><trkpt lat="59.1020894051" lon="30.0404405594"><time>2026-04-22T13:41:20Z</time></trkpt><trkpt lat="59.1020894051" lon="30.0404191017"><time>2026-04-22T13:41:22Z</time></trkpt><trkpt lat="59.1020894051" lon="30.0404191017"><time>2026-04-22T13:41:25Z</time></trkpt><trkpt lat="59.1020894051" lon="30.0404191017"><time>2026-04-22T13:41:27Z</time></trkpt><trkpt lat="59.1020894051" lon="30.0404191017"><time>2026-04-22T13:41:30Z</time></trkpt><trkpt lat="59.1020894051" lon="30.0404191017"><time>2026-04-22T13:41:32Z</time></trkpt><trkpt lat="59.1020894051" lon="30.0404191017"><time>2026-04-22T13:41:35Z</time></trkpt><trkpt lat="59.1020894051" lon="30.0404191017"><time>2026-04-22T13:41:37Z</time></trkpt><trkpt lat="59.1020894051" lon="30.0404191017"><time>2026-04-22T13:41:40Z</time></trkpt><trkpt lat="59.1020894051" lon="30.0404191017"><time>2026-04-22T13:41:42Z</time></trkpt><trkpt lat="59.1020894051" lon="30.0404191017"><time>2026-04-22T13:41:45Z</time></trkpt><trkpt lat="59.1020894051" lon="30.0404191017"><time>2026-04-22T13:41:47Z</time></trkpt><trkpt lat="59.1020894051" lon="30.0404191017"><time>2026-04-22T13:41:50Z</time></trkpt><trkpt lat="59.1020894051" lon="30.0404191017"><time>2026-04-22T13:41:52Z</time></trkpt><trkpt lat="59.1020894051" lon="30.0404191017"><time>2026-04-22T13:41:55Z</time></trkpt><trkpt lat="59.1020894051" lon="30.0404191017"><time>2026-04-22T13:41:57Z</time></trkpt><trkpt lat="59.1020894051" lon="30.0403761864"><time>2026-04-22T13:42:00Z</time></trkpt><trkpt lat="59.1020894051" lon="30.0403118134"><time>2026-04-22T13:42:02Z</time></trkpt><trkpt lat="59.1020894051" lon="30.0402474403"><time>2026-04-22T13:42:05Z</time></trkpt><trkpt lat="59.1020894051" lon="30.0401830673"><time>2026-04-22T13:42:07Z</time></trkpt><trkpt lat="59.1020679474" lon="30.0401616096"><time>2026-04-22T13:42:10Z</time></trkpt><trkpt lat="59.1020679474" lon="30.0401186943"><time>2026-04-22T13:42:12Z</time></trkpt><trkpt lat="59.1020464897" lon="30.0400972366"><time>2026-04-22T13:42:15Z</time></trkpt><trkpt lat="59.1020464897" lon="30.0400328636"><time>2026-04-22T13:42:17Z</time></trkpt><trkpt lat="59.1020035744" lon="30.0399684906"><time>2026-04-22T13:42:20Z</time></trkpt><trkpt lat="59.1019821167" lon="30.0399470329"><time>2026-04-22T13:42:22Z</time></trkpt><trkpt lat="59.1019821167" lon="30.0398826599"><time>2026-04-22T13:42:25Z</time></trkpt><trkpt lat="59.1020035744" lon="30.0398182869"><time>2026-04-22T13:42:27Z</time></trkpt><trkpt lat="59.1020035744" lon="30.0397539139"><time>2026-04-22T13:42:30Z</time></trkpt><trkpt lat="59.1020035744" lon="30.0397109985"><time>2026-04-22T13:42:32Z</time></trkpt><trkpt lat="59.1019821167" lon="30.0396680832"><time>2026-04-22T13:42:35Z</time></trkpt><trkpt lat="59.1019821167" lon="30.0396466255"><time>2026-04-22T13:42:37Z</time></trkpt><trkpt lat="59.1019821167" lon="30.0395822525"><time>2026-04-22T13:42:40Z</time></trkpt><trkpt lat="59.1019821167" lon="30.0395393372"><time>2026-04-22T13:42:42Z</time></trkpt><trkpt lat="59.1019821167" lon="30.0394964218"><time>2026-04-22T13:42:45Z</time></trkpt><trkpt lat="59.1019606590" lon="30.0394749641"><time>2026-04-22T13:42:47Z</time></trkpt><trkpt lat="59.1019392014" lon="30.0394535065"><time>2026-04-22T13:42:50Z</time></trkpt><trkpt lat="59.1019392014" lon="30.0394320488"><time>2026-04-22T13:42:52Z</time></trkpt><trkpt lat="59.1019177437" lon="30.0393891335"><time>2026-04-22T13:42:55Z</time></trkpt><trkpt lat="59.1019177437" lon="30.0393247604"><time>2026-04-22T13:42:57Z</time></trkpt><trkpt lat="59.1019177437" lon="30.0392818451"><time>2026-04-22T13:43:00Z</time></trkpt><trkpt lat="59.1019177437" lon="30.0392389297"><time>2026-04-22T13:43:02Z</time></trkpt><trkpt lat="59.1019177437" lon="30.0392174721"><time>2026-04-22T13:43:05Z</time></trkpt><trkpt lat="59.1019177437" lon="30.0391960144"><time>2026-04-22T13:43:07Z</time></trkpt><trkpt lat="59.1019177437" lon="30.0391530991"><time>2026-04-22T13:43:10Z</time></trkpt><trkpt lat="59.1018962860" lon="30.0391316414"><time>2026-04-22T13:43:12Z</time></trkpt><trkpt lat="59.1018962860" lon="30.0391101837"><time>2026-04-22T13:43:15Z</time></trkpt><trkpt lat="59.1018962860" lon="30.0390458107"><time>2026-04-22T13:43:17Z</time></trkpt><trkpt lat="59.1018962860" lon="30.0390458107"><time>2026-04-22T13:43:20Z</time></trkpt><trkpt lat="59.1018748283" lon="30.0390243530"><time>2026-04-22T13:43:22Z</time></trkpt><trkpt lat="59.1018533707" lon="30.0389814377"><time>2026-04-22T13:43:25Z</time></trkpt><trkpt lat="59.1018533707" lon="30.0389599800"><time>2026-04-22T13:43:27Z</time></trkpt><trkpt lat="59.1018533707" lon="30.0389385223"><time>2026-04-22T13:43:30Z</time></trkpt><trkpt lat="59.1018533707" lon="30.0389385223"><time>2026-04-22T13:43:32Z</time></trkpt><trkpt lat="59.1018533707" lon="30.0388526917"><time>2026-04-22T13:43:35Z</time></trkpt><trkpt lat="59.1018533707" lon="30.0387883186"><time>2026-04-22T13:43:37Z</time></trkpt><trkpt lat="59.1018533707" lon="30.0387454033"><time>2026-04-22T13:43:40Z</time></trkpt><trkpt lat="59.1018533707" lon="30.0387024879"><time>2026-04-22T13:43:42Z</time></trkpt><trkpt lat="59.1018319130" lon="30.0386595726"><time>2026-04-22T13:43:45Z</time></trkpt><trkpt lat="59.1018319130" lon="30.0386166573"><time>2026-04-22T13:43:47Z</time></trkpt><trkpt lat="59.1018319130" lon="30.0385522842"><time>2026-04-22T13:43:50Z</time></trkpt><trkpt lat="59.1018319130" lon="30.0385093689"><time>2026-04-22T13:43:52Z</time></trkpt><trkpt lat="59.1018104553" lon="30.0384879112"><time>2026-04-22T13:43:55Z</time></trkpt><trkpt lat="59.1018104553" lon="30.0384664536"><time>2026-04-22T13:43:57Z</time></trkpt><trkpt lat="59.1018104553" lon="30.0384664536"><time>2026-04-22T13:44:00Z</time></trkpt><trkpt lat="59.1018104553" lon="30.0384449959"><time>2026-04-22T13:44:02Z</time></trkpt><trkpt lat="59.1017889977" lon="30.0384020805"><time>2026-04-22T13:44:05Z</time></trkpt><trkpt lat="59.1017889977" lon="30.0384020805"><time>2026-04-22T13:44:07Z</time></trkpt><trkpt lat="59.1017675400" lon="30.0383591652"><time>2026-04-22T13:44:10Z</time></trkpt><trkpt lat="59.1017675400" lon="30.0383162498"><time>2026-04-22T13:44:12Z</time></trkpt><trkpt lat="59.1017460823" lon="30.0382947922"><time>2026-04-22T13:44:15Z</time></trkpt><trkpt lat="59.1017460823" lon="30.0382518768"><time>2026-04-22T13:44:17Z</time></trkpt><trkpt lat="59.1017246246" lon="30.0382089615"><time>2026-04-22T13:44:20Z</time></trkpt><trkpt lat="59.1017246246" lon="30.0381875038"><time>2026-04-22T13:44:22Z</time></trkpt><trkpt lat="59.1017246246" lon="30.0381445885"><time>2026-04-22T13:44:25Z</time></trkpt><trkpt lat="59.1017246246" lon="30.0381445885"><time>2026-04-22T13:44:27Z</time></trkpt><trkpt lat="59.1016817093" lon="30.0381016731"><time>2026-04-22T13:44:30Z</time></trkpt><trkpt lat="59.1016817093" lon="30.0380802155"><time>2026-04-22T13:44:32Z</time></trkpt><trkpt lat="59.1016602516" lon="30.0380158424"><time>2026-04-22T13:44:35Z</time></trkpt><trkpt lat="59.1016602516" lon="30.0379729271"><time>2026-04-22T13:44:37Z</time></trkpt><trkpt lat="59.1016602516" lon="30.0379085541"><time>2026-04-22T13:44:40Z</time></trkpt><trkpt lat="59.1016602516" lon="30.0378656387"><time>2026-04-22T13:44:42Z</time></trkpt><trkpt lat="59.1016602516" lon="30.0378656387"><time>2026-04-22T13:44:45Z</time></trkpt><trkpt lat="59.1016602516" lon="30.0378656387"><time>2026-04-22T13:44:47Z</time></trkpt><trkpt lat="59.1016602516" lon="30.0378656387"><time>2026-04-22T13:44:50Z</time></trkpt><trkpt lat="59.1016602516" lon="30.0378656387"><time>2026-04-22T13:44:52Z</time></trkpt><trkpt lat="59.1016602516" lon="30.0378656387"><time>2026-04-22T13:44:55Z</time></trkpt><trkpt lat="59.1016602516" lon="30.0378656387"><time>2026-04-22T13:44:57Z</time></trkpt><trkpt lat="59.1016602516" lon="30.0378656387"><time>2026-04-22T13:45:00Z</time></trkpt><trkpt lat="59.1016602516" lon="30.0378656387"><time>2026-04-22T13:45:02Z</time></trkpt><trkpt lat="59.1016602516" lon="30.0378656387"><time>2026-04-22T13:45:05Z</time></trkpt><trkpt lat="59.1016602516" lon="30.0378656387"><time>2026-04-22T13:45:07Z</time></trkpt><trkpt lat="59.1016602516" lon="30.0378656387"><time>2026-04-22T13:45:10Z</time></trkpt><trkpt lat="59.1016602516" lon="30.0378656387"><time>2026-04-22T13:45:12Z</time></trkpt><trkpt lat="59.1016602516" lon="30.0378656387"><time>2026-04-22T13:45:15Z</time></trkpt><trkpt lat="59.1016602516" lon="30.0378656387"><time>2026-04-22T13:45:17Z</time></trkpt><trkpt lat="59.1016602516" lon="30.0378656387"><time>2026-04-22T13:45:20Z</time></trkpt><trkpt lat="59.1016602516" lon="30.0378656387"><time>2026-04-22T13:45:22Z</time></trkpt><trkpt lat="59.1016602516" lon="30.0378656387"><time>2026-04-22T13:45:25Z</time></trkpt><trkpt lat="59.1016602516" lon="30.0378656387"><time>2026-04-22T13:45:27Z</time></trkpt><trkpt lat="59.1016602516" lon="30.0378656387"><time>2026-04-22T13:45:30Z</time></trkpt><trkpt lat="59.1016602516" lon="30.0378656387"><time>2026-04-22T13:45:32Z</time></trkpt><trkpt lat="59.1016602516" lon="30.0378656387"><time>2026-04-22T13:45:35Z</time></trkpt><trkpt lat="59.1016602516" lon="30.0378656387"><time>2026-04-22T13:45:37Z</time></trkpt><trkpt lat="59.1016602516" lon="30.0378656387"><time>2026-04-22T13:45:40Z</time></trkpt><trkpt lat="59.1016602516" lon="30.0378441811"><time>2026-04-22T13:45:42Z</time></trkpt><trkpt lat="59.1016602516" lon="30.0378227234"><time>2026-04-22T13:45:45Z</time></trkpt><trkpt lat="59.1016602516" lon="30.0378227234"><time>2026-04-22T13:45:47Z</time></trkpt><trkpt lat="59.1016602516" lon="30.0377583504"><time>2026-04-22T13:45:50Z</time></trkpt><trkpt lat="59.1016387939" lon="30.0377368927"><time>2026-04-22T13:45:52Z</time></trkpt><trkpt lat="59.1016602516" lon="30.0376939774"><time>2026-04-22T13:45:55Z</time></trkpt><trkpt lat="59.1016602516" lon="30.0376510620"><time>2026-04-22T13:45:57Z</time></trkpt><trkpt lat="59.1016602516" lon="30.0376081467"><time>2026-04-22T13:46:00Z</time></trkpt><trkpt lat="59.1016602516" lon="30.0375652313"><time>2026-04-22T13:46:02Z</time></trkpt><trkpt lat="59.1016387939" lon="30.0375008583"><time>2026-04-22T13:46:05Z</time></trkpt><trkpt lat="59.1016387939" lon="30.0374579430"><time>2026-04-22T13:46:07Z</time></trkpt><trkpt lat="59.1016173363" lon="30.0374579430"><time>2026-04-22T13:46:10Z</time></trkpt><trkpt lat="59.1016173363" lon="30.0374150276"><time>2026-04-22T13:46:12Z</time></trkpt><trkpt lat="59.1016173363" lon="30.0374150276"><time>2026-04-22T13:46:15Z</time></trkpt><trkpt lat="59.1016173363" lon="30.0374150276"><time>2026-04-22T13:46:17Z</time></trkpt><trkpt lat="59.1016173363" lon="30.0374150276"><time>2026-04-22T13:46:20Z</time></trkpt><trkpt lat="59.1016173363" lon="30.0374150276"><time>2026-04-22T13:46:22Z</time></trkpt><trkpt lat="59.1016173363" lon="30.0374150276"><time>2026-04-22T13:46:25Z</time></trkpt><trkpt lat="59.1016173363" lon="30.0374150276"><time>2026-04-22T13:46:27Z</time></trkpt><trkpt lat="59.1015958786" lon="30.0373935699"><time>2026-04-22T13:46:30Z</time></trkpt><trkpt lat="59.1015958786" lon="30.0373291969"><time>2026-04-22T13:46:32Z</time></trkpt><trkpt lat="59.1015958786" lon="30.0372648239"><time>2026-04-22T13:46:35Z</time></trkpt><trkpt lat="59.1015958786" lon="30.0372433662"><time>2026-04-22T13:46:37Z</time></trkpt><trkpt lat="59.1015744209" lon="30.0371789932"><time>2026-04-22T13:46:40Z</time></trkpt><trkpt lat="59.1015958786" lon="30.0371789932"><time>2026-04-22T13:46:42Z</time></trkpt><trkpt lat="59.1016173363" lon="30.0370717049"><time>2026-04-22T13:46:45Z</time></trkpt><trkpt lat="59.1016173363" lon="30.0370073318"><time>2026-04-22T13:46:47Z</time></trkpt><trkpt lat="59.1016173363" lon="30.0369215012"><time>2026-04-22T13:46:50Z</time></trkpt><trkpt lat="59.1016173363" lon="30.0369215012"><time>2026-04-22T13:46:52Z</time></trkpt><trkpt lat="59.1016173363" lon="30.0368785858"><time>2026-04-22T13:46:55Z</time></trkpt><trkpt lat="59.1016173363" lon="30.0368785858"><time>2026-04-22T13:46:57Z</time></trkpt><trkpt lat="59.1016173363" lon="30.0368785858"><time>2026-04-22T13:47:00Z</time></trkpt><trkpt lat="59.1016173363" lon="30.0368785858"><time>2026-04-22T13:47:02Z</time></trkpt><trkpt lat="59.1016173363" lon="30.0368785858"><time>2026-04-22T13:47:05Z</time></trkpt><trkpt lat="59.1016173363" lon="30.0368785858"><time>2026-04-22T13:47:07Z</time></trkpt><trkpt lat="59.1015958786" lon="30.0368785858"><time>2026-04-22T13:47:10Z</time></trkpt><trkpt lat="59.1015958786" lon="30.0368571281"><time>2026-04-22T13:47:12Z</time></trkpt><trkpt lat="59.1015744209" lon="30.0368356705"><time>2026-04-22T13:47:15Z</time></trkpt><trkpt lat="59.1015529633" lon="30.0367927551"><time>2026-04-22T13:47:17Z</time></trkpt><trkpt lat="59.1015315056" lon="30.0367712975"><time>2026-04-22T13:47:20Z</time></trkpt><trkpt lat="59.1015315056" lon="30.0367498398"><time>2026-04-22T13:47:22Z</time></trkpt><trkpt lat="59.1015100479" lon="30.0367498398"><time>2026-04-22T13:47:25Z</time></trkpt><trkpt lat="59.1015100479" lon="30.0367283821"><time>2026-04-22T13:47:27Z</time></trkpt><trkpt lat="59.1014885902" lon="30.0367069244"><time>2026-04-22T13:47:30Z</time></trkpt><trkpt lat="59.1014885902" lon="30.0367069244"><time>2026-04-22T13:47:32Z</time></trkpt><trkpt lat="59.1014456749" lon="30.0366640091"><time>2026-04-22T13:47:35Z</time></trkpt><trkpt lat="59.1014456749" lon="30.0366425514"><time>2026-04-22T13:47:37Z</time></trkpt><trkpt lat="59.1014671326" lon="30.0366210938"><time>2026-04-22T13:47:40Z</time></trkpt><trkpt lat="59.1014671326" lon="30.0365996361"><time>2026-04-22T13:47:42Z</time></trkpt><trkpt lat="59.1014456749" lon="30.0365781784"><time>2026-04-22T13:47:45Z</time></trkpt><trkpt lat="59.1014456749" lon="30.0365567207"><time>2026-04-22T13:47:47Z</time></trkpt><trkpt lat="59.1014456749" lon="30.0365138054"><time>2026-04-22T13:47:50Z</time></trkpt><trkpt lat="59.1014456749" lon="30.0364923477"><time>2026-04-22T13:47:52Z</time></trkpt><trkpt lat="59.1014456749" lon="30.0364494324"><time>2026-04-22T13:47:55Z</time></trkpt><trkpt lat="59.1014242172" lon="30.0364279747"><time>2026-04-22T13:47:57Z</time></trkpt><trkpt lat="59.1014242172" lon="30.0363850594"><time>2026-04-22T13:48:00Z</time></trkpt><trkpt lat="59.1014027596" lon="30.0363850594"><time>2026-04-22T13:48:02Z</time></trkpt><trkpt lat="59.1014027596" lon="30.0363206863"><time>2026-04-22T13:48:05Z</time></trkpt><trkpt lat="59.1013813019" lon="30.0363206863"><time>2026-04-22T13:48:07Z</time></trkpt><trkpt lat="59.1014027596" lon="30.0362992287"><time>2026-04-22T13:48:10Z</time></trkpt><trkpt lat="59.1014027596" lon="30.0362992287"><time>2026-04-22T13:48:12Z</time></trkpt><trkpt lat="59.1014242172" lon="30.0362563133"><time>2026-04-22T13:48:15Z</time></trkpt><trkpt lat="59.1014242172" lon="30.0362563133"><time>2026-04-22T13:48:17Z</time></trkpt><trkpt lat="59.1014242172" lon="30.0362563133"><time>2026-04-22T13:48:20Z</time></trkpt><trkpt lat="59.1014242172" lon="30.0362563133"><time>2026-04-22T13:48:22Z</time></trkpt><trkpt lat="59.1014242172" lon="30.0362563133"><time>2026-04-22T13:48:25Z</time></trkpt><trkpt lat="59.1014242172" lon="30.0362563133"><time>2026-04-22T13:48:27Z</time></trkpt><trkpt lat="59.1014027596" lon="30.0362992287"><time>2026-04-22T13:48:30Z</time></trkpt><trkpt lat="59.1014027596" lon="30.0363206863"><time>2026-04-22T13:48:32Z</time></trkpt><trkpt lat="59.1013383865" lon="30.0363636017"><time>2026-04-22T13:48:35Z</time></trkpt><trkpt lat="59.1013169289" lon="30.0363636017"><time>2026-04-22T13:48:37Z</time></trkpt><trkpt lat="59.1013169289" lon="30.0363636017"><time>2026-04-22T13:48:40Z</time></trkpt><trkpt lat="59.1012954712" lon="30.0363636017"><time>2026-04-22T13:48:42Z</time></trkpt><trkpt lat="59.1012740135" lon="30.0363206863"><time>2026-04-22T13:48:45Z</time></trkpt><trkpt lat="59.1012740135" lon="30.0362992287"><time>2026-04-22T13:48:47Z</time></trkpt><trkpt lat="59.1012525558" lon="30.0362348557"><time>2026-04-22T13:48:50Z</time></trkpt><trkpt lat="59.1012310982" lon="30.0362348557"><time>2026-04-22T13:48:52Z</time></trkpt><trkpt lat="59.1012310982" lon="30.0361919403"><time>2026-04-22T13:48:55Z</time></trkpt><trkpt lat="59.1012096405" lon="30.0361490250"><time>2026-04-22T13:48:57Z</time></trkpt><trkpt lat="59.1012096405" lon="30.0360846519"><time>2026-04-22T13:49:00Z</time></trkpt><trkpt lat="59.1012096405" lon="30.0360417366"><time>2026-04-22T13:49:02Z</time></trkpt><trkpt lat="59.1012096405" lon="30.0359988213"><time>2026-04-22T13:49:05Z</time></trkpt><trkpt lat="59.1012096405" lon="30.0359559059"><time>2026-04-22T13:49:07Z</time></trkpt><trkpt lat="59.1011881828" lon="30.0359129906"><time>2026-04-22T13:49:10Z</time></trkpt><trkpt lat="59.1011881828" lon="30.0358700752"><time>2026-04-22T13:49:12Z</time></trkpt><trkpt lat="59.1011667252" lon="30.0358271599"><time>2026-04-22T13:49:15Z</time></trkpt><trkpt lat="59.1011667252" lon="30.0358057022"><time>2026-04-22T13:49:17Z</time></trkpt><trkpt lat="59.1011452675" lon="30.0357627869"><time>2026-04-22T13:49:20Z</time></trkpt><trkpt lat="59.1011452675" lon="30.0357198715"><time>2026-04-22T13:49:22Z</time></trkpt><trkpt lat="59.1011452675" lon="30.0356769562"><time>2026-04-22T13:49:25Z</time></trkpt><trkpt lat="59.1011238098" lon="30.0356340408"><time>2026-04-22T13:49:27Z</time></trkpt><trkpt lat="59.1011452675" lon="30.0355696678"><time>2026-04-22T13:49:30Z</time></trkpt><trkpt lat="59.1011238098" lon="30.0355482101"><time>2026-04-22T13:49:32Z</time></trkpt><trkpt lat="59.1011238098" lon="30.0355052948"><time>2026-04-22T13:49:35Z</time></trkpt><trkpt lat="59.1011238098" lon="30.0354623795"><time>2026-04-22T13:49:37Z</time></trkpt><trkpt lat="59.1011238098" lon="30.0354623795"><time>2026-04-22T13:49:40Z</time></trkpt><trkpt lat="59.1011238098" lon="30.0354623795"><time>2026-04-22T13:49:42Z</time></trkpt><trkpt lat="59.1011238098" lon="30.0354623795"><time>2026-04-22T13:49:45Z</time></trkpt><trkpt lat="59.1011238098" lon="30.0354623795"><time>2026-04-22T13:49:47Z</time></trkpt><trkpt lat="59.1011238098" lon="30.0354623795"><time>2026-04-22T13:49:50Z</time></trkpt><trkpt lat="59.1011238098" lon="30.0354194641"><time>2026-04-22T13:49:52Z</time></trkpt><trkpt lat="59.1011023521" lon="30.0354194641"><time>2026-04-22T13:49:55Z</time></trkpt><trkpt lat="59.1011238098" lon="30.0353980064"><time>2026-04-22T13:49:57Z</time></trkpt><trkpt lat="59.1011238098" lon="30.0353980064"><time>2026-04-22T13:50:00Z</time></trkpt><trkpt lat="59.1011238098" lon="30.0353980064"><time>2026-04-22T13:50:02Z</time></trkpt><trkpt lat="59.1011238098" lon="30.0353980064"><time>2026-04-22T13:50:05Z</time></trkpt><trkpt lat="59.1011238098" lon="30.0353980064"><time>2026-04-22T13:50:07Z</time></trkpt><trkpt lat="59.1011238098" lon="30.0353980064"><time>2026-04-22T13:50:10Z</time></trkpt><trkpt lat="59.1011238098" lon="30.0353980064"><time>2026-04-22T13:50:12Z</time></trkpt><trkpt lat="59.1011238098" lon="30.0353980064"><time>2026-04-22T13:50:15Z</time></trkpt><trkpt lat="59.1011238098" lon="30.0353980064"><time>2026-04-22T13:50:17Z</time></trkpt><trkpt lat="59.1011238098" lon="30.0353980064"><time>2026-04-22T13:50:20Z</time></trkpt><trkpt lat="59.1011238098" lon="30.0353980064"><time>2026-04-22T13:50:22Z</time></trkpt><trkpt lat="59.1011238098" lon="30.0353980064"><time>2026-04-22T13:50:25Z</time></trkpt><trkpt lat="59.1011238098" lon="30.0353980064"><time>2026-04-22T13:50:27Z</time></trkpt><trkpt lat="59.1011238098" lon="30.0353980064"><time>2026-04-22T13:50:30Z</time></trkpt><trkpt lat="59.1011238098" lon="30.0353980064"><time>2026-04-22T13:50:32Z</time></trkpt><trkpt lat="59.1011238098" lon="30.0353980064"><time>2026-04-22T13:50:35Z</time></trkpt><trkpt lat="59.1011238098" lon="30.0353980064"><time>2026-04-22T13:50:37Z</time></trkpt><trkpt lat="59.1011238098" lon="30.0353980064"><time>2026-04-22T13:50:40Z</time></trkpt><trkpt lat="59.1011238098" lon="30.0353980064"><time>2026-04-22T13:50:42Z</time></trkpt><trkpt lat="59.1011238098" lon="30.0353980064"><time>2026-04-22T13:50:45Z</time></trkpt><trkpt lat="59.1011238098" lon="30.0353980064"><time>2026-04-22T13:50:47Z</time></trkpt><trkpt lat="59.1011238098" lon="30.0353980064"><time>2026-04-22T13:50:50Z</time></trkpt><trkpt lat="59.1011238098" lon="30.0353980064"><time>2026-04-22T13:50:52Z</time></trkpt><trkpt lat="59.1011238098" lon="30.0353980064"><time>2026-04-22T13:50:55Z</time></trkpt><trkpt lat="59.1011238098" lon="30.0353980064"><time>2026-04-22T13:50:57Z</time></trkpt><trkpt lat="59.1011238098" lon="30.0353980064"><time>2026-04-22T13:51:00Z</time></trkpt><trkpt lat="59.1011238098" lon="30.0353980064"><time>2026-04-22T13:51:02Z</time></trkpt><trkpt lat="59.1011238098" lon="30.0353980064"><time>2026-04-22T13:51:05Z</time></trkpt><trkpt lat="59.1011238098" lon="30.0353980064"><time>2026-04-22T13:51:07Z</time></trkpt><trkpt lat="59.1011023521" lon="30.0353550911"><time>2026-04-22T13:51:10Z</time></trkpt><trkpt lat="59.1011023521" lon="30.0353550911"><time>2026-04-22T13:51:12Z</time></trkpt><trkpt lat="59.1010808945" lon="30.0352907181"><time>2026-04-22T13:51:15Z</time></trkpt><trkpt lat="59.1010808945" lon="30.0352692604"><time>2026-04-22T13:51:17Z</time></trkpt><trkpt lat="59.1011023521" lon="30.0352263451"><time>2026-04-22T13:51:20Z</time></trkpt><trkpt lat="59.1011023521" lon="30.0352048874"><time>2026-04-22T13:51:22Z</time></trkpt><trkpt lat="59.1010808945" lon="30.0351405144"><time>2026-04-22T13:51:25Z</time></trkpt><trkpt lat="59.1010808945" lon="30.0351190567"><time>2026-04-22T13:51:27Z</time></trkpt><trkpt lat="59.1010808945" lon="30.0350546837"><time>2026-04-22T13:51:30Z</time></trkpt><trkpt lat="59.1010808945" lon="30.0350332260"><time>2026-04-22T13:51:32Z</time></trkpt><trkpt lat="59.1010808945" lon="30.0350332260"><time>2026-04-22T13:51:35Z</time></trkpt><trkpt lat="59.1010808945" lon="30.0350332260"><time>2026-04-22T13:51:37Z</time></trkpt><trkpt lat="59.1010808945" lon="30.0350332260"><time>2026-04-22T13:51:40Z</time></trkpt><trkpt lat="59.1010808945" lon="30.0350332260"><time>2026-04-22T13:51:42Z</time></trkpt><trkpt lat="59.1010594368" lon="30.0350332260"><time>2026-04-22T13:51:45Z</time></trkpt><trkpt lat="59.1010594368" lon="30.0350117683"><time>2026-04-22T13:51:47Z</time></trkpt><trkpt lat="59.1010594368" lon="30.0349473953"><time>2026-04-22T13:51:50Z</time></trkpt><trkpt lat="59.1010594368" lon="30.0349259377"><time>2026-04-22T13:51:52Z</time></trkpt><trkpt lat="59.1010594368" lon="30.0349044800"><time>2026-04-22T13:51:55Z</time></trkpt><trkpt lat="59.1010379791" lon="30.0348615646"><time>2026-04-22T13:51:57Z</time></trkpt><trkpt lat="59.1010379791" lon="30.0347971916"><time>2026-04-22T13:52:00Z</time></trkpt><trkpt lat="59.1010594368" lon="30.0347757339"><time>2026-04-22T13:52:02Z</time></trkpt><trkpt lat="59.1010379791" lon="30.0347542763"><time>2026-04-22T13:52:05Z</time></trkpt><trkpt lat="59.1010379791" lon="30.0347542763"><time>2026-04-22T13:52:07Z</time></trkpt><trkpt lat="59.1010165215" lon="30.0347113609"><time>2026-04-22T13:52:10Z</time></trkpt><trkpt lat="59.1010165215" lon="30.0346899033"><time>2026-04-22T13:52:12Z</time></trkpt><trkpt lat="59.1009950638" lon="30.0346469879"><time>2026-04-22T13:52:15Z</time></trkpt><trkpt lat="59.1009950638" lon="30.0346255302"><time>2026-04-22T13:52:17Z</time></trkpt><trkpt lat="59.1009950638" lon="30.0345826149"><time>2026-04-22T13:52:20Z</time></trkpt><trkpt lat="59.1009736061" lon="30.0345826149"><time>2026-04-22T13:52:22Z</time></trkpt><trkpt lat="59.1009736061" lon="30.0345396996"><time>2026-04-22T13:52:25Z</time></trkpt><trkpt lat="59.1009736061" lon="30.0344967842"><time>2026-04-22T13:52:27Z</time></trkpt><trkpt lat="59.1009736061" lon="30.0344538689"><time>2026-04-22T13:52:30Z</time></trkpt><trkpt lat="59.1009736061" lon="30.0344109535"><time>2026-04-22T13:52:32Z</time></trkpt><trkpt lat="59.1009736061" lon="30.0343680382"><time>2026-04-22T13:52:35Z</time></trkpt><trkpt lat="59.1009736061" lon="30.0343251228"><time>2026-04-22T13:52:37Z</time></trkpt><trkpt lat="59.1009521484" lon="30.0342822075"><time>2026-04-22T13:52:40Z</time></trkpt><trkpt lat="59.1009736061" lon="30.0342392921"><time>2026-04-22T13:52:42Z</time></trkpt><trkpt lat="59.1009736061" lon="30.0341963768"><time>2026-04-22T13:52:45Z</time></trkpt><trkpt lat="59.1009950638" lon="30.0341534615"><time>2026-04-22T13:52:47Z</time></trkpt><trkpt lat="59.1009950638" lon="30.0341320038"><time>2026-04-22T13:52:50Z</time></trkpt><trkpt lat="59.1010165215" lon="30.0340890884"><time>2026-04-22T13:52:52Z</time></trkpt><trkpt lat="59.1010379791" lon="30.0340247154"><time>2026-04-22T13:52:55Z</time></trkpt><trkpt lat="59.1010379791" lon="30.0340032578"><time>2026-04-22T13:52:57Z</time></trkpt><trkpt lat="59.1010379791" lon="30.0339603424"><time>2026-04-22T13:53:00Z</time></trkpt><trkpt lat="59.1010379791" lon="30.0339388847"><time>2026-04-22T13:53:02Z</time></trkpt><trkpt lat="59.1010379791" lon="30.0338745117"><time>2026-04-22T13:53:05Z</time></trkpt><trkpt lat="59.1010379791" lon="30.0338530540"><time>2026-04-22T13:53:07Z</time></trkpt><trkpt lat="59.1010379791" lon="30.0337886810"><time>2026-04-22T13:53:10Z</time></trkpt><trkpt lat="59.1010379791" lon="30.0337886810"><time>2026-04-22T13:53:12Z</time></trkpt><trkpt lat="59.1010379791" lon="30.0337457657"><time>2026-04-22T13:53:15Z</time></trkpt><trkpt lat="59.1010379791" lon="30.0337457657"><time>2026-04-22T13:53:17Z</time></trkpt><trkpt lat="59.1010379791" lon="30.0337028503"><time>2026-04-22T13:53:20Z</time></trkpt><trkpt lat="59.1010379791" lon="30.0336599350"><time>2026-04-22T13:53:22Z</time></trkpt><trkpt lat="59.1010165215" lon="30.0336170197"><time>2026-04-22T13:53:25Z</time></trkpt><trkpt lat="59.1010165215" lon="30.0335955620"><time>2026-04-22T13:53:27Z</time></trkpt><trkpt lat="59.1010165215" lon="30.0335526466"><time>2026-04-22T13:53:30Z</time></trkpt><trkpt lat="59.1010165215" lon="30.0335526466"><time>2026-04-22T13:53:32Z</time></trkpt><trkpt lat="59.1010165215" lon="30.0335526466"><time>2026-04-22T13:53:35Z</time></trkpt><trkpt lat="59.1010165215" lon="30.0335526466"><time>2026-04-22T13:53:37Z</time></trkpt><trkpt lat="59.1010165215" lon="30.0335526466"><time>2026-04-22T13:53:40Z</time></trkpt><trkpt lat="59.1010165215" lon="30.0335311890"><time>2026-04-22T13:53:42Z</time></trkpt><trkpt lat="59.1009950638" lon="30.0335311890"><time>2026-04-22T13:53:45Z</time></trkpt><trkpt lat="59.1009950638" lon="30.0335311890"><time>2026-04-22T13:53:47Z</time></trkpt><trkpt lat="59.1009950638" lon="30.0335311890"><time>2026-04-22T13:53:50Z</time></trkpt><trkpt lat="59.1009950638" lon="30.0334882736"><time>2026-04-22T13:53:52Z</time></trkpt><trkpt lat="59.1009736061" lon="30.0334882736"><time>2026-04-22T13:53:55Z</time></trkpt><trkpt lat="59.1009736061" lon="30.0334453583"><time>2026-04-22T13:53:57Z</time></trkpt><trkpt lat="59.1009521484" lon="30.0333809853"><time>2026-04-22T13:54:00Z</time></trkpt><trkpt lat="59.1009521484" lon="30.0333809853"><time>2026-04-22T13:54:02Z</time></trkpt><trkpt lat="59.1009521484" lon="30.0333809853"><time>2026-04-22T13:54:05Z</time></trkpt><trkpt lat="59.1009521484" lon="30.0333595276"><time>2026-04-22T13:54:07Z</time></trkpt><trkpt lat="59.1009521484" lon="30.0333380699"><time>2026-04-22T13:54:10Z</time></trkpt><trkpt lat="59.1009521484" lon="30.0333380699"><time>2026-04-22T13:54:12Z</time></trkpt><trkpt lat="59.1009521484" lon="30.0333380699"><time>2026-04-22T13:54:15Z</time></trkpt><trkpt lat="59.1009306908" lon="30.0333380699"><time>2026-04-22T13:54:17Z</time></trkpt><trkpt lat="59.1009092331" lon="30.0332951546"><time>2026-04-22T13:54:20Z</time></trkpt><trkpt lat="59.1008877754" lon="30.0332951546"><time>2026-04-22T13:54:22Z</time></trkpt><trkpt lat="59.1008877754" lon="30.0332951546"><time>2026-04-22T13:54:25Z</time></trkpt><trkpt lat="59.1008877754" lon="30.0332951546"><time>2026-04-22T13:54:27Z</time></trkpt><trkpt lat="59.1008877754" lon="30.0332951546"><time>2026-04-22T13:54:30Z</time></trkpt><trkpt lat="59.1008877754" lon="30.0332951546"><time>2026-04-22T13:54:32Z</time></trkpt><trkpt lat="59.1008877754" lon="30.0332736969"><time>2026-04-22T13:54:35Z</time></trkpt><trkpt lat="59.1008877754" lon="30.0332736969"><time>2026-04-22T13:54:37Z</time></trkpt><trkpt lat="59.1008663177" lon="30.0332736969"><time>2026-04-22T13:54:40Z</time></trkpt><trkpt lat="59.1008663177" lon="30.0332736969"><time>2026-04-22T13:54:42Z</time></trkpt><trkpt lat="59.1008663177" lon="30.0332522392"><time>2026-04-22T13:54:45Z</time></trkpt><trkpt lat="59.1008663177" lon="30.0332522392"><time>2026-04-22T13:54:47Z</time></trkpt><trkpt lat="59.1008663177" lon="30.0332522392"><time>2026-04-22T13:54:50Z</time></trkpt><trkpt lat="59.1008663177" lon="30.0332522392"><time>2026-04-22T13:54:52Z</time></trkpt><trkpt lat="59.1008663177" lon="30.0332522392"><time>2026-04-22T13:54:55Z</time></trkpt><trkpt lat="59.1008663177" lon="30.0332522392"><time>2026-04-22T13:54:57Z</time></trkpt><trkpt lat="59.1008663177" lon="30.0332522392"><time>2026-04-22T13:55:00Z</time></trkpt><trkpt lat="59.1008663177" lon="30.0332522392"><time>2026-04-22T13:55:02Z</time></trkpt><trkpt lat="59.1008663177" lon="30.0332522392"><time>2026-04-22T13:55:05Z</time></trkpt><trkpt lat="59.1008663177" lon="30.0332522392"><time>2026-04-22T13:55:07Z</time></trkpt><trkpt lat="59.1008663177" lon="30.0332522392"><time>2026-04-22T13:55:10Z</time></trkpt><trkpt lat="59.1008663177" lon="30.0332522392"><time>2026-04-22T13:55:12Z</time></trkpt><trkpt lat="59.1008663177" lon="30.0332522392"><time>2026-04-22T13:55:15Z</time></trkpt><trkpt lat="59.1008663177" lon="30.0332522392"><time>2026-04-22T13:55:17Z</time></trkpt><trkpt lat="59.1008663177" lon="30.0332522392"><time>2026-04-22T13:55:20Z</time></trkpt><trkpt lat="59.1008663177" lon="30.0332522392"><time>2026-04-22T13:55:22Z</time></trkpt><trkpt lat="59.1008448601" lon="30.0332522392"><time>2026-04-22T13:55:25Z</time></trkpt><trkpt lat="59.1008448601" lon="30.0332307816"><time>2026-04-22T13:55:27Z</time></trkpt><trkpt lat="59.1008448601" lon="30.0331878662"><time>2026-04-22T13:55:30Z</time></trkpt><trkpt lat="59.1008448601" lon="30.0331664085"><time>2026-04-22T13:55:32Z</time></trkpt><trkpt lat="59.1008234024" lon="30.0331664085"><time>2026-04-22T13:55:35Z</time></trkpt><trkpt lat="59.1008234024" lon="30.0331664085"><time>2026-04-22T13:55:37Z</time></trkpt><trkpt lat="59.1008234024" lon="30.0331449509"><time>2026-04-22T13:55:40Z</time></trkpt><trkpt lat="59.1008234024" lon="30.0331449509"><time>2026-04-22T13:55:42Z</time></trkpt><trkpt lat="59.1008234024" lon="30.0331449509"><time>2026-04-22T13:55:45Z</time></trkpt><trkpt lat="59.1008234024" lon="30.0331449509"><time>2026-04-22T13:55:47Z</time></trkpt><trkpt lat="59.1008234024" lon="30.0331449509"><time>2026-04-22T13:55:50Z</time></trkpt><trkpt lat="59.1008234024" lon="30.0331449509"><time>2026-04-22T13:55:52Z</time></trkpt><trkpt lat="59.1008234024" lon="30.0331449509"><time>2026-04-22T13:55:55Z</time></trkpt><trkpt lat="59.1008234024" lon="30.0331449509"><time>2026-04-22T13:55:57Z</time></trkpt><trkpt lat="59.1008234024" lon="30.0331449509"><time>2026-04-22T13:56:00Z</time></trkpt><trkpt lat="59.1008234024" lon="30.0331449509"><time>2026-04-22T13:56:02Z</time></trkpt><trkpt lat="59.1008234024" lon="30.0331449509"><time>2026-04-22T13:56:05Z</time></trkpt><trkpt lat="59.1008234024" lon="30.0331449509"><time>2026-04-22T13:56:07Z</time></trkpt><trkpt lat="59.1008234024" lon="30.0331449509"><time>2026-04-22T13:56:10Z</time></trkpt><trkpt lat="59.1008234024" lon="30.0331449509"><time>2026-04-22T13:56:12Z</time></trkpt><trkpt lat="59.1008019447" lon="30.0331234932"><time>2026-04-22T13:56:15Z</time></trkpt><trkpt lat="59.1008019447" lon="30.0331234932"><time>2026-04-22T13:56:17Z</time></trkpt><trkpt lat="59.1008019447" lon="30.0331234932"><time>2026-04-22T13:56:20Z</time></trkpt><trkpt lat="59.1008019447" lon="30.0331234932"><time>2026-04-22T13:56:22Z</time></trkpt><trkpt lat="59.1008019447" lon="30.0331234932"><time>2026-04-22T13:56:25Z</time></trkpt><trkpt lat="59.1007804871" lon="30.0331020355"><time>2026-04-22T13:56:27Z</time></trkpt><trkpt lat="59.1007804871" lon="30.0330805779"><time>2026-04-22T13:56:30Z</time></trkpt><trkpt lat="59.1007590294" lon="30.0330591202"><time>2026-04-22T13:56:32Z</time></trkpt><trkpt lat="59.1007590294" lon="30.0330591202"><time>2026-04-22T13:56:35Z</time></trkpt><trkpt lat="59.1007375717" lon="30.0330376625"><time>2026-04-22T13:56:37Z</time></trkpt><trkpt lat="59.1007161140" lon="30.0330162048"><time>2026-04-22T13:56:40Z</time></trkpt><trkpt lat="59.1007161140" lon="30.0330162048"><time>2026-04-22T13:56:42Z</time></trkpt><trkpt lat="59.1007161140" lon="30.0329732895"><time>2026-04-22T13:56:45Z</time></trkpt><trkpt lat="59.1006946564" lon="30.0329303741"><time>2026-04-22T13:56:47Z</time></trkpt><trkpt lat="59.1007161140" lon="30.0328874588"><time>2026-04-22T13:56:50Z</time></trkpt><trkpt lat="59.1007161140" lon="30.0328874588"><time>2026-04-22T13:56:52Z</time></trkpt><trkpt lat="59.1007161140" lon="30.0328874588"><time>2026-04-22T13:56:55Z</time></trkpt><trkpt lat="59.1007161140" lon="30.0328874588"><time>2026-04-22T13:56:57Z</time></trkpt><trkpt lat="59.1007161140" lon="30.0328660011"><time>2026-04-22T13:57:00Z</time></trkpt><trkpt lat="59.1006946564" lon="30.0328445435"><time>2026-04-22T13:57:02Z</time></trkpt><trkpt lat="59.1006946564" lon="30.0328445435"><time>2026-04-22T13:57:05Z</time></trkpt><trkpt lat="59.1006946564" lon="30.0328445435"><time>2026-04-22T13:57:07Z</time></trkpt><trkpt lat="59.1006946564" lon="30.0328445435"><time>2026-04-22T13:57:10Z</time></trkpt><trkpt lat="59.1006946564" lon="30.0328445435"><time>2026-04-22T13:57:12Z</time></trkpt><trkpt lat="59.1006946564" lon="30.0328445435"><time>2026-04-22T13:57:15Z</time></trkpt><trkpt lat="59.1006946564" lon="30.0328445435"><time>2026-04-22T13:57:17Z</time></trkpt><trkpt lat="59.1006946564" lon="30.0328445435"><time>2026-04-22T13:57:20Z</time></trkpt><trkpt lat="59.1006946564" lon="30.0328445435"><time>2026-04-22T13:57:22Z</time></trkpt><trkpt lat="59.1006946564" lon="30.0328445435"><time>2026-04-22T13:57:25Z</time></trkpt><trkpt lat="59.1006946564" lon="30.0328445435"><time>2026-04-22T13:57:27Z</time></trkpt><trkpt lat="59.1006946564" lon="30.0328230858"><time>2026-04-22T13:57:30Z</time></trkpt><trkpt lat="59.1006946564" lon="30.0327801704"><time>2026-04-22T13:57:32Z</time></trkpt><trkpt lat="59.1007161140" lon="30.0326943398"><time>2026-04-22T13:57:35Z</time></trkpt><trkpt lat="59.1007161140" lon="30.0326299667"><time>2026-04-22T13:57:37Z</time></trkpt><trkpt lat="59.1007161140" lon="30.0326085091"><time>2026-04-22T13:57:40Z</time></trkpt><trkpt lat="59.1007161140" lon="30.0326085091"><time>2026-04-22T13:57:42Z</time></trkpt><trkpt lat="59.1007161140" lon="30.0326085091"><time>2026-04-22T13:57:45Z</time></trkpt><trkpt lat="59.1007161140" lon="30.0326085091"><time>2026-04-22T13:57:47Z</time></trkpt><trkpt lat="59.1007161140" lon="30.0326085091"><time>2026-04-22T13:57:50Z</time></trkpt><trkpt lat="59.1007161140" lon="30.0326085091"><time>2026-04-22T13:57:52Z</time></trkpt><trkpt lat="59.1007161140" lon="30.0326085091"><time>2026-04-22T13:57:55Z</time></trkpt><trkpt lat="59.1007161140" lon="30.0326085091"><time>2026-04-22T13:57:57Z</time></trkpt><trkpt lat="59.1007161140" lon="30.0326085091"><time>2026-04-22T13:58:00Z</time></trkpt><trkpt lat="59.1007161140" lon="30.0326085091"><time>2026-04-22T13:58:02Z</time></trkpt><trkpt lat="59.1007161140" lon="30.0326085091"><time>2026-04-22T13:58:05Z</time></trkpt><trkpt lat="59.1007161140" lon="30.0326085091"><time>2026-04-22T13:58:07Z</time></trkpt><trkpt lat="59.1007161140" lon="30.0326085091"><time>2026-04-22T13:58:10Z</time></trkpt><trkpt lat="59.1007161140" lon="30.0325870514"><time>2026-04-22T13:58:12Z</time></trkpt><trkpt lat="59.1006946564" lon="30.0325226784"><time>2026-04-22T13:58:15Z</time></trkpt><trkpt lat="59.1006946564" lon="30.0325226784"><time>2026-04-22T13:58:17Z</time></trkpt><trkpt lat="59.1006946564" lon="30.0325226784"><time>2026-04-22T13:58:20Z</time></trkpt><trkpt lat="59.1006946564" lon="30.0325012207"><time>2026-04-22T13:58:22Z</time></trkpt><trkpt lat="59.1006946564" lon="30.0325012207"><time>2026-04-22T13:58:25Z</time></trkpt><trkpt lat="59.1006946564" lon="30.0324797630"><time>2026-04-22T13:58:27Z</time></trkpt><trkpt lat="59.1006946564" lon="30.0324797630"><time>2026-04-22T13:58:30Z</time></trkpt><trkpt lat="59.1006731987" lon="30.0324797630"><time>2026-04-22T13:58:32Z</time></trkpt><trkpt lat="59.1006731987" lon="30.0324583054"><time>2026-04-22T13:58:35Z</time></trkpt><trkpt lat="59.1006731987" lon="30.0324583054"><time>2026-04-22T13:58:37Z</time></trkpt><trkpt lat="59.1006517410" lon="30.0324368477"><time>2026-04-22T13:58:40Z</time></trkpt><trkpt lat="59.1006302834" lon="30.0324368477"><time>2026-04-22T13:58:42Z</time></trkpt><trkpt lat="59.1006302834" lon="30.0324153900"><time>2026-04-22T13:58:45Z</time></trkpt><trkpt lat="59.1006088257" lon="30.0323724747"><time>2026-04-22T13:58:47Z</time></trkpt><trkpt lat="59.1006088257" lon="30.0323510170"><time>2026-04-22T13:58:50Z</time></trkpt><trkpt lat="59.1006088257" lon="30.0323510170"><time>2026-04-22T13:58:52Z</time></trkpt><trkpt lat="59.1006088257" lon="30.0323081017"><time>2026-04-22T13:58:55Z</time></trkpt><trkpt lat="59.1006088257" lon="30.0322651863"><time>2026-04-22T13:58:57Z</time></trkpt><trkpt lat="59.1006088257" lon="30.0322222710"><time>2026-04-22T13:59:00Z</time></trkpt><trkpt lat="59.1006088257" lon="30.0322222710"><time>2026-04-22T13:59:02Z</time></trkpt><trkpt lat="59.1005873680" lon="30.0322008133"><time>2026-04-22T13:59:05Z</time></trkpt><trkpt lat="59.1005873680" lon="30.0322008133"><time>2026-04-22T13:59:07Z</time></trkpt><trkpt lat="59.1005873680" lon="30.0321578979"><time>2026-04-22T13:59:10Z</time></trkpt><trkpt lat="59.1005659103" lon="30.0321578979"><time>2026-04-22T13:59:12Z</time></trkpt><trkpt lat="59.1005444527" lon="30.0321364403"><time>2026-04-22T13:59:15Z</time></trkpt><trkpt lat="59.1005444527" lon="30.0321149826"><time>2026-04-22T13:59:17Z</time></trkpt><trkpt lat="59.1005444527" lon="30.0320935249"><time>2026-04-22T13:59:20Z</time></trkpt><trkpt lat="59.1005444527" lon="30.0320935249"><time>2026-04-22T13:59:22Z</time></trkpt><trkpt lat="59.1005444527" lon="30.0320935249"><time>2026-04-22T13:59:25Z</time></trkpt><trkpt lat="59.1005444527" lon="30.0320935249"><time>2026-04-22T13:59:27Z</time></trkpt><trkpt lat="59.1005444527" lon="30.0320935249"><time>2026-04-22T13:59:30Z</time></trkpt><trkpt lat="59.1005444527" lon="30.0320935249"><time>2026-04-22T13:59:32Z</time></trkpt><trkpt lat="59.1005444527" lon="30.0320935249"><time>2026-04-22T13:59:35Z</time></trkpt><trkpt lat="59.1005444527" lon="30.0320935249"><time>2026-04-22T13:59:37Z</time></trkpt><trkpt lat="59.1005444527" lon="30.0320506096"><time>2026-04-22T13:59:40Z</time></trkpt><trkpt lat="59.1005444527" lon="30.0320076942"><time>2026-04-22T13:59:42Z</time></trkpt><trkpt lat="59.1005444527" lon="30.0320076942"><time>2026-04-22T13:59:45Z</time></trkpt><trkpt lat="59.1005444527" lon="30.0320076942"><time>2026-04-22T13:59:47Z</time></trkpt><trkpt lat="59.1005444527" lon="30.0320076942"><time>2026-04-22T13:59:50Z</time></trkpt><trkpt lat="59.1005444527" lon="30.0319647789"><time>2026-04-22T13:59:52Z</time></trkpt><trkpt lat="59.1005444527" lon="30.0318789482"><time>2026-04-22T13:59:55Z</time></trkpt><trkpt lat="59.1005229950" lon="30.0318145752"><time>2026-04-22T13:59:57Z</time></trkpt><trkpt lat="59.1005229950" lon="30.0317502022"><time>2026-04-22T14:00:00Z</time></trkpt><trkpt lat="59.1005229950" lon="30.0317072868"><time>2026-04-22T14:00:02Z</time></trkpt><trkpt lat="59.1005444527" lon="30.0316643715"><time>2026-04-22T14:00:05Z</time></trkpt><trkpt lat="59.1005444527" lon="30.0316643715"><time>2026-04-22T14:00:07Z</time></trkpt><trkpt lat="59.1005444527" lon="30.0316214561"><time>2026-04-22T14:00:10Z</time></trkpt><trkpt lat="59.1005444527" lon="30.0316214561"><time>2026-04-22T14:00:12Z</time></trkpt><trkpt lat="59.1005659103" lon="30.0315785408"><time>2026-04-22T14:00:15Z</time></trkpt><trkpt lat="59.1005659103" lon="30.0315785408"><time>2026-04-22T14:00:17Z</time></trkpt><trkpt lat="59.1005659103" lon="30.0315785408"><time>2026-04-22T14:00:20Z</time></trkpt><trkpt lat="59.1005659103" lon="30.0315785408"><time>2026-04-22T14:00:22Z</time></trkpt><trkpt lat="59.1005659103" lon="30.0315785408"><time>2026-04-22T14:00:25Z</time></trkpt><trkpt lat="59.1005659103" lon="30.0315785408"><time>2026-04-22T14:00:27Z</time></trkpt><trkpt lat="59.1005659103" lon="30.0315785408"><time>2026-04-22T14:00:30Z</time></trkpt><trkpt lat="59.1005659103" lon="30.0315785408"><time>2026-04-22T14:00:32Z</time></trkpt><trkpt lat="59.1005659103" lon="30.0315785408"><time>2026-04-22T14:00:35Z</time></trkpt><trkpt lat="59.1005659103" lon="30.0315785408"><time>2026-04-22T14:00:37Z</time></trkpt><trkpt lat="59.1005659103" lon="30.0315570831"><time>2026-04-22T14:00:40Z</time></trkpt><trkpt lat="59.1005659103" lon="30.0315356255"><time>2026-04-22T14:00:42Z</time></trkpt><trkpt lat="59.1005444527" lon="30.0314927101"><time>2026-04-22T14:00:45Z</time></trkpt><trkpt lat="59.1005444527" lon="30.0314283371"><time>2026-04-22T14:00:47Z</time></trkpt><trkpt lat="59.1005229950" lon="30.0314068794"><time>2026-04-22T14:00:50Z</time></trkpt><trkpt lat="59.1005229950" lon="30.0313854218"><time>2026-04-22T14:00:52Z</time></trkpt><trkpt lat="59.1005229950" lon="30.0313639641"><time>2026-04-22T14:00:55Z</time></trkpt><trkpt lat="59.1005229950" lon="30.0313425064"><time>2026-04-22T14:00:57Z</time></trkpt><trkpt lat="59.1005229950" lon="30.0313639641"><time>2026-04-22T14:01:00Z</time></trkpt><trkpt lat="59.1005229950" lon="30.0313639641"><time>2026-04-22T14:01:02Z</time></trkpt><trkpt lat="59.1005229950" lon="30.0313639641"><time>2026-04-22T14:01:05Z</time></trkpt><trkpt lat="59.1005229950" lon="30.0313639641"><time>2026-04-22T14:01:07Z</time></trkpt><trkpt lat="59.1005229950" lon="30.0313425064"><time>2026-04-22T14:01:10Z</time></trkpt><trkpt lat="59.1005229950" lon="30.0313425064"><time>2026-04-22T14:01:12Z</time></trkpt><trkpt lat="59.1005015373" lon="30.0312995911"><time>2026-04-22T14:01:15Z</time></trkpt><trkpt lat="59.1005015373" lon="30.0312995911"><time>2026-04-22T14:01:17Z</time></trkpt><trkpt lat="59.1004586220" lon="30.0312566757"><time>2026-04-22T14:01:20Z</time></trkpt><trkpt lat="59.1004586220" lon="30.0311923027"><time>2026-04-22T14:01:22Z</time></trkpt><trkpt lat="59.1004586220" lon="30.0311708450"><time>2026-04-22T14:01:25Z</time></trkpt><trkpt lat="59.1004586220" lon="30.0311493874"><time>2026-04-22T14:01:27Z</time></trkpt><trkpt lat="59.1004371643" lon="30.0311493874"><time>2026-04-22T14:01:30Z</time></trkpt><trkpt lat="59.1004371643" lon="30.0311493874"><time>2026-04-22T14:01:32Z</time></trkpt><trkpt lat="59.1004371643" lon="30.0311279297"><time>2026-04-22T14:01:35Z</time></trkpt><trkpt lat="59.1004371643" lon="30.0310850143"><time>2026-04-22T14:01:37Z</time></trkpt><trkpt lat="59.1004157066" lon="30.0310420990"><time>2026-04-22T14:01:40Z</time></trkpt><trkpt lat="59.1004157066" lon="30.0309991837"><time>2026-04-22T14:01:42Z</time></trkpt><trkpt lat="59.1003942490" lon="30.0309777260"><time>2026-04-22T14:01:45Z</time></trkpt><trkpt lat="59.1003942490" lon="30.0309562683"><time>2026-04-22T14:01:47Z</time></trkpt><trkpt lat="59.1003513336" lon="30.0309133530"><time>2026-04-22T14:01:50Z</time></trkpt><trkpt lat="59.1003513336" lon="30.0308918953"><time>2026-04-22T14:01:52Z</time></trkpt><trkpt lat="59.1003298759" lon="30.0308275223"><time>2026-04-22T14:01:55Z</time></trkpt><trkpt lat="59.1003084183" lon="30.0307846069"><time>2026-04-22T14:01:57Z</time></trkpt><trkpt lat="59.1003084183" lon="30.0307631493"><time>2026-04-22T14:02:00Z</time></trkpt><trkpt lat="59.1002869606" lon="30.0307416916"><time>2026-04-22T14:02:02Z</time></trkpt><trkpt lat="59.1002869606" lon="30.0306773186"><time>2026-04-22T14:02:05Z</time></trkpt><trkpt lat="59.1002869606" lon="30.0306344032"><time>2026-04-22T14:02:07Z</time></trkpt><trkpt lat="59.1002869606" lon="30.0306344032"><time>2026-04-22T14:02:10Z</time></trkpt><trkpt lat="59.1002869606" lon="30.0306129456"><time>2026-04-22T14:02:12Z</time></trkpt><trkpt lat="59.1002869606" lon="30.0305914879"><time>2026-04-22T14:02:15Z</time></trkpt><trkpt lat="59.1003084183" lon="30.0305485725"><time>2026-04-22T14:02:17Z</time></trkpt><trkpt lat="59.1002869606" lon="30.0305056572"><time>2026-04-22T14:02:20Z</time></trkpt><trkpt lat="59.1002869606" lon="30.0305056572"><time>2026-04-22T14:02:22Z</time></trkpt><trkpt lat="59.1002869606" lon="30.0305056572"><time>2026-04-22T14:02:25Z</time></trkpt><trkpt lat="59.1002869606" lon="30.0305056572"><time>2026-04-22T14:02:27Z</time></trkpt><trkpt lat="59.1002869606" lon="30.0305056572"><time>2026-04-22T14:02:30Z</time></trkpt><trkpt lat="59.1002869606" lon="30.0305056572"><time>2026-04-22T14:02:32Z</time></trkpt><trkpt lat="59.1002869606" lon="30.0305056572"><time>2026-04-22T14:02:35Z</time></trkpt><trkpt lat="59.1002869606" lon="30.0305056572"><time>2026-04-22T14:02:37Z</time></trkpt><trkpt lat="59.1002869606" lon="30.0305056572"><time>2026-04-22T14:02:40Z</time></trkpt><trkpt lat="59.1002869606" lon="30.0305056572"><time>2026-04-22T14:02:42Z</time></trkpt><trkpt lat="59.1002869606" lon="30.0305056572"><time>2026-04-22T14:02:45Z</time></trkpt><trkpt lat="59.1002869606" lon="30.0305056572"><time>2026-04-22T14:02:47Z</time></trkpt><trkpt lat="59.1002869606" lon="30.0305056572"><time>2026-04-22T14:02:50Z</time></trkpt><trkpt lat="59.1002869606" lon="30.0305056572"><time>2026-04-22T14:02:52Z</time></trkpt><trkpt lat="59.1002869606" lon="30.0305056572"><time>2026-04-22T14:02:55Z</time></trkpt><trkpt lat="59.1002869606" lon="30.0305056572"><time>2026-04-22T14:02:57Z</time></trkpt><trkpt lat="59.1002869606" lon="30.0305056572"><time>2026-04-22T14:03:00Z</time></trkpt><trkpt lat="59.1002869606" lon="30.0305056572"><time>2026-04-22T14:03:02Z</time></trkpt><trkpt lat="59.1002869606" lon="30.0305056572"><time>2026-04-22T14:03:05Z</time></trkpt><trkpt lat="59.1002869606" lon="30.0305056572"><time>2026-04-22T14:03:07Z</time></trkpt><trkpt lat="59.1002869606" lon="30.0305056572"><time>2026-04-22T14:03:10Z</time></trkpt><trkpt lat="59.1002869606" lon="30.0305056572"><time>2026-04-22T14:03:12Z</time></trkpt><trkpt lat="59.1002869606" lon="30.0305056572"><time>2026-04-22T14:03:15Z</time></trkpt><trkpt lat="59.1002869606" lon="30.0305056572"><time>2026-04-22T14:03:17Z</time></trkpt><trkpt lat="59.1002869606" lon="30.0305056572"><time>2026-04-22T14:03:20Z</time></trkpt><trkpt lat="59.1002655029" lon="30.0304627419"><time>2026-04-22T14:03:22Z</time></trkpt><trkpt lat="59.1002655029" lon="30.0304412842"><time>2026-04-22T14:03:25Z</time></trkpt><trkpt lat="59.1002655029" lon="30.0304198265"><time>2026-04-22T14:03:27Z</time></trkpt><trkpt lat="59.1002655029" lon="30.0303983688"><time>2026-04-22T14:03:30Z</time></trkpt><trkpt lat="59.1002655029" lon="30.0303339958"><time>2026-04-22T14:03:32Z</time></trkpt><trkpt lat="59.1002655029" lon="30.0303125381"><time>2026-04-22T14:03:35Z</time></trkpt><trkpt lat="59.1002655029" lon="30.0303125381"><time>2026-04-22T14:03:37Z</time></trkpt><trkpt lat="59.1002655029" lon="30.0302696228"><time>2026-04-22T14:03:40Z</time></trkpt><trkpt lat="59.1002655029" lon="30.0302481651"><time>2026-04-22T14:03:42Z</time></trkpt><trkpt lat="59.1002655029" lon="30.0302481651"><time>2026-04-22T14:03:45Z</time></trkpt><trkpt lat="59.1002655029" lon="30.0302481651"><time>2026-04-22T14:03:47Z</time></trkpt><trkpt lat="59.1002655029" lon="30.0302481651"><time>2026-04-22T14:03:50Z</time></trkpt><trkpt lat="59.1002655029" lon="30.0301837921"><time>2026-04-22T14:03:52Z</time></trkpt><trkpt lat="59.1002869606" lon="30.0301194191"><time>2026-04-22T14:03:55Z</time></trkpt><trkpt lat="59.1002869606" lon="30.0300550461"><time>2026-04-22T14:03:57Z</time></trkpt><trkpt lat="59.1002869606" lon="30.0300335884"><time>2026-04-22T14:04:00Z</time></trkpt><trkpt lat="59.1002869606" lon="30.0300335884"><time>2026-04-22T14:04:02Z</time></trkpt><trkpt lat="59.1002869606" lon="30.0300121307"><time>2026-04-22T14:04:05Z</time></trkpt><trkpt lat="59.1002869606" lon="30.0299906731"><time>2026-04-22T14:04:07Z</time></trkpt><trkpt lat="59.1002655029" lon="30.0299906731"><time>2026-04-22T14:04:10Z</time></trkpt><trkpt lat="59.1002655029" lon="30.0299906731"><time>2026-04-22T14:04:12Z</time></trkpt><trkpt lat="59.1002869606" lon="30.0299906731"><time>2026-04-22T14:04:15Z</time></trkpt><trkpt lat="59.1002869606" lon="30.0299692154"><time>2026-04-22T14:04:17Z</time></trkpt><trkpt lat="59.1003084183" lon="30.0299477577"><time>2026-04-22T14:04:20Z</time></trkpt><trkpt lat="59.1003084183" lon="30.0299477577"><time>2026-04-22T14:04:22Z</time></trkpt><trkpt lat="59.1003298759" lon="30.0299048424"><time>2026-04-22T14:04:25Z</time></trkpt><trkpt lat="59.1003298759" lon="30.0299048424"><time>2026-04-22T14:04:27Z</time></trkpt><trkpt lat="59.1003298759" lon="30.0299048424"><time>2026-04-22T14:04:30Z</time></trkpt><trkpt lat="59.1003298759" lon="30.0299048424"><time>2026-04-22T14:04:32Z</time></trkpt><trkpt lat="59.1003298759" lon="30.0299048424"><time>2026-04-22T14:04:35Z</time></trkpt><trkpt lat="59.1003298759" lon="30.0299048424"><time>2026-04-22T14:04:37Z</time></trkpt><trkpt lat="59.1003084183" lon="30.0298190117"><time>2026-04-22T14:04:40Z</time></trkpt><trkpt lat="59.1003084183" lon="30.0297760963"><time>2026-04-22T14:04:42Z</time></trkpt><trkpt lat="59.1002869606" lon="30.0297117233"><time>2026-04-22T14:04:45Z</time></trkpt><trkpt lat="59.1002869606" lon="30.0296688080"><time>2026-04-22T14:04:47Z</time></trkpt><trkpt lat="59.1002869606" lon="30.0296258926"><time>2026-04-22T14:04:50Z</time></trkpt><trkpt lat="59.1002869606" lon="30.0296258926"><time>2026-04-22T14:04:52Z</time></trkpt><trkpt lat="59.1002869606" lon="30.0296258926"><time>2026-04-22T14:04:55Z</time></trkpt><trkpt lat="59.1002869606" lon="30.0296044350"><time>2026-04-22T14:04:57Z</time></trkpt><trkpt lat="59.1002869606" lon="30.0295829773"><time>2026-04-22T14:05:00Z</time></trkpt><trkpt lat="59.1002869606" lon="30.0295615196"><time>2026-04-22T14:05:02Z</time></trkpt><trkpt lat="59.1002869606" lon="30.0295615196"><time>2026-04-22T14:05:05Z</time></trkpt><trkpt lat="59.1002869606" lon="30.0295400620"><time>2026-04-22T14:05:07Z</time></trkpt><trkpt lat="59.1002869606" lon="30.0294756889"><time>2026-04-22T14:05:10Z</time></trkpt><trkpt lat="59.1002869606" lon="30.0294327736"><time>2026-04-22T14:05:12Z</time></trkpt><trkpt lat="59.1003084183" lon="30.0294327736"><time>2026-04-22T14:05:15Z</time></trkpt><trkpt lat="59.1003084183" lon="30.0294327736"><time>2026-04-22T14:05:17Z</time></trkpt><trkpt lat="59.1003084183" lon="30.0294327736"><time>2026-04-22T14:05:20Z</time></trkpt><trkpt lat="59.1003084183" lon="30.0294327736"><time>2026-04-22T14:05:22Z</time></trkpt><trkpt lat="59.1003084183" lon="30.0294327736"><time>2026-04-22T14:05:25Z</time></trkpt><trkpt lat="59.1003084183" lon="30.0294327736"><time>2026-04-22T14:05:27Z</time></trkpt><trkpt lat="59.1003084183" lon="30.0294327736"><time>2026-04-22T14:05:30Z</time></trkpt><trkpt lat="59.1003084183" lon="30.0294327736"><time>2026-04-22T14:05:32Z</time></trkpt><trkpt lat="59.1003084183" lon="30.0294327736"><time>2026-04-22T14:05:35Z</time></trkpt><trkpt lat="59.1003084183" lon="30.0294327736"><time>2026-04-22T14:05:37Z</time></trkpt><trkpt lat="59.1003084183" lon="30.0294327736"><time>2026-04-22T14:05:40Z</time></trkpt><trkpt lat="59.1003084183" lon="30.0294327736"><time>2026-04-22T14:05:42Z</time></trkpt><trkpt lat="59.1003084183" lon="30.0294327736"><time>2026-04-22T14:05:45Z</time></trkpt><trkpt lat="59.1003084183" lon="30.0294327736"><time>2026-04-22T14:05:47Z</time></trkpt><trkpt lat="59.1003084183" lon="30.0294327736"><time>2026-04-22T14:05:50Z</time></trkpt><trkpt lat="59.1002869606" lon="30.0293898582"><time>2026-04-22T14:05:52Z</time></trkpt><trkpt lat="59.1002869606" lon="30.0293254852"><time>2026-04-22T14:05:55Z</time></trkpt><trkpt lat="59.1002869606" lon="30.0293254852"><time>2026-04-22T14:05:57Z</time></trkpt><trkpt lat="59.1002655029" lon="30.0292611122"><time>2026-04-22T14:06:00Z</time></trkpt><trkpt lat="59.1002655029" lon="30.0292611122"><time>2026-04-22T14:06:02Z</time></trkpt><trkpt lat="59.1002655029" lon="30.0292611122"><time>2026-04-22T14:06:05Z</time></trkpt><trkpt lat="59.1002655029" lon="30.0292611122"><time>2026-04-22T14:06:07Z</time></trkpt><trkpt lat="59.1002655029" lon="30.0292611122"><time>2026-04-22T14:06:10Z</time></trkpt><trkpt lat="59.1002655029" lon="30.0292611122"><time>2026-04-22T14:06:12Z</time></trkpt><trkpt lat="59.1002655029" lon="30.0292611122"><time>2026-04-22T14:06:15Z</time></trkpt><trkpt lat="59.1002655029" lon="30.0292611122"><time>2026-04-22T14:06:17Z</time></trkpt><trkpt lat="59.1002655029" lon="30.0292396545"><time>2026-04-22T14:06:20Z</time></trkpt><trkpt lat="59.1002869606" lon="30.0291967392"><time>2026-04-22T14:06:22Z</time></trkpt><trkpt lat="59.1002869606" lon="30.0291752815"><time>2026-04-22T14:06:25Z</time></trkpt><trkpt lat="59.1002869606" lon="30.0291752815"><time>2026-04-22T14:06:27Z</time></trkpt><trkpt lat="59.1002869606" lon="30.0291109085"><time>2026-04-22T14:06:30Z</time></trkpt><trkpt lat="59.1002869606" lon="30.0290465355"><time>2026-04-22T14:06:32Z</time></trkpt><trkpt lat="59.1002655029" lon="30.0290036201"><time>2026-04-22T14:06:35Z</time></trkpt><trkpt lat="59.1002440453" lon="30.0289607048"><time>2026-04-22T14:06:37Z</time></trkpt><trkpt lat="59.1002655029" lon="30.0289177895"><time>2026-04-22T14:06:40Z</time></trkpt><trkpt lat="59.1002655029" lon="30.0289177895"><time>2026-04-22T14:06:42Z</time></trkpt><trkpt lat="59.1002655029" lon="30.0288534164"><time>2026-04-22T14:06:45Z</time></trkpt><trkpt lat="59.1002655029" lon="30.0288534164"><time>2026-04-22T14:06:47Z</time></trkpt><trkpt lat="59.1002655029" lon="30.0288105011"><time>2026-04-22T14:06:50Z</time></trkpt><trkpt lat="59.1002440453" lon="30.0287890434"><time>2026-04-22T14:06:52Z</time></trkpt><trkpt lat="59.1002655029" lon="30.0287032127"><time>2026-04-22T14:06:55Z</time></trkpt><trkpt lat="59.1002655029" lon="30.0286602974"><time>2026-04-22T14:06:57Z</time></trkpt><trkpt lat="59.1002440453" lon="30.0285959244"><time>2026-04-22T14:07:00Z</time></trkpt><trkpt lat="59.1002225876" lon="30.0285959244"><time>2026-04-22T14:07:02Z</time></trkpt><trkpt lat="59.1002225876" lon="30.0285530090"><time>2026-04-22T14:07:05Z</time></trkpt><trkpt lat="59.1002011299" lon="30.0285315514"><time>2026-04-22T14:07:07Z</time></trkpt><trkpt lat="59.1001582146" lon="30.0284886360"><time>2026-04-22T14:07:10Z</time></trkpt><trkpt lat="59.1001582146" lon="30.0284457207"><time>2026-04-22T14:07:12Z</time></trkpt><trkpt lat="59.1002011299" lon="30.0283813477"><time>2026-04-22T14:07:15Z</time></trkpt><trkpt lat="59.1001796722" lon="30.0283598900"><time>2026-04-22T14:07:17Z</time></trkpt><trkpt lat="59.1001796722" lon="30.0283384323"><time>2026-04-22T14:07:20Z</time></trkpt><trkpt lat="59.1001796722" lon="30.0282955170"><time>2026-04-22T14:07:22Z</time></trkpt><trkpt lat="59.1001582146" lon="30.0282526016"><time>2026-04-22T14:07:25Z</time></trkpt><trkpt lat="59.1001582146" lon="30.0282311440"><time>2026-04-22T14:07:27Z</time></trkpt><trkpt lat="59.1001582146" lon="30.0282096863"><time>2026-04-22T14:07:30Z</time></trkpt><trkpt lat="59.1001582146" lon="30.0281667709"><time>2026-04-22T14:07:32Z</time></trkpt><trkpt lat="59.1001367569" lon="30.0281667709"><time>2026-04-22T14:07:35Z</time></trkpt><trkpt lat="59.1001152992" lon="30.0281667709"><time>2026-04-22T14:07:37Z</time></trkpt><trkpt lat="59.1000938416" lon="30.0281453133"><time>2026-04-22T14:07:40Z</time></trkpt><trkpt lat="59.1000938416" lon="30.0281453133"><time>2026-04-22T14:07:42Z</time></trkpt><trkpt lat="59.1000938416" lon="30.0281453133"><time>2026-04-22T14:07:45Z</time></trkpt><trkpt lat="59.1000938416" lon="30.0281453133"><time>2026-04-22T14:07:47Z</time></trkpt><trkpt lat="59.1000938416" lon="30.0281453133"><time>2026-04-22T14:07:50Z</time></trkpt><trkpt lat="59.1000938416" lon="30.0281453133"><time>2026-04-22T14:07:52Z</time></trkpt><trkpt lat="59.1000938416" lon="30.0281453133"><time>2026-04-22T14:07:55Z</time></trkpt><trkpt lat="59.1000938416" lon="30.0281453133"><time>2026-04-22T14:07:57Z</time></trkpt><trkpt lat="59.1000938416" lon="30.0281453133"><time>2026-04-22T14:08:00Z</time></trkpt><trkpt lat="59.1000938416" lon="30.0281453133"><time>2026-04-22T14:08:02Z</time></trkpt><trkpt lat="59.1000938416" lon="30.0281453133"><time>2026-04-22T14:08:05Z</time></trkpt><trkpt lat="59.1000938416" lon="30.0281453133"><time>2026-04-22T14:08:07Z</time></trkpt><trkpt lat="59.1000938416" lon="30.0280809402"><time>2026-04-22T14:08:10Z</time></trkpt><trkpt lat="59.1000723839" lon="30.0280594826"><time>2026-04-22T14:08:12Z</time></trkpt><trkpt lat="59.1000723839" lon="30.0280594826"><time>2026-04-22T14:08:15Z</time></trkpt><trkpt lat="59.1000723839" lon="30.0280380249"><time>2026-04-22T14:08:17Z</time></trkpt><trkpt lat="59.1000723839" lon="30.0280380249"><time>2026-04-22T14:08:20Z</time></trkpt><trkpt lat="59.1000509262" lon="30.0279736519"><time>2026-04-22T14:08:22Z</time></trkpt><trkpt lat="59.1000509262" lon="30.0279736519"><time>2026-04-22T14:08:25Z</time></trkpt><trkpt lat="59.1000509262" lon="30.0279307365"><time>2026-04-22T14:08:27Z</time></trkpt><trkpt lat="59.1000509262" lon="30.0278663635"><time>2026-04-22T14:08:30Z</time></trkpt><trkpt lat="59.1000294685" lon="30.0278234482"><time>2026-04-22T14:08:32Z</time></trkpt><trkpt lat="59.1000294685" lon="30.0278019905"><time>2026-04-22T14:08:35Z</time></trkpt><trkpt lat="59.1000294685" lon="30.0278019905"><time>2026-04-22T14:08:37Z</time></trkpt><trkpt lat="59.1000080109" lon="30.0278019905"><time>2026-04-22T14:08:40Z</time></trkpt><trkpt lat="59.1000080109" lon="30.0277590752"><time>2026-04-22T14:08:42Z</time></trkpt><trkpt lat="59.0999650955" lon="30.0276947021"><time>2026-04-22T14:08:45Z</time></trkpt><trkpt lat="59.0999650955" lon="30.0276732445"><time>2026-04-22T14:08:47Z</time></trkpt><trkpt lat="59.0999221802" lon="30.0276088715"><time>2026-04-22T14:08:50Z</time></trkpt><trkpt lat="59.0999007225" lon="30.0275659561"><time>2026-04-22T14:08:52Z</time></trkpt><trkpt lat="59.0999221802" lon="30.0275015831"><time>2026-04-22T14:08:55Z</time></trkpt><trkpt lat="59.0999007225" lon="30.0274372101"><time>2026-04-22T14:08:57Z</time></trkpt><trkpt lat="59.0999007225" lon="30.0274157524"><time>2026-04-22T14:09:00Z</time></trkpt><trkpt lat="59.0999007225" lon="30.0274157524"><time>2026-04-22T14:09:02Z</time></trkpt><trkpt lat="59.0999007225" lon="30.0274157524"><time>2026-04-22T14:09:05Z</time></trkpt><trkpt lat="59.0999007225" lon="30.0274157524"><time>2026-04-22T14:09:07Z</time></trkpt><trkpt lat="59.0999007225" lon="30.0274157524"><time>2026-04-22T14:09:10Z</time></trkpt><trkpt lat="59.0999007225" lon="30.0274157524"><time>2026-04-22T14:09:12Z</time></trkpt><trkpt lat="59.0999007225" lon="30.0274157524"><time>2026-04-22T14:09:15Z</time></trkpt><trkpt lat="59.0999007225" lon="30.0273942947"><time>2026-04-22T14:09:17Z</time></trkpt><trkpt lat="59.0999007225" lon="30.0273942947"><time>2026-04-22T14:09:20Z</time></trkpt><trkpt lat="59.0999007225" lon="30.0273942947"><time>2026-04-22T14:09:22Z</time></trkpt><trkpt lat="59.0999007225" lon="30.0273728371"><time>2026-04-22T14:09:25Z</time></trkpt><trkpt lat="59.0999007225" lon="30.0273299217"><time>2026-04-22T14:09:27Z</time></trkpt><trkpt lat="59.0999007225" lon="30.0273299217"><time>2026-04-22T14:09:30Z</time></trkpt><trkpt lat="59.0999007225" lon="30.0273299217"><time>2026-04-22T14:09:32Z</time></trkpt><trkpt lat="59.0999007225" lon="30.0272870064"><time>2026-04-22T14:09:35Z</time></trkpt><trkpt lat="59.0998792648" lon="30.0272440910"><time>2026-04-22T14:09:37Z</time></trkpt><trkpt lat="59.0998578072" lon="30.0271797180"><time>2026-04-22T14:09:40Z</time></trkpt><trkpt lat="59.0998578072" lon="30.0271368027"><time>2026-04-22T14:09:42Z</time></trkpt><trkpt lat="59.0998578072" lon="30.0270724297"><time>2026-04-22T14:09:45Z</time></trkpt><trkpt lat="59.0998363495" lon="30.0270509720"><time>2026-04-22T14:09:47Z</time></trkpt><trkpt lat="59.0998148918" lon="30.0269865990"><time>2026-04-22T14:09:50Z</time></trkpt><trkpt lat="59.0997934341" lon="30.0269436836"><time>2026-04-22T14:09:52Z</time></trkpt><trkpt lat="59.0998148918" lon="30.0269007683"><time>2026-04-22T14:09:55Z</time></trkpt><trkpt lat="59.0998148918" lon="30.0269007683"><time>2026-04-22T14:09:57Z</time></trkpt><trkpt lat="59.0998148918" lon="30.0268578529"><time>2026-04-22T14:10:00Z</time></trkpt><trkpt lat="59.0998148918" lon="30.0268149376"><time>2026-04-22T14:10:02Z</time></trkpt><trkpt lat="59.0998148918" lon="30.0267720222"><time>2026-04-22T14:10:05Z</time></trkpt><trkpt lat="59.0997934341" lon="30.0267291069"><time>2026-04-22T14:10:07Z</time></trkpt><trkpt lat="59.0998148918" lon="30.0267291069"><time>2026-04-22T14:10:10Z</time></trkpt><trkpt lat="59.0998148918" lon="30.0266861916"><time>2026-04-22T14:10:12Z</time></trkpt><trkpt lat="59.0998148918" lon="30.0266432762"><time>2026-04-22T14:10:15Z</time></trkpt><trkpt lat="59.0998363495" lon="30.0266432762"><time>2026-04-22T14:10:17Z</time></trkpt><trkpt lat="59.0998363495" lon="30.0266218185"><time>2026-04-22T14:10:20Z</time></trkpt><trkpt lat="59.0998363495" lon="30.0266218185"><time>2026-04-22T14:10:22Z</time></trkpt><trkpt lat="59.0998363495" lon="30.0265789032"><time>2026-04-22T14:10:25Z</time></trkpt><trkpt lat="59.0998148918" lon="30.0265574455"><time>2026-04-22T14:10:27Z</time></trkpt><trkpt lat="59.0998148918" lon="30.0265359879"><time>2026-04-22T14:10:30Z</time></trkpt><trkpt lat="59.0998148918" lon="30.0265359879"><time>2026-04-22T14:10:32Z</time></trkpt><trkpt lat="59.0998148918" lon="30.0265359879"><time>2026-04-22T14:10:35Z</time></trkpt><trkpt lat="59.0998148918" lon="30.0265359879"><time>2026-04-22T14:10:37Z</time></trkpt><trkpt lat="59.0998148918" lon="30.0265359879"><time>2026-04-22T14:10:40Z</time></trkpt><trkpt lat="59.0998148918" lon="30.0265359879"><time>2026-04-22T14:10:42Z</time></trkpt><trkpt lat="59.0998148918" lon="30.0265359879"><time>2026-04-22T14:10:45Z</time></trkpt><trkpt lat="59.0998148918" lon="30.0265359879"><time>2026-04-22T14:10:47Z</time></trkpt><trkpt lat="59.0998148918" lon="30.0265359879"><time>2026-04-22T14:10:50Z</time></trkpt><trkpt lat="59.0998148918" lon="30.0265359879"><time>2026-04-22T14:10:52Z</time></trkpt><trkpt lat="59.0998148918" lon="30.0265359879"><time>2026-04-22T14:10:55Z</time></trkpt><trkpt lat="59.0998148918" lon="30.0265359879"><time>2026-04-22T14:10:57Z</time></trkpt><trkpt lat="59.0998148918" lon="30.0265359879"><time>2026-04-22T14:11:00Z</time></trkpt><trkpt lat="59.0998148918" lon="30.0265359879"><time>2026-04-22T14:11:02Z</time></trkpt><trkpt lat="59.0998148918" lon="30.0265359879"><time>2026-04-22T14:11:05Z</time></trkpt><trkpt lat="59.0998148918" lon="30.0265359879"><time>2026-04-22T14:11:07Z</time></trkpt><trkpt lat="59.0998148918" lon="30.0265359879"><time>2026-04-22T14:11:10Z</time></trkpt><trkpt lat="59.0998148918" lon="30.0265359879"><time>2026-04-22T14:11:12Z</time></trkpt><trkpt lat="59.0998363495" lon="30.0264930725"><time>2026-04-22T14:11:15Z</time></trkpt><trkpt lat="59.0998578072" lon="30.0264072418"><time>2026-04-22T14:11:17Z</time></trkpt><trkpt lat="59.0998363495" lon="30.0262784958"><time>2026-04-22T14:11:20Z</time></trkpt><trkpt lat="59.0998363495" lon="30.0262355804"><time>2026-04-22T14:11:22Z</time></trkpt><trkpt lat="59.0998363495" lon="30.0261926651"><time>2026-04-22T14:11:25Z</time></trkpt><trkpt lat="59.0998578072" lon="30.0261497498"><time>2026-04-22T14:11:27Z</time></trkpt><trkpt lat="59.0998578072" lon="30.0260853767"><time>2026-04-22T14:11:30Z</time></trkpt><trkpt lat="59.0998578072" lon="30.0260639191"><time>2026-04-22T14:11:32Z</time></trkpt><trkpt lat="59.0998578072" lon="30.0259780884"><time>2026-04-22T14:11:35Z</time></trkpt><trkpt lat="59.0998792648" lon="30.0259351730"><time>2026-04-22T14:11:37Z</time></trkpt><trkpt lat="59.0999007225" lon="30.0259351730"><time>2026-04-22T14:11:40Z</time></trkpt><trkpt lat="59.0998792648" lon="30.0259566307"><time>2026-04-22T14:11:42Z</time></trkpt><trkpt lat="59.0998792648" lon="30.0259351730"><time>2026-04-22T14:11:45Z</time></trkpt><trkpt lat="59.0998792648" lon="30.0259137154"><time>2026-04-22T14:11:47Z</time></trkpt><trkpt lat="59.0998578072" lon="30.0258922577"><time>2026-04-22T14:11:50Z</time></trkpt><trkpt lat="59.0998578072" lon="30.0258922577"><time>2026-04-22T14:11:52Z</time></trkpt><trkpt lat="59.0998578072" lon="30.0258922577"><time>2026-04-22T14:11:55Z</time></trkpt><trkpt lat="59.0998578072" lon="30.0258922577"><time>2026-04-22T14:11:57Z</time></trkpt><trkpt lat="59.0998578072" lon="30.0258922577"><time>2026-04-22T14:12:00Z</time></trkpt><trkpt lat="59.0998792648" lon="30.0258922577"><time>2026-04-22T14:12:02Z</time></trkpt><trkpt lat="59.0998578072" lon="30.0258708000"><time>2026-04-22T14:12:05Z</time></trkpt><trkpt lat="59.0998578072" lon="30.0258493423"><time>2026-04-22T14:12:07Z</time></trkpt><trkpt lat="59.0998578072" lon="30.0258278847"><time>2026-04-22T14:12:10Z</time></trkpt><trkpt lat="59.0998363495" lon="30.0258064270"><time>2026-04-22T14:12:12Z</time></trkpt><trkpt lat="59.0998148918" lon="30.0257849693"><time>2026-04-22T14:12:15Z</time></trkpt><trkpt lat="59.0998148918" lon="30.0257635117"><time>2026-04-22T14:12:17Z</time></trkpt><trkpt lat="59.0998148918" lon="30.0257635117"><time>2026-04-22T14:12:20Z</time></trkpt><trkpt lat="59.0997934341" lon="30.0257420540"><time>2026-04-22T14:12:22Z</time></trkpt><trkpt lat="59.0997505188" lon="30.0257205963"><time>2026-04-22T14:12:25Z</time></trkpt><trkpt lat="59.0997290611" lon="30.0256776810"><time>2026-04-22T14:12:27Z</time></trkpt><trkpt lat="59.0997290611" lon="30.0256347656"><time>2026-04-22T14:12:30Z</time></trkpt><trkpt lat="59.0997076035" lon="30.0256133080"><time>2026-04-22T14:12:32Z</time></trkpt><trkpt lat="59.0996861458" lon="30.0255918503"><time>2026-04-22T14:12:35Z</time></trkpt><trkpt lat="59.0996861458" lon="30.0255703926"><time>2026-04-22T14:12:37Z</time></trkpt><trkpt lat="59.0996861458" lon="30.0255274773"><time>2026-04-22T14:12:40Z</time></trkpt><trkpt lat="59.0996861458" lon="30.0255274773"><time>2026-04-22T14:12:42Z</time></trkpt><trkpt lat="59.0996861458" lon="30.0255274773"><time>2026-04-22T14:12:45Z</time></trkpt><trkpt lat="59.0996861458" lon="30.0255060196"><time>2026-04-22T14:12:47Z</time></trkpt><trkpt lat="59.0996646881" lon="30.0254631042"><time>2026-04-22T14:12:50Z</time></trkpt><trkpt lat="59.0996432304" lon="30.0254631042"><time>2026-04-22T14:12:52Z</time></trkpt><trkpt lat="59.0996217728" lon="30.0254201889"><time>2026-04-22T14:12:55Z</time></trkpt><trkpt lat="59.0996217728" lon="30.0254201889"><time>2026-04-22T14:12:57Z</time></trkpt><trkpt lat="59.0996003151" lon="30.0253772736"><time>2026-04-22T14:13:00Z</time></trkpt><trkpt lat="59.0996003151" lon="30.0253772736"><time>2026-04-22T14:13:02Z</time></trkpt><trkpt lat="59.0995788574" lon="30.0253343582"><time>2026-04-22T14:13:05Z</time></trkpt><trkpt lat="59.0995788574" lon="30.0252914429"><time>2026-04-22T14:13:07Z</time></trkpt><trkpt lat="59.0995788574" lon="30.0252914429"><time>2026-04-22T14:13:10Z</time></trkpt><trkpt lat="59.0995788574" lon="30.0252914429"><time>2026-04-22T14:13:12Z</time></trkpt><trkpt lat="59.0995573997" lon="30.0252485275"><time>2026-04-22T14:13:15Z</time></trkpt><trkpt lat="59.0995573997" lon="30.0252485275"><time>2026-04-22T14:13:17Z</time></trkpt><trkpt lat="59.0995359421" lon="30.0252056122"><time>2026-04-22T14:13:20Z</time></trkpt><trkpt lat="59.0995359421" lon="30.0251841545"><time>2026-04-22T14:13:22Z</time></trkpt><trkpt lat="59.0995144844" lon="30.0251626968"><time>2026-04-22T14:13:25Z</time></trkpt><trkpt lat="59.0994930267" lon="30.0251412392"><time>2026-04-22T14:13:27Z</time></trkpt><trkpt lat="59.0994930267" lon="30.0251412392"><time>2026-04-22T14:13:30Z</time></trkpt><trkpt lat="59.0995144844" lon="30.0251412392"><time>2026-04-22T14:13:32Z</time></trkpt><trkpt lat="59.0995144844" lon="30.0250983238"><time>2026-04-22T14:13:35Z</time></trkpt><trkpt lat="59.0995144844" lon="30.0250983238"><time>2026-04-22T14:13:37Z</time></trkpt><trkpt lat="59.0995144844" lon="30.0250983238"><time>2026-04-22T14:13:40Z</time></trkpt><trkpt lat="59.0995144844" lon="30.0250768661"><time>2026-04-22T14:13:42Z</time></trkpt><trkpt lat="59.0995144844" lon="30.0250554085"><time>2026-04-22T14:13:45Z</time></trkpt><trkpt lat="59.0995144844" lon="30.0250554085"><time>2026-04-22T14:13:47Z</time></trkpt><trkpt lat="59.0995144844" lon="30.0250554085"><time>2026-04-22T14:13:50Z</time></trkpt><trkpt lat="59.0995359421" lon="30.0250124931"><time>2026-04-22T14:13:52Z</time></trkpt><trkpt lat="59.0995144844" lon="30.0249695778"><time>2026-04-22T14:13:55Z</time></trkpt><trkpt lat="59.0995144844" lon="30.0249695778"><time>2026-04-22T14:13:57Z</time></trkpt><trkpt lat="59.0995359421" lon="30.0249052048"><time>2026-04-22T14:14:00Z</time></trkpt><trkpt lat="59.0995359421" lon="30.0248837471"><time>2026-04-22T14:14:02Z</time></trkpt><trkpt lat="59.0995573997" lon="30.0248622894"><time>2026-04-22T14:14:05Z</time></trkpt><trkpt lat="59.0995359421" lon="30.0248408318"><time>2026-04-22T14:14:07Z</time></trkpt><trkpt lat="59.0995359421" lon="30.0248408318"><time>2026-04-22T14:14:10Z</time></trkpt><trkpt lat="59.0995359421" lon="30.0248622894"><time>2026-04-22T14:14:12Z</time></trkpt><trkpt lat="59.0995359421" lon="30.0248622894"><time>2026-04-22T14:14:15Z</time></trkpt><trkpt lat="59.0995359421" lon="30.0248622894"><time>2026-04-22T14:14:17Z</time></trkpt><trkpt lat="59.0995144844" lon="30.0248408318"><time>2026-04-22T14:14:20Z</time></trkpt><trkpt lat="59.0995144844" lon="30.0248408318"><time>2026-04-22T14:14:22Z</time></trkpt><trkpt lat="59.0995144844" lon="30.0248408318"><time>2026-04-22T14:14:25Z</time></trkpt><trkpt lat="59.0995144844" lon="30.0248408318"><time>2026-04-22T14:14:27Z</time></trkpt><trkpt lat="59.0995144844" lon="30.0248408318"><time>2026-04-22T14:14:30Z</time></trkpt><trkpt lat="59.0995144844" lon="30.0248408318"><time>2026-04-22T14:14:32Z</time></trkpt><trkpt lat="59.0995144844" lon="30.0248408318"><time>2026-04-22T14:14:35Z</time></trkpt><trkpt lat="59.0995144844" lon="30.0248193741"><time>2026-04-22T14:14:37Z</time></trkpt><trkpt lat="59.0994930267" lon="30.0247764587"><time>2026-04-22T14:14:40Z</time></trkpt><trkpt lat="59.0994930267" lon="30.0247550011"><time>2026-04-22T14:14:42Z</time></trkpt><trkpt lat="59.0994930267" lon="30.0247120857"><time>2026-04-22T14:14:45Z</time></trkpt><trkpt lat="59.0994930267" lon="30.0246906281"><time>2026-04-22T14:14:47Z</time></trkpt><trkpt lat="59.0995144844" lon="30.0246262550"><time>2026-04-22T14:14:50Z</time></trkpt><trkpt lat="59.0995359421" lon="30.0245833397"><time>2026-04-22T14:14:52Z</time></trkpt><trkpt lat="59.0995359421" lon="30.0245404243"><time>2026-04-22T14:14:55Z</time></trkpt><trkpt lat="59.0995359421" lon="30.0245189667"><time>2026-04-22T14:14:57Z</time></trkpt><trkpt lat="59.0995359421" lon="30.0245189667"><time>2026-04-22T14:15:00Z</time></trkpt><trkpt lat="59.0995573997" lon="30.0245189667"><time>2026-04-22T14:15:02Z</time></trkpt><trkpt lat="59.0995573997" lon="30.0245189667"><time>2026-04-22T14:15:05Z</time></trkpt><trkpt lat="59.0995573997" lon="30.0245189667"><time>2026-04-22T14:15:07Z</time></trkpt><trkpt lat="59.0995573997" lon="30.0245189667"><time>2026-04-22T14:15:10Z</time></trkpt><trkpt lat="59.0995573997" lon="30.0245189667"><time>2026-04-22T14:15:12Z</time></trkpt><trkpt lat="59.0995573997" lon="30.0245189667"><time>2026-04-22T14:15:15Z</time></trkpt><trkpt lat="59.0995573997" lon="30.0245189667"><time>2026-04-22T14:15:17Z</time></trkpt><trkpt lat="59.0995573997" lon="30.0245189667"><time>2026-04-22T14:15:20Z</time></trkpt><trkpt lat="59.0995573997" lon="30.0245189667"><time>2026-04-22T14:15:22Z</time></trkpt><trkpt lat="59.0995573997" lon="30.0245189667"><time>2026-04-22T14:15:25Z</time></trkpt><trkpt lat="59.0995573997" lon="30.0245189667"><time>2026-04-22T14:15:27Z</time></trkpt><trkpt lat="59.0995573997" lon="30.0245189667"><time>2026-04-22T14:15:30Z</time></trkpt><trkpt lat="59.0995573997" lon="30.0245189667"><time>2026-04-22T14:15:32Z</time></trkpt><trkpt lat="59.0995573997" lon="30.0245189667"><time>2026-04-22T14:15:35Z</time></trkpt><trkpt lat="59.0995573997" lon="30.0245189667"><time>2026-04-22T14:15:37Z</time></trkpt><trkpt lat="59.0995573997" lon="30.0245189667"><time>2026-04-22T14:15:40Z</time></trkpt><trkpt lat="59.0995573997" lon="30.0245189667"><time>2026-04-22T14:15:42Z</time></trkpt><trkpt lat="59.0995573997" lon="30.0245189667"><time>2026-04-22T14:15:45Z</time></trkpt><trkpt lat="59.0995573997" lon="30.0245189667"><time>2026-04-22T14:15:47Z</time></trkpt><trkpt lat="59.0995573997" lon="30.0244975090"><time>2026-04-22T14:15:50Z</time></trkpt><trkpt lat="59.0995788574" lon="30.0244760513"><time>2026-04-22T14:15:52Z</time></trkpt><trkpt lat="59.0995573997" lon="30.0244760513"><time>2026-04-22T14:15:55Z</time></trkpt><trkpt lat="59.0995573997" lon="30.0244545937"><time>2026-04-22T14:15:57Z</time></trkpt><trkpt lat="59.0995788574" lon="30.0244545937"><time>2026-04-22T14:16:00Z</time></trkpt><trkpt lat="59.0995788574" lon="30.0244545937"><time>2026-04-22T14:16:02Z</time></trkpt><trkpt lat="59.0995788574" lon="30.0244760513"><time>2026-04-22T14:16:05Z</time></trkpt><trkpt lat="59.0995573997" lon="30.0244975090"><time>2026-04-22T14:16:07Z</time></trkpt><trkpt lat="59.0995573997" lon="30.0245189667"><time>2026-04-22T14:16:10Z</time></trkpt><trkpt lat="59.0995573997" lon="30.0245404243"><time>2026-04-22T14:16:12Z</time></trkpt><trkpt lat="59.0995573997" lon="30.0245618820"><time>2026-04-22T14:16:15Z</time></trkpt><trkpt lat="59.0995573997" lon="30.0245833397"><time>2026-04-22T14:16:17Z</time></trkpt><trkpt lat="59.0995359421" lon="30.0245833397"><time>2026-04-22T14:16:20Z</time></trkpt><trkpt lat="59.0995144844" lon="30.0245833397"><time>2026-04-22T14:16:22Z</time></trkpt><trkpt lat="59.0994930267" lon="30.0245618820"><time>2026-04-22T14:16:25Z</time></trkpt><trkpt lat="59.0994930267" lon="30.0245618820"><time>2026-04-22T14:16:27Z</time></trkpt><trkpt lat="59.0994930267" lon="30.0245618820"><time>2026-04-22T14:16:30Z</time></trkpt><trkpt lat="59.0994930267" lon="30.0245833397"><time>2026-04-22T14:16:32Z</time></trkpt><trkpt lat="59.0994930267" lon="30.0245833397"><time>2026-04-22T14:16:35Z</time></trkpt><trkpt lat="59.0994930267" lon="30.0245833397"><time>2026-04-22T14:16:37Z</time></trkpt><trkpt lat="59.0994930267" lon="30.0245833397"><time>2026-04-22T14:16:40Z</time></trkpt><trkpt lat="59.0994930267" lon="30.0245833397"><time>2026-04-22T14:16:42Z</time></trkpt><trkpt lat="59.0994930267" lon="30.0245833397"><time>2026-04-22T14:16:45Z</time></trkpt><trkpt lat="59.0994930267" lon="30.0245833397"><time>2026-04-22T14:16:47Z</time></trkpt><trkpt lat="59.0994930267" lon="30.0245833397"><time>2026-04-22T14:16:50Z</time></trkpt><trkpt lat="59.0994715691" lon="30.0245833397"><time>2026-04-22T14:16:52Z</time></trkpt><trkpt lat="59.0994501114" lon="30.0246262550"><time>2026-04-22T14:16:55Z</time></trkpt><trkpt lat="59.0994501114" lon="30.0246262550"><time>2026-04-22T14:16:57Z</time></trkpt><trkpt lat="59.0994286537" lon="30.0246262550"><time>2026-04-22T14:17:00Z</time></trkpt><trkpt lat="59.0993857384" lon="30.0246477127"><time>2026-04-22T14:17:02Z</time></trkpt><trkpt lat="59.0993428230" lon="30.0246477127"><time>2026-04-22T14:17:05Z</time></trkpt><trkpt lat="59.0993213654" lon="30.0246262550"><time>2026-04-22T14:17:07Z</time></trkpt><trkpt lat="59.0992999077" lon="30.0246691704"><time>2026-04-22T14:17:10Z</time></trkpt><trkpt lat="59.0992999077" lon="30.0246691704"><time>2026-04-22T14:17:12Z</time></trkpt><trkpt lat="59.0992999077" lon="30.0246906281"><time>2026-04-22T14:17:15Z</time></trkpt><trkpt lat="59.0992999077" lon="30.0246906281"><time>2026-04-22T14:17:17Z</time></trkpt><trkpt lat="59.0992999077" lon="30.0246906281"><time>2026-04-22T14:17:20Z</time></trkpt><trkpt lat="59.0992784500" lon="30.0246906281"><time>2026-04-22T14:17:22Z</time></trkpt><trkpt lat="59.0992569923" lon="30.0246906281"><time>2026-04-22T14:17:25Z</time></trkpt><trkpt lat="59.0992569923" lon="30.0246906281"><time>2026-04-22T14:17:27Z</time></trkpt><trkpt lat="59.0992569923" lon="30.0246906281"><time>2026-04-22T14:17:30Z</time></trkpt><trkpt lat="59.0992355347" lon="30.0247335434"><time>2026-04-22T14:17:32Z</time></trkpt><trkpt lat="59.0992140770" lon="30.0247764587"><time>2026-04-22T14:17:35Z</time></trkpt><trkpt lat="59.0992140770" lon="30.0247764587"><time>2026-04-22T14:17:37Z</time></trkpt><trkpt lat="59.0991926193" lon="30.0247979164"><time>2026-04-22T14:17:40Z</time></trkpt><trkpt lat="59.0991711617" lon="30.0248193741"><time>2026-04-22T14:17:42Z</time></trkpt><trkpt lat="59.0991711617" lon="30.0248193741"><time>2026-04-22T14:17:45Z</time></trkpt><trkpt lat="59.0991711617" lon="30.0248193741"><time>2026-04-22T14:17:47Z</time></trkpt><trkpt lat="59.0991497040" lon="30.0248193741"><time>2026-04-22T14:17:50Z</time></trkpt><trkpt lat="59.0991497040" lon="30.0248193741"><time>2026-04-22T14:17:52Z</time></trkpt><trkpt lat="59.0991497040" lon="30.0248193741"><time>2026-04-22T14:17:55Z</time></trkpt><trkpt lat="59.0991497040" lon="30.0248193741"><time>2026-04-22T14:17:57Z</time></trkpt><trkpt lat="59.0991282463" lon="30.0248408318"><time>2026-04-22T14:18:00Z</time></trkpt><trkpt lat="59.0991282463" lon="30.0248622894"><time>2026-04-22T14:18:02Z</time></trkpt><trkpt lat="59.0991067886" lon="30.0249052048"><time>2026-04-22T14:18:05Z</time></trkpt><trkpt lat="59.0991067886" lon="30.0249052048"><time>2026-04-22T14:18:07Z</time></trkpt><trkpt lat="59.0991067886" lon="30.0249266624"><time>2026-04-22T14:18:10Z</time></trkpt><trkpt lat="59.0991067886" lon="30.0249266624"><time>2026-04-22T14:18:12Z</time></trkpt><trkpt lat="59.0991067886" lon="30.0249266624"><time>2026-04-22T14:18:15Z</time></trkpt><trkpt lat="59.0991067886" lon="30.0249266624"><time>2026-04-22T14:18:17Z</time></trkpt><trkpt lat="59.0991067886" lon="30.0249481201"><time>2026-04-22T14:18:20Z</time></trkpt><trkpt lat="59.0991067886" lon="30.0249695778"><time>2026-04-22T14:18:22Z</time></trkpt><trkpt lat="59.0991067886" lon="30.0249910355"><time>2026-04-22T14:18:25Z</time></trkpt><trkpt lat="59.0991067886" lon="30.0249910355"><time>2026-04-22T14:18:27Z</time></trkpt><trkpt lat="59.0991067886" lon="30.0249910355"><time>2026-04-22T14:18:30Z</time></trkpt><trkpt lat="59.0991067886" lon="30.0249910355"><time>2026-04-22T14:18:32Z</time></trkpt><trkpt lat="59.0991067886" lon="30.0249910355"><time>2026-04-22T14:18:35Z</time></trkpt><trkpt lat="59.0991067886" lon="30.0249910355"><time>2026-04-22T14:18:37Z</time></trkpt><trkpt lat="59.0991067886" lon="30.0249910355"><time>2026-04-22T14:18:40Z</time></trkpt><trkpt lat="59.0991067886" lon="30.0250124931"><time>2026-04-22T14:18:42Z</time></trkpt><trkpt lat="59.0991067886" lon="30.0250124931"><time>2026-04-22T14:18:45Z</time></trkpt><trkpt lat="59.0991067886" lon="30.0250124931"><time>2026-04-22T14:18:47Z</time></trkpt><trkpt lat="59.0991067886" lon="30.0250768661"><time>2026-04-22T14:18:50Z</time></trkpt><trkpt lat="59.0991067886" lon="30.0250768661"><time>2026-04-22T14:18:52Z</time></trkpt><trkpt lat="59.0991067886" lon="30.0250768661"><time>2026-04-22T14:18:55Z</time></trkpt><trkpt lat="59.0991067886" lon="30.0250768661"><time>2026-04-22T14:18:57Z</time></trkpt><trkpt lat="59.0991067886" lon="30.0250768661"><time>2026-04-22T14:19:00Z</time></trkpt><trkpt lat="59.0991067886" lon="30.0250768661"><time>2026-04-22T14:19:02Z</time></trkpt><trkpt lat="59.0991067886" lon="30.0250768661"><time>2026-04-22T14:19:05Z</time></trkpt><trkpt lat="59.0991067886" lon="30.0250768661"><time>2026-04-22T14:19:07Z</time></trkpt><trkpt lat="59.0991067886" lon="30.0250768661"><time>2026-04-22T14:19:10Z</time></trkpt><trkpt lat="59.0991067886" lon="30.0250768661"><time>2026-04-22T14:19:12Z</time></trkpt><trkpt lat="59.0991067886" lon="30.0250768661"><time>2026-04-22T14:19:15Z</time></trkpt><trkpt lat="59.0991067886" lon="30.0250768661"><time>2026-04-22T14:19:17Z</time></trkpt><trkpt lat="59.0991067886" lon="30.0250768661"><time>2026-04-22T14:19:20Z</time></trkpt><trkpt lat="59.0991067886" lon="30.0250768661"><time>2026-04-22T14:19:22Z</time></trkpt><trkpt lat="59.0990853310" lon="30.0250768661"><time>2026-04-22T14:19:25Z</time></trkpt><trkpt lat="59.0990853310" lon="30.0250983238"><time>2026-04-22T14:19:27Z</time></trkpt><trkpt lat="59.0990853310" lon="30.0250983238"><time>2026-04-22T14:19:30Z</time></trkpt><trkpt lat="59.0990853310" lon="30.0250983238"><time>2026-04-22T14:19:32Z</time></trkpt><trkpt lat="59.0990853310" lon="30.0250983238"><time>2026-04-22T14:19:35Z</time></trkpt><trkpt lat="59.0990638733" lon="30.0250983238"><time>2026-04-22T14:19:37Z</time></trkpt><trkpt lat="59.0990638733" lon="30.0250554085"><time>2026-04-22T14:19:40Z</time></trkpt><trkpt lat="59.0990638733" lon="30.0250124931"><time>2026-04-22T14:19:42Z</time></trkpt><trkpt lat="59.0990424156" lon="30.0249695778"><time>2026-04-22T14:19:45Z</time></trkpt><trkpt lat="59.0990424156" lon="30.0249481201"><time>2026-04-22T14:19:47Z</time></trkpt><trkpt lat="59.0990209579" lon="30.0249266624"><time>2026-04-22T14:19:50Z</time></trkpt><trkpt lat="59.0990209579" lon="30.0248837471"><time>2026-04-22T14:19:52Z</time></trkpt><trkpt lat="59.0990209579" lon="30.0248408318"><time>2026-04-22T14:19:55Z</time></trkpt><trkpt lat="59.0989995003" lon="30.0248193741"><time>2026-04-22T14:19:57Z</time></trkpt><trkpt lat="59.0989995003" lon="30.0247979164"><time>2026-04-22T14:20:00Z</time></trkpt><trkpt lat="59.0989995003" lon="30.0247979164"><time>2026-04-22T14:20:02Z</time></trkpt><trkpt lat="59.0989995003" lon="30.0247550011"><time>2026-04-22T14:20:05Z</time></trkpt><trkpt lat="59.0990209579" lon="30.0247335434"><time>2026-04-22T14:20:07Z</time></trkpt><trkpt lat="59.0990209579" lon="30.0247120857"><time>2026-04-22T14:20:10Z</time></trkpt><trkpt lat="59.0990209579" lon="30.0247120857"><time>2026-04-22T14:20:12Z</time></trkpt><trkpt lat="59.0990209579" lon="30.0246906281"><time>2026-04-22T14:20:15Z</time></trkpt><trkpt lat="59.0990209579" lon="30.0246906281"><time>2026-04-22T14:20:17Z</time></trkpt><trkpt lat="59.0990209579" lon="30.0246906281"><time>2026-04-22T14:20:20Z</time></trkpt><trkpt lat="59.0990209579" lon="30.0246906281"><time>2026-04-22T14:20:22Z</time></trkpt><trkpt lat="59.0990209579" lon="30.0246906281"><time>2026-04-22T14:20:25Z</time></trkpt><trkpt lat="59.0990209579" lon="30.0246262550"><time>2026-04-22T14:20:27Z</time></trkpt><trkpt lat="59.0990209579" lon="30.0245833397"><time>2026-04-22T14:20:30Z</time></trkpt><trkpt lat="59.0990209579" lon="30.0245618820"><time>2026-04-22T14:20:32Z</time></trkpt><trkpt lat="59.0990424156" lon="30.0245189667"><time>2026-04-22T14:20:35Z</time></trkpt><trkpt lat="59.0990424156" lon="30.0245189667"><time>2026-04-22T14:20:37Z</time></trkpt><trkpt lat="59.0990638733" lon="30.0244760513"><time>2026-04-22T14:20:40Z</time></trkpt><trkpt lat="59.0990853310" lon="30.0244545937"><time>2026-04-22T14:20:42Z</time></trkpt><trkpt lat="59.0991067886" lon="30.0244331360"><time>2026-04-22T14:20:45Z</time></trkpt><trkpt lat="59.0991282463" lon="30.0244331360"><time>2026-04-22T14:20:47Z</time></trkpt><trkpt lat="59.0991497040" lon="30.0244116783"><time>2026-04-22T14:20:50Z</time></trkpt><trkpt lat="59.0991497040" lon="30.0244116783"><time>2026-04-22T14:20:52Z</time></trkpt><trkpt lat="59.0991711617" lon="30.0244116783"><time>2026-04-22T14:20:55Z</time></trkpt><trkpt lat="59.0991711617" lon="30.0244116783"><time>2026-04-22T14:20:57Z</time></trkpt><trkpt lat="59.0991711617" lon="30.0244116783"><time>2026-04-22T14:21:00Z</time></trkpt><trkpt lat="59.0991711617" lon="30.0244116783"><time>2026-04-22T14:21:02Z</time></trkpt><trkpt lat="59.0991711617" lon="30.0244116783"><time>2026-04-22T14:21:05Z</time></trkpt><trkpt lat="59.0991711617" lon="30.0244116783"><time>2026-04-22T14:21:07Z</time></trkpt><trkpt lat="59.0991926193" lon="30.0243473053"><time>2026-04-22T14:21:10Z</time></trkpt><trkpt lat="59.0991926193" lon="30.0243043900"><time>2026-04-22T14:21:12Z</time></trkpt><trkpt lat="59.0991926193" lon="30.0243043900"><time>2026-04-22T14:21:15Z</time></trkpt><trkpt lat="59.0991926193" lon="30.0242829323"><time>2026-04-22T14:21:17Z</time></trkpt><trkpt lat="59.0991926193" lon="30.0242400169"><time>2026-04-22T14:21:20Z</time></trkpt><trkpt lat="59.0992140770" lon="30.0241971016"><time>2026-04-22T14:21:22Z</time></trkpt><trkpt lat="59.0992140770" lon="30.0241756439"><time>2026-04-22T14:21:25Z</time></trkpt><trkpt lat="59.0992140770" lon="30.0241541862"><time>2026-04-22T14:21:27Z</time></trkpt><trkpt lat="59.0992355347" lon="30.0241327286"><time>2026-04-22T14:21:30Z</time></trkpt><trkpt lat="59.0992355347" lon="30.0241327286"><time>2026-04-22T14:21:32Z</time></trkpt><trkpt lat="59.0992355347" lon="30.0241112709"><time>2026-04-22T14:21:35Z</time></trkpt><trkpt lat="59.0992355347" lon="30.0240683556"><time>2026-04-22T14:21:37Z</time></trkpt><trkpt lat="59.0992355347" lon="30.0240468979"><time>2026-04-22T14:21:40Z</time></trkpt><trkpt lat="59.0992355347" lon="30.0240254402"><time>2026-04-22T14:21:42Z</time></trkpt><trkpt lat="59.0992355347" lon="30.0240254402"><time>2026-04-22T14:21:45Z</time></trkpt><trkpt lat="59.0992569923" lon="30.0240254402"><time>2026-04-22T14:21:47Z</time></trkpt><trkpt lat="59.0992569923" lon="30.0239825249"><time>2026-04-22T14:21:50Z</time></trkpt><trkpt lat="59.0992355347" lon="30.0239610672"><time>2026-04-22T14:21:52Z</time></trkpt><trkpt lat="59.0992569923" lon="30.0239396095"><time>2026-04-22T14:21:55Z</time></trkpt><trkpt lat="59.0992569923" lon="30.0239181519"><time>2026-04-22T14:21:57Z</time></trkpt><trkpt lat="59.0992784500" lon="30.0238537788"><time>2026-04-22T14:22:00Z</time></trkpt><trkpt lat="59.0992784500" lon="30.0238323212"><time>2026-04-22T14:22:02Z</time></trkpt><trkpt lat="59.0992784500" lon="30.0238108635"><time>2026-04-22T14:22:05Z</time></trkpt><trkpt lat="59.0992569923" lon="30.0237679482"><time>2026-04-22T14:22:07Z</time></trkpt><trkpt lat="59.0992355347" lon="30.0237250328"><time>2026-04-22T14:22:10Z</time></trkpt><trkpt lat="59.0992355347" lon="30.0237035751"><time>2026-04-22T14:22:12Z</time></trkpt><trkpt lat="59.0992355347" lon="30.0236392021"><time>2026-04-22T14:22:15Z</time></trkpt><trkpt lat="59.0992355347" lon="30.0236177444"><time>2026-04-22T14:22:17Z</time></trkpt><trkpt lat="59.0992569923" lon="30.0235748291"><time>2026-04-22T14:22:20Z</time></trkpt><trkpt lat="59.0992355347" lon="30.0235748291"><time>2026-04-22T14:22:22Z</time></trkpt><trkpt lat="59.0992355347" lon="30.0235748291"><time>2026-04-22T14:22:25Z</time></trkpt><trkpt lat="59.0992355347" lon="30.0235748291"><time>2026-04-22T14:22:27Z</time></trkpt><trkpt lat="59.0992355347" lon="30.0235533714"><time>2026-04-22T14:22:30Z</time></trkpt><trkpt lat="59.0992355347" lon="30.0235319138"><time>2026-04-22T14:22:32Z</time></trkpt><trkpt lat="59.0992355347" lon="30.0235104561"><time>2026-04-22T14:22:35Z</time></trkpt><trkpt lat="59.0992355347" lon="30.0235104561"><time>2026-04-22T14:22:37Z</time></trkpt><trkpt lat="59.0992140770" lon="30.0234889984"><time>2026-04-22T14:22:40Z</time></trkpt><trkpt lat="59.0991926193" lon="30.0234460831"><time>2026-04-22T14:22:42Z</time></trkpt><trkpt lat="59.0991711617" lon="30.0234460831"><time>2026-04-22T14:22:45Z</time></trkpt><trkpt lat="59.0991926193" lon="30.0234246254"><time>2026-04-22T14:22:47Z</time></trkpt><trkpt lat="59.0991711617" lon="30.0233817101"><time>2026-04-22T14:22:50Z</time></trkpt><trkpt lat="59.0991711617" lon="30.0233602524"><time>2026-04-22T14:22:52Z</time></trkpt><trkpt lat="59.0991497040" lon="30.0233173370"><time>2026-04-22T14:22:55Z</time></trkpt><trkpt lat="59.0991497040" lon="30.0233173370"><time>2026-04-22T14:22:57Z</time></trkpt><trkpt lat="59.0991497040" lon="30.0232958794"><time>2026-04-22T14:23:00Z</time></trkpt><trkpt lat="59.0991282463" lon="30.0232744217"><time>2026-04-22T14:23:02Z</time></trkpt><trkpt lat="59.0991497040" lon="30.0232744217"><time>2026-04-22T14:23:05Z</time></trkpt><trkpt lat="59.0991282463" lon="30.0232529640"><time>2026-04-22T14:23:07Z</time></trkpt><trkpt lat="59.0991282463" lon="30.0232315063"><time>2026-04-22T14:23:10Z</time></trkpt><trkpt lat="59.0991282463" lon="30.0232315063"><time>2026-04-22T14:23:12Z</time></trkpt><trkpt lat="59.0991067886" lon="30.0231885910"><time>2026-04-22T14:23:15Z</time></trkpt><trkpt lat="59.0991067886" lon="30.0231885910"><time>2026-04-22T14:23:17Z</time></trkpt><trkpt lat="59.0991067886" lon="30.0231885910"><time>2026-04-22T14:23:20Z</time></trkpt><trkpt lat="59.0991067886" lon="30.0231885910"><time>2026-04-22T14:23:22Z</time></trkpt><trkpt lat="59.0991067886" lon="30.0231885910"><time>2026-04-22T14:23:25Z</time></trkpt><trkpt lat="59.0991067886" lon="30.0231885910"><time>2026-04-22T14:23:27Z</time></trkpt><trkpt lat="59.0991067886" lon="30.0231885910"><time>2026-04-22T14:23:30Z</time></trkpt><trkpt lat="59.0991067886" lon="30.0231885910"><time>2026-04-22T14:23:32Z</time></trkpt><trkpt lat="59.0991067886" lon="30.0231885910"><time>2026-04-22T14:23:35Z</time></trkpt><trkpt lat="59.0991067886" lon="30.0231885910"><time>2026-04-22T14:23:37Z</time></trkpt><trkpt lat="59.0991067886" lon="30.0231885910"><time>2026-04-22T14:23:40Z</time></trkpt><trkpt lat="59.0991067886" lon="30.0231885910"><time>2026-04-22T14:23:42Z</time></trkpt><trkpt lat="59.0991067886" lon="30.0231671333"><time>2026-04-22T14:23:45Z</time></trkpt><trkpt lat="59.0991067886" lon="30.0231456757"><time>2026-04-22T14:23:47Z</time></trkpt><trkpt lat="59.0990853310" lon="30.0231456757"><time>2026-04-22T14:23:50Z</time></trkpt><trkpt lat="59.0990853310" lon="30.0231456757"><time>2026-04-22T14:23:52Z</time></trkpt><trkpt lat="59.0990853310" lon="30.0231242180"><time>2026-04-22T14:23:55Z</time></trkpt><trkpt lat="59.0990853310" lon="30.0231027603"><time>2026-04-22T14:23:57Z</time></trkpt><trkpt lat="59.0990853310" lon="30.0231027603"><time>2026-04-22T14:24:00Z</time></trkpt><trkpt lat="59.0990853310" lon="30.0231027603"><time>2026-04-22T14:24:02Z</time></trkpt><trkpt lat="59.0990638733" lon="30.0230598450"><time>2026-04-22T14:24:05Z</time></trkpt><trkpt lat="59.0990638733" lon="30.0230169296"><time>2026-04-22T14:24:07Z</time></trkpt><trkpt lat="59.0990424156" lon="30.0229740143"><time>2026-04-22T14:24:10Z</time></trkpt><trkpt lat="59.0990424156" lon="30.0229525566"><time>2026-04-22T14:24:12Z</time></trkpt><trkpt lat="59.0990424156" lon="30.0229525566"><time>2026-04-22T14:24:15Z</time></trkpt><trkpt lat="59.0990209579" lon="30.0229310989"><time>2026-04-22T14:24:17Z</time></trkpt><trkpt lat="59.0990209579" lon="30.0229096413"><time>2026-04-22T14:24:20Z</time></trkpt><trkpt lat="59.0990209579" lon="30.0228881836"><time>2026-04-22T14:24:22Z</time></trkpt><trkpt lat="59.0990209579" lon="30.0228452682"><time>2026-04-22T14:24:25Z</time></trkpt><trkpt lat="59.0989995003" lon="30.0228452682"><time>2026-04-22T14:24:27Z</time></trkpt><trkpt lat="59.0990209579" lon="30.0228238106"><time>2026-04-22T14:24:30Z</time></trkpt><trkpt lat="59.0990209579" lon="30.0228238106"><time>2026-04-22T14:24:32Z</time></trkpt><trkpt lat="59.0990209579" lon="30.0228238106"><time>2026-04-22T14:24:35Z</time></trkpt><trkpt lat="59.0990209579" lon="30.0228023529"><time>2026-04-22T14:24:37Z</time></trkpt><trkpt lat="59.0990209579" lon="30.0227808952"><time>2026-04-22T14:24:40Z</time></trkpt><trkpt lat="59.0990209579" lon="30.0227808952"><time>2026-04-22T14:24:42Z</time></trkpt><trkpt lat="59.0989995003" lon="30.0227379799"><time>2026-04-22T14:24:45Z</time></trkpt><trkpt lat="59.0989995003" lon="30.0226950645"><time>2026-04-22T14:24:47Z</time></trkpt><trkpt lat="59.0990209579" lon="30.0226521492"><time>2026-04-22T14:24:50Z</time></trkpt><trkpt lat="59.0989995003" lon="30.0226306915"><time>2026-04-22T14:24:52Z</time></trkpt><trkpt lat="59.0989780426" lon="30.0226092339"><time>2026-04-22T14:24:55Z</time></trkpt><trkpt lat="59.0989780426" lon="30.0225877762"><time>2026-04-22T14:24:57Z</time></trkpt><trkpt lat="59.0989565849" lon="30.0225234032"><time>2026-04-22T14:25:00Z</time></trkpt><trkpt lat="59.0989565849" lon="30.0224804878"><time>2026-04-22T14:25:02Z</time></trkpt><trkpt lat="59.0989351273" lon="30.0224375725"><time>2026-04-22T14:25:05Z</time></trkpt><trkpt lat="59.0989351273" lon="30.0224161148"><time>2026-04-22T14:25:07Z</time></trkpt><trkpt lat="59.0989351273" lon="30.0224161148"><time>2026-04-22T14:25:10Z</time></trkpt><trkpt lat="59.0989565849" lon="30.0223946571"><time>2026-04-22T14:25:12Z</time></trkpt><trkpt lat="59.0989136696" lon="30.0223731995"><time>2026-04-22T14:25:15Z</time></trkpt><trkpt lat="59.0989136696" lon="30.0223517418"><time>2026-04-22T14:25:17Z</time></trkpt><trkpt lat="59.0989136696" lon="30.0223302841"><time>2026-04-22T14:25:20Z</time></trkpt><trkpt lat="59.0988922119" lon="30.0222873688"><time>2026-04-22T14:25:22Z</time></trkpt><trkpt lat="59.0988922119" lon="30.0222229958"><time>2026-04-22T14:25:25Z</time></trkpt><trkpt lat="59.0988922119" lon="30.0222229958"><time>2026-04-22T14:25:27Z</time></trkpt><trkpt lat="59.0988707542" lon="30.0221800804"><time>2026-04-22T14:25:30Z</time></trkpt><trkpt lat="59.0988707542" lon="30.0221586227"><time>2026-04-22T14:25:32Z</time></trkpt><trkpt lat="59.0988707542" lon="30.0221157074"><time>2026-04-22T14:25:35Z</time></trkpt><trkpt lat="59.0988707542" lon="30.0220727921"><time>2026-04-22T14:25:37Z</time></trkpt><trkpt lat="59.0988707542" lon="30.0220727921"><time>2026-04-22T14:25:40Z</time></trkpt><trkpt lat="59.0988707542" lon="30.0220513344"><time>2026-04-22T14:25:42Z</time></trkpt><trkpt lat="59.0988707542" lon="30.0220084190"><time>2026-04-22T14:25:45Z</time></trkpt><trkpt lat="59.0988707542" lon="30.0219869614"><time>2026-04-22T14:25:47Z</time></trkpt><trkpt lat="59.0988707542" lon="30.0219655037"><time>2026-04-22T14:25:50Z</time></trkpt><trkpt lat="59.0988707542" lon="30.0219225883"><time>2026-04-22T14:25:52Z</time></trkpt><trkpt lat="59.0988707542" lon="30.0219225883"><time>2026-04-22T14:25:55Z</time></trkpt><trkpt lat="59.0988707542" lon="30.0219225883"><time>2026-04-22T14:25:57Z</time></trkpt><trkpt lat="59.0988707542" lon="30.0219225883"><time>2026-04-22T14:26:00Z</time></trkpt><trkpt lat="59.0988707542" lon="30.0219225883"><time>2026-04-22T14:26:02Z</time></trkpt><trkpt lat="59.0988707542" lon="30.0218796730"><time>2026-04-22T14:26:05Z</time></trkpt><trkpt lat="59.0988707542" lon="30.0218367577"><time>2026-04-22T14:26:07Z</time></trkpt><trkpt lat="59.0988707542" lon="30.0218367577"><time>2026-04-22T14:26:10Z</time></trkpt><trkpt lat="59.0988707542" lon="30.0218367577"><time>2026-04-22T14:26:12Z</time></trkpt><trkpt lat="59.0988707542" lon="30.0218367577"><time>2026-04-22T14:26:15Z</time></trkpt><trkpt lat="59.0988707542" lon="30.0218367577"><time>2026-04-22T14:26:17Z</time></trkpt><trkpt lat="59.0988707542" lon="30.0218367577"><time>2026-04-22T14:26:20Z</time></trkpt><trkpt lat="59.0988707542" lon="30.0218367577"><time>2026-04-22T14:26:22Z</time></trkpt><trkpt lat="59.0988707542" lon="30.0218367577"><time>2026-04-22T14:26:25Z</time></trkpt><trkpt lat="59.0988707542" lon="30.0218367577"><time>2026-04-22T14:26:27Z</time></trkpt><trkpt lat="59.0988707542" lon="30.0218367577"><time>2026-04-22T14:26:30Z</time></trkpt><trkpt lat="59.0988707542" lon="30.0218367577"><time>2026-04-22T14:26:32Z</time></trkpt><trkpt lat="59.0988492966" lon="30.0217938423"><time>2026-04-22T14:26:35Z</time></trkpt><trkpt lat="59.0988278389" lon="30.0217294693"><time>2026-04-22T14:26:37Z</time></trkpt><trkpt lat="59.0988063812" lon="30.0216650963"><time>2026-04-22T14:26:40Z</time></trkpt><trkpt lat="59.0988063812" lon="30.0216221809"><time>2026-04-22T14:26:42Z</time></trkpt><trkpt lat="59.0988063812" lon="30.0215792656"><time>2026-04-22T14:26:45Z</time></trkpt><trkpt lat="59.0988063812" lon="30.0215363503"><time>2026-04-22T14:26:47Z</time></trkpt><trkpt lat="59.0988063812" lon="30.0214934349"><time>2026-04-22T14:26:50Z</time></trkpt><trkpt lat="59.0988063812" lon="30.0214505196"><time>2026-04-22T14:26:52Z</time></trkpt><trkpt lat="59.0987849236" lon="30.0214076042"><time>2026-04-22T14:26:55Z</time></trkpt><trkpt lat="59.0987849236" lon="30.0213646889"><time>2026-04-22T14:26:57Z</time></trkpt><trkpt lat="59.0987634659" lon="30.0213217735"><time>2026-04-22T14:27:00Z</time></trkpt><trkpt lat="59.0987634659" lon="30.0213217735"><time>2026-04-22T14:27:02Z</time></trkpt><trkpt lat="59.0987420082" lon="30.0212574005"><time>2026-04-22T14:27:05Z</time></trkpt><trkpt lat="59.0987205505" lon="30.0212144852"><time>2026-04-22T14:27:07Z</time></trkpt><trkpt lat="59.0986990929" lon="30.0211501122"><time>2026-04-22T14:27:10Z</time></trkpt><trkpt lat="59.0986990929" lon="30.0210857391"><time>2026-04-22T14:27:12Z</time></trkpt><trkpt lat="59.0986990929" lon="30.0210213661"><time>2026-04-22T14:27:15Z</time></trkpt><trkpt lat="59.0986776352" lon="30.0209999084"><time>2026-04-22T14:27:17Z</time></trkpt><trkpt lat="59.0986776352" lon="30.0209999084"><time>2026-04-22T14:27:20Z</time></trkpt><trkpt lat="59.0986776352" lon="30.0209999084"><time>2026-04-22T14:27:22Z</time></trkpt><trkpt lat="59.0986347198" lon="30.0209569931"><time>2026-04-22T14:27:25Z</time></trkpt><trkpt lat="59.0986347198" lon="30.0209569931"><time>2026-04-22T14:27:27Z</time></trkpt><trkpt lat="59.0986132622" lon="30.0208711624"><time>2026-04-22T14:27:30Z</time></trkpt><trkpt lat="59.0986347198" lon="30.0208282471"><time>2026-04-22T14:27:32Z</time></trkpt><trkpt lat="59.0986561775" lon="30.0207853317"><time>2026-04-22T14:27:35Z</time></trkpt><trkpt lat="59.0986561775" lon="30.0207638741"><time>2026-04-22T14:27:37Z</time></trkpt><trkpt lat="59.0986561775" lon="30.0207209587"><time>2026-04-22T14:27:40Z</time></trkpt><trkpt lat="59.0986347198" lon="30.0206995010"><time>2026-04-22T14:27:42Z</time></trkpt><trkpt lat="59.0986132622" lon="30.0206565857"><time>2026-04-22T14:27:45Z</time></trkpt><trkpt lat="59.0986132622" lon="30.0206136703"><time>2026-04-22T14:27:47Z</time></trkpt><trkpt lat="59.0985918045" lon="30.0205922127"><time>2026-04-22T14:27:50Z</time></trkpt><trkpt lat="59.0985918045" lon="30.0205922127"><time>2026-04-22T14:27:52Z</time></trkpt><trkpt lat="59.0986132622" lon="30.0205922127"><time>2026-04-22T14:27:55Z</time></trkpt><trkpt lat="59.0986132622" lon="30.0205922127"><time>2026-04-22T14:27:57Z</time></trkpt><trkpt lat="59.0986132622" lon="30.0205707550"><time>2026-04-22T14:28:00Z</time></trkpt><trkpt lat="59.0986132622" lon="30.0205707550"><time>2026-04-22T14:28:02Z</time></trkpt><trkpt lat="59.0985918045" lon="30.0205707550"><time>2026-04-22T14:28:05Z</time></trkpt><trkpt lat="59.0985918045" lon="30.0205492973"><time>2026-04-22T14:28:07Z</time></trkpt><trkpt lat="59.0985918045" lon="30.0205063820"><time>2026-04-22T14:28:10Z</time></trkpt><trkpt lat="59.0985918045" lon="30.0204634666"><time>2026-04-22T14:28:12Z</time></trkpt><trkpt lat="59.0985918045" lon="30.0203990936"><time>2026-04-22T14:28:15Z</time></trkpt><trkpt lat="59.0985918045" lon="30.0203561783"><time>2026-04-22T14:28:17Z</time></trkpt><trkpt lat="59.0986132622" lon="30.0202918053"><time>2026-04-22T14:28:20Z</time></trkpt><trkpt lat="59.0986132622" lon="30.0202918053"><time>2026-04-22T14:28:22Z</time></trkpt><trkpt lat="59.0986132622" lon="30.0202918053"><time>2026-04-22T14:28:25Z</time></trkpt><trkpt lat="59.0986132622" lon="30.0202918053"><time>2026-04-22T14:28:27Z</time></trkpt><trkpt lat="59.0986132622" lon="30.0202918053"><time>2026-04-22T14:28:30Z</time></trkpt><trkpt lat="59.0986132622" lon="30.0202703476"><time>2026-04-22T14:28:32Z</time></trkpt><trkpt lat="59.0986132622" lon="30.0202488899"><time>2026-04-22T14:28:35Z</time></trkpt><trkpt lat="59.0986132622" lon="30.0202488899"><time>2026-04-22T14:28:37Z</time></trkpt><trkpt lat="59.0986132622" lon="30.0202488899"><time>2026-04-22T14:28:40Z</time></trkpt><trkpt lat="59.0986132622" lon="30.0202274323"><time>2026-04-22T14:28:42Z</time></trkpt><trkpt lat="59.0986132622" lon="30.0202059746"><time>2026-04-22T14:28:45Z</time></trkpt><trkpt lat="59.0986132622" lon="30.0202059746"><time>2026-04-22T14:28:47Z</time></trkpt><trkpt lat="59.0986132622" lon="30.0202059746"><time>2026-04-22T14:28:50Z</time></trkpt><trkpt lat="59.0986132622" lon="30.0202059746"><time>2026-04-22T14:28:52Z</time></trkpt><trkpt lat="59.0985703468" lon="30.0201630592"><time>2026-04-22T14:28:55Z</time></trkpt><trkpt lat="59.0985703468" lon="30.0201416016"><time>2026-04-22T14:28:57Z</time></trkpt><trkpt lat="59.0985703468" lon="30.0201416016"><time>2026-04-22T14:29:00Z</time></trkpt><trkpt lat="59.0985703468" lon="30.0201416016"><time>2026-04-22T14:29:02Z</time></trkpt><trkpt lat="59.0985703468" lon="30.0201416016"><time>2026-04-22T14:29:05Z</time></trkpt><trkpt lat="59.0985703468" lon="30.0201416016"><time>2026-04-22T14:29:07Z</time></trkpt><trkpt lat="59.0985703468" lon="30.0201416016"><time>2026-04-22T14:29:10Z</time></trkpt><trkpt lat="59.0985703468" lon="30.0201416016"><time>2026-04-22T14:29:12Z</time></trkpt><trkpt lat="59.0985703468" lon="30.0201416016"><time>2026-04-22T14:29:15Z</time></trkpt><trkpt lat="59.0985703468" lon="30.0201416016"><time>2026-04-22T14:29:17Z</time></trkpt><trkpt lat="59.0985703468" lon="30.0201416016"><time>2026-04-22T14:29:20Z</time></trkpt><trkpt lat="59.0985703468" lon="30.0201416016"><time>2026-04-22T14:29:22Z</time></trkpt><trkpt lat="59.0985703468" lon="30.0201416016"><time>2026-04-22T14:29:25Z</time></trkpt><trkpt lat="59.0985703468" lon="30.0201416016"><time>2026-04-22T14:29:27Z</time></trkpt><trkpt lat="59.0985703468" lon="30.0201416016"><time>2026-04-22T14:29:30Z</time></trkpt><trkpt lat="59.0985703468" lon="30.0201416016"><time>2026-04-22T14:29:32Z</time></trkpt><trkpt lat="59.0985703468" lon="30.0201416016"><time>2026-04-22T14:29:35Z</time></trkpt><trkpt lat="59.0985703468" lon="30.0201416016"><time>2026-04-22T14:29:37Z</time></trkpt><trkpt lat="59.0985703468" lon="30.0201201439"><time>2026-04-22T14:29:40Z</time></trkpt><trkpt lat="59.0985703468" lon="30.0201201439"><time>2026-04-22T14:29:42Z</time></trkpt><trkpt lat="59.0985703468" lon="30.0201201439"><time>2026-04-22T14:29:45Z</time></trkpt><trkpt lat="59.0985703468" lon="30.0201201439"><time>2026-04-22T14:29:47Z</time></trkpt><trkpt lat="59.0985703468" lon="30.0201201439"><time>2026-04-22T14:29:50Z</time></trkpt><trkpt lat="59.0985703468" lon="30.0201201439"><time>2026-04-22T14:29:52Z</time></trkpt><trkpt lat="59.0985703468" lon="30.0201201439"><time>2026-04-22T14:29:55Z</time></trkpt><trkpt lat="59.0985703468" lon="30.0201201439"><time>2026-04-22T14:29:57Z</time></trkpt><trkpt lat="59.0985703468" lon="30.0201201439"><time>2026-04-22T14:30:00Z</time></trkpt><trkpt lat="59.0985703468" lon="30.0201201439"><time>2026-04-22T14:30:02Z</time></trkpt><trkpt lat="59.0985703468" lon="30.0201201439"><time>2026-04-22T14:30:05Z</time></trkpt><trkpt lat="59.0985703468" lon="30.0201201439"><time>2026-04-22T14:30:07Z</time></trkpt><trkpt lat="59.0985703468" lon="30.0201201439"><time>2026-04-22T14:30:10Z</time></trkpt><trkpt lat="59.0985703468" lon="30.0201201439"><time>2026-04-22T14:30:12Z</time></trkpt><trkpt lat="59.0985703468" lon="30.0201201439"><time>2026-04-22T14:30:15Z</time></trkpt><trkpt lat="59.0985703468" lon="30.0201201439"><time>2026-04-22T14:30:17Z</time></trkpt><trkpt lat="59.0985703468" lon="30.0201201439"><time>2026-04-22T14:30:20Z</time></trkpt><trkpt lat="59.0985703468" lon="30.0200986862"><time>2026-04-22T14:30:22Z</time></trkpt><trkpt lat="59.0985703468" lon="30.0200986862"><time>2026-04-22T14:30:25Z</time></trkpt><trkpt lat="59.0985703468" lon="30.0200986862"><time>2026-04-22T14:30:27Z</time></trkpt><trkpt lat="59.0985703468" lon="30.0200986862"><time>2026-04-22T14:30:30Z</time></trkpt><trkpt lat="59.0985703468" lon="30.0200986862"><time>2026-04-22T14:30:32Z</time></trkpt><trkpt lat="59.0985703468" lon="30.0200986862"><time>2026-04-22T14:30:35Z</time></trkpt><trkpt lat="59.0985703468" lon="30.0200772285"><time>2026-04-22T14:30:37Z</time></trkpt><trkpt lat="59.0985274315" lon="30.0200343132"><time>2026-04-22T14:30:40Z</time></trkpt><trkpt lat="59.0985059738" lon="30.0200128555"><time>2026-04-22T14:30:42Z</time></trkpt><trkpt lat="59.0985059738" lon="30.0199699402"><time>2026-04-22T14:30:45Z</time></trkpt><trkpt lat="59.0985059738" lon="30.0199270248"><time>2026-04-22T14:30:47Z</time></trkpt><trkpt lat="59.0985059738" lon="30.0198841095"><time>2026-04-22T14:30:50Z</time></trkpt><trkpt lat="59.0985059738" lon="30.0198411942"><time>2026-04-22T14:30:52Z</time></trkpt><trkpt lat="59.0984845161" lon="30.0198197365"><time>2026-04-22T14:30:55Z</time></trkpt><trkpt lat="59.0984630585" lon="30.0197982788"><time>2026-04-22T14:30:57Z</time></trkpt><trkpt lat="59.0984845161" lon="30.0197553635"><time>2026-04-22T14:31:00Z</time></trkpt><trkpt lat="59.0984630585" lon="30.0197339058"><time>2026-04-22T14:31:02Z</time></trkpt><trkpt lat="59.0984416008" lon="30.0197124481"><time>2026-04-22T14:31:05Z</time></trkpt><trkpt lat="59.0984416008" lon="30.0196909904"><time>2026-04-22T14:31:07Z</time></trkpt><trkpt lat="59.0984416008" lon="30.0196480751"><time>2026-04-22T14:31:10Z</time></trkpt><trkpt lat="59.0984201431" lon="30.0196266174"><time>2026-04-22T14:31:12Z</time></trkpt><trkpt lat="59.0983986855" lon="30.0196051598"><time>2026-04-22T14:31:15Z</time></trkpt><trkpt lat="59.0983986855" lon="30.0195837021"><time>2026-04-22T14:31:17Z</time></trkpt><trkpt lat="59.0983772278" lon="30.0195837021"><time>2026-04-22T14:31:20Z</time></trkpt><trkpt lat="59.0983772278" lon="30.0195622444"><time>2026-04-22T14:31:22Z</time></trkpt><trkpt lat="59.0983772278" lon="30.0195407867"><time>2026-04-22T14:31:25Z</time></trkpt><trkpt lat="59.0983772278" lon="30.0195193291"><time>2026-04-22T14:31:27Z</time></trkpt><trkpt lat="59.0983772278" lon="30.0195193291"><time>2026-04-22T14:31:30Z</time></trkpt><trkpt lat="59.0983772278" lon="30.0195193291"><time>2026-04-22T14:31:32Z</time></trkpt><trkpt lat="59.0983772278" lon="30.0195193291"><time>2026-04-22T14:31:35Z</time></trkpt><trkpt lat="59.0983772278" lon="30.0195193291"><time>2026-04-22T14:31:37Z</time></trkpt><trkpt lat="59.0983557701" lon="30.0195193291"><time>2026-04-22T14:31:40Z</time></trkpt><trkpt lat="59.0983557701" lon="30.0194978714"><time>2026-04-22T14:31:42Z</time></trkpt><trkpt lat="59.0983557701" lon="30.0194549561"><time>2026-04-22T14:31:45Z</time></trkpt><trkpt lat="59.0983343124" lon="30.0194120407"><time>2026-04-22T14:31:47Z</time></trkpt><trkpt lat="59.0983343124" lon="30.0194120407"><time>2026-04-22T14:31:50Z</time></trkpt><trkpt lat="59.0983343124" lon="30.0194120407"><time>2026-04-22T14:31:52Z</time></trkpt><trkpt lat="59.0983343124" lon="30.0194120407"><time>2026-04-22T14:31:55Z</time></trkpt><trkpt lat="59.0983343124" lon="30.0194120407"><time>2026-04-22T14:31:57Z</time></trkpt><trkpt lat="59.0983343124" lon="30.0193905830"><time>2026-04-22T14:32:00Z</time></trkpt><trkpt lat="59.0983343124" lon="30.0193905830"><time>2026-04-22T14:32:02Z</time></trkpt><trkpt lat="59.0983343124" lon="30.0193691254"><time>2026-04-22T14:32:05Z</time></trkpt><trkpt lat="59.0983343124" lon="30.0193476677"><time>2026-04-22T14:32:07Z</time></trkpt><trkpt lat="59.0983343124" lon="30.0193476677"><time>2026-04-22T14:32:10Z</time></trkpt><trkpt lat="59.0983343124" lon="30.0193476677"><time>2026-04-22T14:32:12Z</time></trkpt><trkpt lat="59.0983343124" lon="30.0192832947"><time>2026-04-22T14:32:15Z</time></trkpt><trkpt lat="59.0983343124" lon="30.0192403793"><time>2026-04-22T14:32:17Z</time></trkpt><trkpt lat="59.0983343124" lon="30.0192403793"><time>2026-04-22T14:32:20Z</time></trkpt><trkpt lat="59.0983343124" lon="30.0192403793"><time>2026-04-22T14:32:22Z</time></trkpt><trkpt lat="59.0983343124" lon="30.0192403793"><time>2026-04-22T14:32:25Z</time></trkpt><trkpt lat="59.0983128548" lon="30.0192403793"><time>2026-04-22T14:32:27Z</time></trkpt><trkpt lat="59.0983128548" lon="30.0192189217"><time>2026-04-22T14:32:30Z</time></trkpt><trkpt lat="59.0983128548" lon="30.0192189217"><time>2026-04-22T14:32:32Z</time></trkpt><trkpt lat="59.0983128548" lon="30.0191760063"><time>2026-04-22T14:32:35Z</time></trkpt><trkpt lat="59.0983128548" lon="30.0191545486"><time>2026-04-22T14:32:37Z</time></trkpt><trkpt lat="59.0982913971" lon="30.0191330910"><time>2026-04-22T14:32:40Z</time></trkpt><trkpt lat="59.0982913971" lon="30.0191330910"><time>2026-04-22T14:32:42Z</time></trkpt><trkpt lat="59.0982699394" lon="30.0191116333"><time>2026-04-22T14:32:45Z</time></trkpt><trkpt lat="59.0982699394" lon="30.0190901756"><time>2026-04-22T14:32:47Z</time></trkpt><trkpt lat="59.0982699394" lon="30.0190472603"><time>2026-04-22T14:32:50Z</time></trkpt><trkpt lat="59.0982699394" lon="30.0190258026"><time>2026-04-22T14:32:52Z</time></trkpt><trkpt lat="59.0982699394" lon="30.0190258026"><time>2026-04-22T14:32:55Z</time></trkpt><trkpt lat="59.0982699394" lon="30.0190258026"><time>2026-04-22T14:32:57Z</time></trkpt><trkpt lat="59.0982699394" lon="30.0189614296"><time>2026-04-22T14:33:00Z</time></trkpt><trkpt lat="59.0982699394" lon="30.0189614296"><time>2026-04-22T14:33:02Z</time></trkpt><trkpt lat="59.0982699394" lon="30.0189399719"><time>2026-04-22T14:33:05Z</time></trkpt><trkpt lat="59.0982913971" lon="30.0188970566"><time>2026-04-22T14:33:07Z</time></trkpt><trkpt lat="59.0982913971" lon="30.0188541412"><time>2026-04-22T14:33:10Z</time></trkpt><trkpt lat="59.0982699394" lon="30.0188326836"><time>2026-04-22T14:33:12Z</time></trkpt><trkpt lat="59.0982699394" lon="30.0188326836"><time>2026-04-22T14:33:15Z</time></trkpt><trkpt lat="59.0982699394" lon="30.0188326836"><time>2026-04-22T14:33:17Z</time></trkpt><trkpt lat="59.0982699394" lon="30.0188326836"><time>2026-04-22T14:33:20Z</time></trkpt><trkpt lat="59.0982913971" lon="30.0188112259"><time>2026-04-22T14:33:22Z</time></trkpt><trkpt lat="59.0982913971" lon="30.0187683105"><time>2026-04-22T14:33:25Z</time></trkpt><trkpt lat="59.0982913971" lon="30.0187683105"><time>2026-04-22T14:33:27Z</time></trkpt><trkpt lat="59.0982913971" lon="30.0187683105"><time>2026-04-22T14:33:30Z</time></trkpt><trkpt lat="59.0982913971" lon="30.0187683105"><time>2026-04-22T14:33:32Z</time></trkpt><trkpt lat="59.0982913971" lon="30.0187253952"><time>2026-04-22T14:33:35Z</time></trkpt><trkpt lat="59.0982913971" lon="30.0186824799"><time>2026-04-22T14:33:37Z</time></trkpt><trkpt lat="59.0983128548" lon="30.0186395645"><time>2026-04-22T14:33:40Z</time></trkpt><trkpt lat="59.0983128548" lon="30.0186181068"><time>2026-04-22T14:33:42Z</time></trkpt><trkpt lat="59.0982913971" lon="30.0185751915"><time>2026-04-22T14:33:45Z</time></trkpt><trkpt lat="59.0982913971" lon="30.0185751915"><time>2026-04-22T14:33:47Z</time></trkpt><trkpt lat="59.0982913971" lon="30.0185108185"><time>2026-04-22T14:33:50Z</time></trkpt><trkpt lat="59.0982913971" lon="30.0184893608"><time>2026-04-22T14:33:52Z</time></trkpt><trkpt lat="59.0982699394" lon="30.0184679031"><time>2026-04-22T14:33:55Z</time></trkpt><trkpt lat="59.0982699394" lon="30.0184679031"><time>2026-04-22T14:33:57Z</time></trkpt><trkpt lat="59.0982699394" lon="30.0184464455"><time>2026-04-22T14:34:00Z</time></trkpt><trkpt lat="59.0982699394" lon="30.0184035301"><time>2026-04-22T14:34:02Z</time></trkpt><trkpt lat="59.0982699394" lon="30.0183606148"><time>2026-04-22T14:34:05Z</time></trkpt><trkpt lat="59.0982699394" lon="30.0183606148"><time>2026-04-22T14:34:07Z</time></trkpt><trkpt lat="59.0982699394" lon="30.0183606148"><time>2026-04-22T14:34:10Z</time></trkpt><trkpt lat="59.0982699394" lon="30.0183606148"><time>2026-04-22T14:34:12Z</time></trkpt><trkpt lat="59.0982699394" lon="30.0183606148"><time>2026-04-22T14:34:15Z</time></trkpt><trkpt lat="59.0982699394" lon="30.0183606148"><time>2026-04-22T14:34:17Z</time></trkpt><trkpt lat="59.0982699394" lon="30.0183606148"><time>2026-04-22T14:34:20Z</time></trkpt><trkpt lat="59.0982699394" lon="30.0183606148"><time>2026-04-22T14:34:22Z</time></trkpt><trkpt lat="59.0982699394" lon="30.0183391571"><time>2026-04-22T14:34:25Z</time></trkpt><trkpt lat="59.0982699394" lon="30.0183176994"><time>2026-04-22T14:34:27Z</time></trkpt><trkpt lat="59.0982699394" lon="30.0182962418"><time>2026-04-22T14:34:30Z</time></trkpt><trkpt lat="59.0982484818" lon="30.0182533264"><time>2026-04-22T14:34:32Z</time></trkpt><trkpt lat="59.0982484818" lon="30.0182533264"><time>2026-04-22T14:34:35Z</time></trkpt><trkpt lat="59.0982484818" lon="30.0182533264"><time>2026-04-22T14:34:37Z</time></trkpt><trkpt lat="59.0982484818" lon="30.0182533264"><time>2026-04-22T14:34:40Z</time></trkpt><trkpt lat="59.0982484818" lon="30.0182318687"><time>2026-04-22T14:34:42Z</time></trkpt><trkpt lat="59.0982484818" lon="30.0181889534"><time>2026-04-22T14:34:45Z</time></trkpt><trkpt lat="59.0982270241" lon="30.0181245804"><time>2026-04-22T14:34:47Z</time></trkpt><trkpt lat="59.0982270241" lon="30.0180387497"><time>2026-04-22T14:34:50Z</time></trkpt><trkpt lat="59.0982270241" lon="30.0180387497"><time>2026-04-22T14:34:52Z</time></trkpt><trkpt lat="59.0982270241" lon="30.0179958344"><time>2026-04-22T14:34:55Z</time></trkpt><trkpt lat="59.0982055664" lon="30.0179529190"><time>2026-04-22T14:34:57Z</time></trkpt><trkpt lat="59.0982055664" lon="30.0179314613"><time>2026-04-22T14:35:00Z</time></trkpt><trkpt lat="59.0982055664" lon="30.0179100037"><time>2026-04-22T14:35:02Z</time></trkpt><trkpt lat="59.0981841087" lon="30.0178670883"><time>2026-04-22T14:35:05Z</time></trkpt><trkpt lat="59.0981841087" lon="30.0178670883"><time>2026-04-22T14:35:07Z</time></trkpt><trkpt lat="59.0981841087" lon="30.0177812576"><time>2026-04-22T14:35:10Z</time></trkpt><trkpt lat="59.0981841087" lon="30.0177598000"><time>2026-04-22T14:35:12Z</time></trkpt><trkpt lat="59.0981411934" lon="30.0177168846"><time>2026-04-22T14:35:15Z</time></trkpt><trkpt lat="59.0981411934" lon="30.0176954269"><time>2026-04-22T14:35:17Z</time></trkpt><trkpt lat="59.0981197357" lon="30.0176954269"><time>2026-04-22T14:35:20Z</time></trkpt><trkpt lat="59.0981197357" lon="30.0176954269"><time>2026-04-22T14:35:22Z</time></trkpt><trkpt lat="59.0981197357" lon="30.0176739693"><time>2026-04-22T14:35:25Z</time></trkpt><trkpt lat="59.0981197357" lon="30.0176739693"><time>2026-04-22T14:35:27Z</time></trkpt><trkpt lat="59.0980982780" lon="30.0176739693"><time>2026-04-22T14:35:30Z</time></trkpt><trkpt lat="59.0980982780" lon="30.0176739693"><time>2026-04-22T14:35:32Z</time></trkpt><trkpt lat="59.0980982780" lon="30.0176739693"><time>2026-04-22T14:35:35Z</time></trkpt><trkpt lat="59.0980982780" lon="30.0176739693"><time>2026-04-22T14:35:37Z</time></trkpt><trkpt lat="59.0980982780" lon="30.0176739693"><time>2026-04-22T14:35:40Z</time></trkpt><trkpt lat="59.0980982780" lon="30.0176739693"><time>2026-04-22T14:35:42Z</time></trkpt><trkpt lat="59.0980982780" lon="30.0176739693"><time>2026-04-22T14:35:45Z</time></trkpt><trkpt lat="59.0980982780" lon="30.0176739693"><time>2026-04-22T14:35:47Z</time></trkpt><trkpt lat="59.0980982780" lon="30.0176739693"><time>2026-04-22T14:35:50Z</time></trkpt><trkpt lat="59.0980982780" lon="30.0176739693"><time>2026-04-22T14:35:52Z</time></trkpt><trkpt lat="59.0980982780" lon="30.0176739693"><time>2026-04-22T14:35:55Z</time></trkpt><trkpt lat="59.0980982780" lon="30.0176739693"><time>2026-04-22T14:35:57Z</time></trkpt><trkpt lat="59.0980982780" lon="30.0176739693"><time>2026-04-22T14:36:00Z</time></trkpt><trkpt lat="59.0980982780" lon="30.0176739693"><time>2026-04-22T14:36:02Z</time></trkpt><trkpt lat="59.0980982780" lon="30.0176739693"><time>2026-04-22T14:36:05Z</time></trkpt><trkpt lat="59.0980982780" lon="30.0176739693"><time>2026-04-22T14:36:07Z</time></trkpt><trkpt lat="59.0980982780" lon="30.0176525116"><time>2026-04-22T14:36:10Z</time></trkpt><trkpt lat="59.0980982780" lon="30.0176525116"><time>2026-04-22T14:36:12Z</time></trkpt><trkpt lat="59.0980982780" lon="30.0176525116"><time>2026-04-22T14:36:15Z</time></trkpt><trkpt lat="59.0981197357" lon="30.0176095963"><time>2026-04-22T14:36:20Z</time></trkpt><trkpt lat="59.0981197357" lon="30.0175881386"><time>2026-04-22T14:36:22Z</time></trkpt><trkpt lat="59.0981197357" lon="30.0175452232"><time>2026-04-22T14:36:25Z</time></trkpt><trkpt lat="59.0981197357" lon="30.0175023079"><time>2026-04-22T14:36:27Z</time></trkpt><trkpt lat="59.0981197357" lon="30.0174164772"><time>2026-04-22T14:36:30Z</time></trkpt><trkpt lat="59.0981197357" lon="30.0173735619"><time>2026-04-22T14:36:32Z</time></trkpt><trkpt lat="59.0981197357" lon="30.0173306465"><time>2026-04-22T14:36:35Z</time></trkpt><trkpt lat="59.0981197357" lon="30.0172877312"><time>2026-04-22T14:36:37Z</time></trkpt><trkpt lat="59.0981197357" lon="30.0172877312"><time>2026-04-22T14:36:40Z</time></trkpt><trkpt lat="59.0981411934" lon="30.0172662735"><time>2026-04-22T14:36:42Z</time></trkpt><trkpt lat="59.0981626511" lon="30.0172233582"><time>2026-04-22T14:36:45Z</time></trkpt><trkpt lat="59.0981626511" lon="30.0172233582"><time>2026-04-22T14:36:47Z</time></trkpt><trkpt lat="59.0981626511" lon="30.0171589851"><time>2026-04-22T14:36:50Z</time></trkpt><trkpt lat="59.0981626511" lon="30.0171375275"><time>2026-04-22T14:36:52Z</time></trkpt><trkpt lat="59.0981626511" lon="30.0170946121"><time>2026-04-22T14:36:55Z</time></trkpt><trkpt lat="59.0981411934" lon="30.0170731544"><time>2026-04-22T14:36:57Z</time></trkpt><trkpt lat="59.0981197357" lon="30.0170302391"><time>2026-04-22T14:37:00Z</time></trkpt><trkpt lat="59.0980982780" lon="30.0170087814"><time>2026-04-22T14:37:02Z</time></trkpt><trkpt lat="59.0980982780" lon="30.0169873238"><time>2026-04-22T14:37:05Z</time></trkpt><trkpt lat="59.0980982780" lon="30.0169658661"><time>2026-04-22T14:37:07Z</time></trkpt><trkpt lat="59.0980982780" lon="30.0169444084"><time>2026-04-22T14:37:10Z</time></trkpt><trkpt lat="59.0980768204" lon="30.0169444084"><time>2026-04-22T14:37:12Z</time></trkpt><trkpt lat="59.0980768204" lon="30.0169444084"><time>2026-04-22T14:37:15Z</time></trkpt><trkpt lat="59.0980553627" lon="30.0169658661"><time>2026-04-22T14:37:17Z</time></trkpt><trkpt lat="59.0980339050" lon="30.0169229507"><time>2026-04-22T14:37:20Z</time></trkpt><trkpt lat="59.0980124474" lon="30.0168800354"><time>2026-04-22T14:37:22Z</time></trkpt><trkpt lat="59.0980124474" lon="30.0168585777"><time>2026-04-22T14:37:25Z</time></trkpt><trkpt lat="59.0979909897" lon="30.0168371201"><time>2026-04-22T14:37:27Z</time></trkpt><trkpt lat="59.0979909897" lon="30.0168371201"><time>2026-04-22T14:37:30Z</time></trkpt><trkpt lat="59.0979909897" lon="30.0168156624"><time>2026-04-22T14:37:32Z</time></trkpt><trkpt lat="59.0979909897" lon="30.0168156624"><time>2026-04-22T14:37:35Z</time></trkpt><trkpt lat="59.0979909897" lon="30.0168156624"><time>2026-04-22T14:37:37Z</time></trkpt><trkpt lat="59.0979695320" lon="30.0167942047"><time>2026-04-22T14:37:40Z</time></trkpt><trkpt lat="59.0979695320" lon="30.0167727470"><time>2026-04-22T14:37:42Z</time></trkpt><trkpt lat="59.0979695320" lon="30.0167727470"><time>2026-04-22T14:37:45Z</time></trkpt><trkpt lat="59.0979480743" lon="30.0167298317"><time>2026-04-22T14:37:47Z</time></trkpt><trkpt lat="59.0979480743" lon="30.0167298317"><time>2026-04-22T14:37:50Z</time></trkpt><trkpt lat="59.0979480743" lon="30.0167298317"><time>2026-04-22T14:37:52Z</time></trkpt><trkpt lat="59.0979051590" lon="30.0167083740"><time>2026-04-22T14:37:55Z</time></trkpt><trkpt lat="59.0979051590" lon="30.0166654587"><time>2026-04-22T14:37:57Z</time></trkpt><trkpt lat="59.0979051590" lon="30.0166225433"><time>2026-04-22T14:38:00Z</time></trkpt><trkpt lat="59.0979051590" lon="30.0166010857"><time>2026-04-22T14:38:02Z</time></trkpt><trkpt lat="59.0978837013" lon="30.0165581703"><time>2026-04-22T14:38:05Z</time></trkpt><trkpt lat="59.0978837013" lon="30.0165581703"><time>2026-04-22T14:38:07Z</time></trkpt><trkpt lat="59.0979051590" lon="30.0165367126"><time>2026-04-22T14:38:10Z</time></trkpt><trkpt lat="59.0979051590" lon="30.0165152550"><time>2026-04-22T14:38:12Z</time></trkpt><trkpt lat="59.0979051590" lon="30.0164937973"><time>2026-04-22T14:38:15Z</time></trkpt><trkpt lat="59.0979051590" lon="30.0164937973"><time>2026-04-22T14:38:17Z</time></trkpt><trkpt lat="59.0979051590" lon="30.0164937973"><time>2026-04-22T14:38:20Z</time></trkpt><trkpt lat="59.0978837013" lon="30.0164937973"><time>2026-04-22T14:38:22Z</time></trkpt><trkpt lat="59.0978622437" lon="30.0164508820"><time>2026-04-22T14:38:25Z</time></trkpt><trkpt lat="59.0978622437" lon="30.0164723396"><time>2026-04-22T14:38:27Z</time></trkpt><trkpt lat="59.0978622437" lon="30.0164723396"><time>2026-04-22T14:38:30Z</time></trkpt><trkpt lat="59.0978622437" lon="30.0164723396"><time>2026-04-22T14:38:32Z</time></trkpt><trkpt lat="59.0978622437" lon="30.0164508820"><time>2026-04-22T14:38:35Z</time></trkpt><trkpt lat="59.0978407860" lon="30.0164079666"><time>2026-04-22T14:38:37Z</time></trkpt><trkpt lat="59.0978193283" lon="30.0163865089"><time>2026-04-22T14:38:40Z</time></trkpt><trkpt lat="59.0978193283" lon="30.0163650513"><time>2026-04-22T14:38:42Z</time></trkpt><trkpt lat="59.0978193283" lon="30.0163650513"><time>2026-04-22T14:38:45Z</time></trkpt><trkpt lat="59.0978193283" lon="30.0163650513"><time>2026-04-22T14:38:47Z</time></trkpt><trkpt lat="59.0977978706" lon="30.0163435936"><time>2026-04-22T14:38:50Z</time></trkpt><trkpt lat="59.0977764130" lon="30.0163221359"><time>2026-04-22T14:38:52Z</time></trkpt><trkpt lat="59.0977764130" lon="30.0163221359"><time>2026-04-22T14:38:55Z</time></trkpt><trkpt lat="59.0977764130" lon="30.0163221359"><time>2026-04-22T14:38:57Z</time></trkpt><trkpt lat="59.0977764130" lon="30.0163221359"><time>2026-04-22T14:39:00Z</time></trkpt><trkpt lat="59.0977764130" lon="30.0163221359"><time>2026-04-22T14:39:02Z</time></trkpt><trkpt lat="59.0977764130" lon="30.0163221359"><time>2026-04-22T14:39:05Z</time></trkpt><trkpt lat="59.0977764130" lon="30.0163221359"><time>2026-04-22T14:39:07Z</time></trkpt><trkpt lat="59.0977764130" lon="30.0163221359"><time>2026-04-22T14:39:10Z</time></trkpt><trkpt lat="59.0977764130" lon="30.0163006783"><time>2026-04-22T14:39:12Z</time></trkpt><trkpt lat="59.0977549553" lon="30.0162148476"><time>2026-04-22T14:39:15Z</time></trkpt><trkpt lat="59.0977549553" lon="30.0161719322"><time>2026-04-22T14:39:17Z</time></trkpt><trkpt lat="59.0977334976" lon="30.0161504745"><time>2026-04-22T14:39:20Z</time></trkpt><trkpt lat="59.0977334976" lon="30.0161290169"><time>2026-04-22T14:39:22Z</time></trkpt><trkpt lat="59.0977334976" lon="30.0161290169"><time>2026-04-22T14:39:25Z</time></trkpt><trkpt lat="59.0977334976" lon="30.0161290169"><time>2026-04-22T14:39:27Z</time></trkpt><trkpt lat="59.0977334976" lon="30.0161290169"><time>2026-04-22T14:39:30Z</time></trkpt><trkpt lat="59.0977120399" lon="30.0161075592"><time>2026-04-22T14:39:32Z</time></trkpt><trkpt lat="59.0976905823" lon="30.0160861015"><time>2026-04-22T14:39:35Z</time></trkpt><trkpt lat="59.0977120399" lon="30.0160646439"><time>2026-04-22T14:39:37Z</time></trkpt><trkpt lat="59.0977120399" lon="30.0160646439"><time>2026-04-22T14:39:40Z</time></trkpt><trkpt lat="59.0976905823" lon="30.0160431862"><time>2026-04-22T14:39:42Z</time></trkpt><trkpt lat="59.0976905823" lon="30.0160217285"><time>2026-04-22T14:39:45Z</time></trkpt><trkpt lat="59.0976905823" lon="30.0160217285"><time>2026-04-22T14:39:47Z</time></trkpt><trkpt lat="59.0976905823" lon="30.0160002708"><time>2026-04-22T14:39:50Z</time></trkpt><trkpt lat="59.0976905823" lon="30.0160002708"><time>2026-04-22T14:39:52Z</time></trkpt><trkpt lat="59.0976905823" lon="30.0159573555"><time>2026-04-22T14:39:55Z</time></trkpt><trkpt lat="59.0976691246" lon="30.0159144402"><time>2026-04-22T14:39:57Z</time></trkpt><trkpt lat="59.0976691246" lon="30.0158929825"><time>2026-04-22T14:40:00Z</time></trkpt><trkpt lat="59.0976476669" lon="30.0158715248"><time>2026-04-22T14:40:02Z</time></trkpt><trkpt lat="59.0976476669" lon="30.0158715248"><time>2026-04-22T14:40:05Z</time></trkpt><trkpt lat="59.0976476669" lon="30.0158715248"><time>2026-04-22T14:40:07Z</time></trkpt><trkpt lat="59.0976476669" lon="30.0158286095"><time>2026-04-22T14:40:10Z</time></trkpt><trkpt lat="59.0976476669" lon="30.0158286095"><time>2026-04-22T14:40:12Z</time></trkpt><trkpt lat="59.0976476669" lon="30.0158286095"><time>2026-04-22T14:40:15Z</time></trkpt><trkpt lat="59.0976476669" lon="30.0158286095"><time>2026-04-22T14:40:17Z</time></trkpt><trkpt lat="59.0976476669" lon="30.0158286095"><time>2026-04-22T14:40:20Z</time></trkpt><trkpt lat="59.0976476669" lon="30.0158286095"><time>2026-04-22T14:40:22Z</time></trkpt><trkpt lat="59.0976476669" lon="30.0157642365"><time>2026-04-22T14:40:25Z</time></trkpt><trkpt lat="59.0976476669" lon="30.0157642365"><time>2026-04-22T14:40:27Z</time></trkpt><trkpt lat="59.0976476669" lon="30.0157427788"><time>2026-04-22T14:40:30Z</time></trkpt><trkpt lat="59.0976262093" lon="30.0157427788"><time>2026-04-22T14:40:32Z</time></trkpt><trkpt lat="59.0976262093" lon="30.0156998634"><time>2026-04-22T14:40:35Z</time></trkpt><trkpt lat="59.0976262093" lon="30.0156784058"><time>2026-04-22T14:40:37Z</time></trkpt><trkpt lat="59.0976262093" lon="30.0156569481"><time>2026-04-22T14:40:40Z</time></trkpt><trkpt lat="59.0976262093" lon="30.0156354904"><time>2026-04-22T14:40:42Z</time></trkpt><trkpt lat="59.0976262093" lon="30.0156354904"><time>2026-04-22T14:40:45Z</time></trkpt><trkpt lat="59.0976262093" lon="30.0156354904"><time>2026-04-22T14:40:47Z</time></trkpt><trkpt lat="59.0976262093" lon="30.0156354904"><time>2026-04-22T14:40:50Z</time></trkpt><trkpt lat="59.0976262093" lon="30.0156354904"><time>2026-04-22T14:40:52Z</time></trkpt><trkpt lat="59.0976476669" lon="30.0156140327"><time>2026-04-22T14:40:55Z</time></trkpt><trkpt lat="59.0976476669" lon="30.0156140327"><time>2026-04-22T14:40:57Z</time></trkpt><trkpt lat="59.0976476669" lon="30.0156140327"><time>2026-04-22T14:41:00Z</time></trkpt><trkpt lat="59.0976476669" lon="30.0155925751"><time>2026-04-22T14:41:02Z</time></trkpt><trkpt lat="59.0976476669" lon="30.0155711174"><time>2026-04-22T14:41:05Z</time></trkpt><trkpt lat="59.0976476669" lon="30.0155711174"><time>2026-04-22T14:41:07Z</time></trkpt><trkpt lat="59.0976476669" lon="30.0155711174"><time>2026-04-22T14:41:10Z</time></trkpt><trkpt lat="59.0976476669" lon="30.0155711174"><time>2026-04-22T14:41:12Z</time></trkpt><trkpt lat="59.0976476669" lon="30.0155711174"><time>2026-04-22T14:41:15Z</time></trkpt><trkpt lat="59.0976476669" lon="30.0155711174"><time>2026-04-22T14:41:17Z</time></trkpt><trkpt lat="59.0976476669" lon="30.0155711174"><time>2026-04-22T14:41:20Z</time></trkpt><trkpt lat="59.0976476669" lon="30.0155711174"><time>2026-04-22T14:41:22Z</time></trkpt><trkpt lat="59.0976476669" lon="30.0155711174"><time>2026-04-22T14:41:25Z</time></trkpt><trkpt lat="59.0976476669" lon="30.0155711174"><time>2026-04-22T14:41:27Z</time></trkpt><trkpt lat="59.0976476669" lon="30.0155711174"><time>2026-04-22T14:41:30Z</time></trkpt><trkpt lat="59.0976476669" lon="30.0155711174"><time>2026-04-22T14:41:32Z</time></trkpt><trkpt lat="59.0976476669" lon="30.0155711174"><time>2026-04-22T14:41:35Z</time></trkpt><trkpt lat="59.0976476669" lon="30.0155711174"><time>2026-04-22T14:41:37Z</time></trkpt><trkpt lat="59.0976476669" lon="30.0155711174"><time>2026-04-22T14:41:40Z</time></trkpt><trkpt lat="59.0976476669" lon="30.0155711174"><time>2026-04-22T14:41:42Z</time></trkpt><trkpt lat="59.0976476669" lon="30.0155496597"><time>2026-04-22T14:41:45Z</time></trkpt><trkpt lat="59.0976476669" lon="30.0155282021"><time>2026-04-22T14:41:47Z</time></trkpt><trkpt lat="59.0976476669" lon="30.0155282021"><time>2026-04-22T14:41:50Z</time></trkpt><trkpt lat="59.0976476669" lon="30.0155282021"><time>2026-04-22T14:41:52Z</time></trkpt><trkpt lat="59.0976476669" lon="30.0155282021"><time>2026-04-22T14:41:55Z</time></trkpt><trkpt lat="59.0976476669" lon="30.0155282021"><time>2026-04-22T14:41:57Z</time></trkpt><trkpt lat="59.0976476669" lon="30.0155282021"><time>2026-04-22T14:42:00Z</time></trkpt><trkpt lat="59.0976476669" lon="30.0155282021"><time>2026-04-22T14:42:02Z</time></trkpt><trkpt lat="59.0976476669" lon="30.0155282021"><time>2026-04-22T14:42:05Z</time></trkpt><trkpt lat="59.0976691246" lon="30.0155067444"><time>2026-04-22T14:42:07Z</time></trkpt><trkpt lat="59.0976905823" lon="30.0154638290"><time>2026-04-22T14:42:10Z</time></trkpt><trkpt lat="59.0976905823" lon="30.0154423714"><time>2026-04-22T14:42:12Z</time></trkpt><trkpt lat="59.0976905823" lon="30.0153994560"><time>2026-04-22T14:42:15Z</time></trkpt><trkpt lat="59.0976905823" lon="30.0153779984"><time>2026-04-22T14:42:17Z</time></trkpt><trkpt lat="59.0976905823" lon="30.0153779984"><time>2026-04-22T14:42:20Z</time></trkpt><trkpt lat="59.0976905823" lon="30.0153779984"><time>2026-04-22T14:42:22Z</time></trkpt><trkpt lat="59.0976905823" lon="30.0153779984"><time>2026-04-22T14:42:25Z</time></trkpt><trkpt lat="59.0976905823" lon="30.0153779984"><time>2026-04-22T14:42:27Z</time></trkpt><trkpt lat="59.0976691246" lon="30.0153350830"><time>2026-04-22T14:42:30Z</time></trkpt><trkpt lat="59.0976905823" lon="30.0153136253"><time>2026-04-22T14:42:32Z</time></trkpt><trkpt lat="59.0976905823" lon="30.0152492523"><time>2026-04-22T14:42:35Z</time></trkpt><trkpt lat="59.0977120399" lon="30.0152277946"><time>2026-04-22T14:42:37Z</time></trkpt><trkpt lat="59.0977120399" lon="30.0152063370"><time>2026-04-22T14:42:40Z</time></trkpt><trkpt lat="59.0977120399" lon="30.0152063370"><time>2026-04-22T14:42:42Z</time></trkpt><trkpt lat="59.0977120399" lon="30.0152063370"><time>2026-04-22T14:42:45Z</time></trkpt><trkpt lat="59.0977120399" lon="30.0152063370"><time>2026-04-22T14:42:47Z</time></trkpt><trkpt lat="59.0977120399" lon="30.0151634216"><time>2026-04-22T14:42:50Z</time></trkpt><trkpt lat="59.0977334976" lon="30.0151634216"><time>2026-04-22T14:42:52Z</time></trkpt><trkpt lat="59.0977334976" lon="30.0151419640"><time>2026-04-22T14:42:55Z</time></trkpt><trkpt lat="59.0977334976" lon="30.0151419640"><time>2026-04-22T14:42:57Z</time></trkpt><trkpt lat="59.0977334976" lon="30.0150775909"><time>2026-04-22T14:43:00Z</time></trkpt><trkpt lat="59.0977549553" lon="30.0150775909"><time>2026-04-22T14:43:02Z</time></trkpt><trkpt lat="59.0977549553" lon="30.0150346756"><time>2026-04-22T14:43:05Z</time></trkpt><trkpt lat="59.0977549553" lon="30.0150132179"><time>2026-04-22T14:43:07Z</time></trkpt><trkpt lat="59.0977549553" lon="30.0150132179"><time>2026-04-22T14:43:10Z</time></trkpt><trkpt lat="59.0977549553" lon="30.0150132179"><time>2026-04-22T14:43:12Z</time></trkpt><trkpt lat="59.0977549553" lon="30.0150132179"><time>2026-04-22T14:43:15Z</time></trkpt><trkpt lat="59.0977549553" lon="30.0149917603"><time>2026-04-22T14:43:17Z</time></trkpt><trkpt lat="59.0977764130" lon="30.0149488449"><time>2026-04-22T14:43:20Z</time></trkpt><trkpt lat="59.0977549553" lon="30.0149488449"><time>2026-04-22T14:43:22Z</time></trkpt><trkpt lat="59.0977549553" lon="30.0149488449"><time>2026-04-22T14:43:25Z</time></trkpt><trkpt lat="59.0977549553" lon="30.0149273872"><time>2026-04-22T14:43:27Z</time></trkpt><trkpt lat="59.0977334976" lon="30.0148844719"><time>2026-04-22T14:43:30Z</time></trkpt><trkpt lat="59.0977334976" lon="30.0148630142"><time>2026-04-22T14:43:32Z</time></trkpt><trkpt lat="59.0977334976" lon="30.0148630142"><time>2026-04-22T14:43:35Z</time></trkpt><trkpt lat="59.0977334976" lon="30.0148630142"><time>2026-04-22T14:43:37Z</time></trkpt><trkpt lat="59.0977334976" lon="30.0148415565"><time>2026-04-22T14:43:40Z</time></trkpt><trkpt lat="59.0977334976" lon="30.0147986412"><time>2026-04-22T14:43:42Z</time></trkpt><trkpt lat="59.0977120399" lon="30.0147557259"><time>2026-04-22T14:43:45Z</time></trkpt><trkpt lat="59.0977120399" lon="30.0146913528"><time>2026-04-22T14:43:47Z</time></trkpt><trkpt lat="59.0977120399" lon="30.0146913528"><time>2026-04-22T14:43:50Z</time></trkpt><trkpt lat="59.0977120399" lon="30.0146913528"><time>2026-04-22T14:43:52Z</time></trkpt><trkpt lat="59.0977120399" lon="30.0146913528"><time>2026-04-22T14:43:55Z</time></trkpt><trkpt lat="59.0977120399" lon="30.0146913528"><time>2026-04-22T14:43:57Z</time></trkpt><trkpt lat="59.0976905823" lon="30.0146913528"><time>2026-04-22T14:44:00Z</time></trkpt><trkpt lat="59.0976691246" lon="30.0146698952"><time>2026-04-22T14:44:02Z</time></trkpt><trkpt lat="59.0976476669" lon="30.0146269798"><time>2026-04-22T14:44:05Z</time></trkpt><trkpt lat="59.0976262093" lon="30.0146055222"><time>2026-04-22T14:44:07Z</time></trkpt><trkpt lat="59.0976476669" lon="30.0145626068"><time>2026-04-22T14:44:10Z</time></trkpt><trkpt lat="59.0976476669" lon="30.0145196915"><time>2026-04-22T14:44:12Z</time></trkpt><trkpt lat="59.0976476669" lon="30.0145196915"><time>2026-04-22T14:44:15Z</time></trkpt><trkpt lat="59.0976476669" lon="30.0145196915"><time>2026-04-22T14:44:17Z</time></trkpt><trkpt lat="59.0976262093" lon="30.0144767761"><time>2026-04-22T14:44:20Z</time></trkpt><trkpt lat="59.0976047516" lon="30.0144553185"><time>2026-04-22T14:44:22Z</time></trkpt><trkpt lat="59.0975832939" lon="30.0144338608"><time>2026-04-22T14:44:25Z</time></trkpt><trkpt lat="59.0975832939" lon="30.0144124031"><time>2026-04-22T14:44:27Z</time></trkpt><trkpt lat="59.0975832939" lon="30.0144124031"><time>2026-04-22T14:44:30Z</time></trkpt><trkpt lat="59.0975832939" lon="30.0144124031"><time>2026-04-22T14:44:32Z</time></trkpt><trkpt lat="59.0975832939" lon="30.0143694878"><time>2026-04-22T14:44:35Z</time></trkpt><trkpt lat="59.0975832939" lon="30.0143265724"><time>2026-04-22T14:44:37Z</time></trkpt><trkpt lat="59.0976047516" lon="30.0142621994"><time>2026-04-22T14:44:40Z</time></trkpt><trkpt lat="59.0976047516" lon="30.0142407417"><time>2026-04-22T14:44:42Z</time></trkpt><trkpt lat="59.0976047516" lon="30.0141763687"><time>2026-04-22T14:44:45Z</time></trkpt><trkpt lat="59.0976047516" lon="30.0141549110"><time>2026-04-22T14:44:47Z</time></trkpt><trkpt lat="59.0976262093" lon="30.0141549110"><time>2026-04-22T14:44:50Z</time></trkpt><trkpt lat="59.0976262093" lon="30.0141549110"><time>2026-04-22T14:44:52Z</time></trkpt><trkpt lat="59.0976262093" lon="30.0141334534"><time>2026-04-22T14:44:57Z</time></trkpt><trkpt lat="59.0976262093" lon="30.0141119957"><time>2026-04-22T14:45:00Z</time></trkpt><trkpt lat="59.0976047516" lon="30.0140905380"><time>2026-04-22T14:45:02Z</time></trkpt><trkpt lat="59.0975832939" lon="30.0140047073"><time>2026-04-22T14:45:05Z</time></trkpt><trkpt lat="59.0975618362" lon="30.0139832497"><time>2026-04-22T14:45:07Z</time></trkpt><trkpt lat="59.0975403786" lon="30.0139403343"><time>2026-04-22T14:45:10Z</time></trkpt><trkpt lat="59.0975189209" lon="30.0139617920"><time>2026-04-22T14:45:12Z</time></trkpt><trkpt lat="59.0975189209" lon="30.0139188766"><time>2026-04-22T14:45:15Z</time></trkpt><trkpt lat="59.0974974632" lon="30.0138759613"><time>2026-04-22T14:45:17Z</time></trkpt><trkpt lat="59.0974974632" lon="30.0138330460"><time>2026-04-22T14:45:20Z</time></trkpt><trkpt lat="59.0974974632" lon="30.0138115883"><time>2026-04-22T14:45:22Z</time></trkpt><trkpt lat="59.0974760056" lon="30.0137686729"><time>2026-04-22T14:45:25Z</time></trkpt><trkpt lat="59.0974760056" lon="30.0137257576"><time>2026-04-22T14:45:27Z</time></trkpt><trkpt lat="59.0974760056" lon="30.0136828423"><time>2026-04-22T14:45:30Z</time></trkpt><trkpt lat="59.0974760056" lon="30.0136613846"><time>2026-04-22T14:45:32Z</time></trkpt><trkpt lat="59.0974330902" lon="30.0135970116"><time>2026-04-22T14:45:35Z</time></trkpt><trkpt lat="59.0974330902" lon="30.0135755539"><time>2026-04-22T14:45:37Z</time></trkpt><trkpt lat="59.0974116325" lon="30.0135111809"><time>2026-04-22T14:45:40Z</time></trkpt><trkpt lat="59.0974116325" lon="30.0134897232"><time>2026-04-22T14:45:42Z</time></trkpt><trkpt lat="59.0974116325" lon="30.0134468079"><time>2026-04-22T14:45:45Z</time></trkpt><trkpt lat="59.0974116325" lon="30.0134253502"><time>2026-04-22T14:45:47Z</time></trkpt><trkpt lat="59.0973901749" lon="30.0133824348"><time>2026-04-22T14:45:50Z</time></trkpt><trkpt lat="59.0973901749" lon="30.0133824348"><time>2026-04-22T14:45:52Z</time></trkpt><trkpt lat="59.0973901749" lon="30.0133824348"><time>2026-04-22T14:45:55Z</time></trkpt><trkpt lat="59.0973901749" lon="30.0133824348"><time>2026-04-22T14:45:57Z</time></trkpt><trkpt lat="59.0973687172" lon="30.0133824348"><time>2026-04-22T14:46:00Z</time></trkpt><trkpt lat="59.0973258018" lon="30.0133609772"><time>2026-04-22T14:46:02Z</time></trkpt><trkpt lat="59.0973258018" lon="30.0133180618"><time>2026-04-22T14:46:05Z</time></trkpt><trkpt lat="59.0973258018" lon="30.0133180618"><time>2026-04-22T14:46:07Z</time></trkpt><trkpt lat="59.0973043442" lon="30.0132536888"><time>2026-04-22T14:46:10Z</time></trkpt><trkpt lat="59.0973043442" lon="30.0132322311"><time>2026-04-22T14:46:12Z</time></trkpt><trkpt lat="59.0972828865" lon="30.0131893158"><time>2026-04-22T14:46:15Z</time></trkpt><trkpt lat="59.0972828865" lon="30.0131464005"><time>2026-04-22T14:46:17Z</time></trkpt><trkpt lat="59.0972828865" lon="30.0131464005"><time>2026-04-22T14:46:20Z</time></trkpt><trkpt lat="59.0972828865" lon="30.0131464005"><time>2026-04-22T14:46:22Z</time></trkpt><trkpt lat="59.0973043442" lon="30.0131034851"><time>2026-04-22T14:46:25Z</time></trkpt><trkpt lat="59.0972828865" lon="30.0130820274"><time>2026-04-22T14:46:27Z</time></trkpt><trkpt lat="59.0972828865" lon="30.0130391121"><time>2026-04-22T14:46:30Z</time></trkpt><trkpt lat="59.0972828865" lon="30.0130176544"><time>2026-04-22T14:46:32Z</time></trkpt><trkpt lat="59.0972828865" lon="30.0130176544"><time>2026-04-22T14:46:35Z</time></trkpt><trkpt lat="59.0972828865" lon="30.0129961967"><time>2026-04-22T14:46:37Z</time></trkpt><trkpt lat="59.0972614288" lon="30.0129747391"><time>2026-04-22T14:46:40Z</time></trkpt><trkpt lat="59.0972614288" lon="30.0129747391"><time>2026-04-22T14:46:42Z</time></trkpt><trkpt lat="59.0972614288" lon="30.0129103661"><time>2026-04-22T14:46:45Z</time></trkpt><trkpt lat="59.0972614288" lon="30.0128674507"><time>2026-04-22T14:46:47Z</time></trkpt><trkpt lat="59.0972614288" lon="30.0128245354"><time>2026-04-22T14:46:50Z</time></trkpt><trkpt lat="59.0972614288" lon="30.0128245354"><time>2026-04-22T14:46:52Z</time></trkpt><trkpt lat="59.0972614288" lon="30.0128245354"><time>2026-04-22T14:46:55Z</time></trkpt><trkpt lat="59.0972614288" lon="30.0128245354"><time>2026-04-22T14:46:57Z</time></trkpt><trkpt lat="59.0972614288" lon="30.0128245354"><time>2026-04-22T14:47:00Z</time></trkpt><trkpt lat="59.0972614288" lon="30.0128245354"><time>2026-04-22T14:47:02Z</time></trkpt><trkpt lat="59.0972614288" lon="30.0128245354"><time>2026-04-22T14:47:05Z</time></trkpt><trkpt lat="59.0972614288" lon="30.0128245354"><time>2026-04-22T14:47:07Z</time></trkpt><trkpt lat="59.0972399712" lon="30.0127601624"><time>2026-04-22T14:47:10Z</time></trkpt><trkpt lat="59.0972185135" lon="30.0127172470"><time>2026-04-22T14:47:12Z</time></trkpt><trkpt lat="59.0971970558" lon="30.0126314163"><time>2026-04-22T14:47:15Z</time></trkpt><trkpt lat="59.0971970558" lon="30.0125885010"><time>2026-04-22T14:47:17Z</time></trkpt><trkpt lat="59.0971755981" lon="30.0125026703"><time>2026-04-22T14:47:20Z</time></trkpt><trkpt lat="59.0971541405" lon="30.0124597549"><time>2026-04-22T14:47:22Z</time></trkpt><trkpt lat="59.0971541405" lon="30.0124382973"><time>2026-04-22T14:47:25Z</time></trkpt><trkpt lat="59.0971541405" lon="30.0124382973"><time>2026-04-22T14:47:27Z</time></trkpt><trkpt lat="59.0971755981" lon="30.0123739243"><time>2026-04-22T14:47:30Z</time></trkpt><trkpt lat="59.0971755981" lon="30.0123739243"><time>2026-04-22T14:47:32Z</time></trkpt><trkpt lat="59.0971755981" lon="30.0123524666"><time>2026-04-22T14:47:35Z</time></trkpt><trkpt lat="59.0971755981" lon="30.0123524666"><time>2026-04-22T14:47:37Z</time></trkpt><trkpt lat="59.0971755981" lon="30.0123524666"><time>2026-04-22T14:47:40Z</time></trkpt><trkpt lat="59.0971755981" lon="30.0123524666"><time>2026-04-22T14:47:42Z</time></trkpt><trkpt lat="59.0971755981" lon="30.0123310089"><time>2026-04-22T14:47:45Z</time></trkpt><trkpt lat="59.0971541405" lon="30.0122880936"><time>2026-04-22T14:47:47Z</time></trkpt><trkpt lat="59.0971326828" lon="30.0122451782"><time>2026-04-22T14:47:50Z</time></trkpt><trkpt lat="59.0971326828" lon="30.0122237206"><time>2026-04-22T14:47:52Z</time></trkpt><trkpt lat="59.0971326828" lon="30.0122237206"><time>2026-04-22T14:47:55Z</time></trkpt><trkpt lat="59.0971326828" lon="30.0122237206"><time>2026-04-22T14:47:57Z</time></trkpt><trkpt lat="59.0971112251" lon="30.0121808052"><time>2026-04-22T14:48:00Z</time></trkpt><trkpt lat="59.0971112251" lon="30.0121808052"><time>2026-04-22T14:48:02Z</time></trkpt><trkpt lat="59.0971326828" lon="30.0121378899"><time>2026-04-22T14:48:05Z</time></trkpt><trkpt lat="59.0971326828" lon="30.0120520592"><time>2026-04-22T14:48:07Z</time></trkpt><trkpt lat="59.0971326828" lon="30.0120520592"><time>2026-04-22T14:48:10Z</time></trkpt><trkpt lat="59.0970897675" lon="30.0119662285"><time>2026-04-22T14:48:12Z</time></trkpt><trkpt lat="59.0970897675" lon="30.0118803978"><time>2026-04-22T14:48:15Z</time></trkpt><trkpt lat="59.0971112251" lon="30.0118374825"><time>2026-04-22T14:48:17Z</time></trkpt><trkpt lat="59.0970683098" lon="30.0118160248"><time>2026-04-22T14:48:20Z</time></trkpt><trkpt lat="59.0970683098" lon="30.0117945671"><time>2026-04-22T14:48:22Z</time></trkpt><trkpt lat="59.0970468521" lon="30.0117301941"><time>2026-04-22T14:48:25Z</time></trkpt><trkpt lat="59.0970468521" lon="30.0117087364"><time>2026-04-22T14:48:27Z</time></trkpt><trkpt lat="59.0970253944" lon="30.0116872787"><time>2026-04-22T14:48:30Z</time></trkpt><trkpt lat="59.0970039368" lon="30.0116872787"><time>2026-04-22T14:48:32Z</time></trkpt><trkpt lat="59.0969824791" lon="30.0116443634"><time>2026-04-22T14:48:35Z</time></trkpt><trkpt lat="59.0969824791" lon="30.0116443634"><time>2026-04-22T14:48:37Z</time></trkpt><trkpt lat="59.0969824791" lon="30.0116443634"><time>2026-04-22T14:48:40Z</time></trkpt><trkpt lat="59.0969824791" lon="30.0116443634"><time>2026-04-22T14:48:42Z</time></trkpt><trkpt lat="59.0969824791" lon="30.0116443634"><time>2026-04-22T14:48:45Z</time></trkpt><trkpt lat="59.0969824791" lon="30.0116014481"><time>2026-04-22T14:48:47Z</time></trkpt><trkpt lat="59.0969610214" lon="30.0114941597"><time>2026-04-22T14:48:50Z</time></trkpt><trkpt lat="59.0969610214" lon="30.0114727020"><time>2026-04-22T14:48:52Z</time></trkpt><trkpt lat="59.0969610214" lon="30.0114727020"><time>2026-04-22T14:48:55Z</time></trkpt><trkpt lat="59.0969610214" lon="30.0114727020"><time>2026-04-22T14:48:57Z</time></trkpt><trkpt lat="59.0969610214" lon="30.0114727020"><time>2026-04-22T14:49:00Z</time></trkpt><trkpt lat="59.0969610214" lon="30.0114512444"><time>2026-04-22T14:49:02Z</time></trkpt><trkpt lat="59.0969610214" lon="30.0113439560"><time>2026-04-22T14:49:05Z</time></trkpt><trkpt lat="59.0969610214" lon="30.0113010406"><time>2026-04-22T14:49:07Z</time></trkpt><trkpt lat="59.0969395638" lon="30.0112366676"><time>2026-04-22T14:49:10Z</time></trkpt><trkpt lat="59.0969395638" lon="30.0111937523"><time>2026-04-22T14:49:12Z</time></trkpt><trkpt lat="59.0969181061" lon="30.0111508369"><time>2026-04-22T14:49:15Z</time></trkpt><trkpt lat="59.0968966484" lon="30.0111079216"><time>2026-04-22T14:49:17Z</time></trkpt><trkpt lat="59.0968966484" lon="30.0110435486"><time>2026-04-22T14:49:20Z</time></trkpt><trkpt lat="59.0968751907" lon="30.0110220909"><time>2026-04-22T14:49:22Z</time></trkpt><trkpt lat="59.0968751907" lon="30.0110006332"><time>2026-04-22T14:49:25Z</time></trkpt><trkpt lat="59.0968751907" lon="30.0109791756"><time>2026-04-22T14:49:27Z</time></trkpt><trkpt lat="59.0968966484" lon="30.0109791756"><time>2026-04-22T14:49:30Z</time></trkpt><trkpt lat="59.0968966484" lon="30.0109791756"><time>2026-04-22T14:49:32Z</time></trkpt><trkpt lat="59.0968966484" lon="30.0109362602"><time>2026-04-22T14:49:35Z</time></trkpt><trkpt lat="59.0968966484" lon="30.0109148026"><time>2026-04-22T14:49:37Z</time></trkpt><trkpt lat="59.0968751907" lon="30.0108933449"><time>2026-04-22T14:49:40Z</time></trkpt><trkpt lat="59.0968751907" lon="30.0108504295"><time>2026-04-22T14:49:42Z</time></trkpt><trkpt lat="59.0968537331" lon="30.0108075142"><time>2026-04-22T14:49:45Z</time></trkpt><trkpt lat="59.0968537331" lon="30.0107645988"><time>2026-04-22T14:49:47Z</time></trkpt><trkpt lat="59.0968322754" lon="30.0107216835"><time>2026-04-22T14:49:50Z</time></trkpt><trkpt lat="59.0968537331" lon="30.0107002258"><time>2026-04-22T14:49:52Z</time></trkpt><trkpt lat="59.0968537331" lon="30.0106358528"><time>2026-04-22T14:49:55Z</time></trkpt><trkpt lat="59.0968537331" lon="30.0106143951"><time>2026-04-22T14:49:57Z</time></trkpt><trkpt lat="59.0968751907" lon="30.0105929375"><time>2026-04-22T14:50:00Z</time></trkpt><trkpt lat="59.0968751907" lon="30.0105714798"><time>2026-04-22T14:50:02Z</time></trkpt><trkpt lat="59.0968537331" lon="30.0105929375"><time>2026-04-22T14:50:05Z</time></trkpt><trkpt lat="59.0968322754" lon="30.0105714798"><time>2026-04-22T14:50:07Z</time></trkpt><trkpt lat="59.0968322754" lon="30.0105714798"><time>2026-04-22T14:50:10Z</time></trkpt><trkpt lat="59.0968322754" lon="30.0105500221"><time>2026-04-22T14:50:12Z</time></trkpt><trkpt lat="59.0968322754" lon="30.0105285645"><time>2026-04-22T14:50:15Z</time></trkpt><trkpt lat="59.0968322754" lon="30.0105285645"><time>2026-04-22T14:50:17Z</time></trkpt><trkpt lat="59.0968322754" lon="30.0104641914"><time>2026-04-22T14:50:20Z</time></trkpt><trkpt lat="59.0968537331" lon="30.0104212761"><time>2026-04-22T14:50:22Z</time></trkpt><trkpt lat="59.0968322754" lon="30.0103783607"><time>2026-04-22T14:50:25Z</time></trkpt><trkpt lat="59.0968322754" lon="30.0103354454"><time>2026-04-22T14:50:27Z</time></trkpt><trkpt lat="59.0968108177" lon="30.0102925301"><time>2026-04-22T14:50:30Z</time></trkpt><trkpt lat="59.0968108177" lon="30.0102710724"><time>2026-04-22T14:50:32Z</time></trkpt><trkpt lat="59.0968108177" lon="30.0102496147"><time>2026-04-22T14:50:35Z</time></trkpt><trkpt lat="59.0968108177" lon="30.0102496147"><time>2026-04-22T14:50:37Z</time></trkpt><trkpt lat="59.0968108177" lon="30.0102496147"><time>2026-04-22T14:50:40Z</time></trkpt><trkpt lat="59.0968108177" lon="30.0102066994"><time>2026-04-22T14:50:42Z</time></trkpt><trkpt lat="59.0968322754" lon="30.0102066994"><time>2026-04-22T14:50:45Z</time></trkpt><trkpt lat="59.0968322754" lon="30.0102066994"><time>2026-04-22T14:50:47Z</time></trkpt><trkpt lat="59.0968322754" lon="30.0102066994"><time>2026-04-22T14:50:50Z</time></trkpt><trkpt lat="59.0968322754" lon="30.0101637840"><time>2026-04-22T14:50:52Z</time></trkpt><trkpt lat="59.0968537331" lon="30.0101208687"><time>2026-04-22T14:50:55Z</time></trkpt><trkpt lat="59.0968537331" lon="30.0101208687"><time>2026-04-22T14:50:57Z</time></trkpt><trkpt lat="59.0968537331" lon="30.0100994110"><time>2026-04-22T14:51:00Z</time></trkpt><trkpt lat="59.0968537331" lon="30.0100994110"><time>2026-04-22T14:51:02Z</time></trkpt><trkpt lat="59.0968537331" lon="30.0100994110"><time>2026-04-22T14:51:05Z</time></trkpt><trkpt lat="59.0968537331" lon="30.0100994110"><time>2026-04-22T14:51:07Z</time></trkpt><trkpt lat="59.0968537331" lon="30.0100994110"><time>2026-04-22T14:51:10Z</time></trkpt><trkpt lat="59.0968537331" lon="30.0100994110"><time>2026-04-22T14:51:12Z</time></trkpt><trkpt lat="59.0968537331" lon="30.0100994110"><time>2026-04-22T14:51:15Z</time></trkpt><trkpt lat="59.0968537331" lon="30.0100994110"><time>2026-04-22T14:51:17Z</time></trkpt><trkpt lat="59.0968537331" lon="30.0100994110"><time>2026-04-22T14:51:20Z</time></trkpt><trkpt lat="59.0968537331" lon="30.0100994110"><time>2026-04-22T14:51:22Z</time></trkpt><trkpt lat="59.0968537331" lon="30.0100994110"><time>2026-04-22T14:51:25Z</time></trkpt><trkpt lat="59.0968537331" lon="30.0100779533"><time>2026-04-22T14:51:27Z</time></trkpt><trkpt lat="59.0968537331" lon="30.0100564957"><time>2026-04-22T14:51:30Z</time></trkpt><trkpt lat="59.0968537331" lon="30.0100350380"><time>2026-04-22T14:51:32Z</time></trkpt><trkpt lat="59.0968537331" lon="30.0100350380"><time>2026-04-22T14:51:35Z</time></trkpt><trkpt lat="59.0968537331" lon="30.0100350380"><time>2026-04-22T14:51:37Z</time></trkpt><trkpt lat="59.0968537331" lon="30.0100350380"><time>2026-04-22T14:51:40Z</time></trkpt><trkpt lat="59.0968537331" lon="30.0100350380"><time>2026-04-22T14:51:42Z</time></trkpt><trkpt lat="59.0968537331" lon="30.0100350380"><time>2026-04-22T14:51:45Z</time></trkpt><trkpt lat="59.0968537331" lon="30.0100350380"><time>2026-04-22T14:51:47Z</time></trkpt><trkpt lat="59.0968537331" lon="30.0100350380"><time>2026-04-22T14:51:50Z</time></trkpt><trkpt lat="59.0968537331" lon="30.0100350380"><time>2026-04-22T14:51:52Z</time></trkpt><trkpt lat="59.0968537331" lon="30.0100350380"><time>2026-04-22T14:51:55Z</time></trkpt><trkpt lat="59.0968537331" lon="30.0100350380"><time>2026-04-22T14:51:57Z</time></trkpt><trkpt lat="59.0968537331" lon="30.0100350380"><time>2026-04-22T14:52:00Z</time></trkpt><trkpt lat="59.0968537331" lon="30.0100350380"><time>2026-04-22T14:52:02Z</time></trkpt><trkpt lat="59.0968751907" lon="30.0099062920"><time>2026-04-22T14:52:05Z</time></trkpt><trkpt lat="59.0968751907" lon="30.0098419189"><time>2026-04-22T14:52:07Z</time></trkpt><trkpt lat="59.0968966484" lon="30.0097560883"><time>2026-04-22T14:52:10Z</time></trkpt><trkpt lat="59.0968966484" lon="30.0096702576"><time>2026-04-22T14:52:12Z</time></trkpt><trkpt lat="59.0969181061" lon="30.0095844269"><time>2026-04-22T14:52:15Z</time></trkpt><trkpt lat="59.0969395638" lon="30.0095200539"><time>2026-04-22T14:52:17Z</time></trkpt><trkpt lat="59.0969610214" lon="30.0094556808"><time>2026-04-22T14:52:20Z</time></trkpt><trkpt lat="59.0969395638" lon="30.0094342232"><time>2026-04-22T14:52:22Z</time></trkpt><trkpt lat="59.0969395638" lon="30.0093913078"><time>2026-04-22T14:52:25Z</time></trkpt><trkpt lat="59.0969395638" lon="30.0093483925"><time>2026-04-22T14:52:27Z</time></trkpt><trkpt lat="59.0969395638" lon="30.0092840195"><time>2026-04-22T14:52:30Z</time></trkpt><trkpt lat="59.0969395638" lon="30.0092625618"><time>2026-04-22T14:52:32Z</time></trkpt><trkpt lat="59.0969395638" lon="30.0092196465"><time>2026-04-22T14:52:35Z</time></trkpt><trkpt lat="59.0969395638" lon="30.0091767311"><time>2026-04-22T14:52:37Z</time></trkpt><trkpt lat="59.0969395638" lon="30.0091767311"><time>2026-04-22T14:52:40Z</time></trkpt><trkpt lat="59.0969181061" lon="30.0091552734"><time>2026-04-22T14:52:42Z</time></trkpt><trkpt lat="59.0969181061" lon="30.0091123581"><time>2026-04-22T14:52:45Z</time></trkpt><trkpt lat="59.0968966484" lon="30.0090909004"><time>2026-04-22T14:52:47Z</time></trkpt><trkpt lat="59.0968966484" lon="30.0090909004"><time>2026-04-22T14:52:50Z</time></trkpt><trkpt lat="59.0968966484" lon="30.0090909004"><time>2026-04-22T14:52:52Z</time></trkpt><trkpt lat="59.0968966484" lon="30.0090909004"><time>2026-04-22T14:52:55Z</time></trkpt><trkpt lat="59.0968966484" lon="30.0089836121"><time>2026-04-22T14:52:57Z</time></trkpt><trkpt lat="59.0968966484" lon="30.0089621544"><time>2026-04-22T14:53:00Z</time></trkpt><trkpt lat="59.0968751907" lon="30.0089406967"><time>2026-04-22T14:53:02Z</time></trkpt><trkpt lat="59.0968537331" lon="30.0088977814"><time>2026-04-22T14:53:05Z</time></trkpt><trkpt lat="59.0968322754" lon="30.0088763237"><time>2026-04-22T14:53:07Z</time></trkpt><trkpt lat="59.0968322754" lon="30.0088548660"><time>2026-04-22T14:53:10Z</time></trkpt><trkpt lat="59.0967893600" lon="30.0088548660"><time>2026-04-22T14:53:12Z</time></trkpt><trkpt lat="59.0967679024" lon="30.0088119507"><time>2026-04-22T14:53:15Z</time></trkpt><trkpt lat="59.0967679024" lon="30.0087904930"><time>2026-04-22T14:53:17Z</time></trkpt><trkpt lat="59.0967464447" lon="30.0087261200"><time>2026-04-22T14:53:20Z</time></trkpt><trkpt lat="59.0967035294" lon="30.0087046623"><time>2026-04-22T14:53:22Z</time></trkpt><trkpt lat="59.0966606140" lon="30.0086832047"><time>2026-04-22T14:53:25Z</time></trkpt><trkpt lat="59.0966391563" lon="30.0086617470"><time>2026-04-22T14:53:27Z</time></trkpt><trkpt lat="59.0966176987" lon="30.0086617470"><time>2026-04-22T14:53:30Z</time></trkpt><trkpt lat="59.0965962410" lon="30.0086617470"><time>2026-04-22T14:53:32Z</time></trkpt><trkpt lat="59.0965962410" lon="30.0086188316"><time>2026-04-22T14:53:35Z</time></trkpt><trkpt lat="59.0965962410" lon="30.0086188316"><time>2026-04-22T14:53:37Z</time></trkpt><trkpt lat="59.0965747833" lon="30.0085759163"><time>2026-04-22T14:53:40Z</time></trkpt><trkpt lat="59.0965533257" lon="30.0085544586"><time>2026-04-22T14:53:42Z</time></trkpt><trkpt lat="59.0965318680" lon="30.0085115433"><time>2026-04-22T14:53:45Z</time></trkpt><trkpt lat="59.0964889526" lon="30.0084471703"><time>2026-04-22T14:53:47Z</time></trkpt><trkpt lat="59.0964889526" lon="30.0084042549"><time>2026-04-22T14:53:50Z</time></trkpt><trkpt lat="59.0964460373" lon="30.0083827972"><time>2026-04-22T14:53:52Z</time></trkpt><trkpt lat="59.0964245796" lon="30.0083184242"><time>2026-04-22T14:53:55Z</time></trkpt><trkpt lat="59.0964245796" lon="30.0082969666"><time>2026-04-22T14:53:57Z</time></trkpt><trkpt lat="59.0964460373" lon="30.0082540512"><time>2026-04-22T14:54:00Z</time></trkpt><trkpt lat="59.0964460373" lon="30.0082111359"><time>2026-04-22T14:54:02Z</time></trkpt><trkpt lat="59.0964674950" lon="30.0081467628"><time>2026-04-22T14:54:05Z</time></trkpt><trkpt lat="59.0964460373" lon="30.0081038475"><time>2026-04-22T14:54:07Z</time></trkpt><trkpt lat="59.0964245796" lon="30.0080394745"><time>2026-04-22T14:54:10Z</time></trkpt><trkpt lat="59.0964245796" lon="30.0080180168"><time>2026-04-22T14:54:12Z</time></trkpt><trkpt lat="59.0964245796" lon="30.0079965591"><time>2026-04-22T14:54:15Z</time></trkpt><trkpt lat="59.0964245796" lon="30.0079751015"><time>2026-04-22T14:54:17Z</time></trkpt><trkpt lat="59.0964031219" lon="30.0079536438"><time>2026-04-22T14:54:20Z</time></trkpt><trkpt lat="59.0964031219" lon="30.0079321861"><time>2026-04-22T14:54:22Z</time></trkpt><trkpt lat="59.0964031219" lon="30.0078892708"><time>2026-04-22T14:54:25Z</time></trkpt><trkpt lat="59.0964031219" lon="30.0078678131"><time>2026-04-22T14:54:27Z</time></trkpt><trkpt lat="59.0964245796" lon="30.0078034401"><time>2026-04-22T14:54:30Z</time></trkpt><trkpt lat="59.0964031219" lon="30.0077605247"><time>2026-04-22T14:54:32Z</time></trkpt><trkpt lat="59.0964031219" lon="30.0077390671"><time>2026-04-22T14:54:35Z</time></trkpt><trkpt lat="59.0964031219" lon="30.0077390671"><time>2026-04-22T14:54:37Z</time></trkpt><trkpt lat="59.0964031219" lon="30.0076961517"><time>2026-04-22T14:54:40Z</time></trkpt><trkpt lat="59.0964245796" lon="30.0076532364"><time>2026-04-22T14:54:42Z</time></trkpt><trkpt lat="59.0964460373" lon="30.0075674057"><time>2026-04-22T14:54:45Z</time></trkpt><trkpt lat="59.0964460373" lon="30.0075459480"><time>2026-04-22T14:54:47Z</time></trkpt><trkpt lat="59.0964460373" lon="30.0075030327"><time>2026-04-22T14:54:50Z</time></trkpt><trkpt lat="59.0964245796" lon="30.0074815750"><time>2026-04-22T14:54:52Z</time></trkpt><trkpt lat="59.0964245796" lon="30.0074386597"><time>2026-04-22T14:54:55Z</time></trkpt><trkpt lat="59.0964245796" lon="30.0074172020"><time>2026-04-22T14:54:57Z</time></trkpt><trkpt lat="59.0964460373" lon="30.0073957443"><time>2026-04-22T14:55:00Z</time></trkpt><trkpt lat="59.0964460373" lon="30.0073957443"><time>2026-04-22T14:55:02Z</time></trkpt><trkpt lat="59.0964245796" lon="30.0072884560"><time>2026-04-22T14:55:05Z</time></trkpt><trkpt lat="59.0964031219" lon="30.0072455406"><time>2026-04-22T14:55:07Z</time></trkpt><trkpt lat="59.0963816643" lon="30.0071811676"><time>2026-04-22T14:55:10Z</time></trkpt><trkpt lat="59.0963816643" lon="30.0071382523"><time>2026-04-22T14:55:12Z</time></trkpt><trkpt lat="59.0963602066" lon="30.0070953369"><time>2026-04-22T14:55:15Z</time></trkpt><trkpt lat="59.0963387489" lon="30.0070524216"><time>2026-04-22T14:55:17Z</time></trkpt><trkpt lat="59.0963387489" lon="30.0070309639"><time>2026-04-22T14:55:20Z</time></trkpt><trkpt lat="59.0963387489" lon="30.0070095062"><time>2026-04-22T14:55:22Z</time></trkpt><trkpt lat="59.0963387489" lon="30.0069665909"><time>2026-04-22T14:55:25Z</time></trkpt><trkpt lat="59.0963602066" lon="30.0069236755"><time>2026-04-22T14:55:27Z</time></trkpt><trkpt lat="59.0963602066" lon="30.0068593025"><time>2026-04-22T14:55:30Z</time></trkpt><trkpt lat="59.0963602066" lon="30.0068593025"><time>2026-04-22T14:55:32Z</time></trkpt><trkpt lat="59.0963816643" lon="30.0067734718"><time>2026-04-22T14:55:35Z</time></trkpt><trkpt lat="59.0963816643" lon="30.0067090988"><time>2026-04-22T14:55:37Z</time></trkpt><trkpt lat="59.0963387489" lon="30.0067090988"><time>2026-04-22T14:55:40Z</time></trkpt><trkpt lat="59.0963387489" lon="30.0067090988"><time>2026-04-22T14:55:42Z</time></trkpt><trkpt lat="59.0963172913" lon="30.0066876411"><time>2026-04-22T14:55:45Z</time></trkpt><trkpt lat="59.0963172913" lon="30.0066447258"><time>2026-04-22T14:55:47Z</time></trkpt><trkpt lat="59.0963172913" lon="30.0066232681"><time>2026-04-22T14:55:50Z</time></trkpt><trkpt lat="59.0963172913" lon="30.0066232681"><time>2026-04-22T14:55:52Z</time></trkpt><trkpt lat="59.0962958336" lon="30.0066661835"><time>2026-04-22T14:55:55Z</time></trkpt><trkpt lat="59.0962958336" lon="30.0066661835"><time>2026-04-22T14:55:57Z</time></trkpt><trkpt lat="59.0962743759" lon="30.0066661835"><time>2026-04-22T14:56:00Z</time></trkpt><trkpt lat="59.0962743759" lon="30.0066447258"><time>2026-04-22T14:56:02Z</time></trkpt><trkpt lat="59.0962529182" lon="30.0066661835"><time>2026-04-22T14:56:05Z</time></trkpt><trkpt lat="59.0962314606" lon="30.0066876411"><time>2026-04-22T14:56:07Z</time></trkpt><trkpt lat="59.0962314606" lon="30.0066661835"><time>2026-04-22T14:56:10Z</time></trkpt><trkpt lat="59.0962314606" lon="30.0066661835"><time>2026-04-22T14:56:12Z</time></trkpt><trkpt lat="59.0962100029" lon="30.0066661835"><time>2026-04-22T14:56:15Z</time></trkpt><trkpt lat="59.0962100029" lon="30.0066661835"><time>2026-04-22T14:56:17Z</time></trkpt><trkpt lat="59.0962100029" lon="30.0066661835"><time>2026-04-22T14:56:20Z</time></trkpt><trkpt lat="59.0961670876" lon="30.0066661835"><time>2026-04-22T14:56:22Z</time></trkpt><trkpt lat="59.0961456299" lon="30.0066661835"><time>2026-04-22T14:56:25Z</time></trkpt><trkpt lat="59.0961241722" lon="30.0066661835"><time>2026-04-22T14:56:27Z</time></trkpt><trkpt lat="59.0960812569" lon="30.0066447258"><time>2026-04-22T14:56:30Z</time></trkpt><trkpt lat="59.0960812569" lon="30.0066018105"><time>2026-04-22T14:56:32Z</time></trkpt><trkpt lat="59.0960597992" lon="30.0065803528"><time>2026-04-22T14:56:35Z</time></trkpt><trkpt lat="59.0960383415" lon="30.0065803528"><time>2026-04-22T14:56:37Z</time></trkpt><trkpt lat="59.0960168839" lon="30.0065803528"><time>2026-04-22T14:56:40Z</time></trkpt><trkpt lat="59.0960168839" lon="30.0065803528"><time>2026-04-22T14:56:42Z</time></trkpt><trkpt lat="59.0959739685" lon="30.0065588951"><time>2026-04-22T14:56:45Z</time></trkpt><trkpt lat="59.0959739685" lon="30.0065588951"><time>2026-04-22T14:56:47Z</time></trkpt><trkpt lat="59.0959739685" lon="30.0064730644"><time>2026-04-22T14:56:50Z</time></trkpt><trkpt lat="59.0960168839" lon="30.0064086914"><time>2026-04-22T14:56:52Z</time></trkpt><trkpt lat="59.0960168839" lon="30.0063657761"><time>2026-04-22T14:56:55Z</time></trkpt><trkpt lat="59.0960168839" lon="30.0063443184"><time>2026-04-22T14:56:57Z</time></trkpt><trkpt lat="59.0960168839" lon="30.0063014030"><time>2026-04-22T14:57:00Z</time></trkpt><trkpt lat="59.0960383415" lon="30.0062799454"><time>2026-04-22T14:57:02Z</time></trkpt><trkpt lat="59.0960383415" lon="30.0062370300"><time>2026-04-22T14:57:05Z</time></trkpt><trkpt lat="59.0960383415" lon="30.0062155724"><time>2026-04-22T14:57:07Z</time></trkpt><trkpt lat="59.0960168839" lon="30.0061941147"><time>2026-04-22T14:57:10Z</time></trkpt><trkpt lat="59.0959739685" lon="30.0061726570"><time>2026-04-22T14:57:12Z</time></trkpt><trkpt lat="59.0959739685" lon="30.0061082840"><time>2026-04-22T14:57:15Z</time></trkpt><trkpt lat="59.0959525108" lon="30.0060653687"><time>2026-04-22T14:57:17Z</time></trkpt><trkpt lat="59.0959310532" lon="30.0060224533"><time>2026-04-22T14:57:20Z</time></trkpt><trkpt lat="59.0959310532" lon="30.0060224533"><time>2026-04-22T14:57:22Z</time></trkpt><trkpt lat="59.0958881378" lon="30.0060224533"><time>2026-04-22T14:57:25Z</time></trkpt><trkpt lat="59.0958881378" lon="30.0060224533"><time>2026-04-22T14:57:27Z</time></trkpt><trkpt lat="59.0958881378" lon="30.0060224533"><time>2026-04-22T14:57:30Z</time></trkpt><trkpt lat="59.0958881378" lon="30.0060224533"><time>2026-04-22T14:57:32Z</time></trkpt><trkpt lat="59.0958881378" lon="30.0060224533"><time>2026-04-22T14:57:35Z</time></trkpt><trkpt lat="59.0958881378" lon="30.0060224533"><time>2026-04-22T14:57:37Z</time></trkpt><trkpt lat="59.0958666801" lon="30.0060009956"><time>2026-04-22T14:57:40Z</time></trkpt><trkpt lat="59.0958023071" lon="30.0060009956"><time>2026-04-22T14:57:42Z</time></trkpt><trkpt lat="59.0957808495" lon="30.0060224533"><time>2026-04-22T14:57:45Z</time></trkpt><trkpt lat="59.0957593918" lon="30.0060224533"><time>2026-04-22T14:57:47Z</time></trkpt><trkpt lat="59.0957379341" lon="30.0060868263"><time>2026-04-22T14:57:50Z</time></trkpt><trkpt lat="59.0957164764" lon="30.0061082840"><time>2026-04-22T14:57:52Z</time></trkpt><trkpt lat="59.0957164764" lon="30.0061082840"><time>2026-04-22T14:57:55Z</time></trkpt><trkpt lat="59.0957164764" lon="30.0060653687"><time>2026-04-22T14:57:57Z</time></trkpt><trkpt lat="59.0957164764" lon="30.0060439110"><time>2026-04-22T14:58:00Z</time></trkpt><trkpt lat="59.0957164764" lon="30.0060439110"><time>2026-04-22T14:58:02Z</time></trkpt><trkpt lat="59.0957164764" lon="30.0060439110"><time>2026-04-22T14:58:05Z</time></trkpt><trkpt lat="59.0956950188" lon="30.0060009956"><time>2026-04-22T14:58:07Z</time></trkpt><trkpt lat="59.0956950188" lon="30.0059151649"><time>2026-04-22T14:58:10Z</time></trkpt><trkpt lat="59.0956950188" lon="30.0058937073"><time>2026-04-22T14:58:12Z</time></trkpt><trkpt lat="59.0956950188" lon="30.0058507919"><time>2026-04-22T14:58:15Z</time></trkpt><trkpt lat="59.0956950188" lon="30.0058078766"><time>2026-04-22T14:58:17Z</time></trkpt><trkpt lat="59.0956735611" lon="30.0057435036"><time>2026-04-22T14:58:20Z</time></trkpt><trkpt lat="59.0956735611" lon="30.0057220459"><time>2026-04-22T14:58:22Z</time></trkpt><trkpt lat="59.0956521034" lon="30.0056576729"><time>2026-04-22T14:58:25Z</time></trkpt><trkpt lat="59.0956306458" lon="30.0056362152"><time>2026-04-22T14:58:27Z</time></trkpt><trkpt lat="59.0956091881" lon="30.0055932999"><time>2026-04-22T14:58:30Z</time></trkpt><trkpt lat="59.0955877304" lon="30.0055718422"><time>2026-04-22T14:58:32Z</time></trkpt><trkpt lat="59.0956091881" lon="30.0055503845"><time>2026-04-22T14:58:35Z</time></trkpt><trkpt lat="59.0956091881" lon="30.0055503845"><time>2026-04-22T14:58:37Z</time></trkpt><trkpt lat="59.0956091881" lon="30.0055503845"><time>2026-04-22T14:58:40Z</time></trkpt><trkpt lat="59.0956091881" lon="30.0055503845"><time>2026-04-22T14:58:42Z</time></trkpt><trkpt lat="59.0956091881" lon="30.0055503845"><time>2026-04-22T14:58:45Z</time></trkpt><trkpt lat="59.0956091881" lon="30.0055503845"><time>2026-04-22T14:58:47Z</time></trkpt><trkpt lat="59.0956091881" lon="30.0055503845"><time>2026-04-22T14:58:50Z</time></trkpt><trkpt lat="59.0956091881" lon="30.0055289268"><time>2026-04-22T14:58:52Z</time></trkpt><trkpt lat="59.0956306458" lon="30.0055503845"><time>2026-04-22T14:58:55Z</time></trkpt><trkpt lat="59.0956306458" lon="30.0055503845"><time>2026-04-22T14:58:57Z</time></trkpt><trkpt lat="59.0956306458" lon="30.0055503845"><time>2026-04-22T14:59:00Z</time></trkpt><trkpt lat="59.0956306458" lon="30.0055503845"><time>2026-04-22T14:59:02Z</time></trkpt><trkpt lat="59.0956091881" lon="30.0055289268"><time>2026-04-22T14:59:05Z</time></trkpt><trkpt lat="59.0955877304" lon="30.0054860115"><time>2026-04-22T14:59:07Z</time></trkpt><trkpt lat="59.0955877304" lon="30.0054216385"><time>2026-04-22T14:59:10Z</time></trkpt><trkpt lat="59.0955662727" lon="30.0054001808"><time>2026-04-22T14:59:12Z</time></trkpt><trkpt lat="59.0955448151" lon="30.0053572655"><time>2026-04-22T14:59:15Z</time></trkpt><trkpt lat="59.0955233574" lon="30.0053143501"><time>2026-04-22T14:59:17Z</time></trkpt><trkpt lat="59.0955018997" lon="30.0052499771"><time>2026-04-22T14:59:20Z</time></trkpt><trkpt lat="59.0955018997" lon="30.0052070618"><time>2026-04-22T14:59:22Z</time></trkpt><trkpt lat="59.0955018997" lon="30.0051426888"><time>2026-04-22T14:59:25Z</time></trkpt><trkpt lat="59.0954804420" lon="30.0051212311"><time>2026-04-22T14:59:27Z</time></trkpt><trkpt lat="59.0954589844" lon="30.0050783157"><time>2026-04-22T14:59:30Z</time></trkpt><trkpt lat="59.0954589844" lon="30.0050568581"><time>2026-04-22T14:59:32Z</time></trkpt><trkpt lat="59.0954375267" lon="30.0050139427"><time>2026-04-22T14:59:35Z</time></trkpt><trkpt lat="59.0954375267" lon="30.0049710274"><time>2026-04-22T14:59:37Z</time></trkpt><trkpt lat="59.0954160690" lon="30.0049066544"><time>2026-04-22T14:59:40Z</time></trkpt><trkpt lat="59.0954160690" lon="30.0048851967"><time>2026-04-22T14:59:42Z</time></trkpt><trkpt lat="59.0953946114" lon="30.0048208237"><time>2026-04-22T14:59:45Z</time></trkpt><trkpt lat="59.0953731537" lon="30.0047993660"><time>2026-04-22T14:59:47Z</time></trkpt><trkpt lat="59.0953516960" lon="30.0047349930"><time>2026-04-22T14:59:50Z</time></trkpt><trkpt lat="59.0953516960" lon="30.0046920776"><time>2026-04-22T14:59:52Z</time></trkpt><trkpt lat="59.0953731537" lon="30.0046062469"><time>2026-04-22T14:59:55Z</time></trkpt><trkpt lat="59.0953946114" lon="30.0046062469"><time>2026-04-22T14:59:57Z</time></trkpt><trkpt lat="59.0953946114" lon="30.0046062469"><time>2026-04-22T15:00:00Z</time></trkpt><trkpt lat="59.0953946114" lon="30.0045847893"><time>2026-04-22T15:00:02Z</time></trkpt><trkpt lat="59.0953731537" lon="30.0045418739"><time>2026-04-22T15:00:05Z</time></trkpt><trkpt lat="59.0953731537" lon="30.0044989586"><time>2026-04-22T15:00:07Z</time></trkpt><trkpt lat="59.0953731537" lon="30.0044345856"><time>2026-04-22T15:00:10Z</time></trkpt><trkpt lat="59.0953731537" lon="30.0044131279"><time>2026-04-22T15:00:12Z</time></trkpt><trkpt lat="59.0953731537" lon="30.0044131279"><time>2026-04-22T15:00:15Z</time></trkpt><trkpt lat="59.0953731537" lon="30.0044131279"><time>2026-04-22T15:00:17Z</time></trkpt><trkpt lat="59.0953731537" lon="30.0044131279"><time>2026-04-22T15:00:20Z</time></trkpt><trkpt lat="59.0953731537" lon="30.0043916702"><time>2026-04-22T15:00:22Z</time></trkpt><trkpt lat="59.0953731537" lon="30.0043916702"><time>2026-04-22T15:00:25Z</time></trkpt><trkpt lat="59.0953731537" lon="30.0043916702"><time>2026-04-22T15:00:27Z</time></trkpt><trkpt lat="59.0953731537" lon="30.0043702126"><time>2026-04-22T15:00:30Z</time></trkpt><trkpt lat="59.0953731537" lon="30.0043702126"><time>2026-04-22T15:00:32Z</time></trkpt><trkpt lat="59.0953731537" lon="30.0043487549"><time>2026-04-22T15:00:35Z</time></trkpt><trkpt lat="59.0953731537" lon="30.0043487549"><time>2026-04-22T15:00:37Z</time></trkpt><trkpt lat="59.0953516960" lon="30.0043272972"><time>2026-04-22T15:00:40Z</time></trkpt><trkpt lat="59.0953731537" lon="30.0042629242"><time>2026-04-22T15:00:42Z</time></trkpt><trkpt lat="59.0953731537" lon="30.0042200089"><time>2026-04-22T15:00:45Z</time></trkpt><trkpt lat="59.0953731537" lon="30.0042200089"><time>2026-04-22T15:00:47Z</time></trkpt><trkpt lat="59.0953731537" lon="30.0041985512"><time>2026-04-22T15:00:50Z</time></trkpt><trkpt lat="59.0953516960" lon="30.0041341782"><time>2026-04-22T15:00:52Z</time></trkpt><trkpt lat="59.0953516960" lon="30.0041127205"><time>2026-04-22T15:00:55Z</time></trkpt><trkpt lat="59.0953516960" lon="30.0041127205"><time>2026-04-22T15:00:57Z</time></trkpt><trkpt lat="59.0953302383" lon="30.0040912628"><time>2026-04-22T15:01:00Z</time></trkpt><trkpt lat="59.0953302383" lon="30.0040483475"><time>2026-04-22T15:01:02Z</time></trkpt><trkpt lat="59.0953302383" lon="30.0039839745"><time>2026-04-22T15:01:05Z</time></trkpt><trkpt lat="59.0953087807" lon="30.0039625168"><time>2026-04-22T15:01:07Z</time></trkpt><trkpt lat="59.0952873230" lon="30.0039196014"><time>2026-04-22T15:01:10Z</time></trkpt><trkpt lat="59.0952658653" lon="30.0038981438"><time>2026-04-22T15:01:12Z</time></trkpt><trkpt lat="59.0952658653" lon="30.0038552284"><time>2026-04-22T15:01:15Z</time></trkpt><trkpt lat="59.0952658653" lon="30.0038123131"><time>2026-04-22T15:01:17Z</time></trkpt><trkpt lat="59.0952658653" lon="30.0037693977"><time>2026-04-22T15:01:20Z</time></trkpt><trkpt lat="59.0952444077" lon="30.0037479401"><time>2026-04-22T15:01:22Z</time></trkpt><trkpt lat="59.0952658653" lon="30.0036835670"><time>2026-04-22T15:01:25Z</time></trkpt><trkpt lat="59.0952658653" lon="30.0036621094"><time>2026-04-22T15:01:27Z</time></trkpt><trkpt lat="59.0952444077" lon="30.0036191940"><time>2026-04-22T15:01:30Z</time></trkpt><trkpt lat="59.0952229500" lon="30.0035977364"><time>2026-04-22T15:01:32Z</time></trkpt><trkpt lat="59.0952014923" lon="30.0035548210"><time>2026-04-22T15:01:35Z</time></trkpt><trkpt lat="59.0951800346" lon="30.0035333633"><time>2026-04-22T15:01:37Z</time></trkpt><trkpt lat="59.0952444077" lon="30.0034260750"><time>2026-04-22T15:01:40Z</time></trkpt><trkpt lat="59.0952444077" lon="30.0033617020"><time>2026-04-22T15:01:42Z</time></trkpt><trkpt lat="59.0952444077" lon="30.0033187866"><time>2026-04-22T15:01:45Z</time></trkpt><trkpt lat="59.0952444077" lon="30.0032758713"><time>2026-04-22T15:01:47Z</time></trkpt><trkpt lat="59.0952229500" lon="30.0032544136"><time>2026-04-22T15:01:50Z</time></trkpt><trkpt lat="59.0952229500" lon="30.0032329559"><time>2026-04-22T15:01:52Z</time></trkpt><trkpt lat="59.0952014923" lon="30.0032114983"><time>2026-04-22T15:01:55Z</time></trkpt><trkpt lat="59.0951800346" lon="30.0032114983"><time>2026-04-22T15:01:57Z</time></trkpt><trkpt lat="59.0951585770" lon="30.0031900406"><time>2026-04-22T15:02:00Z</time></trkpt><trkpt lat="59.0951800346" lon="30.0031471252"><time>2026-04-22T15:02:02Z</time></trkpt><trkpt lat="59.0951800346" lon="30.0031042099"><time>2026-04-22T15:02:05Z</time></trkpt><trkpt lat="59.0951800346" lon="30.0030827522"><time>2026-04-22T15:02:07Z</time></trkpt><trkpt lat="59.0951800346" lon="30.0030398369"><time>2026-04-22T15:02:10Z</time></trkpt><trkpt lat="59.0951800346" lon="30.0029969215"><time>2026-04-22T15:02:12Z</time></trkpt><trkpt lat="59.0952014923" lon="30.0029325485"><time>2026-04-22T15:02:15Z</time></trkpt><trkpt lat="59.0952229500" lon="30.0029110909"><time>2026-04-22T15:02:17Z</time></trkpt><trkpt lat="59.0951800346" lon="30.0028681755"><time>2026-04-22T15:02:20Z</time></trkpt><trkpt lat="59.0951585770" lon="30.0028252602"><time>2026-04-22T15:02:22Z</time></trkpt><trkpt lat="59.0951585770" lon="30.0027823448"><time>2026-04-22T15:02:25Z</time></trkpt><trkpt lat="59.0951371193" lon="30.0027394295"><time>2026-04-22T15:02:27Z</time></trkpt><trkpt lat="59.0951371193" lon="30.0026965141"><time>2026-04-22T15:02:30Z</time></trkpt><trkpt lat="59.0951371193" lon="30.0026535988"><time>2026-04-22T15:02:32Z</time></trkpt><trkpt lat="59.0951371193" lon="30.0025892258"><time>2026-04-22T15:02:35Z</time></trkpt><trkpt lat="59.0951156616" lon="30.0025677681"><time>2026-04-22T15:02:37Z</time></trkpt><trkpt lat="59.0951156616" lon="30.0025677681"><time>2026-04-22T15:02:40Z</time></trkpt><trkpt lat="59.0951156616" lon="30.0025677681"><time>2026-04-22T15:02:42Z</time></trkpt><trkpt lat="59.0951156616" lon="30.0025677681"><time>2026-04-22T15:02:45Z</time></trkpt><trkpt lat="59.0951156616" lon="30.0025677681"><time>2026-04-22T15:02:47Z</time></trkpt><trkpt lat="59.0951156616" lon="30.0025677681"><time>2026-04-22T15:02:50Z</time></trkpt><trkpt lat="59.0950942039" lon="30.0025677681"><time>2026-04-22T15:02:52Z</time></trkpt><trkpt lat="59.0950942039" lon="30.0025677681"><time>2026-04-22T15:02:55Z</time></trkpt><trkpt lat="59.0950942039" lon="30.0025677681"><time>2026-04-22T15:02:57Z</time></trkpt><trkpt lat="59.0950942039" lon="30.0025677681"><time>2026-04-22T15:03:00Z</time></trkpt><trkpt lat="59.0950942039" lon="30.0025677681"><time>2026-04-22T15:03:02Z</time></trkpt><trkpt lat="59.0950942039" lon="30.0025677681"><time>2026-04-22T15:03:05Z</time></trkpt><trkpt lat="59.0950942039" lon="30.0025677681"><time>2026-04-22T15:03:07Z</time></trkpt><trkpt lat="59.0950942039" lon="30.0025677681"><time>2026-04-22T15:03:10Z</time></trkpt><trkpt lat="59.0950942039" lon="30.0025677681"><time>2026-04-22T15:03:12Z</time></trkpt><trkpt lat="59.0950942039" lon="30.0025677681"><time>2026-04-22T15:03:15Z</time></trkpt><trkpt lat="59.0950942039" lon="30.0025677681"><time>2026-04-22T15:03:17Z</time></trkpt><trkpt lat="59.0950942039" lon="30.0025677681"><time>2026-04-22T15:03:20Z</time></trkpt><trkpt lat="59.0950942039" lon="30.0025677681"><time>2026-04-22T15:03:22Z</time></trkpt><trkpt lat="59.0950942039" lon="30.0025677681"><time>2026-04-22T15:03:25Z</time></trkpt><trkpt lat="59.0950942039" lon="30.0025677681"><time>2026-04-22T15:03:27Z</time></trkpt><trkpt lat="59.0950942039" lon="30.0025677681"><time>2026-04-22T15:03:30Z</time></trkpt><trkpt lat="59.0950942039" lon="30.0025677681"><time>2026-04-22T15:03:32Z</time></trkpt><trkpt lat="59.0950942039" lon="30.0024604797"><time>2026-04-22T15:03:35Z</time></trkpt><trkpt lat="59.0950942039" lon="30.0024604797"><time>2026-04-22T15:03:37Z</time></trkpt><trkpt lat="59.0950942039" lon="30.0024604797"><time>2026-04-22T15:03:40Z</time></trkpt><trkpt lat="59.0950942039" lon="30.0024604797"><time>2026-04-22T15:03:42Z</time></trkpt><trkpt lat="59.0950942039" lon="30.0024604797"><time>2026-04-22T15:03:45Z</time></trkpt><trkpt lat="59.0950942039" lon="30.0024604797"><time>2026-04-22T15:03:47Z</time></trkpt><trkpt lat="59.0950942039" lon="30.0024604797"><time>2026-04-22T15:03:50Z</time></trkpt><trkpt lat="59.0950942039" lon="30.0024604797"><time>2026-04-22T15:03:52Z</time></trkpt><trkpt lat="59.0950942039" lon="30.0024604797"><time>2026-04-22T15:03:55Z</time></trkpt><trkpt lat="59.0950942039" lon="30.0024604797"><time>2026-04-22T15:03:57Z</time></trkpt><trkpt lat="59.0950942039" lon="30.0024604797"><time>2026-04-22T15:04:00Z</time></trkpt><trkpt lat="59.0950942039" lon="30.0024604797"><time>2026-04-22T15:04:02Z</time></trkpt><trkpt lat="59.0950942039" lon="30.0024604797"><time>2026-04-22T15:04:05Z</time></trkpt><trkpt lat="59.0950942039" lon="30.0024604797"><time>2026-04-22T15:04:07Z</time></trkpt><trkpt lat="59.0950942039" lon="30.0024604797"><time>2026-04-22T15:04:10Z</time></trkpt><trkpt lat="59.0950942039" lon="30.0024604797"><time>2026-04-22T15:04:12Z</time></trkpt><trkpt lat="59.0950942039" lon="30.0024604797"><time>2026-04-22T15:04:15Z</time></trkpt><trkpt lat="59.0950942039" lon="30.0024604797"><time>2026-04-22T15:04:17Z</time></trkpt><trkpt lat="59.0950942039" lon="30.0024604797"><time>2026-04-22T15:04:20Z</time></trkpt><trkpt lat="59.0950942039" lon="30.0024604797"><time>2026-04-22T15:04:22Z</time></trkpt><trkpt lat="59.0950942039" lon="30.0024604797"><time>2026-04-22T15:04:25Z</time></trkpt><trkpt lat="59.0950942039" lon="30.0024604797"><time>2026-04-22T15:04:27Z</time></trkpt><trkpt lat="59.0950942039" lon="30.0024604797"><time>2026-04-22T15:04:30Z</time></trkpt><trkpt lat="59.0950942039" lon="30.0024604797"><time>2026-04-22T15:04:32Z</time></trkpt><trkpt lat="59.0950942039" lon="30.0024604797"><time>2026-04-22T15:04:35Z</time></trkpt><trkpt lat="59.0950942039" lon="30.0024604797"><time>2026-04-22T15:04:37Z</time></trkpt><trkpt lat="59.0950942039" lon="30.0024604797"><time>2026-04-22T15:04:40Z</time></trkpt><trkpt lat="59.0950942039" lon="30.0024604797"><time>2026-04-22T15:04:42Z</time></trkpt><trkpt lat="59.0950942039" lon="30.0024390221"><time>2026-04-22T15:04:45Z</time></trkpt><trkpt lat="59.0950942039" lon="30.0024390221"><time>2026-04-22T15:04:47Z</time></trkpt><trkpt lat="59.0950942039" lon="30.0024390221"><time>2026-04-22T15:04:50Z</time></trkpt><trkpt lat="59.0950942039" lon="30.0024390221"><time>2026-04-22T15:04:52Z</time></trkpt><trkpt lat="59.0950942039" lon="30.0024390221"><time>2026-04-22T15:04:55Z</time></trkpt><trkpt lat="59.0950942039" lon="30.0024390221"><time>2026-04-22T15:04:57Z</time></trkpt><trkpt lat="59.0950942039" lon="30.0024390221"><time>2026-04-22T15:05:00Z</time></trkpt><trkpt lat="59.0950942039" lon="30.0024390221"><time>2026-04-22T15:05:02Z</time></trkpt><trkpt lat="59.0950942039" lon="30.0024390221"><time>2026-04-22T15:05:05Z</time></trkpt><trkpt lat="59.0950942039" lon="30.0024390221"><time>2026-04-22T15:05:07Z</time></trkpt><trkpt lat="59.0950942039" lon="30.0024390221"><time>2026-04-22T15:05:10Z</time></trkpt><trkpt lat="59.0950942039" lon="30.0024390221"><time>2026-04-22T15:05:12Z</time></trkpt><trkpt lat="59.0950942039" lon="30.0024390221"><time>2026-04-22T15:05:15Z</time></trkpt><trkpt lat="59.0950942039" lon="30.0024390221"><time>2026-04-22T15:05:17Z</time></trkpt><trkpt lat="59.0950942039" lon="30.0024390221"><time>2026-04-22T15:05:20Z</time></trkpt><trkpt lat="59.0950942039" lon="30.0024390221"><time>2026-04-22T15:05:22Z</time></trkpt><trkpt lat="59.0950942039" lon="30.0024390221"><time>2026-04-22T15:05:25Z</time></trkpt><trkpt lat="59.0950942039" lon="30.0024390221"><time>2026-04-22T15:05:27Z</time></trkpt><trkpt lat="59.0950942039" lon="30.0024390221"><time>2026-04-22T15:05:30Z</time></trkpt><trkpt lat="59.0950942039" lon="30.0024390221"><time>2026-04-22T15:05:32Z</time></trkpt><trkpt lat="59.0950942039" lon="30.0024390221"><time>2026-04-22T15:05:35Z</time></trkpt><trkpt lat="59.0950942039" lon="30.0024390221"><time>2026-04-22T15:05:37Z</time></trkpt><trkpt lat="59.0950942039" lon="30.0024390221"><time>2026-04-22T15:05:40Z</time></trkpt><trkpt lat="59.0950942039" lon="30.0024390221"><time>2026-04-22T15:05:42Z</time></trkpt><trkpt lat="59.0950942039" lon="30.0024390221"><time>2026-04-22T15:05:45Z</time></trkpt><trkpt lat="59.0950942039" lon="30.0024390221"><time>2026-04-22T15:05:47Z</time></trkpt><trkpt lat="59.0950942039" lon="30.0024390221"><time>2026-04-22T15:05:50Z</time></trkpt><trkpt lat="59.0950942039" lon="30.0024390221"><time>2026-04-22T15:05:52Z</time></trkpt><trkpt lat="59.0950942039" lon="30.0024390221"><time>2026-04-22T15:05:55Z</time></trkpt><trkpt lat="59.0950942039" lon="30.0024390221"><time>2026-04-22T15:05:57Z</time></trkpt><trkpt lat="59.0950942039" lon="30.0024390221"><time>2026-04-22T15:06:00Z</time></trkpt><trkpt lat="59.0950942039" lon="30.0024390221"><time>2026-04-22T15:06:02Z</time></trkpt><trkpt lat="59.0950727463" lon="30.0024175644"><time>2026-04-22T15:06:05Z</time></trkpt><trkpt lat="59.0950727463" lon="30.0024175644"><time>2026-04-22T15:06:07Z</time></trkpt><trkpt lat="59.0950727463" lon="30.0024175644"><time>2026-04-22T15:06:10Z</time></trkpt><trkpt lat="59.0950727463" lon="30.0024175644"><time>2026-04-22T15:06:15Z</time></trkpt><trkpt lat="59.0950727463" lon="30.0024175644"><time>2026-04-22T15:06:17Z</time></trkpt><trkpt lat="59.0950727463" lon="30.0024175644"><time>2026-04-22T15:06:20Z</time></trkpt><trkpt lat="59.0950727463" lon="30.0024175644"><time>2026-04-22T15:06:22Z</time></trkpt><trkpt lat="59.0950727463" lon="30.0024175644"><time>2026-04-22T15:06:25Z</time></trkpt><trkpt lat="59.0950727463" lon="30.0024175644"><time>2026-04-22T15:06:27Z</time></trkpt><trkpt lat="59.0950727463" lon="30.0024175644"><time>2026-04-22T15:06:30Z</time></trkpt><trkpt lat="59.0950727463" lon="30.0024175644"><time>2026-04-22T15:06:32Z</time></trkpt><trkpt lat="59.0950727463" lon="30.0024175644"><time>2026-04-22T15:06:35Z</time></trkpt><trkpt lat="59.0950727463" lon="30.0024175644"><time>2026-04-22T15:06:37Z</time></trkpt><trkpt lat="59.0950727463" lon="30.0024175644"><time>2026-04-22T15:06:40Z</time></trkpt><trkpt lat="59.0950727463" lon="30.0024175644"><time>2026-04-22T15:06:42Z</time></trkpt><trkpt lat="59.0950512886" lon="30.0024390221"><time>2026-04-22T15:06:45Z</time></trkpt><trkpt lat="59.0950512886" lon="30.0024390221"><time>2026-04-22T15:06:47Z</time></trkpt><trkpt lat="59.0950512886" lon="30.0024390221"><time>2026-04-22T15:06:50Z</time></trkpt><trkpt lat="59.0950512886" lon="30.0024390221"><time>2026-04-22T15:06:52Z</time></trkpt><trkpt lat="59.0950512886" lon="30.0024390221"><time>2026-04-22T15:06:55Z</time></trkpt><trkpt lat="59.0950512886" lon="30.0024390221"><time>2026-04-22T15:06:57Z</time></trkpt><trkpt lat="59.0950512886" lon="30.0024390221"><time>2026-04-22T15:07:00Z</time></trkpt><trkpt lat="59.0950512886" lon="30.0024390221"><time>2026-04-22T15:07:02Z</time></trkpt><trkpt lat="59.0950512886" lon="30.0024390221"><time>2026-04-22T15:07:05Z</time></trkpt><trkpt lat="59.0950512886" lon="30.0024390221"><time>2026-04-22T15:07:07Z</time></trkpt><trkpt lat="59.0950512886" lon="30.0024390221"><time>2026-04-22T15:07:10Z</time></trkpt><trkpt lat="59.0950512886" lon="30.0024390221"><time>2026-04-22T15:07:12Z</time></trkpt><trkpt lat="59.0950512886" lon="30.0024390221"><time>2026-04-22T15:07:15Z</time></trkpt><trkpt lat="59.0950512886" lon="30.0024390221"><time>2026-04-22T15:07:17Z</time></trkpt><trkpt lat="59.0950512886" lon="30.0024390221"><time>2026-04-22T15:07:20Z</time></trkpt><trkpt lat="59.0950512886" lon="30.0024390221"><time>2026-04-22T15:07:22Z</time></trkpt><trkpt lat="59.0950512886" lon="30.0024175644"><time>2026-04-22T15:07:25Z</time></trkpt><trkpt lat="59.0950512886" lon="30.0024175644"><time>2026-04-22T15:07:27Z</time></trkpt><trkpt lat="59.0950512886" lon="30.0024175644"><time>2026-04-22T15:07:30Z</time></trkpt><trkpt lat="59.0950512886" lon="30.0024175644"><time>2026-04-22T15:07:32Z</time></trkpt><trkpt lat="59.0950512886" lon="30.0024175644"><time>2026-04-22T15:07:35Z</time></trkpt><trkpt lat="59.0950512886" lon="30.0024175644"><time>2026-04-22T15:07:37Z</time></trkpt><trkpt lat="59.0950512886" lon="30.0024175644"><time>2026-04-22T15:07:40Z</time></trkpt><trkpt lat="59.0950512886" lon="30.0024175644"><time>2026-04-22T15:07:42Z</time></trkpt><trkpt lat="59.0950512886" lon="30.0024175644"><time>2026-04-22T15:07:45Z</time></trkpt><trkpt lat="59.0950512886" lon="30.0024175644"><time>2026-04-22T15:07:47Z</time></trkpt><trkpt lat="59.0950512886" lon="30.0024175644"><time>2026-04-22T15:07:50Z</time></trkpt><trkpt lat="59.0950512886" lon="30.0024175644"><time>2026-04-22T15:07:52Z</time></trkpt><trkpt lat="59.0950512886" lon="30.0024175644"><time>2026-04-22T15:07:55Z</time></trkpt><trkpt lat="59.0950512886" lon="30.0024175644"><time>2026-04-22T15:07:57Z</time></trkpt><trkpt lat="59.0950512886" lon="30.0024175644"><time>2026-04-22T15:08:00Z</time></trkpt><trkpt lat="59.0950512886" lon="30.0024175644"><time>2026-04-22T15:08:02Z</time></trkpt><trkpt lat="59.0950512886" lon="30.0024175644"><time>2026-04-22T15:08:05Z</time></trkpt><trkpt lat="59.0950512886" lon="30.0024175644"><time>2026-04-22T15:08:07Z</time></trkpt><trkpt lat="59.0950512886" lon="30.0024175644"><time>2026-04-22T15:08:10Z</time></trkpt><trkpt lat="59.0950512886" lon="30.0024175644"><time>2026-04-22T15:08:12Z</time></trkpt><trkpt lat="59.0950512886" lon="30.0024175644"><time>2026-04-22T15:08:15Z</time></trkpt><trkpt lat="59.0950512886" lon="30.0024175644"><time>2026-04-22T15:08:17Z</time></trkpt><trkpt lat="59.0950512886" lon="30.0024175644"><time>2026-04-22T15:08:20Z</time></trkpt><trkpt lat="59.0950512886" lon="30.0024175644"><time>2026-04-22T15:08:22Z</time></trkpt><trkpt lat="59.0950512886" lon="30.0024175644"><time>2026-04-22T15:08:25Z</time></trkpt><trkpt lat="59.0950512886" lon="30.0024175644"><time>2026-04-22T15:08:27Z</time></trkpt><trkpt lat="59.0950512886" lon="30.0024175644"><time>2026-04-22T15:08:30Z</time></trkpt><trkpt lat="59.0950512886" lon="30.0024175644"><time>2026-04-22T15:08:32Z</time></trkpt><trkpt lat="59.0950512886" lon="30.0024175644"><time>2026-04-22T15:08:35Z</time></trkpt><trkpt lat="59.0950512886" lon="30.0024175644"><time>2026-04-22T15:08:37Z</time></trkpt><trkpt lat="59.0950512886" lon="30.0024175644"><time>2026-04-22T15:08:40Z</time></trkpt><trkpt lat="59.0950512886" lon="30.0024175644"><time>2026-04-22T15:08:42Z</time></trkpt><trkpt lat="59.0950727463" lon="30.0024175644"><time>2026-04-22T15:08:45Z</time></trkpt><trkpt lat="59.0950727463" lon="30.0023961067"><time>2026-04-22T15:08:47Z</time></trkpt><trkpt lat="59.0950727463" lon="30.0023961067"><time>2026-04-22T15:08:50Z</time></trkpt><trkpt lat="59.0950727463" lon="30.0023961067"><time>2026-04-22T15:08:52Z</time></trkpt><trkpt lat="59.0950727463" lon="30.0023961067"><time>2026-04-22T15:08:55Z</time></trkpt><trkpt lat="59.0950727463" lon="30.0023961067"><time>2026-04-22T15:08:57Z</time></trkpt><trkpt lat="59.0950727463" lon="30.0023961067"><time>2026-04-22T15:09:00Z</time></trkpt><trkpt lat="59.0950727463" lon="30.0023961067"><time>2026-04-22T15:09:02Z</time></trkpt><trkpt lat="59.0950727463" lon="30.0023961067"><time>2026-04-22T15:09:05Z</time></trkpt><trkpt lat="59.0950727463" lon="30.0023961067"><time>2026-04-22T15:09:07Z</time></trkpt><trkpt lat="59.0950727463" lon="30.0023961067"><time>2026-04-22T15:09:10Z</time></trkpt><trkpt lat="59.0950727463" lon="30.0023961067"><time>2026-04-22T15:09:12Z</time></trkpt><trkpt lat="59.0950727463" lon="30.0023961067"><time>2026-04-22T15:09:15Z</time></trkpt><trkpt lat="59.0950727463" lon="30.0023961067"><time>2026-04-22T15:09:17Z</time></trkpt><trkpt lat="59.0950727463" lon="30.0023961067"><time>2026-04-22T15:09:20Z</time></trkpt><trkpt lat="59.0950727463" lon="30.0023961067"><time>2026-04-22T15:09:22Z</time></trkpt><trkpt lat="59.0950727463" lon="30.0023961067"><time>2026-04-22T15:09:25Z</time></trkpt><trkpt lat="59.0950727463" lon="30.0023961067"><time>2026-04-22T15:09:27Z</time></trkpt><trkpt lat="59.0950727463" lon="30.0023961067"><time>2026-04-22T15:09:30Z</time></trkpt><trkpt lat="59.0950727463" lon="30.0023961067"><time>2026-04-22T15:09:32Z</time></trkpt><trkpt lat="59.0950727463" lon="30.0023961067"><time>2026-04-22T15:09:35Z</time></trkpt><trkpt lat="59.0950727463" lon="30.0023961067"><time>2026-04-22T15:09:37Z</time></trkpt><trkpt lat="59.0950727463" lon="30.0023961067"><time>2026-04-22T15:09:40Z</time></trkpt><trkpt lat="59.0950727463" lon="30.0023961067"><time>2026-04-22T15:09:42Z</time></trkpt><trkpt lat="59.0950727463" lon="30.0023961067"><time>2026-04-22T15:09:45Z</time></trkpt><trkpt lat="59.0950727463" lon="30.0023961067"><time>2026-04-22T15:09:47Z</time></trkpt><trkpt lat="59.0950727463" lon="30.0023961067"><time>2026-04-22T15:09:50Z</time></trkpt><trkpt lat="59.0950727463" lon="30.0023961067"><time>2026-04-22T15:09:52Z</time></trkpt><trkpt lat="59.0950727463" lon="30.0023961067"><time>2026-04-22T15:09:55Z</time></trkpt><trkpt lat="59.0950727463" lon="30.0023961067"><time>2026-04-22T15:09:57Z</time></trkpt><trkpt lat="59.0950727463" lon="30.0023961067"><time>2026-04-22T15:10:00Z</time></trkpt><trkpt lat="59.0950727463" lon="30.0023961067"><time>2026-04-22T15:10:02Z</time></trkpt><trkpt lat="59.0950727463" lon="30.0023961067"><time>2026-04-22T15:10:05Z</time></trkpt><trkpt lat="59.0950727463" lon="30.0023961067"><time>2026-04-22T15:10:07Z</time></trkpt><trkpt lat="59.0950727463" lon="30.0023746490"><time>2026-04-22T15:10:10Z</time></trkpt><trkpt lat="59.0950727463" lon="30.0023746490"><time>2026-04-22T15:10:12Z</time></trkpt><trkpt lat="59.0950727463" lon="30.0023746490"><time>2026-04-22T15:10:15Z</time></trkpt><trkpt lat="59.0950727463" lon="30.0023746490"><time>2026-04-22T15:10:17Z</time></trkpt><trkpt lat="59.0950727463" lon="30.0023746490"><time>2026-04-22T15:10:20Z</time></trkpt><trkpt lat="59.0950727463" lon="30.0023746490"><time>2026-04-22T15:10:22Z</time></trkpt><trkpt lat="59.0950727463" lon="30.0023746490"><time>2026-04-22T15:10:25Z</time></trkpt><trkpt lat="59.0950727463" lon="30.0023746490"><time>2026-04-22T15:10:27Z</time></trkpt><trkpt lat="59.0950727463" lon="30.0023746490"><time>2026-04-22T15:10:30Z</time></trkpt><trkpt lat="59.0950727463" lon="30.0023746490"><time>2026-04-22T15:10:32Z</time></trkpt><trkpt lat="59.0950727463" lon="30.0023746490"><time>2026-04-22T15:10:35Z</time></trkpt><trkpt lat="59.0950727463" lon="30.0023746490"><time>2026-04-22T15:10:37Z</time></trkpt><trkpt lat="59.0950727463" lon="30.0023746490"><time>2026-04-22T15:10:40Z</time></trkpt><trkpt lat="59.0950727463" lon="30.0023746490"><time>2026-04-22T15:10:42Z</time></trkpt><trkpt lat="59.0950727463" lon="30.0023746490"><time>2026-04-22T15:10:45Z</time></trkpt><trkpt lat="59.0950727463" lon="30.0023746490"><time>2026-04-22T15:10:47Z</time></trkpt><trkpt lat="59.0950727463" lon="30.0023746490"><time>2026-04-22T15:10:50Z</time></trkpt><trkpt lat="59.0950727463" lon="30.0023746490"><time>2026-04-22T15:10:52Z</time></trkpt><trkpt lat="59.0950727463" lon="30.0023746490"><time>2026-04-22T15:10:55Z</time></trkpt><trkpt lat="59.0950727463" lon="30.0023746490"><time>2026-04-22T15:10:57Z</time></trkpt><trkpt lat="59.0950727463" lon="30.0023746490"><time>2026-04-22T15:11:00Z</time></trkpt><trkpt lat="59.0950727463" lon="30.0023746490"><time>2026-04-22T15:11:02Z</time></trkpt><trkpt lat="59.0950727463" lon="30.0023746490"><time>2026-04-22T15:11:05Z</time></trkpt><trkpt lat="59.0950727463" lon="30.0023746490"><time>2026-04-22T15:11:07Z</time></trkpt><trkpt lat="59.0950727463" lon="30.0023746490"><time>2026-04-22T15:11:10Z</time></trkpt><trkpt lat="59.0950727463" lon="30.0023746490"><time>2026-04-22T15:11:12Z</time></trkpt><trkpt lat="59.0950727463" lon="30.0023746490"><time>2026-04-22T15:11:15Z</time></trkpt><trkpt lat="59.0950727463" lon="30.0023746490"><time>2026-04-22T15:11:17Z</time></trkpt><trkpt lat="59.0950727463" lon="30.0023746490"><time>2026-04-22T15:11:20Z</time></trkpt><trkpt lat="59.0950727463" lon="30.0023746490"><time>2026-04-22T15:11:22Z</time></trkpt><trkpt lat="59.0950727463" lon="30.0023746490"><time>2026-04-22T15:11:25Z</time></trkpt><trkpt lat="59.0950727463" lon="30.0023746490"><time>2026-04-22T15:11:27Z</time></trkpt><trkpt lat="59.0950727463" lon="30.0023746490"><time>2026-04-22T15:11:30Z</time></trkpt><trkpt lat="59.0950727463" lon="30.0023746490"><time>2026-04-22T15:11:32Z</time></trkpt><trkpt lat="59.0950727463" lon="30.0023746490"><time>2026-04-22T15:11:35Z</time></trkpt><trkpt lat="59.0950727463" lon="30.0023746490"><time>2026-04-22T15:11:37Z</time></trkpt><trkpt lat="59.0950727463" lon="30.0023746490"><time>2026-04-22T15:11:40Z</time></trkpt><trkpt lat="59.0950727463" lon="30.0023746490"><time>2026-04-22T15:11:42Z</time></trkpt><trkpt lat="59.0950727463" lon="30.0023746490"><time>2026-04-22T15:11:45Z</time></trkpt><trkpt lat="59.0950727463" lon="30.0023746490"><time>2026-04-22T15:11:47Z</time></trkpt><trkpt lat="59.0950727463" lon="30.0023746490"><time>2026-04-22T15:11:50Z</time></trkpt><trkpt lat="59.0950727463" lon="30.0023746490"><time>2026-04-22T15:11:52Z</time></trkpt><trkpt lat="59.0950727463" lon="30.0023746490"><time>2026-04-22T15:11:55Z</time></trkpt><trkpt lat="59.0950727463" lon="30.0023746490"><time>2026-04-22T15:11:57Z</time></trkpt><trkpt lat="59.0950727463" lon="30.0023746490"><time>2026-04-22T15:12:00Z</time></trkpt><trkpt lat="59.0950727463" lon="30.0023746490"><time>2026-04-22T15:12:02Z</time></trkpt><trkpt lat="59.0950727463" lon="30.0023746490"><time>2026-04-22T15:12:05Z</time></trkpt><trkpt lat="59.0950727463" lon="30.0023746490"><time>2026-04-22T15:12:07Z</time></trkpt><trkpt lat="59.0950727463" lon="30.0023746490"><time>2026-04-22T15:12:10Z</time></trkpt><trkpt lat="59.0950727463" lon="30.0023746490"><time>2026-04-22T15:12:12Z</time></trkpt><trkpt lat="59.0950727463" lon="30.0023746490"><time>2026-04-22T15:12:15Z</time></trkpt><trkpt lat="59.0950727463" lon="30.0023746490"><time>2026-04-22T15:12:17Z</time></trkpt><trkpt lat="59.0950727463" lon="30.0023746490"><time>2026-04-22T15:12:20Z</time></trkpt><trkpt lat="59.0950727463" lon="30.0023746490"><time>2026-04-22T15:12:22Z</time></trkpt><trkpt lat="59.0950727463" lon="30.0023746490"><time>2026-04-22T15:12:25Z</time></trkpt><trkpt lat="59.0950727463" lon="30.0023746490"><time>2026-04-22T15:12:27Z</time></trkpt><trkpt lat="59.0950727463" lon="30.0023746490"><time>2026-04-22T15:12:30Z</time></trkpt><trkpt lat="59.0950727463" lon="30.0023746490"><time>2026-04-22T15:12:32Z</time></trkpt><trkpt lat="59.0950727463" lon="30.0023746490"><time>2026-04-22T15:12:35Z</time></trkpt><trkpt lat="59.0950727463" lon="30.0023746490"><time>2026-04-22T15:12:37Z</time></trkpt><trkpt lat="59.0950727463" lon="30.0023746490"><time>2026-04-22T15:12:40Z</time></trkpt><trkpt lat="59.0950727463" lon="30.0023746490"><time>2026-04-22T15:12:42Z</time></trkpt><trkpt lat="59.0950727463" lon="30.0023746490"><time>2026-04-22T15:12:45Z</time></trkpt><trkpt lat="59.0950727463" lon="30.0023746490"><time>2026-04-22T15:12:47Z</time></trkpt><trkpt lat="59.0950727463" lon="30.0023746490"><time>2026-04-22T15:12:50Z</time></trkpt><trkpt lat="59.0950727463" lon="30.0023746490"><time>2026-04-22T15:12:52Z</time></trkpt><trkpt lat="59.0950727463" lon="30.0023746490"><time>2026-04-22T15:12:55Z</time></trkpt><trkpt lat="59.0950727463" lon="30.0023746490"><time>2026-04-22T15:12:57Z</time></trkpt><trkpt lat="59.0950727463" lon="30.0023746490"><time>2026-04-22T15:13:00Z</time></trkpt><trkpt lat="59.0950727463" lon="30.0023746490"><time>2026-04-22T15:13:02Z</time></trkpt><trkpt lat="59.0950727463" lon="30.0023746490"><time>2026-04-22T15:13:05Z</time></trkpt><trkpt lat="59.0950727463" lon="30.0023746490"><time>2026-04-22T15:13:07Z</time></trkpt><trkpt lat="59.0950727463" lon="30.0023746490"><time>2026-04-22T15:13:10Z</time></trkpt><trkpt lat="59.0950727463" lon="30.0023746490"><time>2026-04-22T15:13:12Z</time></trkpt><trkpt lat="59.0950942039" lon="30.0023961067"><time>2026-04-22T15:13:15Z</time></trkpt><trkpt lat="59.0950942039" lon="30.0023961067"><time>2026-04-22T15:13:17Z</time></trkpt><trkpt lat="59.0950942039" lon="30.0023961067"><time>2026-04-22T15:13:20Z</time></trkpt><trkpt lat="59.0950942039" lon="30.0023961067"><time>2026-04-22T15:13:22Z</time></trkpt><trkpt lat="59.0950942039" lon="30.0023961067"><time>2026-04-22T15:13:25Z</time></trkpt><trkpt lat="59.0950942039" lon="30.0023961067"><time>2026-04-22T15:13:27Z</time></trkpt><trkpt lat="59.0950942039" lon="30.0023961067"><time>2026-04-22T15:13:30Z</time></trkpt><trkpt lat="59.0950942039" lon="30.0023961067"><time>2026-04-22T15:13:32Z</time></trkpt><trkpt lat="59.0950942039" lon="30.0023961067"><time>2026-04-22T15:13:35Z</time></trkpt><trkpt lat="59.0950942039" lon="30.0023961067"><time>2026-04-22T15:13:37Z</time></trkpt><trkpt lat="59.0950942039" lon="30.0023961067"><time>2026-04-22T15:13:40Z</time></trkpt><trkpt lat="59.0950942039" lon="30.0023961067"><time>2026-04-22T15:13:42Z</time></trkpt><trkpt lat="59.0950942039" lon="30.0023961067"><time>2026-04-22T15:13:45Z</time></trkpt><trkpt lat="59.0950942039" lon="30.0023961067"><time>2026-04-22T15:13:47Z</time></trkpt><trkpt lat="59.0950942039" lon="30.0023961067"><time>2026-04-22T15:13:50Z</time></trkpt><trkpt lat="59.0950942039" lon="30.0023961067"><time>2026-04-22T15:13:52Z</time></trkpt><trkpt lat="59.0950942039" lon="30.0023961067"><time>2026-04-22T15:13:55Z</time></trkpt><trkpt lat="59.0950942039" lon="30.0023961067"><time>2026-04-22T15:13:57Z</time></trkpt><trkpt lat="59.0950942039" lon="30.0023961067"><time>2026-04-22T15:14:00Z</time></trkpt><trkpt lat="59.0950942039" lon="30.0023961067"><time>2026-04-22T15:14:02Z</time></trkpt><trkpt lat="59.0950727463" lon="30.0023961067"><time>2026-04-22T15:14:05Z</time></trkpt><trkpt lat="59.0950727463" lon="30.0023961067"><time>2026-04-22T15:14:07Z</time></trkpt><trkpt lat="59.0950727463" lon="30.0023961067"><time>2026-04-22T15:14:10Z</time></trkpt><trkpt lat="59.0950727463" lon="30.0023746490"><time>2026-04-22T15:14:12Z</time></trkpt><trkpt lat="59.0950727463" lon="30.0023961067"><time>2026-04-22T15:14:15Z</time></trkpt><trkpt lat="59.0950727463" lon="30.0023961067"><time>2026-04-22T15:14:17Z</time></trkpt><trkpt lat="59.0950727463" lon="30.0023961067"><time>2026-04-22T15:14:20Z</time></trkpt><trkpt lat="59.0950727463" lon="30.0023961067"><time>2026-04-22T15:14:22Z</time></trkpt><trkpt lat="59.0950727463" lon="30.0023961067"><time>2026-04-22T15:14:25Z</time></trkpt><trkpt lat="59.0950727463" lon="30.0024175644"><time>2026-04-22T15:14:27Z</time></trkpt><trkpt lat="59.0950512886" lon="30.0023961067"><time>2026-04-22T15:14:30Z</time></trkpt><trkpt lat="59.0950512886" lon="30.0023961067"><time>2026-04-22T15:14:32Z</time></trkpt><trkpt lat="59.0950512886" lon="30.0023961067"><time>2026-04-22T15:14:35Z</time></trkpt><trkpt lat="59.0950512886" lon="30.0023961067"><time>2026-04-22T15:14:37Z</time></trkpt><trkpt lat="59.0950512886" lon="30.0023961067"><time>2026-04-22T15:14:40Z</time></trkpt><trkpt lat="59.0950512886" lon="30.0023961067"><time>2026-04-22T15:14:42Z</time></trkpt><trkpt lat="59.0950512886" lon="30.0023961067"><time>2026-04-22T15:14:45Z</time></trkpt><trkpt lat="59.0950512886" lon="30.0023961067"><time>2026-04-22T15:14:47Z</time></trkpt><trkpt lat="59.0950512886" lon="30.0023961067"><time>2026-04-22T15:14:50Z</time></trkpt><trkpt lat="59.0950512886" lon="30.0023961067"><time>2026-04-22T15:14:52Z</time></trkpt><trkpt lat="59.0950512886" lon="30.0023961067"><time>2026-04-22T15:14:55Z</time></trkpt><trkpt lat="59.0950512886" lon="30.0023961067"><time>2026-04-22T15:14:57Z</time></trkpt><trkpt lat="59.0950512886" lon="30.0023961067"><time>2026-04-22T15:15:00Z</time></trkpt><trkpt lat="59.0950512886" lon="30.0023961067"><time>2026-04-22T15:15:02Z</time></trkpt><trkpt lat="59.0950512886" lon="30.0023961067"><time>2026-04-22T15:15:05Z</time></trkpt><trkpt lat="59.0950512886" lon="30.0023961067"><time>2026-04-22T15:15:07Z</time></trkpt><trkpt lat="59.0950512886" lon="30.0023961067"><time>2026-04-22T15:15:10Z</time></trkpt><trkpt lat="59.0950512886" lon="30.0023961067"><time>2026-04-22T15:15:12Z</time></trkpt><trkpt lat="59.0950512886" lon="30.0023961067"><time>2026-04-22T15:15:15Z</time></trkpt><trkpt lat="59.0950512886" lon="30.0023961067"><time>2026-04-22T15:15:17Z</time></trkpt><trkpt lat="59.0950512886" lon="30.0023961067"><time>2026-04-22T15:15:20Z</time></trkpt><trkpt lat="59.0950512886" lon="30.0023961067"><time>2026-04-22T15:15:22Z</time></trkpt><trkpt lat="59.0950512886" lon="30.0024175644"><time>2026-04-22T15:15:25Z</time></trkpt><trkpt lat="59.0950083733" lon="30.0024175644"><time>2026-04-22T15:15:27Z</time></trkpt><trkpt lat="59.0950083733" lon="30.0024175644"><time>2026-04-22T15:15:30Z</time></trkpt><trkpt lat="59.0950083733" lon="30.0024175644"><time>2026-04-22T15:15:32Z</time></trkpt><trkpt lat="59.0950083733" lon="30.0024175644"><time>2026-04-22T15:15:35Z</time></trkpt><trkpt lat="59.0950083733" lon="30.0024175644"><time>2026-04-22T15:15:37Z</time></trkpt><trkpt lat="59.0950083733" lon="30.0024175644"><time>2026-04-22T15:15:40Z</time></trkpt><trkpt lat="59.0950083733" lon="30.0024175644"><time>2026-04-22T15:15:42Z</time></trkpt><trkpt lat="59.0950083733" lon="30.0024175644"><time>2026-04-22T15:15:45Z</time></trkpt><trkpt lat="59.0950083733" lon="30.0024175644"><time>2026-04-22T15:15:47Z</time></trkpt><trkpt lat="59.0950083733" lon="30.0024175644"><time>2026-04-22T15:15:50Z</time></trkpt><trkpt lat="59.0950083733" lon="30.0024175644"><time>2026-04-22T15:15:52Z</time></trkpt><trkpt lat="59.0950083733" lon="30.0024175644"><time>2026-04-22T15:15:55Z</time></trkpt><trkpt lat="59.0950083733" lon="30.0024175644"><time>2026-04-22T15:15:57Z</time></trkpt><trkpt lat="59.0950083733" lon="30.0024175644"><time>2026-04-22T15:16:00Z</time></trkpt><trkpt lat="59.0950083733" lon="30.0024175644"><time>2026-04-22T15:16:02Z</time></trkpt><trkpt lat="59.0950083733" lon="30.0024175644"><time>2026-04-22T15:16:05Z</time></trkpt><trkpt lat="59.0950083733" lon="30.0024175644"><time>2026-04-22T15:16:07Z</time></trkpt><trkpt lat="59.0950083733" lon="30.0024175644"><time>2026-04-22T15:16:10Z</time></trkpt><trkpt lat="59.0950083733" lon="30.0024175644"><time>2026-04-22T15:16:12Z</time></trkpt><trkpt lat="59.0950083733" lon="30.0024175644"><time>2026-04-22T15:16:15Z</time></trkpt><trkpt lat="59.0950083733" lon="30.0024175644"><time>2026-04-22T15:16:17Z</time></trkpt><trkpt lat="59.0950083733" lon="30.0024175644"><time>2026-04-22T15:16:20Z</time></trkpt><trkpt lat="59.0950083733" lon="30.0024175644"><time>2026-04-22T15:16:22Z</time></trkpt><trkpt lat="59.0950083733" lon="30.0024175644"><time>2026-04-22T15:16:25Z</time></trkpt><trkpt lat="59.0950083733" lon="30.0024175644"><time>2026-04-22T15:16:27Z</time></trkpt><trkpt lat="59.0950083733" lon="30.0024175644"><time>2026-04-22T15:16:30Z</time></trkpt><trkpt lat="59.0950083733" lon="30.0024175644"><time>2026-04-22T15:16:32Z</time></trkpt><trkpt lat="59.0950083733" lon="30.0024175644"><time>2026-04-22T15:16:35Z</time></trkpt><trkpt lat="59.0950083733" lon="30.0024175644"><time>2026-04-22T15:16:37Z</time></trkpt><trkpt lat="59.0950083733" lon="30.0024175644"><time>2026-04-22T15:16:40Z</time></trkpt><trkpt lat="59.0950083733" lon="30.0024175644"><time>2026-04-22T15:16:42Z</time></trkpt><trkpt lat="59.0950083733" lon="30.0024175644"><time>2026-04-22T15:16:45Z</time></trkpt><trkpt lat="59.0950083733" lon="30.0024390221"><time>2026-04-22T15:16:47Z</time></trkpt><trkpt lat="59.0950083733" lon="30.0024175644"><time>2026-04-22T15:16:50Z</time></trkpt><trkpt lat="59.0950083733" lon="30.0024175644"><time>2026-04-22T15:16:52Z</time></trkpt><trkpt lat="59.0950083733" lon="30.0024175644"><time>2026-04-22T15:16:55Z</time></trkpt><trkpt lat="59.0950083733" lon="30.0024175644"><time>2026-04-22T15:16:57Z</time></trkpt><trkpt lat="59.0950083733" lon="30.0024175644"><time>2026-04-22T15:17:00Z</time></trkpt><trkpt lat="59.0950083733" lon="30.0024175644"><time>2026-04-22T15:17:02Z</time></trkpt><trkpt lat="59.0950083733" lon="30.0024175644"><time>2026-04-22T15:17:05Z</time></trkpt><trkpt lat="59.0950083733" lon="30.0024175644"><time>2026-04-22T15:17:07Z</time></trkpt><trkpt lat="59.0950083733" lon="30.0024175644"><time>2026-04-22T15:17:10Z</time></trkpt><trkpt lat="59.0950083733" lon="30.0024175644"><time>2026-04-22T15:17:12Z</time></trkpt><trkpt lat="59.0950083733" lon="30.0024175644"><time>2026-04-22T15:17:15Z</time></trkpt><trkpt lat="59.0950083733" lon="30.0024175644"><time>2026-04-22T15:17:17Z</time></trkpt><trkpt lat="59.0950083733" lon="30.0024175644"><time>2026-04-22T15:17:20Z</time></trkpt><trkpt lat="59.0950083733" lon="30.0024175644"><time>2026-04-22T15:17:22Z</time></trkpt><trkpt lat="59.0950083733" lon="30.0024175644"><time>2026-04-22T15:17:25Z</time></trkpt><trkpt lat="59.0950083733" lon="30.0024175644"><time>2026-04-22T15:17:27Z</time></trkpt><trkpt lat="59.0949869156" lon="30.0024175644"><time>2026-04-22T15:17:30Z</time></trkpt><trkpt lat="59.0949869156" lon="30.0024175644"><time>2026-04-22T15:17:32Z</time></trkpt><trkpt lat="59.0949869156" lon="30.0024175644"><time>2026-04-22T15:17:35Z</time></trkpt><trkpt lat="59.0949869156" lon="30.0024175644"><time>2026-04-22T15:17:37Z</time></trkpt><trkpt lat="59.0949869156" lon="30.0024175644"><time>2026-04-22T15:17:40Z</time></trkpt><trkpt lat="59.0949869156" lon="30.0024175644"><time>2026-04-22T15:17:42Z</time></trkpt><trkpt lat="59.0949869156" lon="30.0024175644"><time>2026-04-22T15:17:45Z</time></trkpt><trkpt lat="59.0949869156" lon="30.0024175644"><time>2026-04-22T15:17:47Z</time></trkpt><trkpt lat="59.0949869156" lon="30.0024175644"><time>2026-04-22T15:17:50Z</time></trkpt><trkpt lat="59.0949869156" lon="30.0024175644"><time>2026-04-22T15:17:52Z</time></trkpt><trkpt lat="59.0949869156" lon="30.0024175644"><time>2026-04-22T15:17:55Z</time></trkpt><trkpt lat="59.0949869156" lon="30.0024175644"><time>2026-04-22T15:17:57Z</time></trkpt><trkpt lat="59.0949869156" lon="30.0024175644"><time>2026-04-22T15:18:00Z</time></trkpt><trkpt lat="59.0949869156" lon="30.0024175644"><time>2026-04-22T15:18:02Z</time></trkpt><trkpt lat="59.0949869156" lon="30.0024175644"><time>2026-04-22T15:18:05Z</time></trkpt><trkpt lat="59.0949869156" lon="30.0024175644"><time>2026-04-22T15:18:07Z</time></trkpt><trkpt lat="59.0949869156" lon="30.0023746490"><time>2026-04-22T15:18:10Z</time></trkpt><trkpt lat="59.0949869156" lon="30.0023746490"><time>2026-04-22T15:18:12Z</time></trkpt><trkpt lat="59.0949654579" lon="30.0023961067"><time>2026-04-22T15:18:15Z</time></trkpt><trkpt lat="59.0949654579" lon="30.0024175644"><time>2026-04-22T15:18:17Z</time></trkpt><trkpt lat="59.0949654579" lon="30.0024175644"><time>2026-04-22T15:18:20Z</time></trkpt><trkpt lat="59.0949654579" lon="30.0024175644"><time>2026-04-22T15:18:22Z</time></trkpt><trkpt lat="59.0949654579" lon="30.0024175644"><time>2026-04-22T15:18:25Z</time></trkpt><trkpt lat="59.0949654579" lon="30.0024175644"><time>2026-04-22T15:18:27Z</time></trkpt><trkpt lat="59.0949654579" lon="30.0023961067"><time>2026-04-22T15:18:30Z</time></trkpt><trkpt lat="59.0949654579" lon="30.0023961067"><time>2026-04-22T15:18:32Z</time></trkpt><trkpt lat="59.0949654579" lon="30.0023961067"><time>2026-04-22T15:18:35Z</time></trkpt><trkpt lat="59.0949654579" lon="30.0023961067"><time>2026-04-22T15:18:37Z</time></trkpt><trkpt lat="59.0949654579" lon="30.0023961067"><time>2026-04-22T15:18:40Z</time></trkpt><trkpt lat="59.0949654579" lon="30.0023531914"><time>2026-04-22T15:18:42Z</time></trkpt><trkpt lat="59.0949440002" lon="30.0023102760"><time>2026-04-22T15:18:45Z</time></trkpt><trkpt lat="59.0949440002" lon="30.0022673607"><time>2026-04-22T15:18:47Z</time></trkpt><trkpt lat="59.0949225426" lon="30.0022029877"><time>2026-04-22T15:18:50Z</time></trkpt><trkpt lat="59.0949010849" lon="30.0021600723"><time>2026-04-22T15:18:52Z</time></trkpt><trkpt lat="59.0949010849" lon="30.0020956993"><time>2026-04-22T15:18:55Z</time></trkpt><trkpt lat="59.0949010849" lon="30.0020313263"><time>2026-04-22T15:18:57Z</time></trkpt><trkpt lat="59.0949010849" lon="30.0019884109"><time>2026-04-22T15:19:00Z</time></trkpt><trkpt lat="59.0948796272" lon="30.0019240379"><time>2026-04-22T15:19:02Z</time></trkpt><trkpt lat="59.0948796272" lon="30.0018596649"><time>2026-04-22T15:19:05Z</time></trkpt><trkpt lat="59.0948581696" lon="30.0018382072"><time>2026-04-22T15:19:07Z</time></trkpt><trkpt lat="59.0948367119" lon="30.0017738342"><time>2026-04-22T15:19:10Z</time></trkpt><trkpt lat="59.0948367119" lon="30.0017309189"><time>2026-04-22T15:19:12Z</time></trkpt><trkpt lat="59.0948367119" lon="30.0016450882"><time>2026-04-22T15:19:15Z</time></trkpt><trkpt lat="59.0948367119" lon="30.0015807152"><time>2026-04-22T15:19:17Z</time></trkpt><trkpt lat="59.0948367119" lon="30.0015163422"><time>2026-04-22T15:19:20Z</time></trkpt><trkpt lat="59.0948152542" lon="30.0014734268"><time>2026-04-22T15:19:22Z</time></trkpt><trkpt lat="59.0948152542" lon="30.0014090538"><time>2026-04-22T15:19:25Z</time></trkpt><trkpt lat="59.0947937965" lon="30.0013446808"><time>2026-04-22T15:19:27Z</time></trkpt><trkpt lat="59.0947937965" lon="30.0012588501"><time>2026-04-22T15:19:30Z</time></trkpt><trkpt lat="59.0947937965" lon="30.0012159348"><time>2026-04-22T15:19:32Z</time></trkpt><trkpt lat="59.0947937965" lon="30.0011301041"><time>2026-04-22T15:19:35Z</time></trkpt><trkpt lat="59.0947937965" lon="30.0010871887"><time>2026-04-22T15:19:37Z</time></trkpt><trkpt lat="59.0947723389" lon="30.0010442734"><time>2026-04-22T15:19:40Z</time></trkpt><trkpt lat="59.0947723389" lon="30.0010013580"><time>2026-04-22T15:19:42Z</time></trkpt><trkpt lat="59.0947723389" lon="30.0009369850"><time>2026-04-22T15:19:45Z</time></trkpt><trkpt lat="59.0947723389" lon="30.0008940697"><time>2026-04-22T15:19:47Z</time></trkpt><trkpt lat="59.0947723389" lon="30.0008511543"><time>2026-04-22T15:19:50Z</time></trkpt><trkpt lat="59.0947508812" lon="30.0008082390"><time>2026-04-22T15:19:52Z</time></trkpt><trkpt lat="59.0947294235" lon="30.0006794930"><time>2026-04-22T15:19:55Z</time></trkpt><trkpt lat="59.0947079659" lon="30.0006151199"><time>2026-04-22T15:19:57Z</time></trkpt><trkpt lat="59.0946650505" lon="30.0005507469"><time>2026-04-22T15:20:00Z</time></trkpt><trkpt lat="59.0946650505" lon="30.0004863739"><time>2026-04-22T15:20:02Z</time></trkpt><trkpt lat="59.0946865082" lon="30.0004863739"><time>2026-04-22T15:20:05Z</time></trkpt><trkpt lat="59.0946865082" lon="30.0004649162"><time>2026-04-22T15:20:07Z</time></trkpt><trkpt lat="59.0946865082" lon="30.0003790855"><time>2026-04-22T15:20:10Z</time></trkpt><trkpt lat="59.0946650505" lon="30.0003361702"><time>2026-04-22T15:20:12Z</time></trkpt><trkpt lat="59.0946650505" lon="30.0002288818"><time>2026-04-22T15:20:15Z</time></trkpt><trkpt lat="59.0946435928" lon="30.0001859665"><time>2026-04-22T15:20:17Z</time></trkpt><trkpt lat="59.0946221352" lon="30.0001430511"><time>2026-04-22T15:20:20Z</time></trkpt><trkpt lat="59.0946006775" lon="30.0001001358"><time>2026-04-22T15:20:22Z</time></trkpt><trkpt lat="59.0945792198" lon="30.0000357628"><time>2026-04-22T15:20:25Z</time></trkpt><trkpt lat="59.0945792198" lon="29.9999928474"><time>2026-04-22T15:20:27Z</time></trkpt><trkpt lat="59.0945577621" lon="29.9999713898"><time>2026-04-22T15:20:30Z</time></trkpt><trkpt lat="59.0945577621" lon="29.9998855591"><time>2026-04-22T15:20:32Z</time></trkpt><trkpt lat="59.0945363045" lon="29.9998211861"><time>2026-04-22T15:20:35Z</time></trkpt><trkpt lat="59.0945148468" lon="29.9997782707"><time>2026-04-22T15:20:37Z</time></trkpt><trkpt lat="59.0945148468" lon="29.9997138977"><time>2026-04-22T15:20:40Z</time></trkpt><trkpt lat="59.0944933891" lon="29.9996495247"><time>2026-04-22T15:20:42Z</time></trkpt><trkpt lat="59.0944719315" lon="29.9995851517"><time>2026-04-22T15:20:45Z</time></trkpt><trkpt lat="59.0944719315" lon="29.9994993210"><time>2026-04-22T15:20:47Z</time></trkpt><trkpt lat="59.0944504738" lon="29.9993920326"><time>2026-04-22T15:20:50Z</time></trkpt><trkpt lat="59.0944290161" lon="29.9993491173"><time>2026-04-22T15:20:52Z</time></trkpt><trkpt lat="59.0944075584" lon="29.9992847443"><time>2026-04-22T15:20:55Z</time></trkpt><trkpt lat="59.0944075584" lon="29.9992632866"><time>2026-04-22T15:20:57Z</time></trkpt><trkpt lat="59.0944290161" lon="29.9991774559"><time>2026-04-22T15:21:00Z</time></trkpt><trkpt lat="59.0944504738" lon="29.9991345406"><time>2026-04-22T15:21:02Z</time></trkpt><trkpt lat="59.0944290161" lon="29.9990487099"><time>2026-04-22T15:21:05Z</time></trkpt><trkpt lat="59.0944075584" lon="29.9990057945"><time>2026-04-22T15:21:07Z</time></trkpt><trkpt lat="59.0943861008" lon="29.9989628792"><time>2026-04-22T15:21:10Z</time></trkpt><trkpt lat="59.0943861008" lon="29.9989414215"><time>2026-04-22T15:21:12Z</time></trkpt><trkpt lat="59.0943646431" lon="29.9988770485"><time>2026-04-22T15:21:15Z</time></trkpt><trkpt lat="59.0943431854" lon="29.9988126755"><time>2026-04-22T15:21:17Z</time></trkpt><trkpt lat="59.0943217278" lon="29.9986624718"><time>2026-04-22T15:21:20Z</time></trkpt><trkpt lat="59.0943217278" lon="29.9985980988"><time>2026-04-22T15:21:22Z</time></trkpt><trkpt lat="59.0943217278" lon="29.9985337257"><time>2026-04-22T15:21:25Z</time></trkpt><trkpt lat="59.0943217278" lon="29.9985122681"><time>2026-04-22T15:21:27Z</time></trkpt><trkpt lat="59.0943217278" lon="29.9985337257"><time>2026-04-22T15:21:30Z</time></trkpt><trkpt lat="59.0943431854" lon="29.9985551834"><time>2026-04-22T15:21:32Z</time></trkpt><trkpt lat="59.0943217278" lon="29.9985122681"><time>2026-04-22T15:21:35Z</time></trkpt><trkpt lat="59.0943217278" lon="29.9984693527"><time>2026-04-22T15:21:37Z</time></trkpt><trkpt lat="59.0943002701" lon="29.9984049797"><time>2026-04-22T15:21:40Z</time></trkpt><trkpt lat="59.0942788124" lon="29.9983620644"><time>2026-04-22T15:21:42Z</time></trkpt><trkpt lat="59.0943002701" lon="29.9982976913"><time>2026-04-22T15:21:45Z</time></trkpt><trkpt lat="59.0943002701" lon="29.9982547760"><time>2026-04-22T15:21:47Z</time></trkpt><trkpt lat="59.0942788124" lon="29.9981904030"><time>2026-04-22T15:21:50Z</time></trkpt><trkpt lat="59.0942788124" lon="29.9981689453"><time>2026-04-22T15:21:52Z</time></trkpt><trkpt lat="59.0942573547" lon="29.9981045723"><time>2026-04-22T15:21:55Z</time></trkpt><trkpt lat="59.0942358971" lon="29.9980401993"><time>2026-04-22T15:21:57Z</time></trkpt><trkpt lat="59.0942358971" lon="29.9979543686"><time>2026-04-22T15:22:00Z</time></trkpt><trkpt lat="59.0942358971" lon="29.9979329109"><time>2026-04-22T15:22:02Z</time></trkpt><trkpt lat="59.0942144394" lon="29.9978899956"><time>2026-04-22T15:22:05Z</time></trkpt><trkpt lat="59.0942144394" lon="29.9978470802"><time>2026-04-22T15:22:07Z</time></trkpt><trkpt lat="59.0942144394" lon="29.9978041649"><time>2026-04-22T15:22:10Z</time></trkpt><trkpt lat="59.0942144394" lon="29.9977612495"><time>2026-04-22T15:22:12Z</time></trkpt><trkpt lat="59.0942358971" lon="29.9976539612"><time>2026-04-22T15:22:15Z</time></trkpt><trkpt lat="59.0942358971" lon="29.9976110458"><time>2026-04-22T15:22:17Z</time></trkpt><trkpt lat="59.0942358971" lon="29.9975681305"><time>2026-04-22T15:22:20Z</time></trkpt><trkpt lat="59.0942144394" lon="29.9975466728"><time>2026-04-22T15:22:22Z</time></trkpt><trkpt lat="59.0941929817" lon="29.9974608421"><time>2026-04-22T15:22:25Z</time></trkpt><trkpt lat="59.0941715240" lon="29.9974179268"><time>2026-04-22T15:22:27Z</time></trkpt><trkpt lat="59.0941715240" lon="29.9973535538"><time>2026-04-22T15:22:30Z</time></trkpt><trkpt lat="59.0941500664" lon="29.9972891808"><time>2026-04-22T15:22:32Z</time></trkpt><trkpt lat="59.0941500664" lon="29.9971818924"><time>2026-04-22T15:22:35Z</time></trkpt><trkpt lat="59.0941286087" lon="29.9971389771"><time>2026-04-22T15:22:37Z</time></trkpt><trkpt lat="59.0941286087" lon="29.9970960617"><time>2026-04-22T15:22:40Z</time></trkpt><trkpt lat="59.0941286087" lon="29.9970531464"><time>2026-04-22T15:22:42Z</time></trkpt><trkpt lat="59.0941071510" lon="29.9969458580"><time>2026-04-22T15:22:45Z</time></trkpt><trkpt lat="59.0940856934" lon="29.9968600273"><time>2026-04-22T15:22:47Z</time></trkpt><trkpt lat="59.0941286087" lon="29.9968171120"><time>2026-04-22T15:22:50Z</time></trkpt><trkpt lat="59.0941286087" lon="29.9967956543"><time>2026-04-22T15:22:52Z</time></trkpt><trkpt lat="59.0940856934" lon="29.9967098236"><time>2026-04-22T15:22:55Z</time></trkpt><trkpt lat="59.0940642357" lon="29.9966239929"><time>2026-04-22T15:22:57Z</time></trkpt><trkpt lat="59.0940427780" lon="29.9964523315"><time>2026-04-22T15:23:00Z</time></trkpt><trkpt lat="59.0940427780" lon="29.9963235855"><time>2026-04-22T15:23:02Z</time></trkpt><trkpt lat="59.0940427780" lon="29.9960875511"><time>2026-04-22T15:23:05Z</time></trkpt><trkpt lat="59.0940427780" lon="29.9959588051"><time>2026-04-22T15:23:07Z</time></trkpt><trkpt lat="59.0939998627" lon="29.9957227707"><time>2026-04-22T15:23:10Z</time></trkpt><trkpt lat="59.0939784050" lon="29.9956154823"><time>2026-04-22T15:23:12Z</time></trkpt><trkpt lat="59.0939569473" lon="29.9954652786"><time>2026-04-22T15:23:15Z</time></trkpt><trkpt lat="59.0939354897" lon="29.9953365326"><time>2026-04-22T15:23:17Z</time></trkpt><trkpt lat="59.0939140320" lon="29.9952292442"><time>2026-04-22T15:23:20Z</time></trkpt><trkpt lat="59.0939784050" lon="29.9952077866"><time>2026-04-22T15:23:22Z</time></trkpt><trkpt lat="59.0940642357" lon="29.9951004982"><time>2026-04-22T15:23:25Z</time></trkpt><trkpt lat="59.0940642357" lon="29.9950361252"><time>2026-04-22T15:23:27Z</time></trkpt><trkpt lat="59.0940642357" lon="29.9950146675"><time>2026-04-22T15:23:30Z</time></trkpt><trkpt lat="59.0940642357" lon="29.9950146675"><time>2026-04-22T15:23:32Z</time></trkpt><trkpt lat="59.0940642357" lon="29.9950146675"><time>2026-04-22T15:23:35Z</time></trkpt><trkpt lat="59.0940642357" lon="29.9950146675"><time>2026-04-22T15:23:37Z</time></trkpt><trkpt lat="59.0940642357" lon="29.9950146675"><time>2026-04-22T15:23:40Z</time></trkpt><trkpt lat="59.0940642357" lon="29.9950146675"><time>2026-04-22T15:23:42Z</time></trkpt><trkpt lat="59.0940642357" lon="29.9950146675"><time>2026-04-22T15:23:45Z</time></trkpt><trkpt lat="59.0940642357" lon="29.9950146675"><time>2026-04-22T15:23:47Z</time></trkpt><trkpt lat="59.0940642357" lon="29.9950146675"><time>2026-04-22T15:23:50Z</time></trkpt><trkpt lat="59.0940642357" lon="29.9950146675"><time>2026-04-22T15:23:52Z</time></trkpt><trkpt lat="59.0940642357" lon="29.9950146675"><time>2026-04-22T15:23:55Z</time></trkpt><trkpt lat="59.0940642357" lon="29.9950146675"><time>2026-04-22T15:23:57Z</time></trkpt><trkpt lat="59.0940642357" lon="29.9950146675"><time>2026-04-22T15:24:00Z</time></trkpt><trkpt lat="59.0940642357" lon="29.9950146675"><time>2026-04-22T15:24:02Z</time></trkpt><trkpt lat="59.0940642357" lon="29.9950146675"><time>2026-04-22T15:24:05Z</time></trkpt><trkpt lat="59.0940642357" lon="29.9950146675"><time>2026-04-22T15:24:07Z</time></trkpt><trkpt lat="59.0940642357" lon="29.9950146675"><time>2026-04-22T15:24:10Z</time></trkpt><trkpt lat="59.0940642357" lon="29.9950146675"><time>2026-04-22T15:24:12Z</time></trkpt><trkpt lat="59.0940642357" lon="29.9950146675"><time>2026-04-22T15:24:15Z</time></trkpt><trkpt lat="59.0940642357" lon="29.9950146675"><time>2026-04-22T15:24:17Z</time></trkpt><trkpt lat="59.0940642357" lon="29.9950146675"><time>2026-04-22T15:24:20Z</time></trkpt><trkpt lat="59.0940642357" lon="29.9950146675"><time>2026-04-22T15:24:22Z</time></trkpt><trkpt lat="59.0940642357" lon="29.9950146675"><time>2026-04-22T15:24:25Z</time></trkpt><trkpt lat="59.0940642357" lon="29.9950146675"><time>2026-04-22T15:24:27Z</time></trkpt><trkpt lat="59.0940642357" lon="29.9950146675"><time>2026-04-22T15:24:30Z</time></trkpt><trkpt lat="59.0940642357" lon="29.9950146675"><time>2026-04-22T15:24:32Z</time></trkpt><trkpt lat="59.0940427780" lon="29.9950146675"><time>2026-04-22T15:24:35Z</time></trkpt><trkpt lat="59.0940427780" lon="29.9950146675"><time>2026-04-22T15:24:37Z</time></trkpt><trkpt lat="59.0940427780" lon="29.9950146675"><time>2026-04-22T15:24:40Z</time></trkpt><trkpt lat="59.0940427780" lon="29.9950146675"><time>2026-04-22T15:24:42Z</time></trkpt><trkpt lat="59.0940427780" lon="29.9950146675"><time>2026-04-22T15:24:45Z</time></trkpt><trkpt lat="59.0940427780" lon="29.9950146675"><time>2026-04-22T15:24:47Z</time></trkpt><trkpt lat="59.0940427780" lon="29.9950146675"><time>2026-04-22T15:24:50Z</time></trkpt><trkpt lat="59.0940427780" lon="29.9950146675"><time>2026-04-22T15:24:52Z</time></trkpt><trkpt lat="59.0940427780" lon="29.9950146675"><time>2026-04-22T15:24:55Z</time></trkpt><trkpt lat="59.0940427780" lon="29.9950146675"><time>2026-04-22T15:24:57Z</time></trkpt><trkpt lat="59.0940427780" lon="29.9949932098"><time>2026-04-22T15:25:00Z</time></trkpt><trkpt lat="59.0940427780" lon="29.9949932098"><time>2026-04-22T15:25:02Z</time></trkpt><trkpt lat="59.0940427780" lon="29.9949932098"><time>2026-04-22T15:25:05Z</time></trkpt><trkpt lat="59.0940427780" lon="29.9949932098"><time>2026-04-22T15:25:07Z</time></trkpt><trkpt lat="59.0940427780" lon="29.9949932098"><time>2026-04-22T15:25:10Z</time></trkpt><trkpt lat="59.0940642357" lon="29.9949502945"><time>2026-04-22T15:25:12Z</time></trkpt><trkpt lat="59.0940642357" lon="29.9948644638"><time>2026-04-22T15:25:15Z</time></trkpt><trkpt lat="59.0940642357" lon="29.9948215485"><time>2026-04-22T15:25:17Z</time></trkpt><trkpt lat="59.0940642357" lon="29.9947357178"><time>2026-04-22T15:25:20Z</time></trkpt><trkpt lat="59.0940642357" lon="29.9946498871"><time>2026-04-22T15:25:22Z</time></trkpt><trkpt lat="59.0940642357" lon="29.9945640564"><time>2026-04-22T15:25:25Z</time></trkpt><trkpt lat="59.0940213203" lon="29.9945425987"><time>2026-04-22T15:25:27Z</time></trkpt><trkpt lat="59.0939998627" lon="29.9944996834"><time>2026-04-22T15:25:30Z</time></trkpt><trkpt lat="59.0939569473" lon="29.9944782257"><time>2026-04-22T15:25:32Z</time></trkpt><trkpt lat="59.0939354897" lon="29.9944567680"><time>2026-04-22T15:25:35Z</time></trkpt><trkpt lat="59.0939354897" lon="29.9944138527"><time>2026-04-22T15:25:37Z</time></trkpt><trkpt lat="59.0938925743" lon="29.9943709373"><time>2026-04-22T15:25:40Z</time></trkpt><trkpt lat="59.0938282013" lon="29.9943494797"><time>2026-04-22T15:25:42Z</time></trkpt><trkpt lat="59.0937209129" lon="29.9943280220"><time>2026-04-22T15:25:45Z</time></trkpt><trkpt lat="59.0936779976" lon="29.9942851067"><time>2026-04-22T15:25:47Z</time></trkpt><trkpt lat="59.0936994553" lon="29.9943280220"><time>2026-04-22T15:25:50Z</time></trkpt><trkpt lat="59.0936994553" lon="29.9943280220"><time>2026-04-22T15:25:52Z</time></trkpt><trkpt lat="59.0936779976" lon="29.9943065643"><time>2026-04-22T15:25:55Z</time></trkpt><trkpt lat="59.0936565399" lon="29.9942851067"><time>2026-04-22T15:25:57Z</time></trkpt><trkpt lat="59.0936565399" lon="29.9942851067"><time>2026-04-22T15:26:00Z</time></trkpt><trkpt lat="59.0936565399" lon="29.9942851067"><time>2026-04-22T15:26:02Z</time></trkpt><trkpt lat="59.0936565399" lon="29.9942207336"><time>2026-04-22T15:26:05Z</time></trkpt><trkpt lat="59.0936565399" lon="29.9941992760"><time>2026-04-22T15:26:07Z</time></trkpt><trkpt lat="59.0936565399" lon="29.9941778183"><time>2026-04-22T15:26:10Z</time></trkpt><trkpt lat="59.0936565399" lon="29.9941563606"><time>2026-04-22T15:26:12Z</time></trkpt><trkpt lat="59.0936565399" lon="29.9940705299"><time>2026-04-22T15:26:15Z</time></trkpt><trkpt lat="59.0936565399" lon="29.9940276146"><time>2026-04-22T15:26:17Z</time></trkpt><trkpt lat="59.0936565399" lon="29.9939632416"><time>2026-04-22T15:26:20Z</time></trkpt><trkpt lat="59.0936350822" lon="29.9939203262"><time>2026-04-22T15:26:22Z</time></trkpt><trkpt lat="59.0936350822" lon="29.9938559532"><time>2026-04-22T15:26:25Z</time></trkpt><trkpt lat="59.0936136246" lon="29.9938130379"><time>2026-04-22T15:26:27Z</time></trkpt><trkpt lat="59.0935921669" lon="29.9937486649"><time>2026-04-22T15:26:30Z</time></trkpt><trkpt lat="59.0935921669" lon="29.9937057495"><time>2026-04-22T15:26:32Z</time></trkpt><trkpt lat="59.0935707092" lon="29.9936199188"><time>2026-04-22T15:26:35Z</time></trkpt><trkpt lat="59.0935707092" lon="29.9935984612"><time>2026-04-22T15:26:37Z</time></trkpt><trkpt lat="59.0935492516" lon="29.9935555458"><time>2026-04-22T15:26:40Z</time></trkpt><trkpt lat="59.0935492516" lon="29.9935126305"><time>2026-04-22T15:26:42Z</time></trkpt><trkpt lat="59.0935277939" lon="29.9935126305"><time>2026-04-22T15:26:45Z</time></trkpt><trkpt lat="59.0935277939" lon="29.9935126305"><time>2026-04-22T15:26:47Z</time></trkpt><trkpt lat="59.0935063362" lon="29.9934482574"><time>2026-04-22T15:26:50Z</time></trkpt><trkpt lat="59.0934848785" lon="29.9934053421"><time>2026-04-22T15:26:52Z</time></trkpt><trkpt lat="59.0934634209" lon="29.9933409691"><time>2026-04-22T15:26:55Z</time></trkpt><trkpt lat="59.0934634209" lon="29.9932980537"><time>2026-04-22T15:26:57Z</time></trkpt><trkpt lat="59.0934419632" lon="29.9932336807"><time>2026-04-22T15:27:00Z</time></trkpt><trkpt lat="59.0934205055" lon="29.9931907654"><time>2026-04-22T15:27:02Z</time></trkpt><trkpt lat="59.0933990479" lon="29.9931049347"><time>2026-04-22T15:27:05Z</time></trkpt><trkpt lat="59.0933990479" lon="29.9930620193"><time>2026-04-22T15:27:07Z</time></trkpt><trkpt lat="59.0933775902" lon="29.9929976463"><time>2026-04-22T15:27:10Z</time></trkpt><trkpt lat="59.0933775902" lon="29.9929547310"><time>2026-04-22T15:27:12Z</time></trkpt><trkpt lat="59.0933561325" lon="29.9928689003"><time>2026-04-22T15:27:15Z</time></trkpt><trkpt lat="59.0933346748" lon="29.9928259850"><time>2026-04-22T15:27:17Z</time></trkpt><trkpt lat="59.0933346748" lon="29.9927401543"><time>2026-04-22T15:27:20Z</time></trkpt><trkpt lat="59.0933346748" lon="29.9927186966"><time>2026-04-22T15:27:22Z</time></trkpt><trkpt lat="59.0933346748" lon="29.9926757813"><time>2026-04-22T15:27:25Z</time></trkpt><trkpt lat="59.0933346748" lon="29.9926543236"><time>2026-04-22T15:27:27Z</time></trkpt><trkpt lat="59.0933346748" lon="29.9925899506"><time>2026-04-22T15:27:30Z</time></trkpt><trkpt lat="59.0933346748" lon="29.9925684929"><time>2026-04-22T15:27:32Z</time></trkpt><trkpt lat="59.0933346748" lon="29.9925255775"><time>2026-04-22T15:27:35Z</time></trkpt><trkpt lat="59.0933132172" lon="29.9924612045"><time>2026-04-22T15:27:37Z</time></trkpt><trkpt lat="59.0932917595" lon="29.9923753738"><time>2026-04-22T15:27:40Z</time></trkpt><trkpt lat="59.0932703018" lon="29.9923324585"><time>2026-04-22T15:27:42Z</time></trkpt><trkpt lat="59.0932703018" lon="29.9922466278"><time>2026-04-22T15:27:45Z</time></trkpt><trkpt lat="59.0932703018" lon="29.9922037125"><time>2026-04-22T15:27:47Z</time></trkpt><trkpt lat="59.0932488441" lon="29.9921607971"><time>2026-04-22T15:27:50Z</time></trkpt><trkpt lat="59.0932488441" lon="29.9921178818"><time>2026-04-22T15:27:52Z</time></trkpt><trkpt lat="59.0932273865" lon="29.9920749664"><time>2026-04-22T15:27:55Z</time></trkpt><trkpt lat="59.0932273865" lon="29.9920320511"><time>2026-04-22T15:27:57Z</time></trkpt><trkpt lat="59.0931844711" lon="29.9919676781"><time>2026-04-22T15:28:00Z</time></trkpt><trkpt lat="59.0931844711" lon="29.9919247627"><time>2026-04-22T15:28:02Z</time></trkpt><trkpt lat="59.0931844711" lon="29.9918818474"><time>2026-04-22T15:28:05Z</time></trkpt><trkpt lat="59.0931844711" lon="29.9918174744"><time>2026-04-22T15:28:07Z</time></trkpt><trkpt lat="59.0931630135" lon="29.9917531013"><time>2026-04-22T15:28:10Z</time></trkpt><trkpt lat="59.0931415558" lon="29.9916887283"><time>2026-04-22T15:28:12Z</time></trkpt><trkpt lat="59.0931415558" lon="29.9916028976"><time>2026-04-22T15:28:15Z</time></trkpt><trkpt lat="59.0931200981" lon="29.9915385246"><time>2026-04-22T15:28:17Z</time></trkpt><trkpt lat="59.0930986404" lon="29.9914526939"><time>2026-04-22T15:28:20Z</time></trkpt><trkpt lat="59.0930986404" lon="29.9914097786"><time>2026-04-22T15:28:22Z</time></trkpt><trkpt lat="59.0930771828" lon="29.9913454056"><time>2026-04-22T15:28:25Z</time></trkpt><trkpt lat="59.0930986404" lon="29.9913024902"><time>2026-04-22T15:28:27Z</time></trkpt><trkpt lat="59.0930986404" lon="29.9913024902"><time>2026-04-22T15:28:30Z</time></trkpt><trkpt lat="59.0930771828" lon="29.9912810326"><time>2026-04-22T15:28:32Z</time></trkpt><trkpt lat="59.0930986404" lon="29.9912595749"><time>2026-04-22T15:28:35Z</time></trkpt><trkpt lat="59.0930986404" lon="29.9912595749"><time>2026-04-22T15:28:37Z</time></trkpt><trkpt lat="59.0930986404" lon="29.9912595749"><time>2026-04-22T15:28:40Z</time></trkpt><trkpt lat="59.0930986404" lon="29.9912595749"><time>2026-04-22T15:28:42Z</time></trkpt><trkpt lat="59.0930771828" lon="29.9911737442"><time>2026-04-22T15:28:45Z</time></trkpt><trkpt lat="59.0930557251" lon="29.9910664558"><time>2026-04-22T15:28:47Z</time></trkpt><trkpt lat="59.0930342674" lon="29.9908947945"><time>2026-04-22T15:28:50Z</time></trkpt><trkpt lat="59.0930128098" lon="29.9907660484"><time>2026-04-22T15:28:52Z</time></trkpt><trkpt lat="59.0929913521" lon="29.9906373024"><time>2026-04-22T15:28:55Z</time></trkpt><trkpt lat="59.0929913521" lon="29.9905514717"><time>2026-04-22T15:28:57Z</time></trkpt><trkpt lat="59.0929698944" lon="29.9904656410"><time>2026-04-22T15:29:00Z</time></trkpt><trkpt lat="59.0929913521" lon="29.9904227257"><time>2026-04-22T15:29:02Z</time></trkpt><trkpt lat="59.0929913521" lon="29.9903798103"><time>2026-04-22T15:29:05Z</time></trkpt><trkpt lat="59.0929698944" lon="29.9903154373"><time>2026-04-22T15:29:07Z</time></trkpt><trkpt lat="59.0929698944" lon="29.9902296066"><time>2026-04-22T15:29:10Z</time></trkpt><trkpt lat="59.0929484367" lon="29.9902081490"><time>2026-04-22T15:29:12Z</time></trkpt><trkpt lat="59.0929484367" lon="29.9902081490"><time>2026-04-22T15:29:15Z</time></trkpt><trkpt lat="59.0929484367" lon="29.9902081490"><time>2026-04-22T15:29:17Z</time></trkpt><trkpt lat="59.0929484367" lon="29.9902081490"><time>2026-04-22T15:29:20Z</time></trkpt><trkpt lat="59.0929484367" lon="29.9902081490"><time>2026-04-22T15:29:22Z</time></trkpt><trkpt lat="59.0929484367" lon="29.9902081490"><time>2026-04-22T15:29:25Z</time></trkpt><trkpt lat="59.0929484367" lon="29.9902081490"><time>2026-04-22T15:29:27Z</time></trkpt><trkpt lat="59.0929269791" lon="29.9901437759"><time>2026-04-22T15:29:30Z</time></trkpt><trkpt lat="59.0929269791" lon="29.9900150299"><time>2026-04-22T15:29:32Z</time></trkpt><trkpt lat="59.0928840637" lon="29.9898219109"><time>2026-04-22T15:29:35Z</time></trkpt><trkpt lat="59.0928411484" lon="29.9896931648"><time>2026-04-22T15:29:37Z</time></trkpt><trkpt lat="59.0928196907" lon="29.9895215034"><time>2026-04-22T15:29:40Z</time></trkpt><trkpt lat="59.0927982330" lon="29.9894571304"><time>2026-04-22T15:29:42Z</time></trkpt><trkpt lat="59.0927767754" lon="29.9893927574"><time>2026-04-22T15:29:45Z</time></trkpt><trkpt lat="59.0927767754" lon="29.9893069267"><time>2026-04-22T15:29:47Z</time></trkpt><trkpt lat="59.0927767754" lon="29.9891781807"><time>2026-04-22T15:29:50Z</time></trkpt><trkpt lat="59.0927767754" lon="29.9891352654"><time>2026-04-22T15:29:52Z</time></trkpt><trkpt lat="59.0927553177" lon="29.9890494347"><time>2026-04-22T15:29:55Z</time></trkpt><trkpt lat="59.0927553177" lon="29.9890279770"><time>2026-04-22T15:29:57Z</time></trkpt><trkpt lat="59.0927124023" lon="29.9889206886"><time>2026-04-22T15:30:00Z</time></trkpt><trkpt lat="59.0927124023" lon="29.9888777733"><time>2026-04-22T15:30:02Z</time></trkpt><trkpt lat="59.0926909447" lon="29.9887704849"><time>2026-04-22T15:30:05Z</time></trkpt><trkpt lat="59.0926694870" lon="29.9887061119"><time>2026-04-22T15:30:07Z</time></trkpt><trkpt lat="59.0926265717" lon="29.9885344505"><time>2026-04-22T15:30:10Z</time></trkpt><trkpt lat="59.0926265717" lon="29.9885344505"><time>2026-04-22T15:30:12Z</time></trkpt><trkpt lat="59.0926480293" lon="29.9886631966"><time>2026-04-22T15:30:15Z</time></trkpt><trkpt lat="59.0926265717" lon="29.9885773659"><time>2026-04-22T15:30:17Z</time></trkpt><trkpt lat="59.0926051140" lon="29.9884271622"><time>2026-04-22T15:30:20Z</time></trkpt><trkpt lat="59.0925836563" lon="29.9883842468"><time>2026-04-22T15:30:22Z</time></trkpt><trkpt lat="59.0925621986" lon="29.9883413315"><time>2026-04-22T15:30:25Z</time></trkpt><trkpt lat="59.0925621986" lon="29.9882984161"><time>2026-04-22T15:30:27Z</time></trkpt><trkpt lat="59.0925407410" lon="29.9882340431"><time>2026-04-22T15:30:30Z</time></trkpt><trkpt lat="59.0925192833" lon="29.9881911278"><time>2026-04-22T15:30:32Z</time></trkpt><trkpt lat="59.0925192833" lon="29.9881267548"><time>2026-04-22T15:30:35Z</time></trkpt><trkpt lat="59.0925192833" lon="29.9880623817"><time>2026-04-22T15:30:37Z</time></trkpt><trkpt lat="59.0924978256" lon="29.9879765511"><time>2026-04-22T15:30:40Z</time></trkpt><trkpt lat="59.0924978256" lon="29.9879550934"><time>2026-04-22T15:30:42Z</time></trkpt><trkpt lat="59.0924763680" lon="29.9878907204"><time>2026-04-22T15:30:45Z</time></trkpt><trkpt lat="59.0924763680" lon="29.9878263474"><time>2026-04-22T15:30:47Z</time></trkpt><trkpt lat="59.0924763680" lon="29.9877619743"><time>2026-04-22T15:30:50Z</time></trkpt><trkpt lat="59.0924549103" lon="29.9877190590"><time>2026-04-22T15:30:52Z</time></trkpt><trkpt lat="59.0924334526" lon="29.9876332283"><time>2026-04-22T15:30:55Z</time></trkpt><trkpt lat="59.0924549103" lon="29.9875688553"><time>2026-04-22T15:30:57Z</time></trkpt><trkpt lat="59.0924334526" lon="29.9875044823"><time>2026-04-22T15:31:00Z</time></trkpt><trkpt lat="59.0924119949" lon="29.9874615669"><time>2026-04-22T15:31:02Z</time></trkpt><trkpt lat="59.0923905373" lon="29.9873971939"><time>2026-04-22T15:31:05Z</time></trkpt><trkpt lat="59.0923690796" lon="29.9873542786"><time>2026-04-22T15:31:07Z</time></trkpt><trkpt lat="59.0923476219" lon="29.9872899055"><time>2026-04-22T15:31:10Z</time></trkpt><trkpt lat="59.0923476219" lon="29.9872255325"><time>2026-04-22T15:31:12Z</time></trkpt><trkpt lat="59.0923261642" lon="29.9871611595"><time>2026-04-22T15:31:15Z</time></trkpt><trkpt lat="59.0923261642" lon="29.9871182442"><time>2026-04-22T15:31:17Z</time></trkpt><trkpt lat="59.0923261642" lon="29.9870324135"><time>2026-04-22T15:31:20Z</time></trkpt><trkpt lat="59.0923261642" lon="29.9869894981"><time>2026-04-22T15:31:22Z</time></trkpt><trkpt lat="59.0923261642" lon="29.9869251251"><time>2026-04-22T15:31:25Z</time></trkpt><trkpt lat="59.0923047066" lon="29.9868607521"><time>2026-04-22T15:31:27Z</time></trkpt><trkpt lat="59.0922832489" lon="29.9867963791"><time>2026-04-22T15:31:30Z</time></trkpt><trkpt lat="59.0922832489" lon="29.9867534637"><time>2026-04-22T15:31:32Z</time></trkpt><trkpt lat="59.0922617912" lon="29.9867105484"><time>2026-04-22T15:31:35Z</time></trkpt><trkpt lat="59.0922617912" lon="29.9866676331"><time>2026-04-22T15:31:37Z</time></trkpt><trkpt lat="59.0922617912" lon="29.9866890907"><time>2026-04-22T15:31:40Z</time></trkpt><trkpt lat="59.0922617912" lon="29.9866890907"><time>2026-04-22T15:31:42Z</time></trkpt><trkpt lat="59.0922832489" lon="29.9866461754"><time>2026-04-22T15:31:45Z</time></trkpt><trkpt lat="59.0922617912" lon="29.9866461754"><time>2026-04-22T15:31:47Z</time></trkpt><trkpt lat="59.0922617912" lon="29.9866461754"><time>2026-04-22T15:31:50Z</time></trkpt><trkpt lat="59.0922617912" lon="29.9866461754"><time>2026-04-22T15:31:52Z</time></trkpt><trkpt lat="59.0922617912" lon="29.9865818024"><time>2026-04-22T15:31:55Z</time></trkpt><trkpt lat="59.0922617912" lon="29.9865388870"><time>2026-04-22T15:31:57Z</time></trkpt><trkpt lat="59.0922188759" lon="29.9865174294"><time>2026-04-22T15:32:00Z</time></trkpt><trkpt lat="59.0922188759" lon="29.9865174294"><time>2026-04-22T15:32:02Z</time></trkpt><trkpt lat="59.0922188759" lon="29.9865388870"><time>2026-04-22T15:32:05Z</time></trkpt><trkpt lat="59.0922188759" lon="29.9865388870"><time>2026-04-22T15:32:07Z</time></trkpt><trkpt lat="59.0922188759" lon="29.9865388870"><time>2026-04-22T15:32:10Z</time></trkpt><trkpt lat="59.0922188759" lon="29.9865388870"><time>2026-04-22T15:32:12Z</time></trkpt><trkpt lat="59.0922188759" lon="29.9865388870"><time>2026-04-22T15:32:15Z</time></trkpt><trkpt lat="59.0922188759" lon="29.9865388870"><time>2026-04-22T15:32:17Z</time></trkpt><trkpt lat="59.0922188759" lon="29.9865388870"><time>2026-04-22T15:32:20Z</time></trkpt><trkpt lat="59.0922403336" lon="29.9865388870"><time>2026-04-22T15:32:22Z</time></trkpt><trkpt lat="59.0922617912" lon="29.9865603447"><time>2026-04-22T15:32:25Z</time></trkpt></trkseg></trk></gpx>